<?xml version='1.0' encoding='UTF-8'?><gpx version="1.1" creator="JPX - https://github.com/jenetics/jpx" xmlns="http://www.topografix.com/GPX/1/1"><trk><trkseg><trkpt lat="45.54420625971571" lon="11.880190283585128"><ele>20.0</ele><time>2026-04-16T07:55:07Z</time></trkpt><trkpt lat="45.54413532836167" lon="11.880190494839413"><ele>20.0</ele><time>2026-04-16T07:55:09Z</time></trkpt><trkpt lat="45.54404906599146" lon="11.880159497437583"><ele>20.0</ele><time>2026-04-16T07:55:12Z</time></trkpt><trkpt lat="45.54399540649613" lon="11.880091409733117"><ele>20.0</ele><time>2026-04-16T07:55:15Z</time></trkpt><trkpt lat="45.54401713934467" lon="11.879974710197482"><ele>20.0</ele><time>2026-04-16T07:55:17Z</time></trkpt><trkpt lat="45.54403536306041" lon="11.879870260305603"><ele>20.0</ele><time>2026-04-16T07:55:19Z</time></trkpt><trkpt lat="45.54405778925484" lon="11.879754287013487"><ele>20.166666666666668</ele><time>2026-04-16T07:55:21Z</time></trkpt><trkpt lat="45.544078445255145" lon="11.879643477389394"><ele>20.333333333333336</ele><time>2026-04-16T07:55:23Z</time></trkpt><trkpt lat="45.544104762460954" lon="11.87951948272374"><ele>20.5</ele><time>2026-04-16T07:55:25Z</time></trkpt><trkpt lat="45.5441307950085" lon="11.879405946397759"><ele>20.666666666666668</ele><time>2026-04-16T07:55:27Z</time></trkpt><trkpt lat="45.544149444884646" lon="11.87929489408341"><ele>20.833333333333332</ele><time>2026-04-16T07:55:29Z</time></trkpt><trkpt lat="45.544177364945696" lon="11.879190813366987"><ele>21.0</ele><time>2026-04-16T07:55:31Z</time></trkpt><trkpt lat="45.54419508983593" lon="11.879077680306"><ele>21.166666666666668</ele><time>2026-04-16T07:55:33Z</time></trkpt><trkpt lat="45.544202894043096" lon="11.87895833265219"><ele>21.333333333333332</ele><time>2026-04-16T07:55:35Z</time></trkpt><trkpt lat="45.54421988814226" lon="11.87886271499491"><ele>21.5</ele><time>2026-04-16T07:55:37Z</time></trkpt><trkpt lat="45.54424682646218" lon="11.878765163450824"><ele>21.666666666666664</ele><time>2026-04-16T07:55:39Z</time></trkpt><trkpt lat="45.544266082757375" lon="11.878664593918659"><ele>21.833333333333332</ele><time>2026-04-16T07:55:41Z</time></trkpt><trkpt lat="45.5442804261166" lon="11.878549806874318"><ele>22.0</ele><time>2026-04-16T07:55:44Z</time></trkpt><trkpt lat="45.544369789754086" lon="11.878544558778282"><ele>22.0</ele><time>2026-04-16T07:55:46Z</time></trkpt><trkpt lat="45.54446545368632" lon="11.878592866737447"><ele>22.0</ele><time>2026-04-16T07:55:48Z</time></trkpt><trkpt lat="45.54456067961655" lon="11.878620882824682"><ele>22.0</ele><time>2026-04-16T07:55:50Z</time></trkpt><trkpt lat="45.54465415152264" lon="11.878662370614506"><ele>22.0</ele><time>2026-04-16T07:55:52Z</time></trkpt><trkpt lat="45.54475964584154" lon="11.878704259679072"><ele>22.0</ele><time>2026-04-16T07:55:54Z</time></trkpt><trkpt lat="45.54486650060983" lon="11.878745721904718"><ele>22.0</ele><time>2026-04-16T07:55:56Z</time></trkpt><trkpt lat="45.54496448819002" lon="11.878785332496571"><ele>22.0</ele><time>2026-04-16T07:55:58Z</time></trkpt><trkpt lat="45.545060643927144" lon="11.878822310396354"><ele>22.0</ele><time>2026-04-16T07:56:00Z</time></trkpt><trkpt lat="45.545163139261845" lon="11.878866467505455"><ele>22.0</ele><time>2026-04-16T07:56:02Z</time></trkpt><trkpt lat="45.545275024319636" lon="11.878905705236168"><ele>22.0</ele><time>2026-04-16T07:56:04Z</time></trkpt><trkpt lat="45.545395213762674" lon="11.878953041512144"><ele>22.0</ele><time>2026-04-16T07:56:06Z</time></trkpt><trkpt lat="45.54549569104064" lon="11.878993515370446"><ele>22.0</ele><time>2026-04-16T07:56:08Z</time></trkpt><trkpt lat="45.54560872979745" lon="11.879038601594214"><ele>22.0</ele><time>2026-04-16T07:56:10Z</time></trkpt><trkpt lat="45.545722002563245" lon="11.87908388196373"><ele>22.0</ele><time>2026-04-16T07:56:12Z</time></trkpt><trkpt lat="45.545833239986464" lon="11.879128670344333"><ele>22.0</ele><time>2026-04-16T07:56:14Z</time></trkpt><trkpt lat="45.54593953328513" lon="11.879174983811918"><ele>22.0</ele><time>2026-04-16T07:56:16Z</time></trkpt><trkpt lat="45.546041141639435" lon="11.879211498806626"><ele>22.0</ele><time>2026-04-16T07:56:18Z</time></trkpt><trkpt lat="45.54615430054985" lon="11.879251858057195"><ele>22.0</ele><time>2026-04-16T07:56:20Z</time></trkpt><trkpt lat="45.5462711333933" lon="11.879297247754348"><ele>21.5</ele><time>2026-04-16T07:56:22Z</time></trkpt><trkpt lat="45.54639244101105" lon="11.879348529700863"><ele>21.0</ele><time>2026-04-16T07:56:24Z</time></trkpt><trkpt lat="45.546456444568015" lon="11.879371706134659"><ele>20.5</ele><time>2026-04-16T07:56:25Z</time></trkpt><trkpt lat="45.546520552371234" lon="11.87939357226581"><ele>20.0</ele><time>2026-04-16T07:56:26Z</time></trkpt><trkpt lat="45.54658628167469" lon="11.879422343611731"><ele>19.5</ele><time>2026-04-16T07:56:27Z</time></trkpt><trkpt lat="45.54664977149507" lon="11.879445885807565"><ele>19.0</ele><time>2026-04-16T07:56:28Z</time></trkpt><trkpt lat="45.54671458661007" lon="11.879473095756364"><ele>19.0</ele><time>2026-04-16T07:56:29Z</time></trkpt><trkpt lat="45.54677849154532" lon="11.87949171064068"><ele>19.0</ele><time>2026-04-16T07:56:30Z</time></trkpt><trkpt lat="45.54684078197071" lon="11.879514261299589"><ele>19.0</ele><time>2026-04-16T07:56:31Z</time></trkpt><trkpt lat="45.546902716331395" lon="11.879544101125678"><ele>19.0</ele><time>2026-04-16T07:56:32Z</time></trkpt><trkpt lat="45.54696483840496" lon="11.87956583980329"><ele>19.0</ele><time>2026-04-16T07:56:33Z</time></trkpt><trkpt lat="45.547029376492034" lon="11.879587252188859"><ele>19.0</ele><time>2026-04-16T07:56:34Z</time></trkpt><trkpt lat="45.547093341488434" lon="11.879612825635993"><ele>19.0</ele><time>2026-04-16T07:56:35Z</time></trkpt><trkpt lat="45.54715388772844" lon="11.879638085953063"><ele>19.333333333333332</ele><time>2026-04-16T07:56:36Z</time></trkpt><trkpt lat="45.54721789258305" lon="11.87966327009704"><ele>19.666666666666664</ele><time>2026-04-16T07:56:37Z</time></trkpt><trkpt lat="45.54728173647187" lon="11.879684561279873"><ele>20.0</ele><time>2026-04-16T07:56:38Z</time></trkpt><trkpt lat="45.54734248317062" lon="11.879709828034223"><ele>20.333333333333332</ele><time>2026-04-16T07:56:39Z</time></trkpt><trkpt lat="45.54746008869297" lon="11.879758325901431"><ele>20.666666666666668</ele><time>2026-04-16T07:56:41Z</time></trkpt><trkpt lat="45.54757395228897" lon="11.879803438456511"><ele>21.0</ele><time>2026-04-16T07:56:43Z</time></trkpt><trkpt lat="45.547687604726484" lon="11.87985081426314"><ele>21.0</ele><time>2026-04-16T07:56:45Z</time></trkpt><trkpt lat="45.54780596043989" lon="11.87990280447064"><ele>21.0</ele><time>2026-04-16T07:56:47Z</time></trkpt><trkpt lat="45.54792730021949" lon="11.879950564096834"><ele>21.0</ele><time>2026-04-16T07:56:49Z</time></trkpt><trkpt lat="45.547989528813154" lon="11.879981469253657"><ele>21.0</ele><time>2026-04-16T07:56:50Z</time></trkpt><trkpt lat="45.548051857304806" lon="11.880013694479228"><ele>21.0</ele><time>2026-04-16T07:56:51Z</time></trkpt><trkpt lat="45.54811586583616" lon="11.88003932072761"><ele>21.0</ele><time>2026-04-16T07:56:52Z</time></trkpt><trkpt lat="45.548178967375996" lon="11.880061367291594"><ele>21.0</ele><time>2026-04-16T07:56:53Z</time></trkpt><trkpt lat="45.548294533013596" lon="11.88011912146959"><ele>21.0</ele><time>2026-04-16T07:56:55Z</time></trkpt><trkpt lat="45.5483570284467" lon="11.88014586167378"><ele>21.0</ele><time>2026-04-16T07:56:56Z</time></trkpt><trkpt lat="45.548417305722396" lon="11.88017528786103"><ele>21.0</ele><time>2026-04-16T07:56:57Z</time></trkpt><trkpt lat="45.54853654159621" lon="11.880230813009367"><ele>21.0</ele><time>2026-04-16T07:56:59Z</time></trkpt><trkpt lat="45.548597744019084" lon="11.880253154724599"><ele>21.0</ele><time>2026-04-16T07:57:00Z</time></trkpt><trkpt lat="45.548659089647515" lon="11.880276179038704"><ele>21.166666666666668</ele><time>2026-04-16T07:57:01Z</time></trkpt><trkpt lat="45.54872047536472" lon="11.880304388680178"><ele>21.333333333333332</ele><time>2026-04-16T07:57:02Z</time></trkpt><trkpt lat="45.54883932927221" lon="11.88035514231428"><ele>21.5</ele><time>2026-04-16T07:57:04Z</time></trkpt><trkpt lat="45.54890039359982" lon="11.880380685956457"><ele>21.666666666666664</ele><time>2026-04-16T07:57:05Z</time></trkpt><trkpt lat="45.54896182755663" lon="11.880404332518522"><ele>21.833333333333332</ele><time>2026-04-16T07:57:06Z</time></trkpt><trkpt lat="45.54902469388994" lon="11.880428331821136"><ele>22.0</ele><time>2026-04-16T07:57:07Z</time></trkpt><trkpt lat="45.54914808595094" lon="11.880474225061947"><ele>22.0</ele><time>2026-04-16T07:57:09Z</time></trkpt><trkpt lat="45.54920915384501" lon="11.88049859669532"><ele>22.0</ele><time>2026-04-16T07:57:10Z</time></trkpt><trkpt lat="45.5492716198715" lon="11.880518535156504"><ele>22.0</ele><time>2026-04-16T07:57:11Z</time></trkpt><trkpt lat="45.549392120370385" lon="11.880566165815704"><ele>22.0</ele><time>2026-04-16T07:57:13Z</time></trkpt><trkpt lat="45.54951007820097" lon="11.880612253334991"><ele>22.0</ele><time>2026-04-16T07:57:15Z</time></trkpt><trkpt lat="45.549631816841305" lon="11.880660219743287"><ele>21.833333333333332</ele><time>2026-04-16T07:57:17Z</time></trkpt><trkpt lat="45.54969355286476" lon="11.880682929282692"><ele>21.666666666666664</ele><time>2026-04-16T07:57:18Z</time></trkpt><trkpt lat="45.549814631586386" lon="11.88073289303849"><ele>21.5</ele><time>2026-04-16T07:57:20Z</time></trkpt><trkpt lat="45.54987872806862" lon="11.880756792163735"><ele>21.333333333333332</ele><time>2026-04-16T07:57:21Z</time></trkpt><trkpt lat="45.54994370508501" lon="11.880775840764741"><ele>21.166666666666668</ele><time>2026-04-16T07:57:22Z</time></trkpt><trkpt lat="45.55000951987739" lon="11.880794778602642"><ele>21.0</ele><time>2026-04-16T07:57:23Z</time></trkpt><trkpt lat="45.55007902443707" lon="11.880819214871456"><ele>21.0</ele><time>2026-04-16T07:57:24Z</time></trkpt><trkpt lat="45.55014762550892" lon="11.880845933862666"><ele>21.0</ele><time>2026-04-16T07:57:25Z</time></trkpt><trkpt lat="45.55021534032055" lon="11.880872131958512"><ele>21.0</ele><time>2026-04-16T07:57:26Z</time></trkpt><trkpt lat="45.55028230663164" lon="11.880887651425395"><ele>21.0</ele><time>2026-04-16T07:57:27Z</time></trkpt><trkpt lat="45.550349155282696" lon="11.880908618280472"><ele>21.0</ele><time>2026-04-16T07:57:28Z</time></trkpt><trkpt lat="45.55042367142296" lon="11.880921751068426"><ele>21.0</ele><time>2026-04-16T07:57:29Z</time></trkpt><trkpt lat="45.55048899766676" lon="11.8809545213781"><ele>21.0</ele><time>2026-04-16T07:57:30Z</time></trkpt><trkpt lat="45.55055189821588" lon="11.880980049061682"><ele>21.0</ele><time>2026-04-16T07:57:31Z</time></trkpt><trkpt lat="45.55061824167571" lon="11.880989268898148"><ele>21.0</ele><time>2026-04-16T07:57:32Z</time></trkpt><trkpt lat="45.55068392874568" lon="11.880995958410304"><ele>21.0</ele><time>2026-04-16T07:57:33Z</time></trkpt><trkpt lat="45.550750111293205" lon="11.88100637751541"><ele>21.0</ele><time>2026-04-16T07:57:34Z</time></trkpt><trkpt lat="45.55081642248327" lon="11.88100882521877"><ele>21.0</ele><time>2026-04-16T07:57:35Z</time></trkpt><trkpt lat="45.550882823477814" lon="11.8810094860841"><ele>21.0</ele><time>2026-04-16T07:57:36Z</time></trkpt><trkpt lat="45.55094665526992" lon="11.881014977319056"><ele>21.0</ele><time>2026-04-16T07:57:37Z</time></trkpt><trkpt lat="45.55100978610523" lon="11.881025356904065"><ele>21.0</ele><time>2026-04-16T07:57:38Z</time></trkpt><trkpt lat="45.55113069016934" lon="11.88104118278965"><ele>21.0</ele><time>2026-04-16T07:57:40Z</time></trkpt><trkpt lat="45.5512426082239" lon="11.881058246695682"><ele>21.0</ele><time>2026-04-16T07:57:42Z</time></trkpt><trkpt lat="45.55134767041094" lon="11.881073002672519"><ele>21.0</ele><time>2026-04-16T07:57:44Z</time></trkpt><trkpt lat="45.55144153064833" lon="11.88109331506185"><ele>21.0</ele><time>2026-04-16T07:57:46Z</time></trkpt><trkpt lat="45.55153140886354" lon="11.881116052936882"><ele>21.200000000000003</ele><time>2026-04-16T07:57:48Z</time></trkpt><trkpt lat="45.551596632999726" lon="11.881123197052785"><ele>21.400000000000002</ele><time>2026-04-16T07:57:50Z</time></trkpt><trkpt lat="45.551591195058606" lon="11.880876586364453"><ele>21.6</ele><time>2026-04-16T07:57:56Z</time></trkpt><trkpt lat="45.55156168666694" lon="11.880766583794458"><ele>21.8</ele><time>2026-04-16T07:57:58Z</time></trkpt><trkpt lat="45.55153340329917" lon="11.880646739107346"><ele>22.0</ele><time>2026-04-16T07:58:00Z</time></trkpt><trkpt lat="45.55149586385307" lon="11.880517603581598"><ele>22.0</ele><time>2026-04-16T07:58:02Z</time></trkpt><trkpt lat="45.551464193698536" lon="11.880376415164763"><ele>22.0</ele><time>2026-04-16T07:58:04Z</time></trkpt><trkpt lat="45.551434384146866" lon="11.880225416191381"><ele>22.0</ele><time>2026-04-16T07:58:06Z</time></trkpt><trkpt lat="45.55140545020769" lon="11.880076882890675"><ele>22.0</ele><time>2026-04-16T07:58:08Z</time></trkpt><trkpt lat="45.551366299210464" lon="11.879929368856345"><ele>22.0</ele><time>2026-04-16T07:58:10Z</time></trkpt><trkpt lat="45.55133114634957" lon="11.8797761434257"><ele>22.0</ele><time>2026-04-16T07:58:12Z</time></trkpt><trkpt lat="45.55129542411818" lon="11.879616124098291"><ele>22.0</ele><time>2026-04-16T07:58:14Z</time></trkpt><trkpt lat="45.55125232647933" lon="11.879454230530207"><ele>22.0</ele><time>2026-04-16T07:58:16Z</time></trkpt><trkpt lat="45.551223139956335" lon="11.879283839345288"><ele>22.0</ele><time>2026-04-16T07:58:18Z</time></trkpt><trkpt lat="45.55119250605318" lon="11.879122908148583"><ele>21.75</ele><time>2026-04-16T07:58:20Z</time></trkpt><trkpt lat="45.551161034479136" lon="11.878952058168275"><ele>21.5</ele><time>2026-04-16T07:58:22Z</time></trkpt><trkpt lat="45.551130959876666" lon="11.8787861267283"><ele>21.25</ele><time>2026-04-16T07:58:23.999Z</time></trkpt><trkpt lat="45.55109180970457" lon="11.878627847541031"><ele>21.0</ele><time>2026-04-16T07:58:25.999Z</time></trkpt><trkpt lat="45.55106871564714" lon="11.878462659937044"><ele>21.25</ele><time>2026-04-16T07:58:27.999Z</time></trkpt><trkpt lat="45.5510289861868" lon="11.878306526447659"><ele>21.5</ele><time>2026-04-16T07:58:29.999Z</time></trkpt><trkpt lat="45.55099971163957" lon="11.878147819168776"><ele>21.75</ele><time>2026-04-16T07:58:31.999Z</time></trkpt><trkpt lat="45.55097740795512" lon="11.877985817081262"><ele>22.0</ele><time>2026-04-16T07:58:33.999Z</time></trkpt><trkpt lat="45.550952486308304" lon="11.877833005212768"><ele>22.0</ele><time>2026-04-16T07:58:35.999Z</time></trkpt><trkpt lat="45.55092153467211" lon="11.877693731565593"><ele>22.0</ele><time>2026-04-16T07:58:37.999Z</time></trkpt><trkpt lat="45.55089619752575" lon="11.877540791687156"><ele>22.0</ele><time>2026-04-16T07:58:40Z</time></trkpt><trkpt lat="45.550871130526424" lon="11.877376568329867"><ele>22.0</ele><time>2026-04-16T07:58:42Z</time></trkpt><trkpt lat="45.55084473076088" lon="11.877217923042394"><ele>22.0</ele><time>2026-04-16T07:58:44Z</time></trkpt><trkpt lat="45.55081652357121" lon="11.877061681342157"><ele>22.200000000000003</ele><time>2026-04-16T07:58:46Z</time></trkpt><trkpt lat="45.55078619055508" lon="11.876904263524855"><ele>22.4</ele><time>2026-04-16T07:58:48Z</time></trkpt><trkpt lat="45.55076300897745" lon="11.876750062241303"><ele>22.6</ele><time>2026-04-16T07:58:50Z</time></trkpt><trkpt lat="45.55074484926073" lon="11.876604823648814"><ele>22.799999999999997</ele><time>2026-04-16T07:58:52Z</time></trkpt><trkpt lat="45.55071874688633" lon="11.876471368822074"><ele>23.0</ele><time>2026-04-16T07:58:54Z</time></trkpt><trkpt lat="45.55069153566391" lon="11.876342935990728"><ele>22.666666666666668</ele><time>2026-04-16T07:58:56Z</time></trkpt><trkpt lat="45.55066464185175" lon="11.87622584816936"><ele>22.333333333333336</ele><time>2026-04-16T07:58:58Z</time></trkpt><trkpt lat="45.550653869682606" lon="11.876108298079293"><ele>22.0</ele><time>2026-04-16T07:59:00Z</time></trkpt><trkpt lat="45.55063910799334" lon="11.875996851949434"><ele>21.666666666666668</ele><time>2026-04-16T07:59:02Z</time></trkpt><trkpt lat="45.55061429914464" lon="11.875861853813815"><ele>21.333333333333332</ele><time>2026-04-16T07:59:04Z</time></trkpt><trkpt lat="45.55059047947716" lon="11.875723522067403"><ele>21.0</ele><time>2026-04-16T07:59:06Z</time></trkpt><trkpt lat="45.55056274982248" lon="11.875573459876133"><ele>21.0</ele><time>2026-04-16T07:59:08Z</time></trkpt><trkpt lat="45.55053607099732" lon="11.875410356670228"><ele>21.0</ele><time>2026-04-16T07:59:10Z</time></trkpt><trkpt lat="45.55051279336685" lon="11.87524262842786"><ele>21.0</ele><time>2026-04-16T07:59:12Z</time></trkpt><trkpt lat="45.550480556786674" lon="11.875074858356633"><ele>21.0</ele><time>2026-04-16T07:59:14Z</time></trkpt><trkpt lat="45.55046586959641" lon="11.874986974480858"><ele>21.0</ele><time>2026-04-16T07:59:15Z</time></trkpt><trkpt lat="45.55043454751718" lon="11.874820494031187"><ele>21.0</ele><time>2026-04-16T07:59:17Z</time></trkpt><trkpt lat="45.55040759512394" lon="11.874657087931121"><ele>21.0</ele><time>2026-04-16T07:59:19Z</time></trkpt><trkpt lat="45.5503803751453" lon="11.874502564660213"><ele>21.0</ele><time>2026-04-16T07:59:21Z</time></trkpt><trkpt lat="45.550359640350216" lon="11.874341831836809"><ele>21.0</ele><time>2026-04-16T07:59:23Z</time></trkpt><trkpt lat="45.55033856185325" lon="11.874169792644357"><ele>21.200000000000003</ele><time>2026-04-16T07:59:25Z</time></trkpt><trkpt lat="45.5503125509022" lon="11.874007519594688"><ele>21.400000000000002</ele><time>2026-04-16T07:59:27Z</time></trkpt><trkpt lat="45.550282814850895" lon="11.873852139149717"><ele>21.6</ele><time>2026-04-16T07:59:29Z</time></trkpt><trkpt lat="45.550258313929895" lon="11.873717581389322"><ele>21.8</ele><time>2026-04-16T07:59:31Z</time></trkpt><trkpt lat="45.550236732941656" lon="11.87358439323391"><ele>22.0</ele><time>2026-04-16T07:59:33Z</time></trkpt><trkpt lat="45.55021859799999" lon="11.873480200853853"><ele>21.857142857142858</ele><time>2026-04-16T07:59:35Z</time></trkpt><trkpt lat="45.550192601881506" lon="11.87336802837374"><ele>21.714285714285715</ele><time>2026-04-16T07:59:38Z</time></trkpt><trkpt lat="45.55012191009148" lon="11.873365704303874"><ele>21.57142857142857</ele><time>2026-04-16T07:59:41Z</time></trkpt><trkpt lat="45.55005145993138" lon="11.87340594894731"><ele>21.42857142857143</ele><time>2026-04-16T07:59:44Z</time></trkpt><trkpt lat="45.54999868183278" lon="11.873329374630002"><ele>21.285714285714285</ele><time>2026-04-16T07:59:49Z</time></trkpt><trkpt lat="45.550034614389446" lon="11.873253816439966"><ele>21.142857142857142</ele><time>2026-04-16T07:59:59Z</time></trkpt><trkpt lat="45.55010640316024" lon="11.87322210779073"><ele>21.0</ele><time>2026-04-16T08:00:03Z</time></trkpt><trkpt lat="45.550151990259764" lon="11.873133356178991"><ele>21.0</ele><time>2026-04-16T08:00:06Z</time></trkpt><trkpt lat="45.55013180741811" lon="11.873013925214877"><ele>21.0</ele><time>2026-04-16T08:00:08Z</time></trkpt><trkpt lat="45.550096017473855" lon="11.872882143278307"><ele>21.0</ele><time>2026-04-16T08:00:10Z</time></trkpt><trkpt lat="45.550086979738545" lon="11.872736371743656"><ele>21.0</ele><time>2026-04-16T08:00:12Z</time></trkpt><trkpt lat="45.55005829844353" lon="11.872585917712572"><ele>21.0</ele><time>2026-04-16T08:00:14Z</time></trkpt><trkpt lat="45.55003025358128" lon="11.872417880008136"><ele>20.8</ele><time>2026-04-16T08:00:16Z</time></trkpt><trkpt lat="45.549996608840985" lon="11.872246431540459"><ele>20.6</ele><time>2026-04-16T08:00:18Z</time></trkpt><trkpt lat="45.54997679806445" lon="11.872069036598408"><ele>20.4</ele><time>2026-04-16T08:00:20Z</time></trkpt><trkpt lat="45.549958248969666" lon="11.871978556832843"><ele>20.2</ele><time>2026-04-16T08:00:21Z</time></trkpt><trkpt lat="45.54992729769523" lon="11.871809475909172"><ele>20.0</ele><time>2026-04-16T08:00:23Z</time></trkpt><trkpt lat="45.549899809444675" lon="11.871652315041173"><ele>20.0</ele><time>2026-04-16T08:00:25Z</time></trkpt><trkpt lat="45.54988299870259" lon="11.871502269033742"><ele>20.0</ele><time>2026-04-16T08:00:27Z</time></trkpt><trkpt lat="45.54985405697932" lon="11.87135273101136"><ele>20.0</ele><time>2026-04-16T08:00:29Z</time></trkpt><trkpt lat="45.5498286633581" lon="11.871193848271345"><ele>20.0</ele><time>2026-04-16T08:00:30.999Z</time></trkpt><trkpt lat="45.54980392114133" lon="11.871027660371178"><ele>20.0</ele><time>2026-04-16T08:00:32.999Z</time></trkpt><trkpt lat="45.549790913881104" lon="11.870936009722598"><ele>20.4</ele><time>2026-04-16T08:00:33.999Z</time></trkpt><trkpt lat="45.54975908092759" lon="11.870766978709604"><ele>20.8</ele><time>2026-04-16T08:00:35.999Z</time></trkpt><trkpt lat="45.549731468145254" lon="11.870586738016723"><ele>21.200000000000003</ele><time>2026-04-16T08:00:37.999Z</time></trkpt><trkpt lat="45.5497147295318" lon="11.870492419000803"><ele>21.6</ele><time>2026-04-16T08:00:38.999Z</time></trkpt><trkpt lat="45.54970002030007" lon="11.87039335304725"><ele>22.0</ele><time>2026-04-16T08:00:39.999Z</time></trkpt><trkpt lat="45.54968645681664" lon="11.870293710710172"><ele>22.0</ele><time>2026-04-16T08:00:40.999Z</time></trkpt><trkpt lat="45.54966167381191" lon="11.87019901281028"><ele>22.0</ele><time>2026-04-16T08:00:41.999Z</time></trkpt><trkpt lat="45.5496417629491" lon="11.870105704842906"><ele>22.0</ele><time>2026-04-16T08:00:42.999Z</time></trkpt><trkpt lat="45.54963349111475" lon="11.87000707864349"><ele>22.0</ele><time>2026-04-16T08:00:43.999Z</time></trkpt><trkpt lat="45.54962163153078" lon="11.869913082333802"><ele>22.0</ele><time>2026-04-16T08:00:44.999Z</time></trkpt><trkpt lat="45.549605365452614" lon="11.869815332657163"><ele>22.0</ele><time>2026-04-16T08:00:45.999Z</time></trkpt><trkpt lat="45.54958753458081" lon="11.869720307715875"><ele>22.0</ele><time>2026-04-16T08:00:46.999Z</time></trkpt><trkpt lat="45.549569902010454" lon="11.869629140790861"><ele>22.0</ele><time>2026-04-16T08:00:47.999Z</time></trkpt><trkpt lat="45.54954055689771" lon="11.869452519483426"><ele>22.0</ele><time>2026-04-16T08:00:49.999Z</time></trkpt><trkpt lat="45.549522496287075" lon="11.869362074205997"><ele>22.0</ele><time>2026-04-16T08:00:50.999Z</time></trkpt><trkpt lat="45.5494956972671" lon="11.86918466160006"><ele>22.0</ele><time>2026-04-16T08:00:52.999Z</time></trkpt><trkpt lat="45.54946743356517" lon="11.869011292407682"><ele>22.0</ele><time>2026-04-16T08:00:54.999Z</time></trkpt><trkpt lat="45.549440066902484" lon="11.868835691210336"><ele>22.0</ele><time>2026-04-16T08:00:56.999Z</time></trkpt><trkpt lat="45.549422312700294" lon="11.868747698581492"><ele>22.0</ele><time>2026-04-16T08:00:57.999Z</time></trkpt><trkpt lat="45.54940967455195" lon="11.868594447214427"><ele>22.0</ele><time>2026-04-16T08:01:00Z</time></trkpt><trkpt lat="45.54937251156825" lon="11.868442943085546"><ele>22.0</ele><time>2026-04-16T08:01:02Z</time></trkpt><trkpt lat="45.549356795785805" lon="11.868354849794441"><ele>22.0</ele><time>2026-04-16T08:01:03Z</time></trkpt><trkpt lat="45.54932503779863" lon="11.868208638352147"><ele>21.75</ele><time>2026-04-16T08:01:05Z</time></trkpt><trkpt lat="45.54931069893215" lon="11.86805815095207"><ele>21.5</ele><time>2026-04-16T08:01:07Z</time></trkpt><trkpt lat="45.54946619535334" lon="11.867910784107197"><ele>21.25</ele><time>2026-04-16T08:01:08Z</time></trkpt><trkpt lat="45.54943942884621" lon="11.867777965832069"><ele>21.0</ele><time>2026-04-16T08:01:10Z</time></trkpt><trkpt lat="45.54941276031425" lon="11.867618784707155"><ele>21.25</ele><time>2026-04-16T08:01:12Z</time></trkpt><trkpt lat="45.54922313895969" lon="11.867518538776642"><ele>21.5</ele><time>2026-04-16T08:01:14Z</time></trkpt><trkpt lat="45.549200544839024" lon="11.867361624354"><ele>21.75</ele><time>2026-04-16T08:01:16Z</time></trkpt><trkpt lat="45.54918379084973" lon="11.867266824492122"><ele>22.0</ele><time>2026-04-16T08:01:17Z</time></trkpt><trkpt lat="45.54916046604504" lon="11.867088960241388"><ele>22.0</ele><time>2026-04-16T08:01:19Z</time></trkpt><trkpt lat="45.54913206554688" lon="11.86692648199492"><ele>22.0</ele><time>2026-04-16T08:01:21Z</time></trkpt><trkpt lat="45.5491142569446" lon="11.866790254930427"><ele>22.0</ele><time>2026-04-16T08:01:23Z</time></trkpt><trkpt lat="45.54908789948251" lon="11.866669127563119"><ele>22.0</ele><time>2026-04-16T08:01:25Z</time></trkpt><trkpt lat="45.549059438244186" lon="11.866560341958031"><ele>22.0</ele><time>2026-04-16T08:01:27Z</time></trkpt><trkpt lat="45.5490245081588" lon="11.86644377635241"><ele>22.200000000000003</ele><time>2026-04-16T08:01:29Z</time></trkpt><trkpt lat="45.54899606443258" lon="11.866329480523609"><ele>22.4</ele><time>2026-04-16T08:01:33Z</time></trkpt><trkpt lat="45.5489765742271" lon="11.866237968534099"><ele>22.6</ele><time>2026-04-16T08:01:35Z</time></trkpt><trkpt lat="45.54896524318819" lon="11.866111862458963"><ele>22.799999999999997</ele><time>2026-04-16T08:01:37Z</time></trkpt><trkpt lat="45.54894446915082" lon="11.86596790785371"><ele>23.0</ele><time>2026-04-16T08:01:39Z</time></trkpt><trkpt lat="45.54891940122969" lon="11.865815624794593"><ele>23.2</ele><time>2026-04-16T08:01:41Z</time></trkpt><trkpt lat="45.54888680617449" lon="11.865652148584934"><ele>23.4</ele><time>2026-04-16T08:01:43Z</time></trkpt><trkpt lat="45.54886815693655" lon="11.865481610459163"><ele>23.599999999999998</ele><time>2026-04-16T08:01:45Z</time></trkpt><trkpt lat="45.54885420679175" lon="11.8653898787619"><ele>23.799999999999997</ele><time>2026-04-16T08:01:46Z</time></trkpt><trkpt lat="45.54882542774077" lon="11.86523262260352"><ele>24.0</ele><time>2026-04-16T08:01:48Z</time></trkpt><trkpt lat="45.548795803453764" lon="11.865085262577134"><ele>24.0</ele><time>2026-04-16T08:01:50Z</time></trkpt><trkpt lat="45.54877473050246" lon="11.86492267443472"><ele>24.0</ele><time>2026-04-16T08:01:52Z</time></trkpt><trkpt lat="45.5487479086103" lon="11.864769766004612"><ele>24.0</ele><time>2026-04-16T08:01:54Z</time></trkpt><trkpt lat="45.54872974958302" lon="11.864682163623925"><ele>24.0</ele><time>2026-04-16T08:01:55Z</time></trkpt><trkpt lat="45.54872276987453" lon="11.864589849318035"><ele>24.0</ele><time>2026-04-16T08:01:56Z</time></trkpt><trkpt lat="45.54869889610743" lon="11.864424330612266"><ele>23.6</ele><time>2026-04-16T08:01:58Z</time></trkpt><trkpt lat="45.54866206613501" lon="11.864267904745061"><ele>23.2</ele><time>2026-04-16T08:02:00Z</time></trkpt><trkpt lat="45.5486408249037" lon="11.864101456041743"><ele>22.8</ele><time>2026-04-16T08:02:02Z</time></trkpt><trkpt lat="45.5486123684406" lon="11.863946202266744"><ele>22.400000000000002</ele><time>2026-04-16T08:02:04Z</time></trkpt><trkpt lat="45.54859489694999" lon="11.86380399423794"><ele>22.0</ele><time>2026-04-16T08:02:06Z</time></trkpt><trkpt lat="45.548566076994625" lon="11.863657228167988"><ele>22.0</ele><time>2026-04-16T08:02:08Z</time></trkpt><trkpt lat="45.54855421238921" lon="11.863504999765157"><ele>22.0</ele><time>2026-04-16T08:02:10Z</time></trkpt><trkpt lat="45.5485276607526" lon="11.863348891652372"><ele>22.0</ele><time>2026-04-16T08:02:12Z</time></trkpt><trkpt lat="45.54851333115039" lon="11.863203220185971"><ele>22.0</ele><time>2026-04-16T08:02:14Z</time></trkpt><trkpt lat="45.54848681587208" lon="11.863034181048963"><ele>22.0</ele><time>2026-04-16T08:02:16Z</time></trkpt><trkpt lat="45.548474418540735" lon="11.86294047810661"><ele>22.166666666666664</ele><time>2026-04-16T08:02:17Z</time></trkpt><trkpt lat="45.5484668476817" lon="11.86284654909771"><ele>22.333333333333332</ele><time>2026-04-16T08:02:18Z</time></trkpt><trkpt lat="45.548460867468904" lon="11.862754767099252"><ele>22.5</ele><time>2026-04-16T08:02:19Z</time></trkpt><trkpt lat="45.54845281627322" lon="11.862665610745353"><ele>22.666666666666668</ele><time>2026-04-16T08:02:20Z</time></trkpt><trkpt lat="45.54842074648717" lon="11.862493628085604"><ele>22.833333333333336</ele><time>2026-04-16T08:02:22Z</time></trkpt><trkpt lat="45.548401771342725" lon="11.862393423367557"><ele>23.0</ele><time>2026-04-16T08:02:23Z</time></trkpt><trkpt lat="45.54838474775588" lon="11.862296799785584"><ele>23.0</ele><time>2026-04-16T08:02:24Z</time></trkpt><trkpt lat="45.54836721095669" lon="11.862201913712685"><ele>23.0</ele><time>2026-04-16T08:02:25Z</time></trkpt><trkpt lat="45.54835221074829" lon="11.86210960059088"><ele>23.0</ele><time>2026-04-16T08:02:26Z</time></trkpt><trkpt lat="45.54833755161071" lon="11.862014056842018"><ele>23.0</ele><time>2026-04-16T08:02:27Z</time></trkpt><trkpt lat="45.548326173615536" lon="11.861916649343637"><ele>23.0</ele><time>2026-04-16T08:02:28Z</time></trkpt><trkpt lat="45.54831478840347" lon="11.861821083202335"><ele>23.0</ele><time>2026-04-16T08:02:29Z</time></trkpt><trkpt lat="45.548294806738824" lon="11.861727257162025"><ele>23.0</ele><time>2026-04-16T08:02:30Z</time></trkpt><trkpt lat="45.54827503865784" lon="11.861633822354202"><ele>23.0</ele><time>2026-04-16T08:02:31Z</time></trkpt><trkpt lat="45.548260778370704" lon="11.861542243782274"><ele>23.0</ele><time>2026-04-16T08:02:32Z</time></trkpt><trkpt lat="45.54824711008942" lon="11.86144697964892"><ele>23.0</ele><time>2026-04-16T08:02:33Z</time></trkpt><trkpt lat="45.54823192437752" lon="11.861354557925962"><ele>23.0</ele><time>2026-04-16T08:02:34Z</time></trkpt><trkpt lat="45.54821246485629" lon="11.861261400763834"><ele>23.0</ele><time>2026-04-16T08:02:35Z</time></trkpt><trkpt lat="45.54819734783294" lon="11.861172891554878"><ele>23.0</ele><time>2026-04-16T08:02:35.999Z</time></trkpt><trkpt lat="45.548181763240954" lon="11.86108033413555"><ele>23.0</ele><time>2026-04-16T08:02:36.999Z</time></trkpt><trkpt lat="45.54816929695725" lon="11.860986426966145"><ele>22.857142857142858</ele><time>2026-04-16T08:02:37.999Z</time></trkpt><trkpt lat="45.54815254434025" lon="11.860895878046366"><ele>22.71428571428571</ele><time>2026-04-16T08:02:38.999Z</time></trkpt><trkpt lat="45.54813778251887" lon="11.860802405260785"><ele>22.57142857142857</ele><time>2026-04-16T08:02:39.999Z</time></trkpt><trkpt lat="45.548118582660244" lon="11.860708088527769"><ele>22.42857142857143</ele><time>2026-04-16T08:02:40.999Z</time></trkpt><trkpt lat="45.54810619642667" lon="11.8606126708565"><ele>22.285714285714285</ele><time>2026-04-16T08:02:41.999Z</time></trkpt><trkpt lat="45.54809270467774" lon="11.860514586161623"><ele>22.142857142857142</ele><time>2026-04-16T08:02:42.999Z</time></trkpt><trkpt lat="45.54807707881815" lon="11.860419114580882"><ele>22.0</ele><time>2026-04-16T08:02:43.999Z</time></trkpt><trkpt lat="45.54806164320068" lon="11.860324000261903"><ele>22.0</ele><time>2026-04-16T08:02:44.999Z</time></trkpt><trkpt lat="45.54804595507322" lon="11.860231745363949"><ele>22.0</ele><time>2026-04-16T08:02:45.999Z</time></trkpt><trkpt lat="45.54803208141639" lon="11.860139826095454"><ele>22.0</ele><time>2026-04-16T08:02:46.999Z</time></trkpt><trkpt lat="45.548018213952346" lon="11.860048834544067"><ele>22.0</ele><time>2026-04-16T08:02:47.999Z</time></trkpt><trkpt lat="45.54800124454759" lon="11.859960984491876"><ele>22.0</ele><time>2026-04-16T08:02:48.999Z</time></trkpt><trkpt lat="45.54799196211834" lon="11.859868678201078"><ele>22.0</ele><time>2026-04-16T08:02:49.999Z</time></trkpt><trkpt lat="45.547979398490035" lon="11.859771405756195"><ele>22.0</ele><time>2026-04-16T08:02:50.999Z</time></trkpt><trkpt lat="45.54796457035172" lon="11.859676264109735"><ele>22.0</ele><time>2026-04-16T08:02:51.999Z</time></trkpt><trkpt lat="45.54794649828942" lon="11.85958309865662"><ele>22.0</ele><time>2026-04-16T08:02:52.999Z</time></trkpt><trkpt lat="45.54791328006911" lon="11.859494977915023"><ele>22.0</ele><time>2026-04-16T08:02:53.999Z</time></trkpt><trkpt lat="45.54788893876801" lon="11.859404700363266"><ele>22.0</ele><time>2026-04-16T08:02:54.999Z</time></trkpt><trkpt lat="45.54785729633142" lon="11.859316787777857"><ele>22.0</ele><time>2026-04-16T08:02:55.999Z</time></trkpt><trkpt lat="45.54783919635006" lon="11.859227943092266"><ele>22.0</ele><time>2026-04-16T08:02:56.999Z</time></trkpt><trkpt lat="45.547817924688026" lon="11.859131979579157"><ele>22.0</ele><time>2026-04-16T08:02:57.999Z</time></trkpt><trkpt lat="45.54779349258865" lon="11.859037639815645"><ele>22.0</ele><time>2026-04-16T08:02:58.999Z</time></trkpt><trkpt lat="45.54777485661756" lon="11.85894066232883"><ele>22.0</ele><time>2026-04-16T08:02:59.999Z</time></trkpt><trkpt lat="45.547759196229144" lon="11.85884463364556"><ele>22.0</ele><time>2026-04-16T08:03:00.999Z</time></trkpt><trkpt lat="45.54774926183221" lon="11.8587479877816"><ele>22.0</ele><time>2026-04-16T08:03:01.999Z</time></trkpt><trkpt lat="45.54773540865388" lon="11.858656931970925"><ele>22.0</ele><time>2026-04-16T08:03:02.999Z</time></trkpt><trkpt lat="45.547720752445876" lon="11.858563643602729"><ele>22.0</ele><time>2026-04-16T08:03:03.999Z</time></trkpt><trkpt lat="45.54770173766587" lon="11.858472055200634"><ele>22.0</ele><time>2026-04-16T08:03:04.999Z</time></trkpt><trkpt lat="45.54768051346069" lon="11.858375076828292"><ele>22.142857142857142</ele><time>2026-04-16T08:03:05.999Z</time></trkpt><trkpt lat="45.54766921446011" lon="11.858272805738846"><ele>22.285714285714285</ele><time>2026-04-16T08:03:07Z</time></trkpt><trkpt lat="45.54764985281592" lon="11.858180947680836"><ele>22.42857142857143</ele><time>2026-04-16T08:03:08Z</time></trkpt><trkpt lat="45.547625824657224" lon="11.85808441600646"><ele>22.57142857142857</ele><time>2026-04-16T08:03:09Z</time></trkpt><trkpt lat="45.547596505326624" lon="11.857992748210686"><ele>22.71428571428571</ele><time>2026-04-16T08:03:10Z</time></trkpt><trkpt lat="45.54757294487438" lon="11.857899270886925"><ele>22.857142857142858</ele><time>2026-04-16T08:03:11Z</time></trkpt><trkpt lat="45.547562664836185" lon="11.857802447798296"><ele>23.0</ele><time>2026-04-16T08:03:12Z</time></trkpt><trkpt lat="45.54754833842239" lon="11.857704825685703"><ele>23.0</ele><time>2026-04-16T08:03:13Z</time></trkpt><trkpt lat="45.547530276744794" lon="11.857614269669424"><ele>23.0</ele><time>2026-04-16T08:03:14Z</time></trkpt><trkpt lat="45.547511710155554" lon="11.857526911106413"><ele>23.0</ele><time>2026-04-16T08:03:15Z</time></trkpt><trkpt lat="45.54750301992933" lon="11.857437248641999"><ele>23.0</ele><time>2026-04-16T08:03:16Z</time></trkpt><trkpt lat="45.547489434355604" lon="11.857344824276709"><ele>23.0</ele><time>2026-04-16T08:03:17Z</time></trkpt><trkpt lat="45.54747039028559" lon="11.857257263334665"><ele>23.0</ele><time>2026-04-16T08:03:18Z</time></trkpt><trkpt lat="45.54745365858552" lon="11.857168646091019"><ele>23.0</ele><time>2026-04-16T08:03:19Z</time></trkpt><trkpt lat="45.54743414828304" lon="11.857079838427884"><ele>23.0</ele><time>2026-04-16T08:03:20Z</time></trkpt><trkpt lat="45.54741057696812" lon="11.856994543178224"><ele>23.0</ele><time>2026-04-16T08:03:21Z</time></trkpt><trkpt lat="45.54738746945806" lon="11.856906434863083"><ele>23.0</ele><time>2026-04-16T08:03:22Z</time></trkpt><trkpt lat="45.54737341196957" lon="11.85681847120181"><ele>23.0</ele><time>2026-04-16T08:03:23Z</time></trkpt><trkpt lat="45.54736184081052" lon="11.856726623821443"><ele>23.0</ele><time>2026-04-16T08:03:24Z</time></trkpt><trkpt lat="45.54735579705695" lon="11.856628008799854"><ele>23.0</ele><time>2026-04-16T08:03:25Z</time></trkpt><trkpt lat="45.54734528520384" lon="11.85653369780832"><ele>23.0</ele><time>2026-04-16T08:03:26Z</time></trkpt><trkpt lat="45.54733175187778" lon="11.856440257017454"><ele>22.714285714285715</ele><time>2026-04-16T08:03:27Z</time></trkpt><trkpt lat="45.54731825475538" lon="11.856350317068118"><ele>22.428571428571427</ele><time>2026-04-16T08:03:28Z</time></trkpt><trkpt lat="45.54730307839895" lon="11.85625738572568"><ele>22.142857142857142</ele><time>2026-04-16T08:03:29Z</time></trkpt><trkpt lat="45.54729015329388" lon="11.856163681754193"><ele>21.857142857142858</ele><time>2026-04-16T08:03:30Z</time></trkpt><trkpt lat="45.54727546610638" lon="11.856068131243326"><ele>21.57142857142857</ele><time>2026-04-16T08:03:31Z</time></trkpt><trkpt lat="45.547260030726825" lon="11.8559719307352"><ele>21.285714285714285</ele><time>2026-04-16T08:03:32Z</time></trkpt><trkpt lat="45.54724868776181" lon="11.855876718458187"><ele>21.0</ele><time>2026-04-16T08:03:33Z</time></trkpt><trkpt lat="45.547237328492464" lon="11.85578300127303"><ele>21.0</ele><time>2026-04-16T08:03:34Z</time></trkpt><trkpt lat="45.54722731981365" lon="11.85569158313063"><ele>21.0</ele><time>2026-04-16T08:03:35Z</time></trkpt><trkpt lat="45.54721802641379" lon="11.855602307979959"><ele>21.0</ele><time>2026-04-16T08:03:36Z</time></trkpt><trkpt lat="45.547203202520876" lon="11.85551296275989"><ele>21.0</ele><time>2026-04-16T08:03:37Z</time></trkpt><trkpt lat="45.54718794000993" lon="11.855418917717609"><ele>21.0</ele><time>2026-04-16T08:03:38Z</time></trkpt><trkpt lat="45.54717633163106" lon="11.855327302625957"><ele>21.0</ele><time>2026-04-16T08:03:39Z</time></trkpt><trkpt lat="45.547161308266816" lon="11.855236736791898"><ele>21.0</ele><time>2026-04-16T08:03:40Z</time></trkpt><trkpt lat="45.54714838484534" lon="11.855144176857209"><ele>21.0</ele><time>2026-04-16T08:03:41Z</time></trkpt><trkpt lat="45.547132859040325" lon="11.855055420436713"><ele>21.0</ele><time>2026-04-16T08:03:42Z</time></trkpt><trkpt lat="45.54711747346102" lon="11.85496353882877"><ele>21.0</ele><time>2026-04-16T08:03:43Z</time></trkpt><trkpt lat="45.54710672539183" lon="11.85487448925897"><ele>21.0</ele><time>2026-04-16T08:03:44Z</time></trkpt><trkpt lat="45.54708076915784" lon="11.854790545649962"><ele>21.0</ele><time>2026-04-16T08:03:45Z</time></trkpt><trkpt lat="45.54706083754424" lon="11.854610301950379"><ele>21.0</ele><time>2026-04-16T08:03:47Z</time></trkpt><trkpt lat="45.547039681272125" lon="11.854521058874074"><ele>21.4</ele><time>2026-04-16T08:03:48Z</time></trkpt><trkpt lat="45.54701818833268" lon="11.854430757559301"><ele>21.8</ele><time>2026-04-16T08:03:49Z</time></trkpt><trkpt lat="45.54700648518806" lon="11.854340203687592"><ele>22.2</ele><time>2026-04-16T08:03:50Z</time></trkpt><trkpt lat="45.54697913833169" lon="11.8541655388737"><ele>22.599999999999998</ele><time>2026-04-16T08:03:52Z</time></trkpt><trkpt lat="45.54695515711074" lon="11.854011548685913"><ele>23.0</ele><time>2026-04-16T08:03:54Z</time></trkpt><trkpt lat="45.54693533803042" lon="11.853857531603934"><ele>23.2</ele><time>2026-04-16T08:03:56Z</time></trkpt><trkpt lat="45.54691326964739" lon="11.853684204018435"><ele>23.4</ele><time>2026-04-16T08:03:58Z</time></trkpt><trkpt lat="45.54689878784173" lon="11.853595316750967"><ele>23.599999999999998</ele><time>2026-04-16T08:03:59Z</time></trkpt><trkpt lat="45.54687825225026" lon="11.85350271268853"><ele>23.799999999999997</ele><time>2026-04-16T08:04:00Z</time></trkpt><trkpt lat="45.546854544423226" lon="11.853321719549951"><ele>24.0</ele><time>2026-04-16T08:04:02Z</time></trkpt><trkpt lat="45.546844290234716" lon="11.85322559757713"><ele>24.0</ele><time>2026-04-16T08:04:03Z</time></trkpt><trkpt lat="45.54682870031361" lon="11.853134065770279"><ele>24.0</ele><time>2026-04-16T08:04:04Z</time></trkpt><trkpt lat="45.54679524209467" lon="11.852978212728878"><ele>24.0</ele><time>2026-04-16T08:04:06Z</time></trkpt><trkpt lat="45.546778597969464" lon="11.85281402941325"><ele>24.0</ele><time>2026-04-16T08:04:08Z</time></trkpt><trkpt lat="45.54674622757614" lon="11.852673199728352"><ele>24.0</ele><time>2026-04-16T08:04:10Z</time></trkpt><trkpt lat="45.54671747679018" lon="11.852539084927209"><ele>24.0</ele><time>2026-04-16T08:04:12Z</time></trkpt><trkpt lat="45.5466932178568" lon="11.852400438037526"><ele>24.0</ele><time>2026-04-16T08:04:14Z</time></trkpt><trkpt lat="45.54667043204186" lon="11.85227251650255"><ele>24.0</ele><time>2026-04-16T08:04:16Z</time></trkpt><trkpt lat="45.54663869011921" lon="11.852138238698412"><ele>24.0</ele><time>2026-04-16T08:04:18Z</time></trkpt><trkpt lat="45.546618941447555" lon="11.851995248470825"><ele>24.0</ele><time>2026-04-16T08:04:20Z</time></trkpt><trkpt lat="45.54659583506917" lon="11.851832612021205"><ele>24.0</ele><time>2026-04-16T08:04:22Z</time></trkpt><trkpt lat="45.546564025444646" lon="11.851659921900282"><ele>24.0</ele><time>2026-04-16T08:04:24Z</time></trkpt><trkpt lat="45.54654950416375" lon="11.851565980414977"><ele>24.0</ele><time>2026-04-16T08:04:25Z</time></trkpt><trkpt lat="45.54652044134972" lon="11.851387150029614"><ele>24.0</ele><time>2026-04-16T08:04:27Z</time></trkpt><trkpt lat="45.5465013869178" lon="11.851296638499575"><ele>24.0</ele><time>2026-04-16T08:04:28Z</time></trkpt><trkpt lat="45.54648478973813" lon="11.851195074492292"><ele>23.999999999999996</ele><time>2026-04-16T08:04:29Z</time></trkpt><trkpt lat="45.54648698809714" lon="11.851098663263388"><ele>24.0</ele><time>2026-04-16T08:04:30.001Z</time></trkpt><trkpt lat="45.54647329510906" lon="11.851003889042373"><ele>24.0</ele><time>2026-04-16T08:04:31.001Z</time></trkpt><trkpt lat="45.5464553637423" lon="11.850912814953748"><ele>24.0</ele><time>2026-04-16T08:04:32.001Z</time></trkpt><trkpt lat="45.5464389472962" lon="11.850819192060223"><ele>24.0</ele><time>2026-04-16T08:04:33.001Z</time></trkpt><trkpt lat="45.54642314913925" lon="11.850723830108725"><ele>23.999999999999996</ele><time>2026-04-16T08:04:34.001Z</time></trkpt><trkpt lat="45.54640629798403" lon="11.85062844835297"><ele>24.0</ele><time>2026-04-16T08:04:35.001Z</time></trkpt><trkpt lat="45.54639015408628" lon="11.850535069460362"><ele>23.999999999999996</ele><time>2026-04-16T08:04:36.001Z</time></trkpt><trkpt lat="45.54637487572776" lon="11.850436724731733"><ele>24.0</ele><time>2026-04-16T08:04:37.001Z</time></trkpt><trkpt lat="45.54635956073427" lon="11.850343574911644"><ele>24.0</ele><time>2026-04-16T08:04:38.001Z</time></trkpt><trkpt lat="45.54634016145941" lon="11.85024766778367"><ele>24.0</ele><time>2026-04-16T08:04:39.001Z</time></trkpt><trkpt lat="45.54632176838322" lon="11.850150591557579"><ele>24.0</ele><time>2026-04-16T08:04:40.001Z</time></trkpt><trkpt lat="45.54630768196712" lon="11.850050765757162"><ele>23.999999999999996</ele><time>2026-04-16T08:04:41.001Z</time></trkpt><trkpt lat="45.54629166250952" lon="11.849953598109156"><ele>24.0</ele><time>2026-04-16T08:04:41.999Z</time></trkpt><trkpt lat="45.546275507683106" lon="11.849859636137344"><ele>23.799999999999997</ele><time>2026-04-16T08:04:42.999Z</time></trkpt><trkpt lat="45.54625748891279" lon="11.849769740875137"><ele>23.599999999999998</ele><time>2026-04-16T08:04:43.999Z</time></trkpt><trkpt lat="45.546239648345015" lon="11.8496816910128"><ele>23.4</ele><time>2026-04-16T08:04:44.999Z</time></trkpt><trkpt lat="45.54621201895026" lon="11.849511420925179"><ele>23.2</ele><time>2026-04-16T08:04:46.999Z</time></trkpt><trkpt lat="45.54619138967512" lon="11.849347470752003"><ele>23.0</ele><time>2026-04-16T08:04:48.999Z</time></trkpt><trkpt lat="45.54615508031491" lon="11.84919186296372"><ele>23.0</ele><time>2026-04-16T08:04:50.999Z</time></trkpt><trkpt lat="45.54613443763638" lon="11.84903996068819"><ele>23.0</ele><time>2026-04-16T08:04:52.999Z</time></trkpt><trkpt lat="45.54611030547816" lon="11.84888930856147"><ele>23.0</ele><time>2026-04-16T08:04:54.999Z</time></trkpt><trkpt lat="45.54613957386438" lon="11.848804871436185"><ele>23.0</ele><time>2026-04-16T08:04:55.999Z</time></trkpt><trkpt lat="45.546137828795956" lon="11.84869415500951"><ele>23.0</ele><time>2026-04-16T08:04:56.999Z</time></trkpt><trkpt lat="45.54621600318804" lon="11.848581423592217"><ele>22.857142857142858</ele><time>2026-04-16T08:04:58.999Z</time></trkpt><trkpt lat="45.546245177099266" lon="11.848501287059698"><ele>22.71428571428571</ele><time>2026-04-16T08:04:59.999Z</time></trkpt><trkpt lat="45.546266400591314" lon="11.848415545366647"><ele>22.57142857142857</ele><time>2026-04-16T08:05:00.999Z</time></trkpt><trkpt lat="45.54628961557999" lon="11.848325322799113"><ele>22.42857142857143</ele><time>2026-04-16T08:05:01.999Z</time></trkpt><trkpt lat="45.54630538921315" lon="11.848230020466884"><ele>22.285714285714285</ele><time>2026-04-16T08:05:02.999Z</time></trkpt><trkpt lat="45.546309665680525" lon="11.84813378960528"><ele>22.142857142857142</ele><time>2026-04-16T08:05:03.999Z</time></trkpt><trkpt lat="45.546307912917285" lon="11.848038515663553"><ele>22.0</ele><time>2026-04-16T08:05:04.999Z</time></trkpt><trkpt lat="45.546298359351766" lon="11.847949254752042"><ele>22.0</ele><time>2026-04-16T08:05:05.999Z</time></trkpt><trkpt lat="45.54625624196154" lon="11.847802794639641"><ele>22.0</ele><time>2026-04-16T08:05:07.999Z</time></trkpt><trkpt lat="45.546257511689696" lon="11.84770796828416"><ele>22.0</ele><time>2026-04-16T08:05:15Z</time></trkpt><trkpt lat="45.54621944501008" lon="11.847598215667409"><ele>22.0</ele><time>2026-04-16T08:05:18Z</time></trkpt><trkpt lat="45.546153128728285" lon="11.847645882031118"><ele>22.0</ele><time>2026-04-16T08:05:19Z</time></trkpt><trkpt lat="45.54609038432838" lon="11.847623682552326"><ele>22.0</ele><time>2026-04-16T08:05:21Z</time></trkpt><trkpt lat="45.546012149150954" lon="11.847622161295286"><ele>22.666666666666664</ele><time>2026-04-16T08:05:23Z</time></trkpt><trkpt lat="45.545932080904244" lon="11.84764576541074"><ele>23.333333333333332</ele><time>2026-04-16T08:05:25Z</time></trkpt><trkpt lat="45.54583178354123" lon="11.847279557559727"><ele>24.0</ele><time>2026-04-16T08:05:30Z</time></trkpt><trkpt lat="45.54581097080954" lon="11.847106631651672"><ele>24.142857142857142</ele><time>2026-04-16T08:05:32Z</time></trkpt><trkpt lat="45.54578993782239" lon="11.847017822970807"><ele>24.285714285714285</ele><time>2026-04-16T08:05:33Z</time></trkpt><trkpt lat="45.545768388762255" lon="11.846928888843289"><ele>24.42857142857143</ele><time>2026-04-16T08:05:34Z</time></trkpt><trkpt lat="45.54574845532856" lon="11.846840794245454"><ele>24.57142857142857</ele><time>2026-04-16T08:05:35Z</time></trkpt><trkpt lat="45.54573390096354" lon="11.846750362992"><ele>24.714285714285715</ele><time>2026-04-16T08:05:36Z</time></trkpt><trkpt lat="45.545712730838204" lon="11.846659310758595"><ele>24.857142857142858</ele><time>2026-04-16T08:05:37Z</time></trkpt><trkpt lat="45.545701429967565" lon="11.846566581606709"><ele>25.0</ele><time>2026-04-16T08:05:38Z</time></trkpt><trkpt lat="45.54568120731956" lon="11.846471155863398"><ele>24.666666666666668</ele><time>2026-04-16T08:05:39Z</time></trkpt><trkpt lat="45.54565933858375" lon="11.846373306103455"><ele>24.333333333333336</ele><time>2026-04-16T08:05:40Z</time></trkpt><trkpt lat="45.54562935220154" lon="11.846279763091768"><ele>24.0</ele><time>2026-04-16T08:05:41Z</time></trkpt><trkpt lat="45.5456042390964" lon="11.84618130571118"><ele>23.666666666666668</ele><time>2026-04-16T08:05:42Z</time></trkpt><trkpt lat="45.54558915617986" lon="11.84608506527353"><ele>23.333333333333336</ele><time>2026-04-16T08:05:43Z</time></trkpt><trkpt lat="45.54556906846435" lon="11.845994323990181"><ele>23.0</ele><time>2026-04-16T08:05:44Z</time></trkpt><trkpt lat="45.545467011901444" lon="11.845940872452648"><ele>23.0</ele><time>2026-04-16T08:05:45Z</time></trkpt><trkpt lat="45.54543716099603" lon="11.845850075939666"><ele>23.0</ele><time>2026-04-16T08:05:46Z</time></trkpt><trkpt lat="45.54536183347943" lon="11.845706355684694"><ele>23.0</ele><time>2026-04-16T08:05:48Z</time></trkpt><trkpt lat="45.545274453052684" lon="11.84559023500331"><ele>23.0</ele><time>2026-04-16T08:05:50Z</time></trkpt><trkpt lat="45.545232403232845" lon="11.845521344854738"><ele>23.0</ele><time>2026-04-16T08:05:51Z</time></trkpt><trkpt lat="45.54514851020051" lon="11.845524427360495"><ele>23.0</ele><time>2026-04-16T08:05:53Z</time></trkpt><trkpt lat="45.54506070564356" lon="11.845456433755604"><ele>23.0</ele><time>2026-04-16T08:05:56Z</time></trkpt><trkpt lat="45.54522042308438" lon="11.844829943217206"><ele>22.666666666666668</ele><time>2026-04-16T08:05:57Z</time></trkpt><trkpt lat="45.545194319564985" lon="11.844747122304309"><ele>22.333333333333336</ele><time>2026-04-16T08:05:58Z</time></trkpt><trkpt lat="45.5451621005179" lon="11.84466757501966"><ele>22.0</ele><time>2026-04-16T08:05:59Z</time></trkpt><trkpt lat="45.54513607514782" lon="11.844573733174684"><ele>21.666666666666668</ele><time>2026-04-16T08:06:00Z</time></trkpt><trkpt lat="45.54511357449628" lon="11.844486076457512"><ele>21.333333333333332</ele><time>2026-04-16T08:06:01Z</time></trkpt><trkpt lat="45.54508774689543" lon="11.844392415363384"><ele>21.0</ele><time>2026-04-16T08:06:02Z</time></trkpt><trkpt lat="45.54503610796564" lon="11.844228143088287"><ele>21.0</ele><time>2026-04-16T08:06:04Z</time></trkpt><trkpt lat="45.544981829728236" lon="11.844071061759472"><ele>21.0</ele><time>2026-04-16T08:06:06Z</time></trkpt><trkpt lat="45.544951766002754" lon="11.843984857981507"><ele>21.0</ele><time>2026-04-16T08:06:07Z</time></trkpt><trkpt lat="45.5449177905342" lon="11.843901293735463"><ele>21.0</ele><time>2026-04-16T08:06:08Z</time></trkpt><trkpt lat="45.54487095884749" lon="11.843740221761436"><ele>21.0</ele><time>2026-04-16T08:06:10Z</time></trkpt><trkpt lat="45.544839970717284" lon="11.84365064003708"><ele>21.0</ele><time>2026-04-16T08:06:11Z</time></trkpt><trkpt lat="45.544785218391155" lon="11.84348961435593"><ele>21.0</ele><time>2026-04-16T08:06:13Z</time></trkpt><trkpt lat="45.544737618730984" lon="11.843334846139578"><ele>21.0</ele><time>2026-04-16T08:06:15Z</time></trkpt><trkpt lat="45.54468607138674" lon="11.843190588815114"><ele>21.0</ele><time>2026-04-16T08:06:17Z</time></trkpt><trkpt lat="45.54463968934221" lon="11.8430406702949"><ele>21.0</ele><time>2026-04-16T08:06:19Z</time></trkpt><trkpt lat="45.54458742899766" lon="11.842886471927871"><ele>21.0</ele><time>2026-04-16T08:06:21.001Z</time></trkpt><trkpt lat="45.54453346103778" lon="11.842749904595312"><ele>21.0</ele><time>2026-04-16T08:06:23.001Z</time></trkpt><trkpt lat="45.544507404820436" lon="11.842666836391988"><ele>21.0</ele><time>2026-04-16T08:06:24.001Z</time></trkpt><trkpt lat="45.544477081503594" lon="11.842583778545382"><ele>21.0</ele><time>2026-04-16T08:06:25.001Z</time></trkpt><trkpt lat="45.544431740491675" lon="11.84242706816916"><ele>21.0</ele><time>2026-04-16T08:06:27.001Z</time></trkpt><trkpt lat="45.54440396391444" lon="11.842346034891966"><ele>21.0</ele><time>2026-04-16T08:06:28.001Z</time></trkpt><trkpt lat="45.54435012719092" lon="11.842189108336601"><ele>21.0</ele><time>2026-04-16T08:06:30.001Z</time></trkpt><trkpt lat="45.544321319196136" lon="11.842105753778702"><ele>21.0</ele><time>2026-04-16T08:06:31.001Z</time></trkpt><trkpt lat="45.544269383868084" lon="11.84193901123428"><ele>21.0</ele><time>2026-04-16T08:06:33.001Z</time></trkpt><trkpt lat="45.544235185912946" lon="11.841854443309849"><ele>21.0</ele><time>2026-04-16T08:06:34.001Z</time></trkpt><trkpt lat="45.544184680967945" lon="11.841710152617772"><ele>21.0</ele><time>2026-04-16T08:06:36.001Z</time></trkpt><trkpt lat="45.544143189753605" lon="11.8415614503129"><ele>21.0</ele><time>2026-04-16T08:06:38.001Z</time></trkpt><trkpt lat="45.54409677226559" lon="11.84141656496404"><ele>21.0</ele><time>2026-04-16T08:06:40.001Z</time></trkpt><trkpt lat="45.54404154878462" lon="11.841262424383112"><ele>21.0</ele><time>2026-04-16T08:06:42.001Z</time></trkpt><trkpt lat="45.543994620384815" lon="11.841101473614684"><ele>21.0</ele><time>2026-04-16T08:06:44.001Z</time></trkpt><trkpt lat="45.543963471966734" lon="11.84101519256919"><ele>21.0</ele><time>2026-04-16T08:06:45.001Z</time></trkpt><trkpt lat="45.54391350549049" lon="11.840846064221001"><ele>21.0</ele><time>2026-04-16T08:06:47.001Z</time></trkpt><trkpt lat="45.54386222039798" lon="11.84068246293223"><ele>21.0</ele><time>2026-04-16T08:06:48.999Z</time></trkpt><trkpt lat="45.54383647335291" lon="11.840596149214484"><ele>21.0</ele><time>2026-04-16T08:06:49.999Z</time></trkpt><trkpt lat="45.54381012153966" lon="11.84051255091428"><ele>21.0</ele><time>2026-04-16T08:06:50.999Z</time></trkpt><trkpt lat="45.54378112060839" lon="11.840430208257002"><ele>21.0</ele><time>2026-04-16T08:06:51.999Z</time></trkpt><trkpt lat="45.54375182843894" lon="11.840347079744344"><ele>21.0</ele><time>2026-04-16T08:06:52.999Z</time></trkpt><trkpt lat="45.54369359345331" lon="11.840183690883062"><ele>21.0</ele><time>2026-04-16T08:06:54.999Z</time></trkpt><trkpt lat="45.5436680277056" lon="11.840094911648178"><ele>21.0</ele><time>2026-04-16T08:06:55.999Z</time></trkpt><trkpt lat="45.543643052510625" lon="11.84001208299398"><ele>21.0</ele><time>2026-04-16T08:06:56.999Z</time></trkpt><trkpt lat="45.543611697653624" lon="11.839920339758867"><ele>21.0</ele><time>2026-04-16T08:06:57.999Z</time></trkpt><trkpt lat="45.543584648924025" lon="11.839828006094688"><ele>21.0</ele><time>2026-04-16T08:06:58.999Z</time></trkpt><trkpt lat="45.54352955753395" lon="11.839675693642292"><ele>21.0</ele><time>2026-04-16T08:07:00.999Z</time></trkpt><trkpt lat="45.54349078165928" lon="11.839597754830933"><ele>21.0</ele><time>2026-04-16T08:07:01.999Z</time></trkpt><trkpt lat="45.54344986623817" lon="11.839510619193032"><ele>21.0</ele><time>2026-04-16T08:07:02.999Z</time></trkpt><trkpt lat="45.54341595432593" lon="11.83942048851225"><ele>21.0</ele><time>2026-04-16T08:07:03.999Z</time></trkpt><trkpt lat="45.54338492514576" lon="11.839333247836723"><ele>21.0</ele><time>2026-04-16T08:07:04.999Z</time></trkpt><trkpt lat="45.543359218378505" lon="11.839248262313212"><ele>21.0</ele><time>2026-04-16T08:07:05.999Z</time></trkpt><trkpt lat="45.54333329016559" lon="11.839162709386043"><ele>21.0</ele><time>2026-04-16T08:07:06.999Z</time></trkpt><trkpt lat="45.54330095777766" lon="11.839077733746786"><ele>21.0</ele><time>2026-04-16T08:07:07.999Z</time></trkpt><trkpt lat="45.54326821946656" lon="11.838994234465973"><ele>21.0</ele><time>2026-04-16T08:07:08.999Z</time></trkpt><trkpt lat="45.543236567117006" lon="11.838910527943892"><ele>21.0</ele><time>2026-04-16T08:07:09.999Z</time></trkpt><trkpt lat="45.543207741750734" lon="11.838826747243875"><ele>21.0</ele><time>2026-04-16T08:07:10.999Z</time></trkpt><trkpt lat="45.54318137798655" lon="11.83874022071888"><ele>21.0</ele><time>2026-04-16T08:07:12Z</time></trkpt><trkpt lat="45.543156454916975" lon="11.838656382149486"><ele>21.0</ele><time>2026-04-16T08:07:13Z</time></trkpt><trkpt lat="45.54311604813234" lon="11.838518418818596"><ele>21.0</ele><time>2026-04-16T08:07:15Z</time></trkpt><trkpt lat="45.54308116980358" lon="11.838421297220819"><ele>21.0</ele><time>2026-04-16T08:07:17Z</time></trkpt><trkpt lat="45.54305832343026" lon="11.838327135983823"><ele>21.0</ele><time>2026-04-16T08:07:21Z</time></trkpt><trkpt lat="45.5430322775393" lon="11.838222481075382"><ele>21.0</ele><time>2026-04-16T08:07:24Z</time></trkpt><trkpt lat="45.54301475836179" lon="11.838113151105851"><ele>21.0</ele><time>2026-04-16T08:07:26Z</time></trkpt><trkpt lat="45.54295978419476" lon="11.837997876418825"><ele>21.0</ele><time>2026-04-16T08:07:28Z</time></trkpt><trkpt lat="45.542908407959125" lon="11.83785420922259"><ele>21.0</ele><time>2026-04-16T08:07:30Z</time></trkpt><trkpt lat="45.54286034961616" lon="11.837696121673353"><ele>21.0</ele><time>2026-04-16T08:07:32Z</time></trkpt><trkpt lat="45.542809448186176" lon="11.837539228024937"><ele>21.0</ele><time>2026-04-16T08:07:34Z</time></trkpt><trkpt lat="45.542758978848454" lon="11.837372301930234"><ele>21.0</ele><time>2026-04-16T08:07:36Z</time></trkpt><trkpt lat="45.54273442959962" lon="11.83728471170067"><ele>21.0</ele><time>2026-04-16T08:07:37Z</time></trkpt><trkpt lat="45.54270642155917" lon="11.837200272069914"><ele>21.0</ele><time>2026-04-16T08:07:38Z</time></trkpt><trkpt lat="45.54268090775279" lon="11.83711557943209"><ele>21.0</ele><time>2026-04-16T08:07:39Z</time></trkpt><trkpt lat="45.54265731112212" lon="11.837031438440837"><ele>21.0</ele><time>2026-04-16T08:07:40Z</time></trkpt><trkpt lat="45.54260986069372" lon="11.8368674633408"><ele>21.0</ele><time>2026-04-16T08:07:42Z</time></trkpt><trkpt lat="45.542585518487606" lon="11.836779217967745"><ele>21.0</ele><time>2026-04-16T08:07:43Z</time></trkpt><trkpt lat="45.54255825311381" lon="11.836698007704573"><ele>21.0</ele><time>2026-04-16T08:07:44Z</time></trkpt><trkpt lat="45.54250261758793" lon="11.83653901489638"><ele>21.0</ele><time>2026-04-16T08:07:46Z</time></trkpt><trkpt lat="45.54247170926684" lon="11.836458225652956"><ele>21.0</ele><time>2026-04-16T08:07:47Z</time></trkpt><trkpt lat="45.54244573187203" lon="11.836373880403585"><ele>21.0</ele><time>2026-04-16T08:07:48Z</time></trkpt><trkpt lat="45.5424165322359" lon="11.836292070031064"><ele>21.0</ele><time>2026-04-16T08:07:49Z</time></trkpt><trkpt lat="45.54239237913188" lon="11.836208558939502"><ele>21.0</ele><time>2026-04-16T08:07:50Z</time></trkpt><trkpt lat="45.5423585406996" lon="11.8361256392551"><ele>21.0</ele><time>2026-04-16T08:07:51Z</time></trkpt><trkpt lat="45.54233255891522" lon="11.836039023457685"><ele>21.0</ele><time>2026-04-16T08:07:52Z</time></trkpt><trkpt lat="45.54230601003256" lon="11.835955349590087"><ele>21.0</ele><time>2026-04-16T08:07:53Z</time></trkpt><trkpt lat="45.54227817880682" lon="11.835870415664813"><ele>21.0</ele><time>2026-04-16T08:07:54Z</time></trkpt><trkpt lat="45.54224632835523" lon="11.835783637040262"><ele>21.0</ele><time>2026-04-16T08:07:55Z</time></trkpt><trkpt lat="45.54221115648118" lon="11.835700663586078"><ele>21.0</ele><time>2026-04-16T08:07:56Z</time></trkpt><trkpt lat="45.542181866936915" lon="11.83561464563605"><ele>21.0</ele><time>2026-04-16T08:07:57Z</time></trkpt><trkpt lat="45.542155079347324" lon="11.835531484646214"><ele>21.0</ele><time>2026-04-16T08:07:58Z</time></trkpt><trkpt lat="45.542121346360574" lon="11.835439440141217"><ele>21.0</ele><time>2026-04-16T08:07:59Z</time></trkpt><trkpt lat="45.5420846108476" lon="11.835353151754822"><ele>21.0</ele><time>2026-04-16T08:08:00Z</time></trkpt><trkpt lat="45.54205904858256" lon="11.835269237209888"><ele>21.0</ele><time>2026-04-16T08:08:01Z</time></trkpt><trkpt lat="45.54203228293441" lon="11.835183771705147"><ele>21.0</ele><time>2026-04-16T08:08:02Z</time></trkpt><trkpt lat="45.54200214291456" lon="11.835097275087904"><ele>21.0</ele><time>2026-04-16T08:08:03.001Z</time></trkpt><trkpt lat="45.54197425787511" lon="11.835005537225912"><ele>21.0</ele><time>2026-04-16T08:08:04.001Z</time></trkpt><trkpt lat="45.54195602608978" lon="11.834912496428458"><ele>21.0</ele><time>2026-04-16T08:08:05.001Z</time></trkpt><trkpt lat="45.54192298315741" lon="11.83482045858639"><ele>21.0</ele><time>2026-04-16T08:08:06.001Z</time></trkpt><trkpt lat="45.541887085601914" lon="11.834731702043076"><ele>21.0</ele><time>2026-04-16T08:08:07.001Z</time></trkpt><trkpt lat="45.54185702313252" lon="11.834644336109474"><ele>21.0</ele><time>2026-04-16T08:08:08.001Z</time></trkpt><trkpt lat="45.54182766950429" lon="11.834552429763065"><ele>21.0</ele><time>2026-04-16T08:08:09.001Z</time></trkpt><trkpt lat="45.54179635693721" lon="11.834467865717977"><ele>21.0</ele><time>2026-04-16T08:08:10.001Z</time></trkpt><trkpt lat="45.54176736375253" lon="11.834374109579818"><ele>21.166666666666668</ele><time>2026-04-16T08:08:11.001Z</time></trkpt><trkpt lat="45.54173831444308" lon="11.834290341301964"><ele>21.333333333333332</ele><time>2026-04-16T08:08:12.001Z</time></trkpt><trkpt lat="45.54171198426785" lon="11.834204336231789"><ele>21.5</ele><time>2026-04-16T08:08:13.001Z</time></trkpt><trkpt lat="45.54168765771902" lon="11.834120543342323"><ele>21.666666666666664</ele><time>2026-04-16T08:08:14.001Z</time></trkpt><trkpt lat="45.54163186874617" lon="11.833965990560797"><ele>21.833333333333332</ele><time>2026-04-16T08:08:16.001Z</time></trkpt><trkpt lat="45.5416075787654" lon="11.83387495939471"><ele>22.0</ele><time>2026-04-16T08:08:17.001Z</time></trkpt><trkpt lat="45.54157526147216" lon="11.833787573154911"><ele>22.0</ele><time>2026-04-16T08:08:18.001Z</time></trkpt><trkpt lat="45.541546403284926" lon="11.83369887987923"><ele>22.0</ele><time>2026-04-16T08:08:19.001Z</time></trkpt><trkpt lat="45.541489555460785" lon="11.833539961496893"><ele>22.0</ele><time>2026-04-16T08:08:21.001Z</time></trkpt><trkpt lat="45.54142700183868" lon="11.833396526337909"><ele>22.0</ele><time>2026-04-16T08:08:23.001Z</time></trkpt><trkpt lat="45.54139766573426" lon="11.833316028788108"><ele>22.0</ele><time>2026-04-16T08:08:24.001Z</time></trkpt><trkpt lat="45.541355300177486" lon="11.833186954443303"><ele>22.0</ele><time>2026-04-16T08:08:26.001Z</time></trkpt><trkpt lat="45.541325956292106" lon="11.833075936633653"><ele>22.0</ele><time>2026-04-16T08:08:30.001Z</time></trkpt><trkpt lat="45.5413063358448" lon="11.8329889323474"><ele>22.0</ele><time>2026-04-16T08:08:32.001Z</time></trkpt><trkpt lat="45.54126603340421" lon="11.832871402963603"><ele>22.0</ele><time>2026-04-16T08:08:34.001Z</time></trkpt><trkpt lat="45.54121605390176" lon="11.832745753824584"><ele>22.0</ele><time>2026-04-16T08:08:36.001Z</time></trkpt><trkpt lat="45.54117460234668" lon="11.832597218532909"><ele>22.0</ele><time>2026-04-16T08:08:38.001Z</time></trkpt><trkpt lat="45.54113365289934" lon="11.832432326712247"><ele>22.0</ele><time>2026-04-16T08:08:40.001Z</time></trkpt><trkpt lat="45.54108068671885" lon="11.832267580434351"><ele>22.0</ele><time>2026-04-16T08:08:42.001Z</time></trkpt><trkpt lat="45.54105070677423" lon="11.832186797140432"><ele>22.0</ele><time>2026-04-16T08:08:43.001Z</time></trkpt><trkpt lat="45.54101578689383" lon="11.832106916146152"><ele>22.0</ele><time>2026-04-16T08:08:44.001Z</time></trkpt><trkpt lat="45.540958368571175" lon="11.831943616937671"><ele>22.0</ele><time>2026-04-16T08:08:46.001Z</time></trkpt><trkpt lat="45.540933098468905" lon="11.83185848409552"><ele>22.0</ele><time>2026-04-16T08:08:47.001Z</time></trkpt><trkpt lat="45.540907373221955" lon="11.831776351054362"><ele>22.0</ele><time>2026-04-16T08:08:48.001Z</time></trkpt><trkpt lat="45.54084934208379" lon="11.831612579772642"><ele>22.0</ele><time>2026-04-16T08:08:50.001Z</time></trkpt><trkpt lat="45.54082080197902" lon="11.831529644110603"><ele>22.0</ele><time>2026-04-16T08:08:51.001Z</time></trkpt><trkpt lat="45.54079684345456" lon="11.831443366495678"><ele>22.0</ele><time>2026-04-16T08:08:52.001Z</time></trkpt><trkpt lat="45.54074119742143" lon="11.83128950724407"><ele>21.5</ele><time>2026-04-16T08:08:53.999Z</time></trkpt><trkpt lat="45.54071493524751" lon="11.831197546622699"><ele>21.0</ele><time>2026-04-16T08:08:54.999Z</time></trkpt><trkpt lat="45.540683489560294" lon="11.831112626225677"><ele>20.5</ele><time>2026-04-16T08:08:55.999Z</time></trkpt><trkpt lat="45.54062675744727" lon="11.830954283017935"><ele>20.0</ele><time>2026-04-16T08:08:57.999Z</time></trkpt><trkpt lat="45.54059909351029" lon="11.830872357576267"><ele>19.5</ele><time>2026-04-16T08:08:58.999Z</time></trkpt><trkpt lat="45.54054589188679" lon="11.83071513413924"><ele>19.0</ele><time>2026-04-16T08:09:00.999Z</time></trkpt><trkpt lat="45.54049508411951" lon="11.830562453891032"><ele>18.75</ele><time>2026-04-16T08:09:02.999Z</time></trkpt><trkpt lat="45.54045192390275" lon="11.83041983604133"><ele>18.5</ele><time>2026-04-16T08:09:04.999Z</time></trkpt><trkpt lat="45.540398333062235" lon="11.830282084945138"><ele>18.25</ele><time>2026-04-16T08:09:06.999Z</time></trkpt><trkpt lat="45.540353548310016" lon="11.830117899738699"><ele>18.0</ele><time>2026-04-16T08:09:08.999Z</time></trkpt><trkpt lat="45.54030101169935" lon="11.829968728720091"><ele>18.5</ele><time>2026-04-16T08:09:10.999Z</time></trkpt><trkpt lat="45.540264818670174" lon="11.829844840498891"><ele>19.0</ele><time>2026-04-16T08:09:12.999Z</time></trkpt><trkpt lat="45.54024927827863" lon="11.829742470883103"><ele>19.5</ele><time>2026-04-16T08:09:15Z</time></trkpt><trkpt lat="45.54019834748559" lon="11.829650587847393"><ele>20.0</ele><time>2026-04-16T08:09:17Z</time></trkpt><trkpt lat="45.540157137646645" lon="11.829556081941659"><ele>20.5</ele><time>2026-04-16T08:09:19Z</time></trkpt><trkpt lat="45.54011648691791" lon="11.829423465946974"><ele>21.0</ele><time>2026-04-16T08:09:21Z</time></trkpt><trkpt lat="45.540070588808774" lon="11.829276129105606"><ele>21.200000000000003</ele><time>2026-04-16T08:09:23Z</time></trkpt><trkpt lat="45.54001829422105" lon="11.829122771404105"><ele>21.400000000000002</ele><time>2026-04-16T08:09:25Z</time></trkpt><trkpt lat="45.539996188901874" lon="11.829028355572504"><ele>21.6</ele><time>2026-04-16T08:09:26Z</time></trkpt><trkpt lat="45.53995074643094" lon="11.82885836044069"><ele>21.8</ele><time>2026-04-16T08:09:28Z</time></trkpt><trkpt lat="45.53989561648555" lon="11.828707826281851"><ele>22.0</ele><time>2026-04-16T08:09:30Z</time></trkpt><trkpt lat="45.53987109902036" lon="11.828618447068822"><ele>22.0</ele><time>2026-04-16T08:09:31Z</time></trkpt><trkpt lat="45.53984305145431" lon="11.828534843224864"><ele>22.0</ele><time>2026-04-16T08:09:32Z</time></trkpt><trkpt lat="45.539820039081626" lon="11.828449844710503"><ele>22.0</ele><time>2026-04-16T08:09:33Z</time></trkpt><trkpt lat="45.539771843224706" lon="11.828284885454732"><ele>22.0</ele><time>2026-04-16T08:09:35Z</time></trkpt><trkpt lat="45.53974241065245" lon="11.82819958747938"><ele>22.0</ele><time>2026-04-16T08:09:36Z</time></trkpt><trkpt lat="45.53971182456703" lon="11.828111977150936"><ele>22.0</ele><time>2026-04-16T08:09:37Z</time></trkpt><trkpt lat="45.53968802290103" lon="11.82802292041646"><ele>22.0</ele><time>2026-04-16T08:09:38Z</time></trkpt><trkpt lat="45.539663074644665" lon="11.827934278684266"><ele>22.0</ele><time>2026-04-16T08:09:39Z</time></trkpt><trkpt lat="45.53963890527832" lon="11.827844496018184"><ele>22.0</ele><time>2026-04-16T08:09:40Z</time></trkpt><trkpt lat="45.539579926607075" lon="11.827675096706104"><ele>22.0</ele><time>2026-04-16T08:09:42Z</time></trkpt><trkpt lat="45.539553718904614" lon="11.827582630588124"><ele>22.0</ele><time>2026-04-16T08:09:43Z</time></trkpt><trkpt lat="45.539504493524895" lon="11.827421288543732"><ele>22.0</ele><time>2026-04-16T08:09:45Z</time></trkpt><trkpt lat="45.539465787066035" lon="11.82725132082719"><ele>22.0</ele><time>2026-04-16T08:09:47Z</time></trkpt><trkpt lat="45.53943667655014" lon="11.827161625353709"><ele>22.0</ele><time>2026-04-16T08:09:48Z</time></trkpt><trkpt lat="45.539413519503775" lon="11.827074516714749"><ele>22.0</ele><time>2026-04-16T08:09:49Z</time></trkpt><trkpt lat="45.53937244297244" lon="11.82689979546205"><ele>22.0</ele><time>2026-04-16T08:09:51Z</time></trkpt><trkpt lat="45.53934903821296" lon="11.826803415967284"><ele>22.285714285714285</ele><time>2026-04-16T08:09:52Z</time></trkpt><trkpt lat="45.539328234737155" lon="11.826707633468828"><ele>22.57142857142857</ele><time>2026-04-16T08:09:53Z</time></trkpt><trkpt lat="45.53930529712822" lon="11.826616322842442"><ele>22.857142857142854</ele><time>2026-04-16T08:09:54Z</time></trkpt><trkpt lat="45.539287464428845" lon="11.826526129433011"><ele>23.142857142857142</ele><time>2026-04-16T08:09:55Z</time></trkpt><trkpt lat="45.539268588463784" lon="11.826439936250734"><ele>23.428571428571427</ele><time>2026-04-16T08:09:56Z</time></trkpt><trkpt lat="45.53923858192894" lon="11.826347778628003"><ele>23.71428571428571</ele><time>2026-04-16T08:09:57Z</time></trkpt><trkpt lat="45.53921768010797" lon="11.826256577749081"><ele>24.0</ele><time>2026-04-16T08:09:58Z</time></trkpt><trkpt lat="45.539198183976815" lon="11.826166065717429"><ele>24.0</ele><time>2026-04-16T08:09:59.001Z</time></trkpt><trkpt lat="45.539179170858944" lon="11.826078136293551"><ele>24.0</ele><time>2026-04-16T08:10:00.001Z</time></trkpt><trkpt lat="45.53915627878719" lon="11.825914190735288"><ele>24.0</ele><time>2026-04-16T08:10:02.001Z</time></trkpt><trkpt lat="45.53913310791873" lon="11.825829693434326"><ele>24.0</ele><time>2026-04-16T08:10:03.001Z</time></trkpt><trkpt lat="45.539106743698966" lon="11.825740460514233"><ele>24.0</ele><time>2026-04-16T08:10:04.001Z</time></trkpt><trkpt lat="45.53907304378183" lon="11.825571784393722"><ele>24.0</ele><time>2026-04-16T08:10:06.001Z</time></trkpt><trkpt lat="45.539054375325996" lon="11.825484195388668"><ele>24.2</ele><time>2026-04-16T08:10:07.001Z</time></trkpt><trkpt lat="45.53903563614201" lon="11.825395043225726"><ele>24.4</ele><time>2026-04-16T08:10:08.001Z</time></trkpt><trkpt lat="45.538997725652024" lon="11.825223552571993"><ele>24.6</ele><time>2026-04-16T08:10:10.001Z</time></trkpt><trkpt lat="45.538970639213375" lon="11.825070213625416"><ele>24.8</ele><time>2026-04-16T08:10:12.001Z</time></trkpt><trkpt lat="45.5389605587881" lon="11.824981218756902"><ele>25.0</ele><time>2026-04-16T08:10:13.001Z</time></trkpt><trkpt lat="45.53894322669424" lon="11.824821105079748"><ele>24.8</ele><time>2026-04-16T08:10:15.001Z</time></trkpt><trkpt lat="45.53892141656039" lon="11.824679528240454"><ele>24.6</ele><time>2026-04-16T08:10:17.001Z</time></trkpt><trkpt lat="45.53892779892421" lon="11.824538757642076"><ele>24.4</ele><time>2026-04-16T08:10:19.001Z</time></trkpt><trkpt lat="45.53889817341382" lon="11.824443043310586"><ele>24.2</ele><time>2026-04-16T08:10:21.001Z</time></trkpt><trkpt lat="45.5388920134136" lon="11.824308526658081"><ele>24.0</ele><time>2026-04-16T08:10:24.001Z</time></trkpt><trkpt lat="45.53885559073964" lon="11.824196079529791"><ele>24.0</ele><time>2026-04-16T08:10:26.001Z</time></trkpt><trkpt lat="45.53883221415952" lon="11.824075299723708"><ele>24.0</ele><time>2026-04-16T08:10:28.001Z</time></trkpt><trkpt lat="45.53881838485363" lon="11.82396468207621"><ele>24.0</ele><time>2026-04-16T08:10:30.001Z</time></trkpt><trkpt lat="45.538800482178765" lon="11.823862846455986"><ele>24.0</ele><time>2026-04-16T08:10:33.001Z</time></trkpt><trkpt lat="45.538800373078374" lon="11.823759647007584"><ele>24.0</ele><time>2026-04-16T08:10:38.001Z</time></trkpt><trkpt lat="45.53877137145043" lon="11.823651813338241"><ele>24.0</ele><time>2026-04-16T08:10:40.001Z</time></trkpt><trkpt lat="45.53874612076333" lon="11.82349322833314"><ele>24.0</ele><time>2026-04-16T08:10:42.001Z</time></trkpt><trkpt lat="45.53887535487787" lon="11.823704859940497"><ele>24.0</ele><time>2026-04-16T08:10:43.001Z</time></trkpt><trkpt lat="45.53874107664361" lon="11.82315840765842"><ele>23.799999999999997</ele><time>2026-04-16T08:10:46.001Z</time></trkpt><trkpt lat="45.538729455230865" lon="11.823067610902608"><ele>23.599999999999998</ele><time>2026-04-16T08:10:47.001Z</time></trkpt><trkpt lat="45.53871139604118" lon="11.822979696954475"><ele>23.4</ele><time>2026-04-16T08:10:48.001Z</time></trkpt><trkpt lat="45.53868277088356" lon="11.822814026905885"><ele>23.2</ele><time>2026-04-16T08:10:50.001Z</time></trkpt><trkpt lat="45.5386647810794" lon="11.82265066615728"><ele>23.0</ele><time>2026-04-16T08:10:52.001Z</time></trkpt><trkpt lat="45.538628437322444" lon="11.822499393052679"><ele>23.0</ele><time>2026-04-16T08:10:54.002Z</time></trkpt><trkpt lat="45.538585373797254" lon="11.822346629644858"><ele>23.0</ele><time>2026-04-16T08:10:56.002Z</time></trkpt><trkpt lat="45.53854923694062" lon="11.822186327218565"><ele>23.0</ele><time>2026-04-16T08:10:58.002Z</time></trkpt><trkpt lat="45.53853573256604" lon="11.82203470007421"><ele>23.0</ele><time>2026-04-16T08:10:59.999Z</time></trkpt><trkpt lat="45.53850748588017" lon="11.821875331764936"><ele>23.0</ele><time>2026-04-16T08:11:01.999Z</time></trkpt><trkpt lat="45.53849104183242" lon="11.821700312631224"><ele>23.0</ele><time>2026-04-16T08:11:03.999Z</time></trkpt><trkpt lat="45.53847105047787" lon="11.82154135330166"><ele>23.0</ele><time>2026-04-16T08:11:05.999Z</time></trkpt><trkpt lat="45.53846191317059" lon="11.82145160641869"><ele>23.0</ele><time>2026-04-16T08:11:06.999Z</time></trkpt><trkpt lat="45.53845292998138" lon="11.821286473327058"><ele>23.0</ele><time>2026-04-16T08:11:08.999Z</time></trkpt><trkpt lat="45.53843753672463" lon="11.821144721736376"><ele>23.0</ele><time>2026-04-16T08:11:10.999Z</time></trkpt><trkpt lat="45.53843944571034" lon="11.821010407046593"><ele>23.0</ele><time>2026-04-16T08:11:12.999Z</time></trkpt><trkpt lat="45.53842960082361" lon="11.820904592238021"><ele>23.0</ele><time>2026-04-16T08:11:14.999Z</time></trkpt><trkpt lat="45.538420504911684" lon="11.820785632810665"><ele>23.0</ele><time>2026-04-16T08:11:17Z</time></trkpt><trkpt lat="45.538314707987" lon="11.820774071295876"><ele>23.0</ele><time>2026-04-16T08:11:18Z</time></trkpt><trkpt lat="45.53828493476213" lon="11.820651859782805"><ele>23.0</ele><time>2026-04-16T08:11:20Z</time></trkpt><trkpt lat="45.53824776537569" lon="11.820489831564682"><ele>22.799999999999997</ele><time>2026-04-16T08:11:22Z</time></trkpt><trkpt lat="45.53820346564103" lon="11.82031630380276"><ele>22.6</ele><time>2026-04-16T08:11:24Z</time></trkpt><trkpt lat="45.538140377427176" lon="11.820221143210288"><ele>22.4</ele><time>2026-04-16T08:11:26Z</time></trkpt><trkpt lat="45.5380847018814" lon="11.820166195730824"><ele>22.200000000000003</ele><time>2026-04-16T08:11:28Z</time></trkpt><trkpt lat="45.53802164472245" lon="11.8200381789632"><ele>22.0</ele><time>2026-04-16T08:11:30Z</time></trkpt><trkpt lat="45.53834082056863" lon="11.81934329705104"><ele>21.5</ele><time>2026-04-16T08:11:33Z</time></trkpt><trkpt lat="45.53834027357766" lon="11.819251926167876"><ele>21.0</ele><time>2026-04-16T08:11:34Z</time></trkpt><trkpt lat="45.53833867333526" lon="11.81915831348891"><ele>20.5</ele><time>2026-04-16T08:11:35Z</time></trkpt><trkpt lat="45.538345252976235" lon="11.81906831236532"><ele>20.0</ele><time>2026-04-16T08:11:36Z</time></trkpt><trkpt lat="45.538342389511854" lon="11.818976350042425"><ele>19.5</ele><time>2026-04-16T08:11:37Z</time></trkpt><trkpt lat="45.53834045979426" lon="11.818886200271436"><ele>19.0</ele><time>2026-04-16T08:11:38Z</time></trkpt><trkpt lat="45.53833731863167" lon="11.81869934030676"><ele>19.0</ele><time>2026-04-16T08:11:40Z</time></trkpt><trkpt lat="45.53833690700947" lon="11.81860399137187"><ele>19.0</ele><time>2026-04-16T08:11:41Z</time></trkpt><trkpt lat="45.53833708547187" lon="11.818509213480478"><ele>19.0</ele><time>2026-04-16T08:11:42Z</time></trkpt><trkpt lat="45.53833826948143" lon="11.818413162986607"><ele>19.0</ele><time>2026-04-16T08:11:43Z</time></trkpt><trkpt lat="45.53833842064262" lon="11.81832139240574"><ele>19.0</ele><time>2026-04-16T08:11:44Z</time></trkpt><trkpt lat="45.53833428913672" lon="11.81823169514302"><ele>19.0</ele><time>2026-04-16T08:11:45Z</time></trkpt><trkpt lat="45.538328876032466" lon="11.818131472025376"><ele>19.0</ele><time>2026-04-16T08:11:46Z</time></trkpt><trkpt lat="45.53832649994154" lon="11.818035320813147"><ele>19.0</ele><time>2026-04-16T08:11:47Z</time></trkpt><trkpt lat="45.538321645556294" lon="11.817945693817379"><ele>19.0</ele><time>2026-04-16T08:11:48Z</time></trkpt><trkpt lat="45.53832504609526" lon="11.817771462609123"><ele>19.0</ele><time>2026-04-16T08:11:50Z</time></trkpt><trkpt lat="45.538327450454226" lon="11.817604205683573"><ele>19.0</ele><time>2026-04-16T08:11:52Z</time></trkpt><trkpt lat="45.53832245015046" lon="11.81743362586261"><ele>19.0</ele><time>2026-04-16T08:11:54.001Z</time></trkpt><trkpt lat="45.53831323564456" lon="11.817280194640148"><ele>19.0</ele><time>2026-04-16T08:11:56.001Z</time></trkpt><trkpt lat="45.53830702013026" lon="11.817119706114584"><ele>19.0</ele><time>2026-04-16T08:11:58.001Z</time></trkpt><trkpt lat="45.53830153161285" lon="11.816966132820776"><ele>19.0</ele><time>2026-04-16T08:12:00.001Z</time></trkpt><trkpt lat="45.53831219696813" lon="11.816818637933915"><ele>19.0</ele><time>2026-04-16T08:12:02.001Z</time></trkpt><trkpt lat="45.538317326354964" lon="11.816671211934375"><ele>19.0</ele><time>2026-04-16T08:12:04.001Z</time></trkpt><trkpt lat="45.5383116840841" lon="11.816537949780626"><ele>19.0</ele><time>2026-04-16T08:12:06.001Z</time></trkpt><trkpt lat="45.53830709418773" lon="11.816412757122597"><ele>19.0</ele><time>2026-04-16T08:12:08.001Z</time></trkpt><trkpt lat="45.53829463291537" lon="11.816321087938912"><ele>19.0</ele><time>2026-04-16T08:12:24.001Z</time></trkpt><trkpt lat="45.53828845221453" lon="11.81620417181253"><ele>19.0</ele><time>2026-04-16T08:12:29.001Z</time></trkpt><trkpt lat="45.53831155741297" lon="11.816104340023113"><ele>19.0</ele><time>2026-04-16T08:12:32.001Z</time></trkpt><trkpt lat="45.53830274442906" lon="11.815979437209576"><ele>19.0</ele><time>2026-04-16T08:12:34.001Z</time></trkpt><trkpt lat="45.538292644598954" lon="11.81584657701064"><ele>19.166666666666664</ele><time>2026-04-16T08:12:36.001Z</time></trkpt><trkpt lat="45.53829754927542" lon="11.815704838320462"><ele>19.333333333333332</ele><time>2026-04-16T08:12:38.001Z</time></trkpt><trkpt lat="45.538304783627986" lon="11.815547320367715"><ele>19.5</ele><time>2026-04-16T08:12:40.001Z</time></trkpt><trkpt lat="45.53830113274331" lon="11.815457442985647"><ele>19.666666666666668</ele><time>2026-04-16T08:12:41.001Z</time></trkpt><trkpt lat="45.53828959915321" lon="11.815368709042588"><ele>19.833333333333336</ele><time>2026-04-16T08:12:42.001Z</time></trkpt><trkpt lat="45.538292283756846" lon="11.815214003945226"><ele>20.0</ele><time>2026-04-16T08:12:44.002Z</time></trkpt><trkpt lat="45.538285763272405" lon="11.815050894830446"><ele>20.25</ele><time>2026-04-16T08:12:46.002Z</time></trkpt><trkpt lat="45.538270915825336" lon="11.814892713906588"><ele>20.5</ele><time>2026-04-16T08:12:48.002Z</time></trkpt><trkpt lat="45.53828598428439" lon="11.814739615081423"><ele>20.75</ele><time>2026-04-16T08:12:50.002Z</time></trkpt><trkpt lat="45.538293447793876" lon="11.814572223508511"><ele>21.0</ele><time>2026-04-16T08:12:52.002Z</time></trkpt><trkpt lat="45.538292256654735" lon="11.814390228909172"><ele>20.8</ele><time>2026-04-16T08:12:54.002Z</time></trkpt><trkpt lat="45.53828183042262" lon="11.814216404455507"><ele>20.6</ele><time>2026-04-16T08:12:56.002Z</time></trkpt><trkpt lat="45.5382828339254" lon="11.81403964914293"><ele>20.4</ele><time>2026-04-16T08:12:58.002Z</time></trkpt><trkpt lat="45.53829138250768" lon="11.81386308820597"><ele>20.2</ele><time>2026-04-16T08:13:00.002Z</time></trkpt><trkpt lat="45.53828616389865" lon="11.813766263185364"><ele>20.0</ele><time>2026-04-16T08:13:01.002Z</time></trkpt><trkpt lat="45.5382778324319" lon="11.81360737328924"><ele>20.0</ele><time>2026-04-16T08:13:03.002Z</time></trkpt><trkpt lat="45.538280516244015" lon="11.813448109785986"><ele>20.0</ele><time>2026-04-16T08:13:05.002Z</time></trkpt><trkpt lat="45.53827143775143" lon="11.813310582365943"><ele>20.0</ele><time>2026-04-16T08:13:06.999Z</time></trkpt><trkpt lat="45.5382764456727" lon="11.81315089284347"><ele>20.0</ele><time>2026-04-16T08:13:08.999Z</time></trkpt><trkpt lat="45.53826426285724" lon="11.813002772831442"><ele>20.0</ele><time>2026-04-16T08:13:11Z</time></trkpt><trkpt lat="45.538262848838244" lon="11.812909020410071"><ele>20.0</ele><time>2026-04-16T08:13:12Z</time></trkpt><trkpt lat="45.53826370084474" lon="11.812799270541634"><ele>20.0</ele><time>2026-04-16T08:13:13Z</time></trkpt><trkpt lat="45.53826435781478" lon="11.812680837875595"><ele>20.0</ele><time>2026-04-16T08:13:14Z</time></trkpt><trkpt lat="45.53826089895175" lon="11.812558232298537"><ele>20.0</ele><time>2026-04-16T08:13:15Z</time></trkpt><trkpt lat="45.5382531347815" lon="11.812448026549928"><ele>20.0</ele><time>2026-04-16T08:13:16Z</time></trkpt><trkpt lat="45.538253879962085" lon="11.812347550609005"><ele>20.0</ele><time>2026-04-16T08:13:17Z</time></trkpt><trkpt lat="45.53826160206486" lon="11.812242013991451"><ele>20.166666666666668</ele><time>2026-04-16T08:13:18Z</time></trkpt><trkpt lat="45.53826369636889" lon="11.812147748396828"><ele>20.333333333333336</ele><time>2026-04-16T08:13:19Z</time></trkpt><trkpt lat="45.53827137509805" lon="11.81205308889825"><ele>20.5</ele><time>2026-04-16T08:13:20Z</time></trkpt><trkpt lat="45.53827583328801" lon="11.811959160608351"><ele>20.666666666666668</ele><time>2026-04-16T08:13:21Z</time></trkpt><trkpt lat="45.5383812983679" lon="11.811768443191314"><ele>20.833333333333332</ele><time>2026-04-16T08:13:23Z</time></trkpt><trkpt lat="45.53837946257396" lon="11.811674874822325"><ele>21.0</ele><time>2026-04-16T08:13:24Z</time></trkpt><trkpt lat="45.53837760852508" lon="11.811580376023414"><ele>21.0</ele><time>2026-04-16T08:13:25Z</time></trkpt><trkpt lat="45.538375697456964" lon="11.811482970989475"><ele>21.0</ele><time>2026-04-16T08:13:26Z</time></trkpt><trkpt lat="45.53837386108931" lon="11.811389373428126"><ele>21.0</ele><time>2026-04-16T08:13:27Z</time></trkpt><trkpt lat="45.53837233503504" lon="11.81129834849319"><ele>21.0</ele><time>2026-04-16T08:13:28Z</time></trkpt><trkpt lat="45.53837076845565" lon="11.811203732391432"><ele>21.0</ele><time>2026-04-16T08:13:29Z</time></trkpt><trkpt lat="45.538369105941" lon="11.81110332197303"><ele>21.0</ele><time>2026-04-16T08:13:30Z</time></trkpt><trkpt lat="45.5383675217879" lon="11.811007644394548"><ele>21.0</ele><time>2026-04-16T08:13:31Z</time></trkpt><trkpt lat="45.53836473424373" lon="11.810839286174204"><ele>21.0</ele><time>2026-04-16T08:13:33Z</time></trkpt><trkpt lat="45.53836286388716" lon="11.810726322922221"><ele>21.0</ele><time>2026-04-16T08:13:35Z</time></trkpt><trkpt lat="45.53836055962224" lon="11.810587153075849"><ele>21.0</ele><time>2026-04-16T08:13:37Z</time></trkpt><trkpt lat="45.53835894973478" lon="11.810489921126988"><ele>21.0</ele><time>2026-04-16T08:13:38Z</time></trkpt><trkpt lat="45.53835614164373" lon="11.810320322018464"><ele>21.0</ele><time>2026-04-16T08:13:40Z</time></trkpt><trkpt lat="45.53835320493505" lon="11.81013717081666"><ele>21.285714285714285</ele><time>2026-04-16T08:13:42Z</time></trkpt><trkpt lat="45.538351742098335" lon="11.810045610518438"><ele>21.57142857142857</ele><time>2026-04-16T08:13:43Z</time></trkpt><trkpt lat="45.53835025206735" lon="11.809952348157548"><ele>21.857142857142858</ele><time>2026-04-16T08:13:44Z</time></trkpt><trkpt lat="45.53834898686199" lon="11.809860114630016"><ele>22.142857142857142</ele><time>2026-04-16T08:13:45Z</time></trkpt><trkpt lat="45.53834815444784" lon="11.80976560613665"><ele>22.428571428571427</ele><time>2026-04-16T08:13:46Z</time></trkpt><trkpt lat="45.5383473220307" lon="11.809671097147625"><ele>22.714285714285715</ele><time>2026-04-16T08:13:47Z</time></trkpt><trkpt lat="45.538243095227195" lon="11.809578422898785"><ele>23.0</ele><time>2026-04-16T08:13:48Z</time></trkpt><trkpt lat="45.53824564191871" lon="11.809480528724675"><ele>23.0</ele><time>2026-04-16T08:13:49Z</time></trkpt><trkpt lat="45.53824446092472" lon="11.809376672201829"><ele>23.0</ele><time>2026-04-16T08:13:50.001Z</time></trkpt><trkpt lat="45.53824169013409" lon="11.809276954813836"><ele>23.0</ele><time>2026-04-16T08:13:51.001Z</time></trkpt><trkpt lat="45.538237668782486" lon="11.809173382368781"><ele>23.0</ele><time>2026-04-16T08:13:52.001Z</time></trkpt><trkpt lat="45.538235624537265" lon="11.809068595301776"><ele>23.0</ele><time>2026-04-16T08:13:53.001Z</time></trkpt><trkpt lat="45.53823613133765" lon="11.808966099244783"><ele>23.0</ele><time>2026-04-16T08:13:54.001Z</time></trkpt><trkpt lat="45.53823734884438" lon="11.808864872569936"><ele>23.0</ele><time>2026-04-16T08:13:55.001Z</time></trkpt><trkpt lat="45.538235011008666" lon="11.808765885295971"><ele>22.799999999999997</ele><time>2026-04-16T08:13:56.001Z</time></trkpt><trkpt lat="45.53822972987481" lon="11.808670800898074"><ele>22.6</ele><time>2026-04-16T08:13:57.001Z</time></trkpt><trkpt lat="45.53822735817276" lon="11.80848912785889"><ele>22.4</ele><time>2026-04-16T08:13:59.001Z</time></trkpt><trkpt lat="45.53821279413762" lon="11.808309107266869"><ele>22.200000000000003</ele><time>2026-04-16T08:14:01.001Z</time></trkpt><trkpt lat="45.538215454163094" lon="11.808153462354596"><ele>22.0</ele><time>2026-04-16T08:14:03.001Z</time></trkpt><trkpt lat="45.538210816764554" lon="11.808005286713753"><ele>21.400000000000002</ele><time>2026-04-16T08:14:05.001Z</time></trkpt><trkpt lat="45.5382117942861" lon="11.807859314390228"><ele>20.8</ele><time>2026-04-16T08:14:07.001Z</time></trkpt><trkpt lat="45.53820757175175" lon="11.807689481783905"><ele>20.2</ele><time>2026-04-16T08:14:09.001Z</time></trkpt><trkpt lat="45.538207986849464" lon="11.807509951235806"><ele>19.6</ele><time>2026-04-16T08:14:11.001Z</time></trkpt><trkpt lat="45.53820249713851" lon="11.80741627713246"><ele>19.0</ele><time>2026-04-16T08:14:12.001Z</time></trkpt><trkpt lat="45.53819670403119" lon="11.80732569472368"><ele>18.666666666666664</ele><time>2026-04-16T08:14:13.001Z</time></trkpt><trkpt lat="45.53819960440623" lon="11.807140393134134"><ele>18.333333333333332</ele><time>2026-04-16T08:14:15.001Z</time></trkpt><trkpt lat="45.53819612815103" lon="11.807042527326507"><ele>18.0</ele><time>2026-04-16T08:14:16.001Z</time></trkpt><trkpt lat="45.53819205820764" lon="11.806943384374915"><ele>17.666666666666668</ele><time>2026-04-16T08:14:17.001Z</time></trkpt><trkpt lat="45.53819584284524" lon="11.806848159116283"><ele>17.333333333333336</ele><time>2026-04-16T08:14:18.001Z</time></trkpt><trkpt lat="45.53819513234579" lon="11.806750268261528"><ele>17.0</ele><time>2026-04-16T08:14:19.001Z</time></trkpt><trkpt lat="45.53819392218129" lon="11.806644484008414"><ele>17.666666666666668</ele><time>2026-04-16T08:14:20.001Z</time></trkpt><trkpt lat="45.53819293183929" lon="11.806528862043008"><ele>18.333333333333336</ele><time>2026-04-16T08:14:21.001Z</time></trkpt><trkpt lat="45.53818982287823" lon="11.806412805656418"><ele>19.0</ele><time>2026-04-16T08:14:22.001Z</time></trkpt><trkpt lat="45.5381855650993" lon="11.806301408305941"><ele>19.666666666666668</ele><time>2026-04-16T08:14:23.001Z</time></trkpt><trkpt lat="45.53818724223329" lon="11.806190088140237"><ele>20.333333333333332</ele><time>2026-04-16T08:14:24.001Z</time></trkpt><trkpt lat="45.53818330294635" lon="11.80608087093972"><ele>21.0</ele><time>2026-04-16T08:14:25.001Z</time></trkpt><trkpt lat="45.538183960493505" lon="11.805967792179864"><ele>21.166666666666668</ele><time>2026-04-16T08:14:26.001Z</time></trkpt><trkpt lat="45.5381838753965" lon="11.805857156552403"><ele>21.333333333333332</ele><time>2026-04-16T08:14:27.001Z</time></trkpt><trkpt lat="45.53817920659683" lon="11.805747156620775"><ele>21.5</ele><time>2026-04-16T08:14:28.001Z</time></trkpt><trkpt lat="45.53817427763829" lon="11.805637257373132"><ele>21.666666666666664</ele><time>2026-04-16T08:14:29.001Z</time></trkpt><trkpt lat="45.538169117420495" lon="11.805529920705993"><ele>21.833333333333332</ele><time>2026-04-16T08:14:30.001Z</time></trkpt><trkpt lat="45.53816647169171" lon="11.805427578851498"><ele>22.0</ele><time>2026-04-16T08:14:31.001Z</time></trkpt><trkpt lat="45.53815379720891" lon="11.80531202451052"><ele>22.0</ele><time>2026-04-16T08:14:32.001Z</time></trkpt><trkpt lat="45.538147143297216" lon="11.80520793585826"><ele>22.0</ele><time>2026-04-16T08:14:33.001Z</time></trkpt><trkpt lat="45.53813913212469" lon="11.805099768891832"><ele>22.0</ele><time>2026-04-16T08:14:34.002Z</time></trkpt><trkpt lat="45.53813259434164" lon="11.804990001542484"><ele>22.0</ele><time>2026-04-16T08:14:35.002Z</time></trkpt><trkpt lat="45.5381164520047" lon="11.804883131017583"><ele>22.0</ele><time>2026-04-16T08:14:36.002Z</time></trkpt><trkpt lat="45.53810513563193" lon="11.804780295137867"><ele>22.0</ele><time>2026-04-16T08:14:37.002Z</time></trkpt><trkpt lat="45.53810033824573" lon="11.804679742610292"><ele>22.0</ele><time>2026-04-16T08:14:38.002Z</time></trkpt><trkpt lat="45.53809512906161" lon="11.804567763799033"><ele>22.142857142857142</ele><time>2026-04-16T08:14:39.002Z</time></trkpt><trkpt lat="45.53808964912973" lon="11.804465101102918"><ele>22.285714285714285</ele><time>2026-04-16T08:14:40.002Z</time></trkpt><trkpt lat="45.53808742615267" lon="11.80436096789535"><ele>22.42857142857143</ele><time>2026-04-16T08:14:41.002Z</time></trkpt><trkpt lat="45.53807779239805" lon="11.804262404868457"><ele>22.57142857142857</ele><time>2026-04-16T08:14:42.002Z</time></trkpt><trkpt lat="45.5380654581222" lon="11.80415780582333"><ele>22.71428571428571</ele><time>2026-04-16T08:14:43.002Z</time></trkpt><trkpt lat="45.53805099829992" lon="11.804057337426435"><ele>22.857142857142858</ele><time>2026-04-16T08:14:44.002Z</time></trkpt><trkpt lat="45.53803804325908" lon="11.803956955285063"><ele>23.0</ele><time>2026-04-16T08:14:45.002Z</time></trkpt><trkpt lat="45.53801910124483" lon="11.803850787355037"><ele>22.714285714285715</ele><time>2026-04-16T08:14:46.002Z</time></trkpt><trkpt lat="45.53800681010234" lon="11.803747547713018"><ele>22.428571428571427</ele><time>2026-04-16T08:14:47.002Z</time></trkpt><trkpt lat="45.53799576235231" lon="11.803644496159306"><ele>22.142857142857142</ele><time>2026-04-16T08:14:48.002Z</time></trkpt><trkpt lat="45.53798231490375" lon="11.803538537736483"><ele>21.857142857142858</ele><time>2026-04-16T08:14:49.002Z</time></trkpt><trkpt lat="45.53796785371542" lon="11.803437436231057"><ele>21.57142857142857</ele><time>2026-04-16T08:14:50.002Z</time></trkpt><trkpt lat="45.53795043732191" lon="11.80333848338106"><ele>21.285714285714285</ele><time>2026-04-16T08:14:51.002Z</time></trkpt><trkpt lat="45.53793418333124" lon="11.80323627607019"><ele>21.0</ele><time>2026-04-16T08:14:52.002Z</time></trkpt><trkpt lat="45.537923644676006" lon="11.803138520631329"><ele>21.0</ele><time>2026-04-16T08:14:53.002Z</time></trkpt><trkpt lat="45.53791131651568" lon="11.803040124969465"><ele>21.0</ele><time>2026-04-16T08:14:54.002Z</time></trkpt><trkpt lat="45.53789381582244" lon="11.802937846030137"><ele>21.0</ele><time>2026-04-16T08:14:55.002Z</time></trkpt><trkpt lat="45.537872358164776" lon="11.802845398104894"><ele>21.0</ele><time>2026-04-16T08:14:56.002Z</time></trkpt><trkpt lat="45.53785601170185" lon="11.802747089566731"><ele>21.0</ele><time>2026-04-16T08:14:57.002Z</time></trkpt><trkpt lat="45.537850054408025" lon="11.802653090513706"><ele>21.0</ele><time>2026-04-16T08:14:58.002Z</time></trkpt><trkpt lat="45.537836863909384" lon="11.802563699300437"><ele>21.0</ele><time>2026-04-16T08:14:59.002Z</time></trkpt><trkpt lat="45.5378204553983" lon="11.802475854602772"><ele>20.8</ele><time>2026-04-16T08:15:00.002Z</time></trkpt><trkpt lat="45.53778854683237" lon="11.802312481012523"><ele>20.6</ele><time>2026-04-16T08:15:02.002Z</time></trkpt><trkpt lat="45.53775704255037" lon="11.802143861312894"><ele>20.4</ele><time>2026-04-16T08:15:04.002Z</time></trkpt><trkpt lat="45.53772439303781" lon="11.801970614048887"><ele>20.2</ele><time>2026-04-16T08:15:06.002Z</time></trkpt><trkpt lat="45.53770047978093" lon="11.801875574308895"><ele>20.0</ele><time>2026-04-16T08:15:07.002Z</time></trkpt><trkpt lat="45.53768132624161" lon="11.801783467358367"><ele>20.0</ele><time>2026-04-16T08:15:08.002Z</time></trkpt><trkpt lat="45.537658247959875" lon="11.801690927891112"><ele>20.0</ele><time>2026-04-16T08:15:09.002Z</time></trkpt><trkpt lat="45.53763979532827" lon="11.80159225164891"><ele>20.0</ele><time>2026-04-16T08:15:10.002Z</time></trkpt><trkpt lat="45.53761949655168" lon="11.801491502101939"><ele>20.0</ele><time>2026-04-16T08:15:11.002Z</time></trkpt><trkpt lat="45.53760100458455" lon="11.801392261795407"><ele>20.0</ele><time>2026-04-16T08:15:12Z</time></trkpt><trkpt lat="45.537576208703065" lon="11.801295505831995"><ele>20.0</ele><time>2026-04-16T08:15:13Z</time></trkpt><trkpt lat="45.537556270162604" lon="11.80121009640611"><ele>20.0</ele><time>2026-04-16T08:15:14Z</time></trkpt><trkpt lat="45.537532653721875" lon="11.801118260571137"><ele>20.0</ele><time>2026-04-16T08:15:15Z</time></trkpt><trkpt lat="45.53751282368707" lon="11.801028346023816"><ele>20.0</ele><time>2026-04-16T08:15:16Z</time></trkpt><trkpt lat="45.53749357046721" lon="11.80094096812746"><ele>20.0</ele><time>2026-04-16T08:15:17Z</time></trkpt><trkpt lat="45.537445915516514" lon="11.80078302897093"><ele>20.0</ele><time>2026-04-16T08:15:19Z</time></trkpt><trkpt lat="45.53740400827495" lon="11.800612655526303"><ele>20.0</ele><time>2026-04-16T08:15:21Z</time></trkpt><trkpt lat="45.53738487738892" lon="11.800523716867247"><ele>20.0</ele><time>2026-04-16T08:15:22Z</time></trkpt><trkpt lat="45.537359632133345" lon="11.800433914773615"><ele>20.142857142857142</ele><time>2026-04-16T08:15:23Z</time></trkpt><trkpt lat="45.53733334033693" lon="11.800344316194119"><ele>20.285714285714285</ele><time>2026-04-16T08:15:24Z</time></trkpt><trkpt lat="45.53730128574568" lon="11.800251262018085"><ele>20.42857142857143</ele><time>2026-04-16T08:15:25Z</time></trkpt><trkpt lat="45.53727779661777" lon="11.800155242879379"><ele>20.57142857142857</ele><time>2026-04-16T08:15:26Z</time></trkpt><trkpt lat="45.53725982451619" lon="11.800060925364672"><ele>20.714285714285715</ele><time>2026-04-16T08:15:27Z</time></trkpt><trkpt lat="45.537234097439836" lon="11.79996841700435"><ele>20.857142857142858</ele><time>2026-04-16T08:15:28Z</time></trkpt><trkpt lat="45.5372118509748" lon="11.79987705647116"><ele>21.0</ele><time>2026-04-16T08:15:29Z</time></trkpt><trkpt lat="45.53718943072134" lon="11.799783790555011"><ele>21.0</ele><time>2026-04-16T08:15:30Z</time></trkpt><trkpt lat="45.537164721335955" lon="11.799693052844532"><ele>21.0</ele><time>2026-04-16T08:15:31Z</time></trkpt><trkpt lat="45.537139465238546" lon="11.799600973205974"><ele>21.0</ele><time>2026-04-16T08:15:32Z</time></trkpt><trkpt lat="45.5371163189684" lon="11.799504003309067"><ele>21.0</ele><time>2026-04-16T08:15:33Z</time></trkpt><trkpt lat="45.53709195291567" lon="11.799412570907311"><ele>21.0</ele><time>2026-04-16T08:15:34Z</time></trkpt><trkpt lat="45.53706245394109" lon="11.799317971630533"><ele>21.0</ele><time>2026-04-16T08:15:35Z</time></trkpt><trkpt lat="45.53703724179503" lon="11.7992230425619"><ele>21.0</ele><time>2026-04-16T08:15:36Z</time></trkpt><trkpt lat="45.537018550920116" lon="11.799126815412768"><ele>21.0</ele><time>2026-04-16T08:15:37Z</time></trkpt><trkpt lat="45.53699028331231" lon="11.799035121389666"><ele>21.0</ele><time>2026-04-16T08:15:38Z</time></trkpt><trkpt lat="45.53696525056295" lon="11.798941342046374"><ele>21.0</ele><time>2026-04-16T08:15:39Z</time></trkpt><trkpt lat="45.53694202235055" lon="11.79885166561349"><ele>21.0</ele><time>2026-04-16T08:15:40Z</time></trkpt><trkpt lat="45.536918305160555" lon="11.798759557037863"><ele>21.0</ele><time>2026-04-16T08:15:41Z</time></trkpt><trkpt lat="45.53689367187354" lon="11.798665620511224"><ele>21.0</ele><time>2026-04-16T08:15:42Z</time></trkpt><trkpt lat="45.53687315495052" lon="11.798574859655956"><ele>21.0</ele><time>2026-04-16T08:15:43Z</time></trkpt><trkpt lat="45.53686178569345" lon="11.798473910615241"><ele>21.0</ele><time>2026-04-16T08:15:44Z</time></trkpt><trkpt lat="45.536841974689544" lon="11.798375609388184"><ele>21.0</ele><time>2026-04-16T08:15:45Z</time></trkpt><trkpt lat="45.536814841594506" lon="11.79827747653793"><ele>21.0</ele><time>2026-04-16T08:15:46Z</time></trkpt><trkpt lat="45.53679646443785" lon="11.798180557493172"><ele>21.0</ele><time>2026-04-16T08:15:47Z</time></trkpt><trkpt lat="45.53676077433692" lon="11.798088719106726"><ele>21.0</ele><time>2026-04-16T08:15:48Z</time></trkpt><trkpt lat="45.53672490563742" lon="11.798008910012586"><ele>21.0</ele><time>2026-04-16T08:15:49Z</time></trkpt><trkpt lat="45.536684389372276" lon="11.79784003104614"><ele>21.0</ele><time>2026-04-16T08:15:51Z</time></trkpt><trkpt lat="45.53666258124662" lon="11.797745844305041"><ele>21.0</ele><time>2026-04-16T08:15:52Z</time></trkpt><trkpt lat="45.53661785788299" lon="11.797585485004815"><ele>21.0</ele><time>2026-04-16T08:15:54Z</time></trkpt><trkpt lat="45.53659375072497" lon="11.797502079404959"><ele>21.0</ele><time>2026-04-16T08:15:55Z</time></trkpt><trkpt lat="45.536573264677536" lon="11.79741514611553"><ele>21.0</ele><time>2026-04-16T08:15:56.001Z</time></trkpt><trkpt lat="45.53654920834049" lon="11.79733028300118"><ele>21.0</ele><time>2026-04-16T08:15:57.001Z</time></trkpt><trkpt lat="45.53650542547419" lon="11.797161310377481"><ele>21.0</ele><time>2026-04-16T08:15:59.001Z</time></trkpt><trkpt lat="45.53649172012298" lon="11.79707059744935"><ele>21.0</ele><time>2026-04-16T08:16:00.001Z</time></trkpt><trkpt lat="45.5364758159463" lon="11.79698096994944"><ele>21.0</ele><time>2026-04-16T08:16:01.001Z</time></trkpt><trkpt lat="45.536429848421946" lon="11.796820681682108"><ele>21.0</ele><time>2026-04-16T08:16:03.001Z</time></trkpt><trkpt lat="45.53640491927882" lon="11.796734148020018"><ele>21.0</ele><time>2026-04-16T08:16:04.001Z</time></trkpt><trkpt lat="45.53637996166833" lon="11.796644820172496"><ele>21.0</ele><time>2026-04-16T08:16:05.001Z</time></trkpt><trkpt lat="45.536359955942444" lon="11.796548997345187"><ele>21.0</ele><time>2026-04-16T08:16:06.001Z</time></trkpt><trkpt lat="45.536336064981874" lon="11.79645631652892"><ele>21.0</ele><time>2026-04-16T08:16:07.001Z</time></trkpt><trkpt lat="45.53631529759941" lon="11.796362694304985"><ele>21.0</ele><time>2026-04-16T08:16:08.001Z</time></trkpt><trkpt lat="45.53628535884331" lon="11.796269207614063"><ele>21.0</ele><time>2026-04-16T08:16:09.001Z</time></trkpt><trkpt lat="45.5362624632445" lon="11.796169442291037"><ele>21.0</ele><time>2026-04-16T08:16:10.001Z</time></trkpt><trkpt lat="45.536228766508366" lon="11.796069730427417"><ele>21.0</ele><time>2026-04-16T08:16:11.001Z</time></trkpt><trkpt lat="45.536207231414814" lon="11.795970949821479"><ele>21.0</ele><time>2026-04-16T08:16:12.001Z</time></trkpt><trkpt lat="45.53618273888318" lon="11.795870812624957"><ele>20.857142857142858</ele><time>2026-04-16T08:16:13.001Z</time></trkpt><trkpt lat="45.536160307851965" lon="11.795768462251758"><ele>20.714285714285715</ele><time>2026-04-16T08:16:14.001Z</time></trkpt><trkpt lat="45.53613656549269" lon="11.795670796088116"><ele>20.57142857142857</ele><time>2026-04-16T08:16:15.001Z</time></trkpt><trkpt lat="45.53609875156401" lon="11.795584148786634"><ele>20.42857142857143</ele><time>2026-04-16T08:16:16.001Z</time></trkpt><trkpt lat="45.536073755758835" lon="11.795487662542604"><ele>20.285714285714285</ele><time>2026-04-16T08:16:17.001Z</time></trkpt><trkpt lat="45.536057177870426" lon="11.795386163547606"><ele>20.142857142857142</ele><time>2026-04-16T08:16:18.001Z</time></trkpt><trkpt lat="45.5360326765001" lon="11.795288436322144"><ele>20.0</ele><time>2026-04-16T08:16:19.001Z</time></trkpt><trkpt lat="45.536004029260305" lon="11.795185183947144"><ele>20.0</ele><time>2026-04-16T08:16:20.001Z</time></trkpt><trkpt lat="45.535977410938656" lon="11.795089209785637"><ele>20.0</ele><time>2026-04-16T08:16:21.001Z</time></trkpt><trkpt lat="45.535952320075566" lon="11.79499049451711"><ele>20.0</ele><time>2026-04-16T08:16:22.001Z</time></trkpt><trkpt lat="45.53592969290765" lon="11.794892011762752"><ele>20.0</ele><time>2026-04-16T08:16:23.001Z</time></trkpt><trkpt lat="45.53590279466723" lon="11.794794045174392"><ele>20.0</ele><time>2026-04-16T08:16:24.001Z</time></trkpt><trkpt lat="45.535878728406765" lon="11.794702900149764"><ele>20.0</ele><time>2026-04-16T08:16:25.001Z</time></trkpt><trkpt lat="45.535859967522605" lon="11.794605823747132"><ele>20.0</ele><time>2026-04-16T08:16:26.001Z</time></trkpt><trkpt lat="45.535837735731555" lon="11.794510107363616"><ele>20.0</ele><time>2026-04-16T08:16:27.001Z</time></trkpt><trkpt lat="45.53581286663515" lon="11.794415219398905"><ele>20.0</ele><time>2026-04-16T08:16:28.001Z</time></trkpt><trkpt lat="45.53578522322566" lon="11.794322205264463"><ele>20.0</ele><time>2026-04-16T08:16:29.001Z</time></trkpt><trkpt lat="45.53576567640941" lon="11.7942352454118"><ele>20.0</ele><time>2026-04-16T08:16:30.001Z</time></trkpt><trkpt lat="45.53574183117149" lon="11.79414516048688"><ele>20.0</ele><time>2026-04-16T08:16:31.001Z</time></trkpt><trkpt lat="45.53571739376122" lon="11.794060995182"><ele>20.0</ele><time>2026-04-16T08:16:32.001Z</time></trkpt><trkpt lat="45.53569561179484" lon="11.793974154227874"><ele>20.0</ele><time>2026-04-16T08:16:33.001Z</time></trkpt><trkpt lat="45.53567152921873" lon="11.793883839778585"><ele>20.0</ele><time>2026-04-16T08:16:34.001Z</time></trkpt><trkpt lat="45.53565236988256" lon="11.793788706176965"><ele>20.0</ele><time>2026-04-16T08:16:35.001Z</time></trkpt><trkpt lat="45.53563089497182" lon="11.79369494694022"><ele>20.0</ele><time>2026-04-16T08:16:36.001Z</time></trkpt><trkpt lat="45.53560523352542" lon="11.79360545116729"><ele>20.0</ele><time>2026-04-16T08:16:37.001Z</time></trkpt><trkpt lat="45.535582587509026" lon="11.793515882886595"><ele>20.0</ele><time>2026-04-16T08:16:38.001Z</time></trkpt><trkpt lat="45.53553943756479" lon="11.793344626472695"><ele>20.0</ele><time>2026-04-16T08:16:40.002Z</time></trkpt><trkpt lat="45.535513979246815" lon="11.79325570931917"><ele>20.285714285714285</ele><time>2026-04-16T08:16:41.002Z</time></trkpt><trkpt lat="45.53548629398372" lon="11.793169521063405"><ele>20.571428571428573</ele><time>2026-04-16T08:16:42.002Z</time></trkpt><trkpt lat="45.53546154406672" lon="11.793079044818805"><ele>20.857142857142858</ele><time>2026-04-16T08:16:43.002Z</time></trkpt><trkpt lat="45.53543946808565" lon="11.792986252150433"><ele>21.142857142857142</ele><time>2026-04-16T08:16:44.002Z</time></trkpt><trkpt lat="45.53540682899777" lon="11.792889566353093"><ele>21.428571428571427</ele><time>2026-04-16T08:16:45.002Z</time></trkpt><trkpt lat="45.53537387322559" lon="11.792799280879414"><ele>21.714285714285715</ele><time>2026-04-16T08:16:46.002Z</time></trkpt><trkpt lat="45.535343636541555" lon="11.792699891646778"><ele>22.0</ele><time>2026-04-16T08:16:47.002Z</time></trkpt><trkpt lat="45.5353217136666" lon="11.792603895339653"><ele>22.166666666666664</ele><time>2026-04-16T08:16:48.002Z</time></trkpt><trkpt lat="45.535300404605685" lon="11.792504855667694"><ele>22.333333333333332</ele><time>2026-04-16T08:16:49.002Z</time></trkpt><trkpt lat="45.53528203655989" lon="11.792409461545528"><ele>22.5</ele><time>2026-04-16T08:16:50.002Z</time></trkpt><trkpt lat="45.5352669500541" lon="11.792314385866447"><ele>22.666666666666668</ele><time>2026-04-16T08:16:51.002Z</time></trkpt><trkpt lat="45.53524676547336" lon="11.79221472991362"><ele>22.833333333333336</ele><time>2026-04-16T08:16:52.002Z</time></trkpt><trkpt lat="45.535359791109556" lon="11.792048895646174"><ele>23.0</ele><time>2026-04-16T08:16:53.002Z</time></trkpt><trkpt lat="45.535334637461716" lon="11.791952748990349"><ele>23.0</ele><time>2026-04-16T08:16:54.002Z</time></trkpt><trkpt lat="45.53531008550194" lon="11.791858902212187"><ele>23.0</ele><time>2026-04-16T08:16:55.002Z</time></trkpt><trkpt lat="45.535286447673535" lon="11.791768549582073"><ele>23.0</ele><time>2026-04-16T08:16:56.002Z</time></trkpt><trkpt lat="45.53513870788781" lon="11.791737050528692"><ele>23.0</ele><time>2026-04-16T08:16:57.002Z</time></trkpt><trkpt lat="45.53511767174974" lon="11.791634521023546"><ele>23.0</ele><time>2026-04-16T08:16:58.002Z</time></trkpt><trkpt lat="45.53509354714358" lon="11.791535209160275"><ele>23.0</ele><time>2026-04-16T08:16:59.002Z</time></trkpt><trkpt lat="45.53501722209949" lon="11.791459977515057"><ele>23.0</ele><time>2026-04-16T08:17:00.002Z</time></trkpt><trkpt lat="45.53499485897686" lon="11.791360905177529"><ele>23.0</ele><time>2026-04-16T08:17:01.002Z</time></trkpt><trkpt lat="45.53497314099006" lon="11.791264691086763"><ele>23.0</ele><time>2026-04-16T08:17:02.002Z</time></trkpt><trkpt lat="45.534951273549325" lon="11.791163097909177"><ele>23.0</ele><time>2026-04-16T08:17:03.002Z</time></trkpt><trkpt lat="45.534930011742944" lon="11.791063542182062"><ele>23.0</ele><time>2026-04-16T08:17:04.002Z</time></trkpt><trkpt lat="45.53491893229923" lon="11.790958590237043"><ele>23.0</ele><time>2026-04-16T08:17:05.002Z</time></trkpt><trkpt lat="45.534890438118694" lon="11.790864826192424"><ele>23.0</ele><time>2026-04-16T08:17:06.002Z</time></trkpt><trkpt lat="45.534847625862575" lon="11.790691019218189"><ele>23.4</ele><time>2026-04-16T08:17:08.002Z</time></trkpt><trkpt lat="45.534805329647384" lon="11.7905159051726"><ele>23.799999999999997</ele><time>2026-04-16T08:17:10.002Z</time></trkpt><trkpt lat="45.53478604253585" lon="11.790381568015649"><ele>24.2</ele><time>2026-04-16T08:17:12.002Z</time></trkpt><trkpt lat="45.53474422968631" lon="11.790271877272986"><ele>24.6</ele><time>2026-04-16T08:17:14.002Z</time></trkpt><trkpt lat="45.53471995612837" lon="11.790182402286659"><ele>25.0</ele><time>2026-04-16T08:17:16.002Z</time></trkpt><trkpt lat="45.534695645945924" lon="11.790088544498206"><ele>25.2</ele><time>2026-04-16T08:17:19Z</time></trkpt><trkpt lat="45.53466614417037" lon="11.789967214133018"><ele>25.4</ele><time>2026-04-16T08:17:22Z</time></trkpt><trkpt lat="45.53461028192189" lon="11.789852189828743"><ele>25.6</ele><time>2026-04-16T08:17:24Z</time></trkpt><trkpt lat="45.534564103540056" lon="11.789707360212953"><ele>25.8</ele><time>2026-04-16T08:17:26Z</time></trkpt><trkpt lat="45.53451680624601" lon="11.789543912003834"><ele>26.0</ele><time>2026-04-16T08:17:28Z</time></trkpt><trkpt lat="45.534470598879444" lon="11.789361519331294"><ele>25.857142857142858</ele><time>2026-04-16T08:17:30Z</time></trkpt><trkpt lat="45.53444710420425" lon="11.789261674315766"><ele>25.714285714285715</ele><time>2026-04-16T08:17:31Z</time></trkpt><trkpt lat="45.53442526921008" lon="11.789168882566374"><ele>25.571428571428573</ele><time>2026-04-16T08:17:32Z</time></trkpt><trkpt lat="45.534403247284054" lon="11.789075296347463"><ele>25.42857142857143</ele><time>2026-04-16T08:17:33Z</time></trkpt><trkpt lat="45.53438117975445" lon="11.788981515441177"><ele>25.285714285714285</ele><time>2026-04-16T08:17:34Z</time></trkpt><trkpt lat="45.53435827526209" lon="11.788890462221573"><ele>25.142857142857146</ele><time>2026-04-16T08:17:35Z</time></trkpt><trkpt lat="45.53433496826714" lon="11.788802762047405"><ele>25.0</ele><time>2026-04-16T08:17:36Z</time></trkpt><trkpt lat="45.534310115139036" lon="11.788714547621032"><ele>25.000000000000004</ele><time>2026-04-16T08:17:37Z</time></trkpt><trkpt lat="45.53428320698416" lon="11.788620478278412"><ele>25.0</ele><time>2026-04-16T08:17:38Z</time></trkpt><trkpt lat="45.53425807899654" lon="11.788532632301846"><ele>25.0</ele><time>2026-04-16T08:17:39Z</time></trkpt><trkpt lat="45.534231440696075" lon="11.788439380467317"><ele>25.0</ele><time>2026-04-16T08:17:40Z</time></trkpt><trkpt lat="45.53420576071492" lon="11.788345168459692"><ele>25.000000000000004</ele><time>2026-04-16T08:17:41Z</time></trkpt><trkpt lat="45.53418080824963" lon="11.788247847784362"><ele>25.0</ele><time>2026-04-16T08:17:42Z</time></trkpt><trkpt lat="45.53422982119691" lon="11.788114959997781"><ele>24.714285714285715</ele><time>2026-04-16T08:17:43Z</time></trkpt><trkpt lat="45.53420944919534" lon="11.788019754003757"><ele>24.42857142857143</ele><time>2026-04-16T08:17:44Z</time></trkpt><trkpt lat="45.53419023949128" lon="11.787922784354228"><ele>24.142857142857146</ele><time>2026-04-16T08:17:45Z</time></trkpt><trkpt lat="45.534171505362735" lon="11.78782999638252"><ele>23.857142857142858</ele><time>2026-04-16T08:17:46Z</time></trkpt><trkpt lat="45.53414679829142" lon="11.78773603269844"><ele>23.57142857142857</ele><time>2026-04-16T08:17:47Z</time></trkpt><trkpt lat="45.534122262720985" lon="11.787644398280372"><ele>23.28571428571429</ele><time>2026-04-16T08:17:48Z</time></trkpt><trkpt lat="45.534089483299354" lon="11.787550654119052"><ele>23.0</ele><time>2026-04-16T08:17:49Z</time></trkpt><trkpt lat="45.53405828383467" lon="11.787459895119143"><ele>23.0</ele><time>2026-04-16T08:17:50Z</time></trkpt><trkpt lat="45.53403839344453" lon="11.787366555505503"><ele>23.0</ele><time>2026-04-16T08:17:51Z</time></trkpt><trkpt lat="45.53400790454945" lon="11.787273569307832"><ele>23.0</ele><time>2026-04-16T08:17:52Z</time></trkpt><trkpt lat="45.533985607410315" lon="11.787185465888568"><ele>23.0</ele><time>2026-04-16T08:17:53Z</time></trkpt><trkpt lat="45.533961261657495" lon="11.787096680067496"><ele>23.0</ele><time>2026-04-16T08:17:54Z</time></trkpt><trkpt lat="45.533935799691164" lon="11.787010498036205"><ele>23.0</ele><time>2026-04-16T08:17:55Z</time></trkpt><trkpt lat="45.533909567281874" lon="11.786919188356535"><ele>23.0</ele><time>2026-04-16T08:17:56Z</time></trkpt><trkpt lat="45.53388986895867" lon="11.786825624075883"><ele>23.142857142857142</ele><time>2026-04-16T08:17:57.001Z</time></trkpt><trkpt lat="45.53386578836854" lon="11.786726296954214"><ele>23.285714285714285</ele><time>2026-04-16T08:17:58.001Z</time></trkpt><trkpt lat="45.53384345645301" lon="11.78662018605839"><ele>23.428571428571427</ele><time>2026-04-16T08:17:59.001Z</time></trkpt><trkpt lat="45.533823713685244" lon="11.78652472554852"><ele>23.57142857142857</ele><time>2026-04-16T08:18:00.001Z</time></trkpt><trkpt lat="45.53380648292961" lon="11.786424327479804"><ele>23.714285714285715</ele><time>2026-04-16T08:18:01.001Z</time></trkpt><trkpt lat="45.5337849828103" lon="11.78633052467883"><ele>23.857142857142854</ele><time>2026-04-16T08:18:02.001Z</time></trkpt><trkpt lat="45.533771304747354" lon="11.786236329539596"><ele>24.0</ele><time>2026-04-16T08:18:03.001Z</time></trkpt><trkpt lat="45.53375336911304" lon="11.78613822352571"><ele>23.999999999999996</ele><time>2026-04-16T08:18:04.001Z</time></trkpt><trkpt lat="45.53373504321668" lon="11.786042120246085"><ele>24.0</ele><time>2026-04-16T08:18:05.001Z</time></trkpt><trkpt lat="45.53371212674808" lon="11.785947349268076"><ele>24.0</ele><time>2026-04-16T08:18:06.001Z</time></trkpt><trkpt lat="45.53368544994856" lon="11.785846755577001"><ele>24.0</ele><time>2026-04-16T08:18:07.001Z</time></trkpt><trkpt lat="45.53365966429281" lon="11.785755081335461"><ele>24.0</ele><time>2026-04-16T08:18:08.001Z</time></trkpt><trkpt lat="45.533638852005026" lon="11.785664559591082"><ele>23.999999999999996</ele><time>2026-04-16T08:18:09.001Z</time></trkpt><trkpt lat="45.53361050149101" lon="11.785572511067603"><ele>24.0</ele><time>2026-04-16T08:18:10.001Z</time></trkpt><trkpt lat="45.53357976556153" lon="11.785484763910707"><ele>23.857142857142854</ele><time>2026-04-16T08:18:11.001Z</time></trkpt><trkpt lat="45.53355619082697" lon="11.785396230553172"><ele>23.714285714285715</ele><time>2026-04-16T08:18:12.001Z</time></trkpt><trkpt lat="45.53353505553494" lon="11.785302557919774"><ele>23.57142857142857</ele><time>2026-04-16T08:18:13.001Z</time></trkpt><trkpt lat="45.533503352025285" lon="11.785210777226519"><ele>23.428571428571427</ele><time>2026-04-16T08:18:14.001Z</time></trkpt><trkpt lat="45.5334754222371" lon="11.785119593816546"><ele>23.285714285714285</ele><time>2026-04-16T08:18:15.001Z</time></trkpt><trkpt lat="45.53345655992547" lon="11.785030196241893"><ele>23.142857142857142</ele><time>2026-04-16T08:18:16.001Z</time></trkpt><trkpt lat="45.53343288623872" lon="11.784943373477105"><ele>23.0</ele><time>2026-04-16T08:18:17.001Z</time></trkpt><trkpt lat="45.533416748243965" lon="11.784847560132457"><ele>23.0</ele><time>2026-04-16T08:18:18.001Z</time></trkpt><trkpt lat="45.53339547650866" lon="11.784750782001234"><ele>23.0</ele><time>2026-04-16T08:18:19.001Z</time></trkpt><trkpt lat="45.53337182971074" lon="11.784657805267464"><ele>23.0</ele><time>2026-04-16T08:18:20.001Z</time></trkpt><trkpt lat="45.53334715097152" lon="11.784567878228561"><ele>23.0</ele><time>2026-04-16T08:18:21.001Z</time></trkpt><trkpt lat="45.5333268522416" lon="11.784474355748031"><ele>23.0</ele><time>2026-04-16T08:18:22.001Z</time></trkpt><trkpt lat="45.53330423032227" lon="11.784384078931712"><ele>23.0</ele><time>2026-04-16T08:18:23.001Z</time></trkpt><trkpt lat="45.5332815415381" lon="11.784292361033378"><ele>23.0</ele><time>2026-04-16T08:18:24.001Z</time></trkpt><trkpt lat="45.53325324586909" lon="11.784199504903404"><ele>23.0</ele><time>2026-04-16T08:18:25.001Z</time></trkpt><trkpt lat="45.533223722566845" lon="11.784110274203325"><ele>23.0</ele><time>2026-04-16T08:18:26.001Z</time></trkpt><trkpt lat="45.533182629713636" lon="11.78393757619954"><ele>23.0</ele><time>2026-04-16T08:18:28.001Z</time></trkpt><trkpt lat="45.53316244486544" lon="11.783848781673544"><ele>23.0</ele><time>2026-04-16T08:18:29.001Z</time></trkpt><trkpt lat="45.53313940919962" lon="11.783762303874516"><ele>23.0</ele><time>2026-04-16T08:18:30.001Z</time></trkpt><trkpt lat="45.53311755066371" lon="11.78367402086246"><ele>23.0</ele><time>2026-04-16T08:18:31.001Z</time></trkpt><trkpt lat="45.5330960307818" lon="11.783586504841923"><ele>23.166666666666668</ele><time>2026-04-16T08:18:32.001Z</time></trkpt><trkpt lat="45.53306786182013" lon="11.783497713518528"><ele>23.333333333333336</ele><time>2026-04-16T08:18:33.001Z</time></trkpt><trkpt lat="45.5330491158279" lon="11.783410411349823"><ele>23.5</ele><time>2026-04-16T08:18:34.001Z</time></trkpt><trkpt lat="45.53300995960169" lon="11.783249128810477"><ele>23.666666666666668</ele><time>2026-04-16T08:18:36.001Z</time></trkpt><trkpt lat="45.532961080893315" lon="11.783085086483004"><ele>23.833333333333332</ele><time>2026-04-16T08:18:38.002Z</time></trkpt><trkpt lat="45.53293669255005" lon="11.782990860024006"><ele>24.0</ele><time>2026-04-16T08:18:39.002Z</time></trkpt><trkpt lat="45.5328901507121" lon="11.782821681807553"><ele>23.999999999999996</ele><time>2026-04-16T08:18:41.002Z</time></trkpt><trkpt lat="45.53287373366809" lon="11.78272568077995"><ele>24.0</ele><time>2026-04-16T08:18:42.002Z</time></trkpt><trkpt lat="45.532852822009694" lon="11.782629063484688"><ele>24.0</ele><time>2026-04-16T08:18:43.002Z</time></trkpt><trkpt lat="45.532826830476175" lon="11.78253060135863"><ele>24.0</ele><time>2026-04-16T08:18:44.002Z</time></trkpt><trkpt lat="45.5328001677985" lon="11.782437183643355"><ele>24.0</ele><time>2026-04-16T08:18:45.002Z</time></trkpt><trkpt lat="45.532778836294725" lon="11.782346720086913"><ele>23.999999999999996</ele><time>2026-04-16T08:18:46.002Z</time></trkpt><trkpt lat="45.53275142638848" lon="11.78225537469765"><ele>24.0</ele><time>2026-04-16T08:18:47.002Z</time></trkpt><trkpt lat="45.53272545350197" lon="11.782163083362358"><ele>24.285714285714285</ele><time>2026-04-16T08:18:48.002Z</time></trkpt><trkpt lat="45.532695959362066" lon="11.78206883131362"><ele>24.57142857142857</ele><time>2026-04-16T08:18:49.002Z</time></trkpt><trkpt lat="45.532666750578194" lon="11.781979654199612"><ele>24.857142857142854</ele><time>2026-04-16T08:18:50.002Z</time></trkpt><trkpt lat="45.532636015255946" lon="11.781895616506725"><ele>25.142857142857142</ele><time>2026-04-16T08:18:51.002Z</time></trkpt><trkpt lat="45.53260551922683" lon="11.781814299721038"><ele>25.42857142857143</ele><time>2026-04-16T08:18:52.002Z</time></trkpt><trkpt lat="45.53257439661604" lon="11.7817208522936"><ele>25.71428571428571</ele><time>2026-04-16T08:18:53.002Z</time></trkpt><trkpt lat="45.532541577918444" lon="11.781634214867486"><ele>26.0</ele><time>2026-04-16T08:18:54.002Z</time></trkpt><trkpt lat="45.53248853852223" lon="11.781464371311124"><ele>26.142857142857142</ele><time>2026-04-16T08:18:56.002Z</time></trkpt><trkpt lat="45.53245290956458" lon="11.781380621940501"><ele>26.28571428571429</ele><time>2026-04-16T08:18:57.002Z</time></trkpt><trkpt lat="45.532420188968416" lon="11.78129538658305"><ele>26.42857142857143</ele><time>2026-04-16T08:18:58.002Z</time></trkpt><trkpt lat="45.53239051197632" lon="11.781201584343458"><ele>26.57142857142857</ele><time>2026-04-16T08:18:59.002Z</time></trkpt><trkpt lat="45.532365346534796" lon="11.781107493926722"><ele>26.714285714285715</ele><time>2026-04-16T08:19:00.002Z</time></trkpt><trkpt lat="45.53234333929858" lon="11.781017172576794"><ele>26.857142857142858</ele><time>2026-04-16T08:19:01.002Z</time></trkpt><trkpt lat="45.53231842308896" lon="11.780926089642842"><ele>27.0</ele><time>2026-04-16T08:19:02.002Z</time></trkpt><trkpt lat="45.53229573298484" lon="11.780828666999517"><ele>26.57142857142857</ele><time>2026-04-16T08:19:03.002Z</time></trkpt><trkpt lat="45.532276945600586" lon="11.780734703021855"><ele>26.142857142857142</ele><time>2026-04-16T08:19:04.002Z</time></trkpt><trkpt lat="45.532257756445425" lon="11.780643460133566"><ele>25.714285714285715</ele><time>2026-04-16T08:19:05.002Z</time></trkpt><trkpt lat="45.532232756674766" lon="11.780554664991259"><ele>25.285714285714285</ele><time>2026-04-16T08:19:06.002Z</time></trkpt><trkpt lat="45.532211005903086" lon="11.780455347502887"><ele>24.857142857142858</ele><time>2026-04-16T08:19:07.002Z</time></trkpt><trkpt lat="45.53218752948546" lon="11.7803606301259"><ele>24.428571428571427</ele><time>2026-04-16T08:19:08.002Z</time></trkpt><trkpt lat="45.532165007110294" lon="11.780272576993509"><ele>24.0</ele><time>2026-04-16T08:19:09.002Z</time></trkpt><trkpt lat="45.53214683136796" lon="11.780182002604594"><ele>23.999999999999996</ele><time>2026-04-16T08:19:10.002Z</time></trkpt><trkpt lat="45.532126652026506" lon="11.78008657927692"><ele>24.0</ele><time>2026-04-16T08:19:11.002Z</time></trkpt><trkpt lat="45.53211041357223" lon="11.779992381592024"><ele>24.0</ele><time>2026-04-16T08:19:12.002Z</time></trkpt><trkpt lat="45.532091306155536" lon="11.779898035267399"><ele>24.0</ele><time>2026-04-16T08:19:13.002Z</time></trkpt><trkpt lat="45.53207660711073" lon="11.779805503773831"><ele>24.0</ele><time>2026-04-16T08:19:14.002Z</time></trkpt><trkpt lat="45.53205828103798" lon="11.779713311666578"><ele>23.999999999999996</ele><time>2026-04-16T08:19:15.002Z</time></trkpt><trkpt lat="45.53203153660388" lon="11.779620145476141"><ele>24.0</ele><time>2026-04-16T08:19:16.002Z</time></trkpt><trkpt lat="45.53200447563096" lon="11.779530118436886"><ele>24.0</ele><time>2026-04-16T08:19:17.002Z</time></trkpt><trkpt lat="45.53197630936996" lon="11.779435111122767"><ele>24.0</ele><time>2026-04-16T08:19:18.002Z</time></trkpt><trkpt lat="45.53195356341222" lon="11.7793434182938"><ele>24.0</ele><time>2026-04-16T08:19:19.002Z</time></trkpt><trkpt lat="45.53193450329366" lon="11.779251985305608"><ele>24.0</ele><time>2026-04-16T08:19:20.003Z</time></trkpt><trkpt lat="45.5319174172825" lon="11.779162931267225"><ele>24.0</ele><time>2026-04-16T08:19:21.003Z</time></trkpt><trkpt lat="45.53187782290551" lon="11.778995111413275"><ele>24.0</ele><time>2026-04-16T08:19:23.003Z</time></trkpt><trkpt lat="45.53183752453098" lon="11.778853557730288"><ele>24.166666666666668</ele><time>2026-04-16T08:19:25Z</time></trkpt><trkpt lat="45.531819578209685" lon="11.778750766552994"><ele>24.333333333333336</ele><time>2026-04-16T08:19:27Z</time></trkpt><trkpt lat="45.53180367482392" lon="11.778663380744545"><ele>24.5</ele><time>2026-04-16T08:19:29Z</time></trkpt><trkpt lat="45.531793455986694" lon="11.778566574993341"><ele>24.666666666666668</ele><time>2026-04-16T08:20:03.001Z</time></trkpt><trkpt lat="45.531762218083394" lon="11.778463185415873"><ele>24.833333333333336</ele><time>2026-04-16T08:20:06.001Z</time></trkpt><trkpt lat="45.53173198027828" lon="11.778350672243374"><ele>25.0</ele><time>2026-04-16T08:20:08.001Z</time></trkpt><trkpt lat="45.5317020683606" lon="11.778215372250008"><ele>25.0</ele><time>2026-04-16T08:20:10.001Z</time></trkpt><trkpt lat="45.53166241132347" lon="11.778083955533077"><ele>25.0</ele><time>2026-04-16T08:20:12.001Z</time></trkpt><trkpt lat="45.53164499718528" lon="11.777951214439183"><ele>25.0</ele><time>2026-04-16T08:20:14.001Z</time></trkpt><trkpt lat="45.53160393800704" lon="11.777836262823488"><ele>25.0</ele><time>2026-04-16T08:20:16.001Z</time></trkpt><trkpt lat="45.531571132719414" lon="11.777713003017803"><ele>25.0</ele><time>2026-04-16T08:20:18.001Z</time></trkpt><trkpt lat="45.53152056683325" lon="11.777573053950315"><ele>25.000000000000004</ele><time>2026-04-16T08:20:20.001Z</time></trkpt><trkpt lat="45.53147015194213" lon="11.777425655278178"><ele>25.0</ele><time>2026-04-16T08:20:22.001Z</time></trkpt><trkpt lat="45.53144336455885" lon="11.777341944091765"><ele>25.0</ele><time>2026-04-16T08:20:23.001Z</time></trkpt><trkpt lat="45.53142196256405" lon="11.777255769085412"><ele>25.0</ele><time>2026-04-16T08:20:24.001Z</time></trkpt><trkpt lat="45.531393287258396" lon="11.777170947921345"><ele>25.000000000000004</ele><time>2026-04-16T08:20:25.001Z</time></trkpt><trkpt lat="45.531355989719074" lon="11.777008536816997"><ele>25.0</ele><time>2026-04-16T08:20:27.001Z</time></trkpt><trkpt lat="45.531339093208715" lon="11.776921944454878"><ele>25.0</ele><time>2026-04-16T08:20:28.001Z</time></trkpt><trkpt lat="45.531304555173115" lon="11.776749536569257"><ele>25.0</ele><time>2026-04-16T08:20:30.001Z</time></trkpt><trkpt lat="45.53126597483984" lon="11.776587501540552"><ele>25.0</ele><time>2026-04-16T08:20:32.001Z</time></trkpt><trkpt lat="45.531210739569076" lon="11.776420525931709"><ele>25.0</ele><time>2026-04-16T08:20:34.001Z</time></trkpt><trkpt lat="45.53118808963588" lon="11.776327600756746"><ele>25.0</ele><time>2026-04-16T08:20:35.001Z</time></trkpt><trkpt lat="45.53117104359597" lon="11.776232995873075"><ele>25.000000000000004</ele><time>2026-04-16T08:20:36.001Z</time></trkpt><trkpt lat="45.53114041879874" lon="11.776145116320972"><ele>25.0</ele><time>2026-04-16T08:20:37.001Z</time></trkpt><trkpt lat="45.531110325997446" lon="11.776052894230066"><ele>25.0</ele><time>2026-04-16T08:20:38.001Z</time></trkpt><trkpt lat="45.53108638687953" lon="11.775958256861037"><ele>25.0</ele><time>2026-04-16T08:20:39.001Z</time></trkpt><trkpt lat="45.53105498027508" lon="11.77586397369515"><ele>25.0</ele><time>2026-04-16T08:20:40.002Z</time></trkpt><trkpt lat="45.53103017169884" lon="11.775768687224595"><ele>25.000000000000004</ele><time>2026-04-16T08:20:41.002Z</time></trkpt><trkpt lat="45.53100563962345" lon="11.775673592458524"><ele>25.0</ele><time>2026-04-16T08:20:42.002Z</time></trkpt><trkpt lat="45.5309768866227" lon="11.775580507512032"><ele>25.000000000000004</ele><time>2026-04-16T08:20:43.002Z</time></trkpt><trkpt lat="45.53094944748185" lon="11.77548802012778"><ele>25.0</ele><time>2026-04-16T08:20:44.002Z</time></trkpt><trkpt lat="45.53092857819775" lon="11.77539476652998"><ele>25.0</ele><time>2026-04-16T08:20:45.002Z</time></trkpt><trkpt lat="45.53090199148735" lon="11.775297014983272"><ele>25.0</ele><time>2026-04-16T08:20:46.002Z</time></trkpt><trkpt lat="45.53088260187506" lon="11.775202709465146"><ele>25.0</ele><time>2026-04-16T08:20:47.002Z</time></trkpt><trkpt lat="45.53086439060834" lon="11.775107919058302"><ele>25.000000000000004</ele><time>2026-04-16T08:20:48.002Z</time></trkpt><trkpt lat="45.53083906811157" lon="11.775008763194235"><ele>25.0</ele><time>2026-04-16T08:20:49.002Z</time></trkpt><trkpt lat="45.5308178117134" lon="11.774917723847315"><ele>24.833333333333336</ele><time>2026-04-16T08:20:50.002Z</time></trkpt><trkpt lat="45.5307972216704" lon="11.77482542656542"><ele>24.666666666666668</ele><time>2026-04-16T08:20:51.002Z</time></trkpt><trkpt lat="45.53077359287362" lon="11.774730363967226"><ele>24.5</ele><time>2026-04-16T08:20:52.002Z</time></trkpt><trkpt lat="45.530750105621735" lon="11.774642223924308"><ele>24.333333333333336</ele><time>2026-04-16T08:20:53.002Z</time></trkpt><trkpt lat="45.53072646587145" lon="11.774548041923328"><ele>24.166666666666668</ele><time>2026-04-16T08:20:54.002Z</time></trkpt><trkpt lat="45.53069687628288" lon="11.774460275709684"><ele>24.0</ele><time>2026-04-16T08:20:55.002Z</time></trkpt><trkpt lat="45.53064873843359" lon="11.774289751782074"><ele>24.0</ele><time>2026-04-16T08:20:57.002Z</time></trkpt><trkpt lat="45.53062500277294" lon="11.774205097230531"><ele>24.0</ele><time>2026-04-16T08:20:58.002Z</time></trkpt><trkpt lat="45.530594036020084" lon="11.774039670736908"><ele>24.0</ele><time>2026-04-16T08:21:00.002Z</time></trkpt><trkpt lat="45.53054716062603" lon="11.773868780574771"><ele>24.0</ele><time>2026-04-16T08:21:02.002Z</time></trkpt><trkpt lat="45.53052405461067" lon="11.773773319529964"><ele>24.0</ele><time>2026-04-16T08:21:03.002Z</time></trkpt><trkpt lat="45.530508265590804" lon="11.773685470914701"><ele>24.0</ele><time>2026-04-16T08:21:04.002Z</time></trkpt><trkpt lat="45.53048691143881" lon="11.773594342627558"><ele>23.999999999999996</ele><time>2026-04-16T08:21:05.002Z</time></trkpt><trkpt lat="45.530460843510404" lon="11.773500974380928"><ele>24.0</ele><time>2026-04-16T08:21:06.002Z</time></trkpt><trkpt lat="45.53043486219805" lon="11.77340881602395"><ele>24.0</ele><time>2026-04-16T08:21:07.002Z</time></trkpt><trkpt lat="45.530408387185155" lon="11.773307927756258"><ele>24.0</ele><time>2026-04-16T08:21:08.002Z</time></trkpt><trkpt lat="45.53038505317719" lon="11.773214358494467"><ele>24.0</ele><time>2026-04-16T08:21:09.002Z</time></trkpt><trkpt lat="45.530352350945044" lon="11.773123057748542"><ele>23.999999999999996</ele><time>2026-04-16T08:21:10.002Z</time></trkpt><trkpt lat="45.53032351799736" lon="11.773036440788918"><ele>24.0</ele><time>2026-04-16T08:21:11.002Z</time></trkpt><trkpt lat="45.53029650424144" lon="11.772946603211896"><ele>23.999999999999996</ele><time>2026-04-16T08:21:12.002Z</time></trkpt><trkpt lat="45.53026598133274" lon="11.772859561243557"><ele>24.0</ele><time>2026-04-16T08:21:13.002Z</time></trkpt><trkpt lat="45.5302332401829" lon="11.772771173258626"><ele>24.0</ele><time>2026-04-16T08:21:14.002Z</time></trkpt><trkpt lat="45.53020027302434" lon="11.772692391480659"><ele>24.0</ele><time>2026-04-16T08:21:15.002Z</time></trkpt><trkpt lat="45.53017794369391" lon="11.77260771028033"><ele>24.0</ele><time>2026-04-16T08:21:16.002Z</time></trkpt><trkpt lat="45.5301496360821" lon="11.772520704098927"><ele>23.999999999999996</ele><time>2026-04-16T08:21:17.002Z</time></trkpt><trkpt lat="45.5301193128346" lon="11.772437156577723"><ele>24.0</ele><time>2026-04-16T08:21:18.002Z</time></trkpt><trkpt lat="45.53009095634609" lon="11.772349535675382"><ele>24.0</ele><time>2026-04-16T08:21:19.002Z</time></trkpt><trkpt lat="45.53005895637951" lon="11.772267068317152"><ele>24.0</ele><time>2026-04-16T08:21:20.002Z</time></trkpt><trkpt lat="45.53003050643704" lon="11.772179401408275"><ele>24.0</ele><time>2026-04-16T08:21:21.002Z</time></trkpt><trkpt lat="45.530005339534526" lon="11.77209089145097"><ele>24.0</ele><time>2026-04-16T08:21:22.003Z</time></trkpt><trkpt lat="45.52997502836152" lon="11.772006758736822"><ele>24.0</ele><time>2026-04-16T08:21:23.003Z</time></trkpt><trkpt lat="45.52994397675779" lon="11.77192500053161"><ele>24.0</ele><time>2026-04-16T08:21:24.003Z</time></trkpt><trkpt lat="45.529884815459965" lon="11.771768754534294"><ele>24.0</ele><time>2026-04-16T08:21:26.003Z</time></trkpt><trkpt lat="45.52982735338545" lon="11.771636440268347"><ele>24.0</ele><time>2026-04-16T08:21:28.003Z</time></trkpt><trkpt lat="45.52991318152454" lon="11.771392825016475"><ele>24.0</ele><time>2026-04-16T08:21:30Z</time></trkpt><trkpt lat="45.52986469319634" lon="11.771296992946127"><ele>24.0</ele><time>2026-04-16T08:21:32Z</time></trkpt><trkpt lat="45.529807295861545" lon="11.771183556096855"><ele>24.0</ele><time>2026-04-16T08:21:34Z</time></trkpt><trkpt lat="45.52974059946085" lon="11.771043689097732"><ele>24.0</ele><time>2026-04-16T08:21:36Z</time></trkpt><trkpt lat="45.52970093805838" lon="11.770959495121907"><ele>24.0</ele><time>2026-04-16T08:21:37Z</time></trkpt><trkpt lat="45.52966291831617" lon="11.770878786304841"><ele>24.0</ele><time>2026-04-16T08:21:38Z</time></trkpt><trkpt lat="45.529624908109184" lon="11.77079809758241"><ele>24.0</ele><time>2026-04-16T08:21:39Z</time></trkpt><trkpt lat="45.529582327780275" lon="11.770709823149243"><ele>24.0</ele><time>2026-04-16T08:21:40Z</time></trkpt><trkpt lat="45.52954025760994" lon="11.770624162354137"><ele>24.142857142857142</ele><time>2026-04-16T08:21:41Z</time></trkpt><trkpt lat="45.52949999342427" lon="11.770542179343874"><ele>24.285714285714285</ele><time>2026-04-16T08:21:42Z</time></trkpt><trkpt lat="45.529461007961096" lon="11.77046279947101"><ele>24.42857142857143</ele><time>2026-04-16T08:21:43Z</time></trkpt><trkpt lat="45.52941932455443" lon="11.770379849547414"><ele>24.57142857142857</ele><time>2026-04-16T08:21:44Z</time></trkpt><trkpt lat="45.52937824206316" lon="11.770298453538334"><ele>24.714285714285715</ele><time>2026-04-16T08:21:45Z</time></trkpt><trkpt lat="45.529338049540016" lon="11.770219480957044"><ele>24.857142857142858</ele><time>2026-04-16T08:21:46Z</time></trkpt><trkpt lat="45.52929620276853" lon="11.770138447712608"><ele>25.0</ele><time>2026-04-16T08:21:47Z</time></trkpt><trkpt lat="45.52925045067772" lon="11.770055641266646"><ele>24.714285714285715</ele><time>2026-04-16T08:21:48Z</time></trkpt><trkpt lat="45.529209182589994" lon="11.769981171089487"><ele>24.42857142857143</ele><time>2026-04-16T08:21:49Z</time></trkpt><trkpt lat="45.52916502158174" lon="11.769902838503626"><ele>24.142857142857146</ele><time>2026-04-16T08:21:50Z</time></trkpt><trkpt lat="45.52912148144149" lon="11.769827372551617"><ele>23.857142857142858</ele><time>2026-04-16T08:21:51Z</time></trkpt><trkpt lat="45.52907653208817" lon="11.769750767634733"><ele>23.57142857142857</ele><time>2026-04-16T08:21:52Z</time></trkpt><trkpt lat="45.52903398949972" lon="11.769679366075593"><ele>23.28571428571429</ele><time>2026-04-16T08:21:53.001Z</time></trkpt><trkpt lat="45.528990812170235" lon="11.769606899013873"><ele>23.0</ele><time>2026-04-16T08:21:54.001Z</time></trkpt><trkpt lat="45.52894811606587" lon="11.76953523988458"><ele>23.0</ele><time>2026-04-16T08:21:55.001Z</time></trkpt><trkpt lat="45.52890469037521" lon="11.769463781918049"><ele>23.0</ele><time>2026-04-16T08:21:56.001Z</time></trkpt><trkpt lat="45.5288292160679" lon="11.769340692450122"><ele>23.0</ele><time>2026-04-16T08:21:58.001Z</time></trkpt><trkpt lat="45.528765214402995" lon="11.769236564607404"><ele>23.0</ele><time>2026-04-16T08:22:00.001Z</time></trkpt><trkpt lat="45.528715512606546" lon="11.769155727036674"><ele>23.0</ele><time>2026-04-16T08:22:02.001Z</time></trkpt><trkpt lat="45.528646849581804" lon="11.76904404902167"><ele>23.0</ele><time>2026-04-16T08:22:04.001Z</time></trkpt><trkpt lat="45.528567849611214" lon="11.768915555713628"><ele>23.0</ele><time>2026-04-16T08:22:06.001Z</time></trkpt><trkpt lat="45.52838158548728" lon="11.768928148125484"><ele>23.0</ele><time>2026-04-16T08:22:08.001Z</time></trkpt><trkpt lat="45.52833624810085" lon="11.76886276458081"><ele>23.0</ele><time>2026-04-16T08:22:09.001Z</time></trkpt><trkpt lat="45.52829079802316" lon="11.76879855826274"><ele>23.0</ele><time>2026-04-16T08:22:10.001Z</time></trkpt><trkpt lat="45.528245319292395" lon="11.768734037194902"><ele>23.0</ele><time>2026-04-16T08:22:11.001Z</time></trkpt><trkpt lat="45.52819630042711" lon="11.768670823095881"><ele>23.0</ele><time>2026-04-16T08:22:12.001Z</time></trkpt><trkpt lat="45.528143833351606" lon="11.768611039500046"><ele>23.0</ele><time>2026-04-16T08:22:13.001Z</time></trkpt><trkpt lat="45.52809097026089" lon="11.76854610388331"><ele>23.0</ele><time>2026-04-16T08:22:14.001Z</time></trkpt><trkpt lat="45.52804021690802" lon="11.768480576679783"><ele>23.0</ele><time>2026-04-16T08:22:15.001Z</time></trkpt><trkpt lat="45.52799387266355" lon="11.768411092858535"><ele>23.0</ele><time>2026-04-16T08:22:16.001Z</time></trkpt><trkpt lat="45.52794343778659" lon="11.768342219488009"><ele>23.0</ele><time>2026-04-16T08:22:17.001Z</time></trkpt><trkpt lat="45.52789266411936" lon="11.768274021838945"><ele>23.142857142857142</ele><time>2026-04-16T08:22:18.001Z</time></trkpt><trkpt lat="45.527841671446204" lon="11.768208856867108"><ele>23.285714285714285</ele><time>2026-04-16T08:22:19.001Z</time></trkpt><trkpt lat="45.52778434623854" lon="11.768151014501237"><ele>23.428571428571427</ele><time>2026-04-16T08:22:20.001Z</time></trkpt><trkpt lat="45.52772999203152" lon="11.768089501369921"><ele>23.57142857142857</ele><time>2026-04-16T08:22:21.001Z</time></trkpt><trkpt lat="45.52767712754778" lon="11.768028791336588"><ele>23.714285714285715</ele><time>2026-04-16T08:22:22.001Z</time></trkpt><trkpt lat="45.5276204810944" lon="11.767969630341042"><ele>23.857142857142854</ele><time>2026-04-16T08:22:23.001Z</time></trkpt><trkpt lat="45.52756672723211" lon="11.767909327541073"><ele>24.0</ele><time>2026-04-16T08:22:24.001Z</time></trkpt><trkpt lat="45.527514559332424" lon="11.767840782441695"><ele>23.999999999999996</ele><time>2026-04-16T08:22:25.001Z</time></trkpt><trkpt lat="45.52746123554363" lon="11.767782552036604"><ele>24.0</ele><time>2026-04-16T08:22:26.001Z</time></trkpt><trkpt lat="45.5274036500505" lon="11.767732300648959"><ele>24.0</ele><time>2026-04-16T08:22:27.001Z</time></trkpt><trkpt lat="45.52735006148372" lon="11.767675603873908"><ele>24.0</ele><time>2026-04-16T08:22:28.001Z</time></trkpt><trkpt lat="45.527294226475426" lon="11.767618600160551"><ele>24.0</ele><time>2026-04-16T08:22:29.001Z</time></trkpt><trkpt lat="45.527238964502644" lon="11.767562461884703"><ele>23.999999999999996</ele><time>2026-04-16T08:22:30.001Z</time></trkpt><trkpt lat="45.527179040914255" lon="11.767503832840415"><ele>24.0</ele><time>2026-04-16T08:22:31.001Z</time></trkpt><trkpt lat="45.52712614809161" lon="11.767444662802081"><ele>24.0</ele><time>2026-04-16T08:22:32.001Z</time></trkpt><trkpt lat="45.52706974878161" lon="11.767395798320361"><ele>24.0</ele><time>2026-04-16T08:22:33.001Z</time></trkpt><trkpt lat="45.52700993938877" lon="11.767341713984777"><ele>24.0</ele><time>2026-04-16T08:22:34.001Z</time></trkpt><trkpt lat="45.52690725738386" lon="11.76723858034834"><ele>24.0</ele><time>2026-04-16T08:22:36.001Z</time></trkpt><trkpt lat="45.526851412417514" lon="11.767179842366419"><ele>24.0</ele><time>2026-04-16T08:22:37.001Z</time></trkpt><trkpt lat="45.52679643742146" lon="11.767118303174007"><ele>24.0</ele><time>2026-04-16T08:22:38.001Z</time></trkpt><trkpt lat="45.52673876876765" lon="11.767061587941186"><ele>23.999999999999996</ele><time>2026-04-16T08:22:39.001Z</time></trkpt><trkpt lat="45.52667850204995" lon="11.767011861648768"><ele>24.0</ele><time>2026-04-16T08:22:40.001Z</time></trkpt><trkpt lat="45.52661855646273" lon="11.766962270775407"><ele>24.0</ele><time>2026-04-16T08:22:41.002Z</time></trkpt><trkpt lat="45.52655856838305" lon="11.766907154169784"><ele>24.0</ele><time>2026-04-16T08:22:42.002Z</time></trkpt><trkpt lat="45.526505148173655" lon="11.766847620833518"><ele>24.0</ele><time>2026-04-16T08:22:43.002Z</time></trkpt><trkpt lat="45.52644821875764" lon="11.766792759598056"><ele>23.999999999999996</ele><time>2026-04-16T08:22:44.002Z</time></trkpt><trkpt lat="45.5263917157306" lon="11.76674074137265"><ele>24.0</ele><time>2026-04-16T08:22:45.002Z</time></trkpt><trkpt lat="45.526336529703435" lon="11.766680522000666"><ele>23.999999999999996</ele><time>2026-04-16T08:22:46.002Z</time></trkpt><trkpt lat="45.526278310957174" lon="11.766616798947382"><ele>24.0</ele><time>2026-04-16T08:22:47.002Z</time></trkpt><trkpt lat="45.52621799245931" lon="11.76656489017609"><ele>24.0</ele><time>2026-04-16T08:22:48.002Z</time></trkpt><trkpt lat="45.526163333271725" lon="11.766510456826822"><ele>24.0</ele><time>2026-04-16T08:22:49.002Z</time></trkpt><trkpt lat="45.52610513196851" lon="11.766457062697533"><ele>24.0</ele><time>2026-04-16T08:22:50.002Z</time></trkpt><trkpt lat="45.52604996292667" lon="11.766401652366257"><ele>23.999999999999996</ele><time>2026-04-16T08:22:51.002Z</time></trkpt><trkpt lat="45.52599094430466" lon="11.766342068680084"><ele>24.0</ele><time>2026-04-16T08:22:52.002Z</time></trkpt><trkpt lat="45.525935935192095" lon="11.766291994009778"><ele>23.999999999999996</ele><time>2026-04-16T08:22:53.002Z</time></trkpt><trkpt lat="45.52587419040043" lon="11.766241028275399"><ele>24.0</ele><time>2026-04-16T08:22:54.002Z</time></trkpt><trkpt lat="45.525811107781756" lon="11.766189781366268"><ele>24.0</ele><time>2026-04-16T08:22:55.002Z</time></trkpt><trkpt lat="45.52575424393934" lon="11.766135803707723"><ele>24.0</ele><time>2026-04-16T08:22:56.002Z</time></trkpt><trkpt lat="45.525697483892685" lon="11.766078264659704"><ele>24.0</ele><time>2026-04-16T08:22:57.002Z</time></trkpt><trkpt lat="45.52564005528487" lon="11.766018729644001"><ele>23.999999999999996</ele><time>2026-04-16T08:22:58.002Z</time></trkpt><trkpt lat="45.52558463686817" lon="11.765949260202115"><ele>24.0</ele><time>2026-04-16T08:22:59.002Z</time></trkpt><trkpt lat="45.52552582337339" lon="11.765880089259124"><ele>23.999999999999996</ele><time>2026-04-16T08:23:00.002Z</time></trkpt><trkpt lat="45.52546646605546" lon="11.765817633532983"><ele>24.0</ele><time>2026-04-16T08:23:01.002Z</time></trkpt><trkpt lat="45.52540234541326" lon="11.765761768313872"><ele>24.0</ele><time>2026-04-16T08:23:02.002Z</time></trkpt><trkpt lat="45.52534227933352" lon="11.765699973600087"><ele>24.0</ele><time>2026-04-16T08:23:03.002Z</time></trkpt><trkpt lat="45.52528714366112" lon="11.76563575199928"><ele>24.0</ele><time>2026-04-16T08:23:04.002Z</time></trkpt><trkpt lat="45.52522897514044" lon="11.765573801495695"><ele>23.999999999999996</ele><time>2026-04-16T08:23:05.002Z</time></trkpt><trkpt lat="45.525171905025935" lon="11.765512701371014"><ele>24.0</ele><time>2026-04-16T08:23:06.002Z</time></trkpt><trkpt lat="45.52511542013781" lon="11.76544929933607"><ele>23.999999999999996</ele><time>2026-04-16T08:23:07.002Z</time></trkpt><trkpt lat="45.52504697804118" lon="11.765410164297641"><ele>24.0</ele><time>2026-04-16T08:23:08.002Z</time></trkpt><trkpt lat="45.524989280643325" lon="11.765351049237879"><ele>24.0</ele><time>2026-04-16T08:23:09.002Z</time></trkpt><trkpt lat="45.524936843253265" lon="11.765275798480003"><ele>24.0</ele><time>2026-04-16T08:23:10.002Z</time></trkpt><trkpt lat="45.524879913441296" lon="11.765215179392978"><ele>24.0</ele><time>2026-04-16T08:23:11.002Z</time></trkpt><trkpt lat="45.52482325114628" lon="11.76515663944203"><ele>23.999999999999996</ele><time>2026-04-16T08:23:12.002Z</time></trkpt><trkpt lat="45.524762233221715" lon="11.765104090732063"><ele>24.0</ele><time>2026-04-16T08:23:13.002Z</time></trkpt><trkpt lat="45.52470475379692" lon="11.76504824662029"><ele>23.833333333333332</ele><time>2026-04-16T08:23:14.002Z</time></trkpt><trkpt lat="45.52464839258905" lon="11.76499319024326"><ele>23.666666666666668</ele><time>2026-04-16T08:23:15.002Z</time></trkpt><trkpt lat="45.52459396000195" lon="11.764945200111319"><ele>23.5</ele><time>2026-04-16T08:23:16.002Z</time></trkpt><trkpt lat="45.52454527750851" lon="11.764887828275477"><ele>23.333333333333336</ele><time>2026-04-16T08:23:17.002Z</time></trkpt><trkpt lat="45.52444559264985" lon="11.76479297787346"><ele>23.166666666666668</ele><time>2026-04-16T08:23:19.002Z</time></trkpt><trkpt lat="45.52434677695092" lon="11.764701608983257"><ele>23.0</ele><time>2026-04-16T08:23:21.002Z</time></trkpt><trkpt lat="45.5242687375624" lon="11.764634017807168"><ele>22.799999999999997</ele><time>2026-04-16T08:23:23.002Z</time></trkpt><trkpt lat="45.524195951918045" lon="11.764600682610237"><ele>22.6</ele><time>2026-04-16T08:23:25.003Z</time></trkpt><trkpt lat="45.52410979497146" lon="11.764601394904508"><ele>22.4</ele><time>2026-04-16T08:23:27.003Z</time></trkpt><trkpt lat="45.524030876000175" lon="11.764591041282502"><ele>22.200000000000003</ele><time>2026-04-16T08:23:29.003Z</time></trkpt><trkpt lat="45.5241792920949" lon="11.764467769717402"><ele>22.0</ele><time>2026-04-16T08:23:31.003Z</time></trkpt><trkpt lat="45.523884645920354" lon="11.764316249468754"><ele>22.0</ele><time>2026-04-16T08:23:34.003Z</time></trkpt><trkpt lat="45.52383024170362" lon="11.764264944458839"><ele>22.0</ele><time>2026-04-16T08:23:35.003Z</time></trkpt><trkpt lat="45.52377751142868" lon="11.764213520846159"><ele>22.0</ele><time>2026-04-16T08:23:36Z</time></trkpt><trkpt lat="45.52372461874033" lon="11.764163696465445"><ele>22.0</ele><time>2026-04-16T08:23:37Z</time></trkpt><trkpt lat="45.52367007977661" lon="11.764114289468719"><ele>22.0</ele><time>2026-04-16T08:23:38Z</time></trkpt><trkpt lat="45.523611783147324" lon="11.76405599380164"><ele>22.0</ele><time>2026-04-16T08:23:39Z</time></trkpt><trkpt lat="45.52355552138036" lon="11.764009712037522"><ele>22.0</ele><time>2026-04-16T08:23:40Z</time></trkpt><trkpt lat="45.52345730774356" lon="11.76390975005196"><ele>22.142857142857142</ele><time>2026-04-16T08:23:42Z</time></trkpt><trkpt lat="45.523402811808836" lon="11.76385949414707"><ele>22.285714285714285</ele><time>2026-04-16T08:23:43Z</time></trkpt><trkpt lat="45.523344415043525" lon="11.763810598094143"><ele>22.42857142857143</ele><time>2026-04-16T08:23:44Z</time></trkpt><trkpt lat="45.523289717589755" lon="11.763754632141952"><ele>22.57142857142857</ele><time>2026-04-16T08:23:45Z</time></trkpt><trkpt lat="45.523235727465824" lon="11.763699368573876"><ele>22.71428571428571</ele><time>2026-04-16T08:23:46Z</time></trkpt><trkpt lat="45.523177604873744" lon="11.763641239646505"><ele>22.857142857142858</ele><time>2026-04-16T08:23:47Z</time></trkpt><trkpt lat="45.52312060959213" lon="11.763585327615795"><ele>23.0</ele><time>2026-04-16T08:23:48Z</time></trkpt><trkpt lat="45.52306319039486" lon="11.76352695570407"><ele>23.0</ele><time>2026-04-16T08:23:49Z</time></trkpt><trkpt lat="45.52300309964423" lon="11.763470015979914"><ele>23.0</ele><time>2026-04-16T08:23:50Z</time></trkpt><trkpt lat="45.522942387405344" lon="11.763416712106928"><ele>23.0</ele><time>2026-04-16T08:23:51Z</time></trkpt><trkpt lat="45.52288909267026" lon="11.763358460121264"><ele>23.0</ele><time>2026-04-16T08:23:52Z</time></trkpt><trkpt lat="45.522833171522514" lon="11.763301397092587"><ele>23.0</ele><time>2026-04-16T08:23:53Z</time></trkpt><trkpt lat="45.5227720974596" lon="11.763247238332099"><ele>23.0</ele><time>2026-04-16T08:23:54Z</time></trkpt><trkpt lat="45.52271662062211" lon="11.763189678229477"><ele>23.0</ele><time>2026-04-16T08:23:55Z</time></trkpt><trkpt lat="45.52265487707646" lon="11.76313531181507"><ele>22.857142857142858</ele><time>2026-04-16T08:23:56Z</time></trkpt><trkpt lat="45.522594210937484" lon="11.763083917150974"><ele>22.71428571428571</ele><time>2026-04-16T08:23:57Z</time></trkpt><trkpt lat="45.522538538668314" lon="11.763028843308014"><ele>22.57142857142857</ele><time>2026-04-16T08:23:58Z</time></trkpt><trkpt lat="45.522485022131534" lon="11.762974231140063"><ele>22.42857142857143</ele><time>2026-04-16T08:23:59Z</time></trkpt><trkpt lat="45.52242839727149" lon="11.762924269890497"><ele>22.285714285714285</ele><time>2026-04-16T08:24:00Z</time></trkpt><trkpt lat="45.52236976822217" lon="11.762873545755268"><ele>22.142857142857142</ele><time>2026-04-16T08:24:01Z</time></trkpt><trkpt lat="45.522317780625016" lon="11.762819756955723"><ele>22.0</ele><time>2026-04-16T08:24:02Z</time></trkpt><trkpt lat="45.52221462817047" lon="11.762711931527857"><ele>22.0</ele><time>2026-04-16T08:24:04Z</time></trkpt><trkpt lat="45.52210956798978" lon="11.762608865405092"><ele>22.0</ele><time>2026-04-16T08:24:06Z</time></trkpt><trkpt lat="45.5220086832707" lon="11.762515774021448"><ele>22.0</ele><time>2026-04-16T08:24:08Z</time></trkpt><trkpt lat="45.52190916793634" lon="11.762420330517045"><ele>22.0</ele><time>2026-04-16T08:24:10Z</time></trkpt><trkpt lat="45.521807369537555" lon="11.762317056994846"><ele>22.200000000000003</ele><time>2026-04-16T08:24:12Z</time></trkpt><trkpt lat="45.5217040570404" lon="11.762221388655"><ele>22.4</ele><time>2026-04-16T08:24:14Z</time></trkpt><trkpt lat="45.52160303349211" lon="11.762118521378818"><ele>22.6</ele><time>2026-04-16T08:24:16Z</time></trkpt><trkpt lat="45.52149618283274" lon="11.762021196706668"><ele>22.799999999999997</ele><time>2026-04-16T08:24:18Z</time></trkpt><trkpt lat="45.52144163305307" lon="11.761971019379372"><ele>23.0</ele><time>2026-04-16T08:24:19Z</time></trkpt><trkpt lat="45.52138488822656" lon="11.761919769536934"><ele>23.0</ele><time>2026-04-16T08:24:20Z</time></trkpt><trkpt lat="45.52129013174534" lon="11.761817564032624"><ele>23.0</ele><time>2026-04-16T08:24:22.001Z</time></trkpt><trkpt lat="45.52119526252851" lon="11.761708843226687"><ele>23.0</ele><time>2026-04-16T08:24:24.001Z</time></trkpt><trkpt lat="45.52108985317608" lon="11.76163716844108"><ele>23.0</ele><time>2026-04-16T08:24:26.001Z</time></trkpt><trkpt lat="45.52098977905659" lon="11.761559231783833"><ele>23.2</ele><time>2026-04-16T08:24:28.001Z</time></trkpt><trkpt lat="45.52092078115898" lon="11.761479296930945"><ele>23.4</ele><time>2026-04-16T08:24:30.001Z</time></trkpt><trkpt lat="45.52085002330179" lon="11.761427879528583"><ele>23.599999999999998</ele><time>2026-04-16T08:24:32.001Z</time></trkpt><trkpt lat="45.52076706149991" lon="11.761318180328725"><ele>23.799999999999997</ele><time>2026-04-16T08:24:34.001Z</time></trkpt><trkpt lat="45.52066068618423" lon="11.761234562984779"><ele>24.0</ele><time>2026-04-16T08:24:36.001Z</time></trkpt><trkpt lat="45.52055287448377" lon="11.761136444354232"><ele>24.0</ele><time>2026-04-16T08:24:38.001Z</time></trkpt><trkpt lat="45.52049840625776" lon="11.761079279720997"><ele>24.0</ele><time>2026-04-16T08:24:39.001Z</time></trkpt><trkpt lat="45.52044624475915" lon="11.761022947030533"><ele>24.0</ele><time>2026-04-16T08:24:40.001Z</time></trkpt><trkpt lat="45.520341494730026" lon="11.760916274888272"><ele>24.0</ele><time>2026-04-16T08:24:42.001Z</time></trkpt><trkpt lat="45.52028446659076" lon="11.76086555879366"><ele>24.0</ele><time>2026-04-16T08:24:43.001Z</time></trkpt><trkpt lat="45.5202296946475" lon="11.760812227981798"><ele>24.0</ele><time>2026-04-16T08:24:44.001Z</time></trkpt><trkpt lat="45.52017333202475" lon="11.760756989782141"><ele>23.999999999999996</ele><time>2026-04-16T08:24:45.001Z</time></trkpt><trkpt lat="45.52011928935998" lon="11.760698047400302"><ele>24.0</ele><time>2026-04-16T08:24:46.001Z</time></trkpt><trkpt lat="45.52006164178702" lon="11.760644469208447"><ele>24.0</ele><time>2026-04-16T08:24:47.001Z</time></trkpt><trkpt lat="45.52000652798419" lon="11.760590010218543"><ele>24.0</ele><time>2026-04-16T08:24:48.001Z</time></trkpt><trkpt lat="45.51994783262824" lon="11.760536822005893"><ele>24.0</ele><time>2026-04-16T08:24:49.001Z</time></trkpt><trkpt lat="45.519890482144824" lon="11.760486147773621"><ele>23.999999999999996</ele><time>2026-04-16T08:24:50.001Z</time></trkpt><trkpt lat="45.519836375044314" lon="11.760437018388606"><ele>24.0</ele><time>2026-04-16T08:24:51.001Z</time></trkpt><trkpt lat="45.51978659335544" lon="11.760374202987245"><ele>23.999999999999996</ele><time>2026-04-16T08:24:52.001Z</time></trkpt><trkpt lat="45.519736326059764" lon="11.760310608442083"><ele>24.0</ele><time>2026-04-16T08:24:53.001Z</time></trkpt><trkpt lat="45.51967861935647" lon="11.760259023898294"><ele>24.0</ele><time>2026-04-16T08:24:54.001Z</time></trkpt><trkpt lat="45.51961917744595" lon="11.760210671608778"><ele>24.0</ele><time>2026-04-16T08:24:55.001Z</time></trkpt><trkpt lat="45.519566002378724" lon="11.760152325525985"><ele>24.0</ele><time>2026-04-16T08:24:56.001Z</time></trkpt><trkpt lat="45.519510843057304" lon="11.760095256874358"><ele>23.999999999999996</ele><time>2026-04-16T08:24:57.001Z</time></trkpt><trkpt lat="45.519451257007816" lon="11.76004443943425"><ele>24.0</ele><time>2026-04-16T08:24:58.001Z</time></trkpt><trkpt lat="45.51939506581449" lon="11.759991869766457"><ele>23.857142857142854</ele><time>2026-04-16T08:24:59.001Z</time></trkpt><trkpt lat="45.51934085067323" lon="11.759934571485536"><ele>23.714285714285715</ele><time>2026-04-16T08:25:00.001Z</time></trkpt><trkpt lat="45.51928167607851" lon="11.759884519445034"><ele>23.57142857142857</ele><time>2026-04-16T08:25:01.001Z</time></trkpt><trkpt lat="45.51922459544838" lon="11.759834080357411"><ele>23.428571428571427</ele><time>2026-04-16T08:25:02.001Z</time></trkpt><trkpt lat="45.519170586923494" lon="11.759779406283368"><ele>23.285714285714285</ele><time>2026-04-16T08:25:03.001Z</time></trkpt><trkpt lat="45.519117412113786" lon="11.759720690104206"><ele>23.142857142857142</ele><time>2026-04-16T08:25:04.001Z</time></trkpt><trkpt lat="45.51905861635387" lon="11.759669548938824"><ele>23.0</ele><time>2026-04-16T08:25:05.002Z</time></trkpt><trkpt lat="45.51899772975944" lon="11.759616282355092"><ele>23.0</ele><time>2026-04-16T08:25:06.002Z</time></trkpt><trkpt lat="45.51894428139642" lon="11.759565650331382"><ele>23.0</ele><time>2026-04-16T08:25:07.002Z</time></trkpt><trkpt lat="45.518888591259476" lon="11.759512462584667"><ele>23.0</ele><time>2026-04-16T08:25:08.002Z</time></trkpt><trkpt lat="45.5188320599434" lon="11.759456868632721"><ele>23.0</ele><time>2026-04-16T08:25:09.002Z</time></trkpt><trkpt lat="45.51877286140595" lon="11.759409450772232"><ele>23.0</ele><time>2026-04-16T08:25:10.002Z</time></trkpt><trkpt lat="45.5187166450152" lon="11.759351430765943"><ele>23.0</ele><time>2026-04-16T08:25:11.002Z</time></trkpt><trkpt lat="45.51865971538451" lon="11.759295364694717"><ele>23.0</ele><time>2026-04-16T08:25:12.002Z</time></trkpt><trkpt lat="45.51860827907911" lon="11.759241561926737"><ele>23.0</ele><time>2026-04-16T08:25:13.002Z</time></trkpt><trkpt lat="45.51854642597796" lon="11.759188843108067"><ele>23.0</ele><time>2026-04-16T08:25:14.002Z</time></trkpt><trkpt lat="45.51848976255114" lon="11.759132797291848"><ele>23.0</ele><time>2026-04-16T08:25:15.002Z</time></trkpt><trkpt lat="45.51843355568464" lon="11.759078671494652"><ele>23.0</ele><time>2026-04-16T08:25:16.002Z</time></trkpt><trkpt lat="45.51837265142084" lon="11.759019116109862"><ele>23.0</ele><time>2026-04-16T08:25:17.002Z</time></trkpt><trkpt lat="45.518316473344335" lon="11.758958659492878"><ele>23.0</ele><time>2026-04-16T08:25:18.002Z</time></trkpt><trkpt lat="45.51825996701086" lon="11.758908032408046"><ele>23.0</ele><time>2026-04-16T08:25:19.002Z</time></trkpt><trkpt lat="45.5181998256749" lon="11.758859401464385"><ele>23.0</ele><time>2026-04-16T08:25:20.002Z</time></trkpt><trkpt lat="45.51813992514941" lon="11.758808406176259"><ele>23.0</ele><time>2026-04-16T08:25:21.002Z</time></trkpt><trkpt lat="45.518083167609454" lon="11.758749990608814"><ele>23.0</ele><time>2026-04-16T08:25:22.002Z</time></trkpt><trkpt lat="45.51802813791695" lon="11.758692435201635"><ele>23.0</ele><time>2026-04-16T08:25:23.002Z</time></trkpt><trkpt lat="45.51797255124695" lon="11.758639132121884"><ele>23.0</ele><time>2026-04-16T08:25:24.002Z</time></trkpt><trkpt lat="45.51791418178438" lon="11.758580577151834"><ele>23.0</ele><time>2026-04-16T08:25:25.002Z</time></trkpt><trkpt lat="45.517854129436" lon="11.7585234745299"><ele>23.0</ele><time>2026-04-16T08:25:26.002Z</time></trkpt><trkpt lat="45.51779491825232" lon="11.758463697965366"><ele>23.0</ele><time>2026-04-16T08:25:27.002Z</time></trkpt><trkpt lat="45.51773821036419" lon="11.75840919957142"><ele>23.0</ele><time>2026-04-16T08:25:28.002Z</time></trkpt><trkpt lat="45.5176740497165" lon="11.75835408089624"><ele>23.0</ele><time>2026-04-16T08:25:29.002Z</time></trkpt><trkpt lat="45.517616035682785" lon="11.758299514332707"><ele>23.0</ele><time>2026-04-16T08:25:30.002Z</time></trkpt><trkpt lat="45.51756140511847" lon="11.758243351622804"><ele>23.0</ele><time>2026-04-16T08:25:31.002Z</time></trkpt><trkpt lat="45.517500435237864" lon="11.758189416886394"><ele>23.0</ele><time>2026-04-16T08:25:32.002Z</time></trkpt><trkpt lat="45.51744343161412" lon="11.758134961112333"><ele>23.0</ele><time>2026-04-16T08:25:33.002Z</time></trkpt><trkpt lat="45.51738349545322" lon="11.758076019829259"><ele>23.0</ele><time>2026-04-16T08:25:34.002Z</time></trkpt><trkpt lat="45.5173299166246" lon="11.758019272375966"><ele>23.0</ele><time>2026-04-16T08:25:35.002Z</time></trkpt><trkpt lat="45.51727655173536" lon="11.757965282058763"><ele>23.0</ele><time>2026-04-16T08:25:36.002Z</time></trkpt><trkpt lat="45.517222369807286" lon="11.757907900007643"><ele>23.0</ele><time>2026-04-16T08:25:37.002Z</time></trkpt><trkpt lat="45.51716047282357" lon="11.75785098403327"><ele>23.0</ele><time>2026-04-16T08:25:38.002Z</time></trkpt><trkpt lat="45.51709762353703" lon="11.757788913179535"><ele>23.0</ele><time>2026-04-16T08:25:39.002Z</time></trkpt><trkpt lat="45.517038066358324" lon="11.757736751053748"><ele>23.0</ele><time>2026-04-16T08:25:40.002Z</time></trkpt><trkpt lat="45.51698210493902" lon="11.757685912867279"><ele>22.833333333333336</ele><time>2026-04-16T08:25:41.002Z</time></trkpt><trkpt lat="45.51692669324414" lon="11.757630072720062"><ele>22.666666666666668</ele><time>2026-04-16T08:25:42Z</time></trkpt><trkpt lat="45.516872156702206" lon="11.757575120051786"><ele>22.5</ele><time>2026-04-16T08:25:43Z</time></trkpt><trkpt lat="45.51681846184958" lon="11.757520689338941"><ele>22.333333333333332</ele><time>2026-04-16T08:25:44Z</time></trkpt><trkpt lat="45.516764962763" lon="11.757457996591135"><ele>22.166666666666664</ele><time>2026-04-16T08:25:45Z</time></trkpt><trkpt lat="45.51670780291595" lon="11.757410547931766"><ele>22.0</ele><time>2026-04-16T08:25:46Z</time></trkpt><trkpt lat="45.51659846114936" lon="11.757309225495506"><ele>22.0</ele><time>2026-04-16T08:25:48Z</time></trkpt><trkpt lat="45.51653443299242" lon="11.757258059268604"><ele>22.0</ele><time>2026-04-16T08:25:49Z</time></trkpt><trkpt lat="45.51647930958548" lon="11.75719975215275"><ele>22.0</ele><time>2026-04-16T08:25:50Z</time></trkpt><trkpt lat="45.51642297543656" lon="11.757145281487844"><ele>22.0</ele><time>2026-04-16T08:25:51Z</time></trkpt><trkpt lat="45.51636797492895" lon="11.75708788856238"><ele>22.0</ele><time>2026-04-16T08:25:52Z</time></trkpt><trkpt lat="45.51631457251556" lon="11.757034030132932"><ele>22.0</ele><time>2026-04-16T08:25:53Z</time></trkpt><trkpt lat="45.51625729475278" lon="11.756981651109172"><ele>22.0</ele><time>2026-04-16T08:25:54Z</time></trkpt><trkpt lat="45.51620051159613" lon="11.756934454881636"><ele>22.333333333333332</ele><time>2026-04-16T08:25:55Z</time></trkpt><trkpt lat="45.51614361312872" lon="11.75688065398695"><ele>22.666666666666664</ele><time>2026-04-16T08:25:56Z</time></trkpt><trkpt lat="45.51608696150064" lon="11.756828221523511"><ele>23.0</ele><time>2026-04-16T08:25:57Z</time></trkpt><trkpt lat="45.5160336484393" lon="11.756768037948143"><ele>23.333333333333332</ele><time>2026-04-16T08:25:58Z</time></trkpt><trkpt lat="45.51597477977163" lon="11.756713839304059"><ele>23.666666666666668</ele><time>2026-04-16T08:25:59Z</time></trkpt><trkpt lat="45.51586453205195" lon="11.756611061229732"><ele>24.0</ele><time>2026-04-16T08:26:01Z</time></trkpt><trkpt lat="45.515808177161375" lon="11.756550679053825"><ele>24.166666666666668</ele><time>2026-04-16T08:26:02Z</time></trkpt><trkpt lat="45.51575216842711" lon="11.756493883635262"><ele>24.333333333333336</ele><time>2026-04-16T08:26:03Z</time></trkpt><trkpt lat="45.515696986282364" lon="11.756435409735447"><ele>24.5</ele><time>2026-04-16T08:26:04Z</time></trkpt><trkpt lat="45.515639507913825" lon="11.756385190654273"><ele>24.666666666666668</ele><time>2026-04-16T08:26:05Z</time></trkpt><trkpt lat="45.51558546272318" lon="11.756331854736487"><ele>24.833333333333336</ele><time>2026-04-16T08:26:06Z</time></trkpt><trkpt lat="45.51547753256497" lon="11.756233354605271"><ele>25.0</ele><time>2026-04-16T08:26:08Z</time></trkpt><trkpt lat="45.5154246194055" lon="11.756178671784895"><ele>24.8</ele><time>2026-04-16T08:26:09Z</time></trkpt><trkpt lat="45.515371626923724" lon="11.75612643901023"><ele>24.6</ele><time>2026-04-16T08:26:10Z</time></trkpt><trkpt lat="45.5152709851756" lon="11.756033038583784"><ele>24.4</ele><time>2026-04-16T08:26:12Z</time></trkpt><trkpt lat="45.51518187521945" lon="11.755935334900697"><ele>24.2</ele><time>2026-04-16T08:26:14Z</time></trkpt><trkpt lat="45.51509830920092" lon="11.755868236245705"><ele>24.0</ele><time>2026-04-16T08:26:16Z</time></trkpt><trkpt lat="45.51503988439381" lon="11.755795546090319"><ele>23.833333333333332</ele><time>2026-04-16T08:26:18Z</time></trkpt><trkpt lat="45.514964204452156" lon="11.75574528135977"><ele>23.666666666666668</ele><time>2026-04-16T08:26:20.001Z</time></trkpt><trkpt lat="45.51489289189548" lon="11.755725999000312"><ele>23.5</ele><time>2026-04-16T08:26:23.001Z</time></trkpt><trkpt lat="45.51483257433575" lon="11.755666473959922"><ele>23.333333333333336</ele><time>2026-04-16T08:26:25.001Z</time></trkpt><trkpt lat="45.514763447542" lon="11.755596205127919"><ele>23.166666666666668</ele><time>2026-04-16T08:26:27.001Z</time></trkpt><trkpt lat="45.51467688475948" lon="11.755508212224573"><ele>23.0</ele><time>2026-04-16T08:26:29.001Z</time></trkpt><trkpt lat="45.51458065756243" lon="11.755415720651714"><ele>22.799999999999997</ele><time>2026-04-16T08:26:31.001Z</time></trkpt><trkpt lat="45.51449379860263" lon="11.755334533767726"><ele>22.6</ele><time>2026-04-16T08:26:33.001Z</time></trkpt><trkpt lat="45.51440907449397" lon="11.755255740928918"><ele>22.4</ele><time>2026-04-16T08:26:35.001Z</time></trkpt><trkpt lat="45.5143258425568" lon="11.75517833556905"><ele>22.200000000000003</ele><time>2026-04-16T08:26:37.001Z</time></trkpt><trkpt lat="45.514233910758996" lon="11.755087149177394"><ele>22.0</ele><time>2026-04-16T08:26:39.001Z</time></trkpt><trkpt lat="45.514124611027704" lon="11.75501661955942"><ele>22.0</ele><time>2026-04-16T08:26:41.001Z</time></trkpt><trkpt lat="45.51402328658404" lon="11.754954715756535"><ele>22.0</ele><time>2026-04-16T08:26:43.001Z</time></trkpt><trkpt lat="45.513917190641166" lon="11.754889896826338"><ele>22.0</ele><time>2026-04-16T08:26:45.001Z</time></trkpt><trkpt lat="45.51390342112243" lon="11.75470669813952"><ele>22.0</ele><time>2026-04-16T08:26:46.001Z</time></trkpt><trkpt lat="45.5137984174522" lon="11.754602382311118"><ele>22.0</ele><time>2026-04-16T08:26:48.001Z</time></trkpt><trkpt lat="45.51368917017943" lon="11.754514610255596"><ele>22.0</ele><time>2026-04-16T08:26:50.001Z</time></trkpt><trkpt lat="45.51363439635587" lon="11.754456106687295"><ele>22.0</ele><time>2026-04-16T08:26:51.001Z</time></trkpt><trkpt lat="45.513583080075804" lon="11.754397778540747"><ele>22.0</ele><time>2026-04-16T08:26:52.001Z</time></trkpt><trkpt lat="45.513522898958186" lon="11.754344242600617"><ele>22.0</ele><time>2026-04-16T08:26:53.001Z</time></trkpt><trkpt lat="45.513414408440774" lon="11.754249492506405"><ele>22.0</ele><time>2026-04-16T08:26:55.001Z</time></trkpt><trkpt lat="45.513354259174776" lon="11.7541971080199"><ele>22.0</ele><time>2026-04-16T08:26:56.001Z</time></trkpt><trkpt lat="45.513300689487046" lon="11.754142342062696"><ele>22.0</ele><time>2026-04-16T08:26:57.001Z</time></trkpt><trkpt lat="45.51324947908683" lon="11.75408181616784"><ele>22.0</ele><time>2026-04-16T08:26:58.001Z</time></trkpt><trkpt lat="45.51319311621474" lon="11.754023684360906"><ele>22.0</ele><time>2026-04-16T08:26:59.001Z</time></trkpt><trkpt lat="45.5131248182748" lon="11.753968676924384"><ele>22.0</ele><time>2026-04-16T08:27:00.002Z</time></trkpt><trkpt lat="45.51306390754658" lon="11.753914204462811"><ele>22.0</ele><time>2026-04-16T08:27:01.002Z</time></trkpt><trkpt lat="45.51300312860077" lon="11.753856614989848"><ele>22.0</ele><time>2026-04-16T08:27:02.002Z</time></trkpt><trkpt lat="45.51294467621753" lon="11.753795525894809"><ele>22.0</ele><time>2026-04-16T08:27:03.002Z</time></trkpt><trkpt lat="45.51288837292414" lon="11.7537393656975"><ele>22.0</ele><time>2026-04-16T08:27:04.002Z</time></trkpt><trkpt lat="45.51283317671919" lon="11.753675654801631"><ele>22.0</ele><time>2026-04-16T08:27:05.002Z</time></trkpt><trkpt lat="45.512776242138756" lon="11.753616473733864"><ele>22.0</ele><time>2026-04-16T08:27:06.002Z</time></trkpt><trkpt lat="45.51271637982891" lon="11.753557321572236"><ele>22.0</ele><time>2026-04-16T08:27:07.002Z</time></trkpt><trkpt lat="45.51265643390518" lon="11.753498857161961"><ele>22.0</ele><time>2026-04-16T08:27:08.002Z</time></trkpt><trkpt lat="45.512596312492406" lon="11.753448443984398"><ele>21.857142857142858</ele><time>2026-04-16T08:27:09.002Z</time></trkpt><trkpt lat="45.512537152014225" lon="11.753394685185864"><ele>21.714285714285715</ele><time>2026-04-16T08:27:10.002Z</time></trkpt><trkpt lat="45.51247926560453" lon="11.75333880123895"><ele>21.57142857142857</ele><time>2026-04-16T08:27:11.002Z</time></trkpt><trkpt lat="45.512421164586804" lon="11.75328473846361"><ele>21.42857142857143</ele><time>2026-04-16T08:27:12.002Z</time></trkpt><trkpt lat="45.51236135002406" lon="11.753230358908125"><ele>21.285714285714285</ele><time>2026-04-16T08:27:13.002Z</time></trkpt><trkpt lat="45.51230410670779" lon="11.753182025417681"><ele>21.142857142857142</ele><time>2026-04-16T08:27:14.002Z</time></trkpt><trkpt lat="45.512246224906846" lon="11.753122519639234"><ele>21.0</ele><time>2026-04-16T08:27:15.002Z</time></trkpt><trkpt lat="45.512190507160305" lon="11.753069325535638"><ele>21.0</ele><time>2026-04-16T08:27:16.002Z</time></trkpt><trkpt lat="45.51212869082186" lon="11.753011286210299"><ele>21.0</ele><time>2026-04-16T08:27:17.002Z</time></trkpt><trkpt lat="45.5120715474596" lon="11.752962753103594"><ele>21.0</ele><time>2026-04-16T08:27:18.002Z</time></trkpt><trkpt lat="45.512014959480446" lon="11.752911184786047"><ele>21.0</ele><time>2026-04-16T08:27:19.002Z</time></trkpt><trkpt lat="45.51195390533515" lon="11.75285557662952"><ele>21.0</ele><time>2026-04-16T08:27:20.002Z</time></trkpt><trkpt lat="45.51189635992184" lon="11.75279369245348"><ele>21.0</ele><time>2026-04-16T08:27:21.002Z</time></trkpt><trkpt lat="45.51184669766751" lon="11.752736457592441"><ele>21.0</ele><time>2026-04-16T08:27:22.002Z</time></trkpt><trkpt lat="45.511788096067015" lon="11.7526790574343"><ele>21.0</ele><time>2026-04-16T08:27:23.002Z</time></trkpt><trkpt lat="45.51172780113206" lon="11.7526286898486"><ele>21.0</ele><time>2026-04-16T08:27:24.002Z</time></trkpt><trkpt lat="45.51166790198664" lon="11.752566079510633"><ele>21.0</ele><time>2026-04-16T08:27:25.002Z</time></trkpt><trkpt lat="45.511606592027334" lon="11.75251130386691"><ele>21.0</ele><time>2026-04-16T08:27:26.002Z</time></trkpt><trkpt lat="45.51154825999804" lon="11.752453707279487"><ele>21.0</ele><time>2026-04-16T08:27:27.002Z</time></trkpt><trkpt lat="45.51148779712567" lon="11.752398599047083"><ele>21.0</ele><time>2026-04-16T08:27:28.002Z</time></trkpt><trkpt lat="45.51142836042561" lon="11.752343108329798"><ele>21.0</ele><time>2026-04-16T08:27:29.002Z</time></trkpt><trkpt lat="45.51136461173375" lon="11.752287102821654"><ele>21.0</ele><time>2026-04-16T08:27:30.002Z</time></trkpt><trkpt lat="45.511306747731474" lon="11.752224897053935"><ele>21.0</ele><time>2026-04-16T08:27:31.002Z</time></trkpt><trkpt lat="45.51124311643393" lon="11.752166607845234"><ele>21.0</ele><time>2026-04-16T08:27:32.002Z</time></trkpt><trkpt lat="45.51118732149531" lon="11.752105106345953"><ele>21.0</ele><time>2026-04-16T08:27:33.002Z</time></trkpt><trkpt lat="45.51112083500166" lon="11.752042000634125"><ele>21.0</ele><time>2026-04-16T08:27:34.002Z</time></trkpt><trkpt lat="45.511065360966185" lon="11.75198824946381"><ele>21.0</ele><time>2026-04-16T08:27:35.002Z</time></trkpt><trkpt lat="45.51100416422412" lon="11.751926604653336"><ele>21.0</ele><time>2026-04-16T08:27:36.002Z</time></trkpt><trkpt lat="45.5109490045491" lon="11.751869174094642"><ele>21.142857142857142</ele><time>2026-04-16T08:27:37.002Z</time></trkpt><trkpt lat="45.51088794079671" lon="11.751816001909669"><ele>21.285714285714285</ele><time>2026-04-16T08:27:38.002Z</time></trkpt><trkpt lat="45.51082638931494" lon="11.751755972017126"><ele>21.42857142857143</ele><time>2026-04-16T08:27:39.002Z</time></trkpt><trkpt lat="45.51076663711189" lon="11.7516975102334"><ele>21.57142857142857</ele><time>2026-04-16T08:27:40.002Z</time></trkpt><trkpt lat="45.510709400211105" lon="11.751640513449988"><ele>21.714285714285715</ele><time>2026-04-16T08:27:41.002Z</time></trkpt><trkpt lat="45.51064534957803" lon="11.751586926313815"><ele>21.857142857142858</ele><time>2026-04-16T08:27:42.002Z</time></trkpt><trkpt lat="45.51058350152959" lon="11.751529766639708"><ele>22.0</ele><time>2026-04-16T08:27:43.003Z</time></trkpt><trkpt lat="45.510527067728" lon="11.751470155813314"><ele>22.0</ele><time>2026-04-16T08:27:44.003Z</time></trkpt><trkpt lat="45.510469543465476" lon="11.75141103876163"><ele>22.0</ele><time>2026-04-16T08:27:45.003Z</time></trkpt><trkpt lat="45.51040984768014" lon="11.75135363113695"><ele>22.0</ele><time>2026-04-16T08:27:46.003Z</time></trkpt><trkpt lat="45.5103551617941" lon="11.751306164678988"><ele>22.0</ele><time>2026-04-16T08:27:47.003Z</time></trkpt><trkpt lat="45.51029716888421" lon="11.751258745004488"><ele>22.0</ele><time>2026-04-16T08:27:48Z</time></trkpt><trkpt lat="45.51019960985101" lon="11.751163129425303"><ele>22.0</ele><time>2026-04-16T08:27:50Z</time></trkpt><trkpt lat="45.51010514949072" lon="11.75107747857175"><ele>22.200000000000003</ele><time>2026-04-16T08:27:52Z</time></trkpt><trkpt lat="45.510013717412896" lon="11.75098811486788"><ele>22.4</ele><time>2026-04-16T08:27:54Z</time></trkpt><trkpt lat="45.50990849545645" lon="11.75089572566258"><ele>22.6</ele><time>2026-04-16T08:27:56Z</time></trkpt><trkpt lat="45.5098069096156" lon="11.75079497752971"><ele>22.799999999999997</ele><time>2026-04-16T08:27:58Z</time></trkpt><trkpt lat="45.50974832455812" lon="11.750742962227275"><ele>23.0</ele><time>2026-04-16T08:27:59Z</time></trkpt><trkpt lat="45.50969056899231" lon="11.750690551157557"><ele>23.0</ele><time>2026-04-16T08:28:00Z</time></trkpt><trkpt lat="45.50963252507895" lon="11.750638639912843"><ele>23.0</ele><time>2026-04-16T08:28:01Z</time></trkpt><trkpt lat="45.509574089080076" lon="11.750583472604506"><ele>23.0</ele><time>2026-04-16T08:28:02Z</time></trkpt><trkpt lat="45.509514586000186" lon="11.750527283287065"><ele>23.0</ele><time>2026-04-16T08:28:03Z</time></trkpt><trkpt lat="45.50945828626489" lon="11.750473835373546"><ele>23.0</ele><time>2026-04-16T08:28:04Z</time></trkpt><trkpt lat="45.509354881589516" lon="11.750390846383803"><ele>23.0</ele><time>2026-04-16T08:28:06Z</time></trkpt><trkpt lat="45.5092589201308" lon="11.750293718909914"><ele>22.833333333333336</ele><time>2026-04-16T08:28:08Z</time></trkpt><trkpt lat="45.50916195223828" lon="11.750206654811315"><ele>22.666666666666668</ele><time>2026-04-16T08:28:10Z</time></trkpt><trkpt lat="45.50909899806044" lon="11.7501200023391"><ele>22.5</ele><time>2026-04-16T08:28:12Z</time></trkpt><trkpt lat="45.509043004455684" lon="11.750046589934113"><ele>22.333333333333332</ele><time>2026-04-16T08:28:15Z</time></trkpt><trkpt lat="45.5089635383973" lon="11.750012881513523"><ele>22.166666666666664</ele><time>2026-04-16T08:28:25.001Z</time></trkpt><trkpt lat="45.50890354846321" lon="11.749957969521386"><ele>22.0</ele><time>2026-04-16T08:28:27.001Z</time></trkpt><trkpt lat="45.50883760443875" lon="11.749881208075184"><ele>22.0</ele><time>2026-04-16T08:28:29.001Z</time></trkpt><trkpt lat="45.50875915131803" lon="11.749790741311925"><ele>22.0</ele><time>2026-04-16T08:28:31.001Z</time></trkpt><trkpt lat="45.508661385579295" lon="11.74969294459121"><ele>22.0</ele><time>2026-04-16T08:28:33.001Z</time></trkpt><trkpt lat="45.50855749728953" lon="11.74959678932981"><ele>22.0</ele><time>2026-04-16T08:28:35.001Z</time></trkpt><trkpt lat="45.50850614665612" lon="11.74954221385729"><ele>22.0</ele><time>2026-04-16T08:28:36.001Z</time></trkpt><trkpt lat="45.50840560145811" lon="11.7494433256961"><ele>22.0</ele><time>2026-04-16T08:28:38.001Z</time></trkpt><trkpt lat="45.50830703255002" lon="11.7493423951065"><ele>22.0</ele><time>2026-04-16T08:28:40.001Z</time></trkpt><trkpt lat="45.508205048587946" lon="11.749244634853198"><ele>22.0</ele><time>2026-04-16T08:28:42.001Z</time></trkpt><trkpt lat="45.50810041841528" lon="11.749147127392122"><ele>22.0</ele><time>2026-04-16T08:28:44.001Z</time></trkpt><trkpt lat="45.50804324085381" lon="11.74909565624747"><ele>22.0</ele><time>2026-04-16T08:28:45.001Z</time></trkpt><trkpt lat="45.50798409558822" lon="11.749041286319393"><ele>22.0</ele><time>2026-04-16T08:28:46.001Z</time></trkpt><trkpt lat="45.50792814024401" lon="11.748988305375116"><ele>22.0</ele><time>2026-04-16T08:28:47.001Z</time></trkpt><trkpt lat="45.507868840842505" lon="11.748935037550499"><ele>22.0</ele><time>2026-04-16T08:28:48.001Z</time></trkpt><trkpt lat="45.507807951341626" lon="11.748888642320708"><ele>22.0</ele><time>2026-04-16T08:28:49.001Z</time></trkpt><trkpt lat="45.50775395591423" lon="11.748831124886388"><ele>22.0</ele><time>2026-04-16T08:28:50.001Z</time></trkpt><trkpt lat="45.50770024469157" lon="11.748766694280473"><ele>22.0</ele><time>2026-04-16T08:28:51.001Z</time></trkpt><trkpt lat="45.50764256994756" lon="11.74871022451636"><ele>22.0</ele><time>2026-04-16T08:28:52.001Z</time></trkpt><trkpt lat="45.50758155329407" lon="11.748654706044979"><ele>21.714285714285715</ele><time>2026-04-16T08:28:53.001Z</time></trkpt><trkpt lat="45.507527138702905" lon="11.748592232459263"><ele>21.428571428571427</ele><time>2026-04-16T08:28:54.001Z</time></trkpt><trkpt lat="45.507463684991805" lon="11.74853377593696"><ele>21.142857142857142</ele><time>2026-04-16T08:28:55.001Z</time></trkpt><trkpt lat="45.50740408483481" lon="11.74847586992266"><ele>20.857142857142858</ele><time>2026-04-16T08:28:56.001Z</time></trkpt><trkpt lat="45.5073427236286" lon="11.748424240019409"><ele>20.571428571428573</ele><time>2026-04-16T08:28:57.001Z</time></trkpt><trkpt lat="45.507280063147775" lon="11.748370243765862"><ele>20.285714285714285</ele><time>2026-04-16T08:28:58.001Z</time></trkpt><trkpt lat="45.50721999877714" lon="11.748315513585084"><ele>20.0</ele><time>2026-04-16T08:28:59.001Z</time></trkpt><trkpt lat="45.50716355806733" lon="11.748256053781182"><ele>20.0</ele><time>2026-04-16T08:29:00.001Z</time></trkpt><trkpt lat="45.50710935156239" lon="11.74819933936854"><ele>20.0</ele><time>2026-04-16T08:29:01.002Z</time></trkpt><trkpt lat="45.50700749185928" lon="11.748099172255973"><ele>20.0</ele><time>2026-04-16T08:29:03.002Z</time></trkpt><trkpt lat="45.50695383591556" lon="11.74804117943918"><ele>20.0</ele><time>2026-04-16T08:29:04.002Z</time></trkpt><trkpt lat="45.50690299681844" lon="11.747982136058514"><ele>20.0</ele><time>2026-04-16T08:29:05.002Z</time></trkpt><trkpt lat="45.506847429877176" lon="11.747930437409076"><ele>20.0</ele><time>2026-04-16T08:29:06.002Z</time></trkpt><trkpt lat="45.50679374760676" lon="11.747872064408645"><ele>20.333333333333336</ele><time>2026-04-16T08:29:07.002Z</time></trkpt><trkpt lat="45.506738963137465" lon="11.747819102792466"><ele>20.666666666666668</ele><time>2026-04-16T08:29:08.002Z</time></trkpt><trkpt lat="45.506689938838456" lon="11.747762574550977"><ele>21.0</ele><time>2026-04-16T08:29:09.002Z</time></trkpt><trkpt lat="45.5065746686177" lon="11.747675744419045"><ele>21.333333333333332</ele><time>2026-04-16T08:29:11.002Z</time></trkpt><trkpt lat="45.506508905989165" lon="11.747628538411817"><ele>21.666666666666664</ele><time>2026-04-16T08:29:12.002Z</time></trkpt><trkpt lat="45.50642331766386" lon="11.74753142954858"><ele>22.0</ele><time>2026-04-16T08:29:14.002Z</time></trkpt><trkpt lat="45.5063642640201" lon="11.747479387678277"><ele>22.0</ele><time>2026-04-16T08:29:15.002Z</time></trkpt><trkpt lat="45.506305756428176" lon="11.747425829280902"><ele>22.0</ele><time>2026-04-16T08:29:16.002Z</time></trkpt><trkpt lat="45.506255757493264" lon="11.747369866692855"><ele>22.0</ele><time>2026-04-16T08:29:17.002Z</time></trkpt><trkpt lat="45.50615362493261" lon="11.747267614459837"><ele>22.0</ele><time>2026-04-16T08:29:19.002Z</time></trkpt><trkpt lat="45.506098336436246" lon="11.7472172886229"><ele>22.0</ele><time>2026-04-16T08:29:20.002Z</time></trkpt><trkpt lat="45.506044973466494" lon="11.74716158373535"><ele>22.0</ele><time>2026-04-16T08:29:21.002Z</time></trkpt><trkpt lat="45.50598760177627" lon="11.747111895197818"><ele>22.0</ele><time>2026-04-16T08:29:22.002Z</time></trkpt><trkpt lat="45.50593273573195" lon="11.7470625574849"><ele>22.0</ele><time>2026-04-16T08:29:23.002Z</time></trkpt><trkpt lat="45.50588072625312" lon="11.746998322693425"><ele>22.0</ele><time>2026-04-16T08:29:24.002Z</time></trkpt><trkpt lat="45.50582329382101" lon="11.74692987914405"><ele>22.0</ele><time>2026-04-16T08:29:25.002Z</time></trkpt><trkpt lat="45.50576000795937" lon="11.746872195059904"><ele>22.0</ele><time>2026-04-16T08:29:26.002Z</time></trkpt><trkpt lat="45.50569700621495" lon="11.746813650547425"><ele>22.0</ele><time>2026-04-16T08:29:27.002Z</time></trkpt><trkpt lat="45.505633441617654" lon="11.74675555534048"><ele>22.0</ele><time>2026-04-16T08:29:28.002Z</time></trkpt><trkpt lat="45.50556953075811" lon="11.746697663647879"><ele>21.833333333333332</ele><time>2026-04-16T08:29:29.002Z</time></trkpt><trkpt lat="45.505505474469786" lon="11.746641384461853"><ele>21.666666666666664</ele><time>2026-04-16T08:29:30.002Z</time></trkpt><trkpt lat="45.50544450982609" lon="11.746578553210776"><ele>21.5</ele><time>2026-04-16T08:29:31.002Z</time></trkpt><trkpt lat="45.505383388306576" lon="11.746518788052937"><ele>21.333333333333332</ele><time>2026-04-16T08:29:32.002Z</time></trkpt><trkpt lat="45.50531916658478" lon="11.746462667668306"><ele>21.166666666666668</ele><time>2026-04-16T08:29:33.002Z</time></trkpt><trkpt lat="45.50525847718429" lon="11.746406549159888"><ele>21.0</ele><time>2026-04-16T08:29:34.002Z</time></trkpt><trkpt lat="45.5051946346406" lon="11.746343187272764"><ele>21.285714285714285</ele><time>2026-04-16T08:29:35.002Z</time></trkpt><trkpt lat="45.505134453425526" lon="11.746282166983027"><ele>21.57142857142857</ele><time>2026-04-16T08:29:36.002Z</time></trkpt><trkpt lat="45.50507607287165" lon="11.746219838224176"><ele>21.857142857142858</ele><time>2026-04-16T08:29:37.002Z</time></trkpt><trkpt lat="45.50501987777664" lon="11.746161564077784"><ele>22.142857142857142</ele><time>2026-04-16T08:29:38.002Z</time></trkpt><trkpt lat="45.50497003737962" lon="11.746102469304166"><ele>22.428571428571427</ele><time>2026-04-16T08:29:39.002Z</time></trkpt><trkpt lat="45.504915403255254" lon="11.746046749888546"><ele>22.714285714285715</ele><time>2026-04-16T08:29:40.002Z</time></trkpt><trkpt lat="45.50485580287106" lon="11.745994526484715"><ele>23.0</ele><time>2026-04-16T08:29:41.002Z</time></trkpt><trkpt lat="45.504801333733134" lon="11.745931085183337"><ele>23.0</ele><time>2026-04-16T08:29:42.002Z</time></trkpt><trkpt lat="45.50474909814207" lon="11.74586567533933"><ele>23.0</ele><time>2026-04-16T08:29:43.002Z</time></trkpt><trkpt lat="45.50468914615981" lon="11.745808920195122"><ele>23.0</ele><time>2026-04-16T08:29:44.003Z</time></trkpt><trkpt lat="45.504627059616865" lon="11.745749343908702"><ele>23.0</ele><time>2026-04-16T08:29:45.003Z</time></trkpt><trkpt lat="45.50457047395201" lon="11.745683195857119"><ele>23.0</ele><time>2026-04-16T08:29:46.003Z</time></trkpt><trkpt lat="45.50451653899578" lon="11.745618488370438"><ele>23.0</ele><time>2026-04-16T08:29:47.003Z</time></trkpt><trkpt lat="45.50445964598288" lon="11.745552715027317"><ele>23.0</ele><time>2026-04-16T08:29:48.003Z</time></trkpt><trkpt lat="45.50439211848538" lon="11.745497697656983"><ele>23.0</ele><time>2026-04-16T08:29:49.003Z</time></trkpt><trkpt lat="45.504334694025566" lon="11.745445297283188"><ele>23.0</ele><time>2026-04-16T08:29:50.003Z</time></trkpt><trkpt lat="45.5042709155004" lon="11.745392057995751"><ele>23.0</ele><time>2026-04-16T08:29:51.003Z</time></trkpt><trkpt lat="45.50420831624583" lon="11.74533386493173"><ele>23.0</ele><time>2026-04-16T08:29:52.003Z</time></trkpt><trkpt lat="45.50414082643948" lon="11.745281603166928"><ele>23.0</ele><time>2026-04-16T08:29:53.003Z</time></trkpt><trkpt lat="45.50408400987739" lon="11.745236506676951"><ele>23.0</ele><time>2026-04-16T08:29:54Z</time></trkpt><trkpt lat="45.504023627372334" lon="11.745184535681373"><ele>23.0</ele><time>2026-04-16T08:29:55Z</time></trkpt><trkpt lat="45.503967538969874" lon="11.745134996495501"><ele>22.833333333333336</ele><time>2026-04-16T08:29:56Z</time></trkpt><trkpt lat="45.5039023737225" lon="11.745083004148414"><ele>22.666666666666668</ele><time>2026-04-16T08:29:57Z</time></trkpt><trkpt lat="45.50384272553925" lon="11.745038730633263"><ele>22.5</ele><time>2026-04-16T08:29:58Z</time></trkpt><trkpt lat="45.50378014726226" lon="11.744980054028767"><ele>22.333333333333332</ele><time>2026-04-16T08:29:59Z</time></trkpt><trkpt lat="45.50371978261733" lon="11.744930345107296"><ele>22.166666666666664</ele><time>2026-04-16T08:30:00Z</time></trkpt><trkpt lat="45.50361265369079" lon="11.744824041234878"><ele>22.0</ele><time>2026-04-16T08:30:02Z</time></trkpt><trkpt lat="45.503556715151944" lon="11.744766876364793"><ele>21.857142857142858</ele><time>2026-04-16T08:30:03Z</time></trkpt><trkpt lat="45.503496069930335" lon="11.744712959306955"><ele>21.714285714285715</ele><time>2026-04-16T08:30:04Z</time></trkpt><trkpt lat="45.5034378835164" lon="11.74465275447588"><ele>21.57142857142857</ele><time>2026-04-16T08:30:05Z</time></trkpt><trkpt lat="45.503380280313735" lon="11.74459377563133"><ele>21.42857142857143</ele><time>2026-04-16T08:30:06Z</time></trkpt><trkpt lat="45.50332295448952" lon="11.74453665285603"><ele>21.285714285714285</ele><time>2026-04-16T08:30:07Z</time></trkpt><trkpt lat="45.50326157833815" lon="11.744478485404914"><ele>21.142857142857142</ele><time>2026-04-16T08:30:08Z</time></trkpt><trkpt lat="45.50319948503207" lon="11.744427277751104"><ele>21.0</ele><time>2026-04-16T08:30:09Z</time></trkpt><trkpt lat="45.50313780985035" lon="11.744368478034861"><ele>20.833333333333332</ele><time>2026-04-16T08:30:10Z</time></trkpt><trkpt lat="45.50307861764895" lon="11.744308209503847"><ele>20.666666666666668</ele><time>2026-04-16T08:30:11Z</time></trkpt><trkpt lat="45.50302217303135" lon="11.74424825207792"><ele>20.5</ele><time>2026-04-16T08:30:12Z</time></trkpt><trkpt lat="45.50296843070608" lon="11.744190808125666"><ele>20.333333333333336</ele><time>2026-04-16T08:30:13Z</time></trkpt><trkpt lat="45.50291397283136" lon="11.744139752732853"><ele>20.166666666666668</ele><time>2026-04-16T08:30:14Z</time></trkpt><trkpt lat="45.50280699745818" lon="11.74405523186016"><ele>20.0</ele><time>2026-04-16T08:30:16Z</time></trkpt><trkpt lat="45.502637917065094" lon="11.744054196160477"><ele>20.75</ele><time>2026-04-16T08:30:18Z</time></trkpt><trkpt lat="45.50257505732976" lon="11.743957247509991"><ele>21.5</ele><time>2026-04-16T08:30:20.001Z</time></trkpt><trkpt lat="45.50246686738556" lon="11.743851790852126"><ele>22.25</ele><time>2026-04-16T08:30:22.001Z</time></trkpt><trkpt lat="45.50236992289128" lon="11.74374839191832"><ele>23.0</ele><time>2026-04-16T08:30:24.001Z</time></trkpt><trkpt lat="45.50227245558505" lon="11.74364443552036"><ele>23.0</ele><time>2026-04-16T08:30:26.001Z</time></trkpt><trkpt lat="45.502184807675086" lon="11.743546952614803"><ele>23.0</ele><time>2026-04-16T08:30:28.001Z</time></trkpt><trkpt lat="45.50210255097272" lon="11.743450754229176"><ele>23.0</ele><time>2026-04-16T08:30:30.001Z</time></trkpt><trkpt lat="45.502045696519446" lon="11.743355526636003"><ele>23.0</ele><time>2026-04-16T08:30:32.001Z</time></trkpt><trkpt lat="45.502060924555" lon="11.743171797579956"><ele>23.0</ele><time>2026-04-16T08:30:34.001Z</time></trkpt><trkpt lat="45.502119211917375" lon="11.743044935793215"><ele>23.0</ele><time>2026-04-16T08:30:36.001Z</time></trkpt><trkpt lat="45.50214662348187" lon="11.742946372562782"><ele>23.0</ele><time>2026-04-16T08:30:38.001Z</time></trkpt><trkpt lat="45.50204651314747" lon="11.742956942708714"><ele>23.0</ele><time>2026-04-16T08:30:40.001Z</time></trkpt><trkpt lat="45.50194568122113" lon="11.742961914131184"><ele>23.0</ele><time>2026-04-16T08:30:42.001Z</time></trkpt><trkpt lat="45.50185729370373" lon="11.742994758243718"><ele>23.0</ele><time>2026-04-16T08:30:44.001Z</time></trkpt><trkpt lat="45.50175875872321" lon="11.743027488791592"><ele>23.0</ele><time>2026-04-16T08:30:46.001Z</time></trkpt><trkpt lat="45.50166328019331" lon="11.743020841322991"><ele>23.0</ele><time>2026-04-16T08:30:48.001Z</time></trkpt><trkpt lat="45.50157786874835" lon="11.743034983822062"><ele>23.0</ele><time>2026-04-16T08:30:50.001Z</time></trkpt><trkpt lat="45.50148577240439" lon="11.743050487886242"><ele>23.0</ele><time>2026-04-16T08:30:52.001Z</time></trkpt><trkpt lat="45.501395172160166" lon="11.743055275980916"><ele>23.0</ele><time>2026-04-16T08:30:54.001Z</time></trkpt><trkpt lat="45.50129560077236" lon="11.74304205192165"><ele>22.5</ele><time>2026-04-16T08:30:56.001Z</time></trkpt><trkpt lat="45.50114460449391" lon="11.742449903362536"><ele>22.0</ele><time>2026-04-16T08:30:58.001Z</time></trkpt><trkpt lat="45.50103687380276" lon="11.742350961552958"><ele>22.0</ele><time>2026-04-16T08:31:00.001Z</time></trkpt><trkpt lat="45.500935263023834" lon="11.74224472411377"><ele>22.0</ele><time>2026-04-16T08:31:02.001Z</time></trkpt><trkpt lat="45.50088318112078" lon="11.742186981437051"><ele>22.0</ele><time>2026-04-16T08:31:03.001Z</time></trkpt><trkpt lat="45.50076872985242" lon="11.742097022321687"><ele>22.0</ele><time>2026-04-16T08:31:05.001Z</time></trkpt><trkpt lat="45.50071704726249" lon="11.742040197493612"><ele>22.0</ele><time>2026-04-16T08:31:06.002Z</time></trkpt><trkpt lat="45.5006610272105" lon="11.74199186361898"><ele>22.0</ele><time>2026-04-16T08:31:07.002Z</time></trkpt><trkpt lat="45.50055735523402" lon="11.741895589398027"><ele>22.0</ele><time>2026-04-16T08:31:09.002Z</time></trkpt><trkpt lat="45.50041642415324" lon="11.74186430893769"><ele>22.0</ele><time>2026-04-16T08:31:11.002Z</time></trkpt><trkpt lat="45.50033389323827" lon="11.741765491666428"><ele>22.0</ele><time>2026-04-16T08:31:13.002Z</time></trkpt><trkpt lat="45.50024030122637" lon="11.741670268182409"><ele>21.8</ele><time>2026-04-16T08:31:15.002Z</time></trkpt><trkpt lat="45.50013890191456" lon="11.74157169037676"><ele>21.6</ele><time>2026-04-16T08:31:17.002Z</time></trkpt><trkpt lat="45.5000858953205" lon="11.741520817837852"><ele>21.400000000000002</ele><time>2026-04-16T08:31:18.002Z</time></trkpt><trkpt lat="45.49998359822075" lon="11.741422639195253"><ele>21.200000000000003</ele><time>2026-04-16T08:31:20.002Z</time></trkpt><trkpt lat="45.49992991247349" lon="11.741371114835298"><ele>21.0</ele><time>2026-04-16T08:31:21.002Z</time></trkpt><trkpt lat="45.499842558321596" lon="11.741287277487638"><ele>21.0</ele><time>2026-04-16T08:31:23.002Z</time></trkpt><trkpt lat="45.499786893698655" lon="11.741233854030792"><ele>21.0</ele><time>2026-04-16T08:31:24.002Z</time></trkpt><trkpt lat="45.499685575056404" lon="11.741136614346855"><ele>21.0</ele><time>2026-04-16T08:31:26.002Z</time></trkpt><trkpt lat="45.49958362192121" lon="11.74103876578034"><ele>21.0</ele><time>2026-04-16T08:31:28.002Z</time></trkpt><trkpt lat="45.49947827456274" lon="11.74093765972027"><ele>21.0</ele><time>2026-04-16T08:31:30.002Z</time></trkpt><trkpt lat="45.499382354011495" lon="11.740845994509238"><ele>20.6</ele><time>2026-04-16T08:31:32.002Z</time></trkpt><trkpt lat="45.499370629567046" lon="11.740728249392683"><ele>20.200000000000003</ele><time>2026-04-16T08:31:33.002Z</time></trkpt><trkpt lat="45.49927638817239" lon="11.740628381080572"><ele>19.799999999999997</ele><time>2026-04-16T08:31:35.002Z</time></trkpt><trkpt lat="45.49917113008613" lon="11.740556451640716"><ele>19.4</ele><time>2026-04-16T08:31:37.002Z</time></trkpt><trkpt lat="45.499068845697565" lon="11.740462771720289"><ele>19.0</ele><time>2026-04-16T08:31:39.002Z</time></trkpt><trkpt lat="45.499019839868296" lon="11.740395184445926"><ele>19.0</ele><time>2026-04-16T08:31:40.002Z</time></trkpt><trkpt lat="45.498960422615745" lon="11.74034508155433"><ele>19.0</ele><time>2026-04-16T08:31:41.002Z</time></trkpt><trkpt lat="45.49885332131509" lon="11.740233052488621"><ele>19.0</ele><time>2026-04-16T08:31:43.002Z</time></trkpt><trkpt lat="45.49879730109169" lon="11.74017221176591"><ele>19.0</ele><time>2026-04-16T08:31:44.002Z</time></trkpt><trkpt lat="45.498738217611916" lon="11.740119955486103"><ele>19.0</ele><time>2026-04-16T08:31:45.002Z</time></trkpt><trkpt lat="45.49868008826636" lon="11.740067371887543"><ele>19.0</ele><time>2026-04-16T08:31:46.002Z</time></trkpt><trkpt lat="45.4986225524884" lon="11.7400206367892"><ele>18.75</ele><time>2026-04-16T08:31:47.002Z</time></trkpt><trkpt lat="45.49851912509184" lon="11.739917373164348"><ele>18.5</ele><time>2026-04-16T08:31:49.002Z</time></trkpt><trkpt lat="45.49841706811985" lon="11.73981776300702"><ele>18.25</ele><time>2026-04-16T08:31:51.003Z</time></trkpt><trkpt lat="45.49836036290821" lon="11.739760128441903"><ele>18.0</ele><time>2026-04-16T08:31:52.003Z</time></trkpt><trkpt lat="45.498250493014396" lon="11.73966027672015"><ele>18.000000000000004</ele><time>2026-04-16T08:31:54.003Z</time></trkpt><trkpt lat="45.498192058635944" lon="11.739604420497011"><ele>18.0</ele><time>2026-04-16T08:31:55.003Z</time></trkpt><trkpt lat="45.49813093193448" lon="11.739547077767659"><ele>18.0</ele><time>2026-04-16T08:31:56.003Z</time></trkpt><trkpt lat="45.49807746642049" lon="11.739489890642949"><ele>18.0</ele><time>2026-04-16T08:31:57.003Z</time></trkpt><trkpt lat="45.498019475441836" lon="11.739429971838952"><ele>18.0</ele><time>2026-04-16T08:31:58.003Z</time></trkpt><trkpt lat="45.497964096911936" lon="11.73937755345057"><ele>18.000000000000004</ele><time>2026-04-16T08:31:59.003Z</time></trkpt><trkpt lat="45.497908604782126" lon="11.739321584769803"><ele>18.0</ele><time>2026-04-16T08:32:00Z</time></trkpt><trkpt lat="45.497853784662986" lon="11.739268569124837"><ele>18.142857142857146</ele><time>2026-04-16T08:32:01Z</time></trkpt><trkpt lat="45.49779526053812" lon="11.739218026198069"><ele>18.285714285714285</ele><time>2026-04-16T08:32:02Z</time></trkpt><trkpt lat="45.49773509965962" lon="11.739164627326387"><ele>18.42857142857143</ele><time>2026-04-16T08:32:03Z</time></trkpt><trkpt lat="45.497676940907944" lon="11.739114409885856"><ele>18.571428571428573</ele><time>2026-04-16T08:32:04Z</time></trkpt><trkpt lat="45.49762422572411" lon="11.73905324933328"><ele>18.714285714285715</ele><time>2026-04-16T08:32:05Z</time></trkpt><trkpt lat="45.497568609531356" lon="11.73899549800214"><ele>18.857142857142858</ele><time>2026-04-16T08:32:06Z</time></trkpt><trkpt lat="45.49751028424038" lon="11.73894822857166"><ele>19.0</ele><time>2026-04-16T08:32:07Z</time></trkpt><trkpt lat="45.49745119048193" lon="11.73889176368127"><ele>19.0</ele><time>2026-04-16T08:32:08Z</time></trkpt><trkpt lat="45.49739526937093" lon="11.738833992986853"><ele>19.0</ele><time>2026-04-16T08:32:09Z</time></trkpt><trkpt lat="45.49733917119532" lon="11.738778609112543"><ele>19.0</ele><time>2026-04-16T08:32:10Z</time></trkpt><trkpt lat="45.497280828611736" lon="11.738724888562357"><ele>19.0</ele><time>2026-04-16T08:32:11Z</time></trkpt><trkpt lat="45.49722126095311" lon="11.738667319484309"><ele>19.0</ele><time>2026-04-16T08:32:12Z</time></trkpt><trkpt lat="45.497162187151204" lon="11.738614945270507"><ele>19.0</ele><time>2026-04-16T08:32:13Z</time></trkpt><trkpt lat="45.49710227522274" lon="11.738562199669154"><ele>19.0</ele><time>2026-04-16T08:32:14Z</time></trkpt><trkpt lat="45.497045860355136" lon="11.738507988042524"><ele>19.285714285714285</ele><time>2026-04-16T08:32:15Z</time></trkpt><trkpt lat="45.496991439699215" lon="11.738452429657459"><ele>19.571428571428573</ele><time>2026-04-16T08:32:16Z</time></trkpt><trkpt lat="45.496939704788225" lon="11.738395804878577"><ele>19.857142857142858</ele><time>2026-04-16T08:32:17Z</time></trkpt><trkpt lat="45.49688620194991" lon="11.738343558887424"><ele>20.142857142857142</ele><time>2026-04-16T08:32:18Z</time></trkpt><trkpt lat="45.49682366465926" lon="11.738292871922338"><ele>20.42857142857143</ele><time>2026-04-16T08:32:19Z</time></trkpt><trkpt lat="45.49677142241642" lon="11.738233349454436"><ele>20.714285714285715</ele><time>2026-04-16T08:32:20Z</time></trkpt><trkpt lat="45.4967143863609" lon="11.738179824908075"><ele>21.0</ele><time>2026-04-16T08:32:21Z</time></trkpt><trkpt lat="45.49665766422148" lon="11.738121143303946"><ele>21.0</ele><time>2026-04-16T08:32:22Z</time></trkpt><trkpt lat="45.49659962805298" lon="11.738064841485341"><ele>21.0</ele><time>2026-04-16T08:32:23.001Z</time></trkpt><trkpt lat="45.49653864404853" lon="11.738005604285847"><ele>21.0</ele><time>2026-04-16T08:32:24.001Z</time></trkpt><trkpt lat="45.496474484273044" lon="11.737954267640882"><ele>21.0</ele><time>2026-04-16T08:32:25.001Z</time></trkpt><trkpt lat="45.496420792457386" lon="11.737900718787836"><ele>21.0</ele><time>2026-04-16T08:32:26.001Z</time></trkpt><trkpt lat="45.49636185211909" lon="11.73784041118097"><ele>21.0</ele><time>2026-04-16T08:32:27.001Z</time></trkpt><trkpt lat="45.49630143240679" lon="11.737785514328158"><ele>21.0</ele><time>2026-04-16T08:32:28.001Z</time></trkpt><trkpt lat="45.49624500991085" lon="11.73773647038918"><ele>21.0</ele><time>2026-04-16T08:32:29.001Z</time></trkpt><trkpt lat="45.49618502578966" lon="11.737681122230418"><ele>21.0</ele><time>2026-04-16T08:32:30.001Z</time></trkpt><trkpt lat="45.496127838086316" lon="11.737624103659924"><ele>21.0</ele><time>2026-04-16T08:32:31.001Z</time></trkpt><trkpt lat="45.49607140498345" lon="11.737570574367215"><ele>21.0</ele><time>2026-04-16T08:32:32.001Z</time></trkpt><trkpt lat="45.4960093740394" lon="11.737515544738558"><ele>21.0</ele><time>2026-04-16T08:32:33.001Z</time></trkpt><trkpt lat="45.495955629835564" lon="11.737454622500453"><ele>21.0</ele><time>2026-04-16T08:32:34.001Z</time></trkpt><trkpt lat="45.49589787451527" lon="11.737398995840419"><ele>21.0</ele><time>2026-04-16T08:32:35.001Z</time></trkpt><trkpt lat="45.495839091180855" lon="11.73734503430557"><ele>21.0</ele><time>2026-04-16T08:32:36.001Z</time></trkpt><trkpt lat="45.49578327716436" lon="11.73729354078388"><ele>21.0</ele><time>2026-04-16T08:32:37.001Z</time></trkpt><trkpt lat="45.495725256116486" lon="11.737238750807645"><ele>21.0</ele><time>2026-04-16T08:32:38.001Z</time></trkpt><trkpt lat="45.4956697726291" lon="11.737183143430682"><ele>21.0</ele><time>2026-04-16T08:32:39.001Z</time></trkpt><trkpt lat="45.49561492146979" lon="11.73712785743393"><ele>21.0</ele><time>2026-04-16T08:32:40.001Z</time></trkpt><trkpt lat="45.495555976839675" lon="11.737071723715161"><ele>21.0</ele><time>2026-04-16T08:32:41.001Z</time></trkpt><trkpt lat="45.49549017221102" lon="11.73701370486305"><ele>21.0</ele><time>2026-04-16T08:32:42.001Z</time></trkpt><trkpt lat="45.4954024770361" lon="11.736927146147618"><ele>20.571428571428573</ele><time>2026-04-16T08:32:44.001Z</time></trkpt><trkpt lat="45.49535196718949" lon="11.736872118507913"><ele>20.142857142857142</ele><time>2026-04-16T08:32:45.001Z</time></trkpt><trkpt lat="45.495283698835905" lon="11.736808096060521"><ele>19.714285714285715</ele><time>2026-04-16T08:32:46.001Z</time></trkpt><trkpt lat="45.495223174602216" lon="11.736750758284016"><ele>19.285714285714285</ele><time>2026-04-16T08:32:47.001Z</time></trkpt><trkpt lat="45.49516800595382" lon="11.736696310564525"><ele>18.857142857142858</ele><time>2026-04-16T08:32:48.001Z</time></trkpt><trkpt lat="45.49511083631589" lon="11.736642275279268"><ele>18.42857142857143</ele><time>2026-04-16T08:32:49.001Z</time></trkpt><trkpt lat="45.495052126418045" lon="11.736581077355217"><ele>18.0</ele><time>2026-04-16T08:32:50.001Z</time></trkpt><trkpt lat="45.495000380936666" lon="11.736528835576872"><ele>18.000000000000004</ele><time>2026-04-16T08:32:51.001Z</time></trkpt><trkpt lat="45.49493097413028" lon="11.736470851941826"><ele>18.0</ele><time>2026-04-16T08:32:52.001Z</time></trkpt><trkpt lat="45.49487302316271" lon="11.73641446767721"><ele>18.0</ele><time>2026-04-16T08:32:53.001Z</time></trkpt><trkpt lat="45.49481324670952" lon="11.736353220343908"><ele>18.0</ele><time>2026-04-16T08:32:54.001Z</time></trkpt><trkpt lat="45.49475802743902" lon="11.736299921701416"><ele>18.0</ele><time>2026-04-16T08:32:55.001Z</time></trkpt><trkpt lat="45.494694691538356" lon="11.736233900335828"><ele>18.000000000000004</ele><time>2026-04-16T08:32:56.001Z</time></trkpt><trkpt lat="45.49463595365091" lon="11.736183271812447"><ele>18.0</ele><time>2026-04-16T08:32:57.001Z</time></trkpt><trkpt lat="45.494575579613915" lon="11.736125377949106"><ele>18.142857142857146</ele><time>2026-04-16T08:32:58.001Z</time></trkpt><trkpt lat="45.494515031128" lon="11.736066673554294"><ele>18.285714285714285</ele><time>2026-04-16T08:32:59.001Z</time></trkpt><trkpt lat="45.49445609363288" lon="11.736011095411344"><ele>18.42857142857143</ele><time>2026-04-16T08:33:00.001Z</time></trkpt><trkpt lat="45.49440239636982" lon="11.73596041286455"><ele>18.571428571428573</ele><time>2026-04-16T08:33:01.001Z</time></trkpt><trkpt lat="45.49434518210809" lon="11.735910691592327"><ele>18.714285714285715</ele><time>2026-04-16T08:33:02.001Z</time></trkpt><trkpt lat="45.494260632104734" lon="11.73584508035416"><ele>18.857142857142858</ele><time>2026-04-16T08:33:04.001Z</time></trkpt><trkpt lat="45.49419689323777" lon="11.735780957085296"><ele>19.0</ele><time>2026-04-16T08:33:06.001Z</time></trkpt><trkpt lat="45.49416040153298" lon="11.735674407562971"><ele>19.0</ele><time>2026-04-16T08:33:10.001Z</time></trkpt><trkpt lat="45.49408524663346" lon="11.735679378547097"><ele>19.0</ele><time>2026-04-16T08:33:12.002Z</time></trkpt><trkpt lat="45.494006401646345" lon="11.735611815101334"><ele>19.0</ele><time>2026-04-16T08:33:14.002Z</time></trkpt><trkpt lat="45.49392166736238" lon="11.735518401980844"><ele>19.0</ele><time>2026-04-16T08:33:16.002Z</time></trkpt><trkpt lat="45.49382750512348" lon="11.735427159044256"><ele>19.0</ele><time>2026-04-16T08:33:18.002Z</time></trkpt><trkpt lat="45.493734616397816" lon="11.735323561096653"><ele>19.0</ele><time>2026-04-16T08:33:20.002Z</time></trkpt><trkpt lat="45.49363087522705" lon="11.735225927145043"><ele>19.0</ele><time>2026-04-16T08:33:22.002Z</time></trkpt><trkpt lat="45.49357886010598" lon="11.73517416731715"><ele>19.0</ele><time>2026-04-16T08:33:23.002Z</time></trkpt><trkpt lat="45.49347876030654" lon="11.735084817306989"><ele>19.0</ele><time>2026-04-16T08:33:25.002Z</time></trkpt><trkpt lat="45.493388005851166" lon="11.73499502959435"><ele>19.0</ele><time>2026-04-16T08:33:27.002Z</time></trkpt><trkpt lat="45.49329580111921" lon="11.73491438851524"><ele>19.25</ele><time>2026-04-16T08:33:29.002Z</time></trkpt><trkpt lat="45.49319299284153" lon="11.73482551453573"><ele>19.5</ele><time>2026-04-16T08:33:31.002Z</time></trkpt><trkpt lat="45.49309088894573" lon="11.734728267924844"><ele>19.75</ele><time>2026-04-16T08:33:33.002Z</time></trkpt><trkpt lat="45.49300068902706" lon="11.734641891039525"><ele>20.0</ele><time>2026-04-16T08:33:35.002Z</time></trkpt><trkpt lat="45.492918215709864" lon="11.734548561462026"><ele>20.0</ele><time>2026-04-16T08:33:37.002Z</time></trkpt><trkpt lat="45.49283604948943" lon="11.734464638119665"><ele>20.0</ele><time>2026-04-16T08:33:39.002Z</time></trkpt><trkpt lat="45.49273327384313" lon="11.734378972905832"><ele>20.0</ele><time>2026-04-16T08:33:41.002Z</time></trkpt><trkpt lat="45.49263825554538" lon="11.73428733724537"><ele>20.0</ele><time>2026-04-16T08:33:43.002Z</time></trkpt><trkpt lat="45.49254114111398" lon="11.73418965628313"><ele>20.0</ele><time>2026-04-16T08:33:45.002Z</time></trkpt><trkpt lat="45.4924432462156" lon="11.734102996943497"><ele>20.0</ele><time>2026-04-16T08:33:47.002Z</time></trkpt><trkpt lat="45.49241797967955" lon="11.734000657844641"><ele>20.0</ele><time>2026-04-16T08:33:48.002Z</time></trkpt><trkpt lat="45.49231887020188" lon="11.73390878041117"><ele>20.0</ele><time>2026-04-16T08:33:50.002Z</time></trkpt><trkpt lat="45.492262102679895" lon="11.733856155222279"><ele>20.0</ele><time>2026-04-16T08:33:51.002Z</time></trkpt><trkpt lat="45.492203808923016" lon="11.733802115219769"><ele>20.0</ele><time>2026-04-16T08:33:52.002Z</time></trkpt><trkpt lat="45.49214870445735" lon="11.733751243769342"><ele>20.0</ele><time>2026-04-16T08:33:53.002Z</time></trkpt><trkpt lat="45.49209460908075" lon="11.733701486481575"><ele>20.0</ele><time>2026-04-16T08:33:54.002Z</time></trkpt><trkpt lat="45.491998416813836" lon="11.733611054113641"><ele>20.0</ele><time>2026-04-16T08:33:56.002Z</time></trkpt><trkpt lat="45.49190860447437" lon="11.73352632537715"><ele>20.0</ele><time>2026-04-16T08:33:58.002Z</time></trkpt><trkpt lat="45.4918175178714" lon="11.733441660704607"><ele>20.0</ele><time>2026-04-16T08:34:00.003Z</time></trkpt><trkpt lat="45.49174815091524" lon="11.7334110934403"><ele>20.285714285714285</ele><time>2026-04-16T08:34:01.003Z</time></trkpt><trkpt lat="45.49168839059792" lon="11.73337518892315"><ele>20.571428571428573</ele><time>2026-04-16T08:34:02.003Z</time></trkpt><trkpt lat="45.49162828755785" lon="11.73331939906554"><ele>20.857142857142858</ele><time>2026-04-16T08:34:03.003Z</time></trkpt><trkpt lat="45.49157727052542" lon="11.733255716900482"><ele>21.142857142857142</ele><time>2026-04-16T08:34:04.003Z</time></trkpt><trkpt lat="45.49152195579414" lon="11.733204390068316"><ele>21.428571428571427</ele><time>2026-04-16T08:34:05.003Z</time></trkpt><trkpt lat="45.49146053068783" lon="11.733145744801128"><ele>21.714285714285715</ele><time>2026-04-16T08:34:06Z</time></trkpt><trkpt lat="45.491405036336204" lon="11.73309198779533"><ele>22.0</ele><time>2026-04-16T08:34:07Z</time></trkpt><trkpt lat="45.49135065435951" lon="11.733035594584317"><ele>22.0</ele><time>2026-04-16T08:34:08Z</time></trkpt><trkpt lat="45.49129194094197" lon="11.732982313902319"><ele>22.0</ele><time>2026-04-16T08:34:09Z</time></trkpt><trkpt lat="45.491230496440835" lon="11.732926663213602"><ele>22.0</ele><time>2026-04-16T08:34:10Z</time></trkpt><trkpt lat="45.49117203730543" lon="11.732868447703712"><ele>22.0</ele><time>2026-04-16T08:34:11Z</time></trkpt><trkpt lat="45.49111547646944" lon="11.732809283973738"><ele>22.0</ele><time>2026-04-16T08:34:12Z</time></trkpt><trkpt lat="45.491062004519605" lon="11.732747157796881"><ele>22.0</ele><time>2026-04-16T08:34:13Z</time></trkpt><trkpt lat="45.491004694647074" lon="11.732702955414451"><ele>22.0</ele><time>2026-04-16T08:34:14Z</time></trkpt><trkpt lat="45.49094794613529" lon="11.732655699849367"><ele>22.0</ele><time>2026-04-16T08:34:15Z</time></trkpt><trkpt lat="45.490894436635" lon="11.732600417777737"><ele>22.0</ele><time>2026-04-16T08:34:16Z</time></trkpt><trkpt lat="45.49083580241033" lon="11.732533221029719"><ele>22.0</ele><time>2026-04-16T08:34:17Z</time></trkpt><trkpt lat="45.490776429156" lon="11.732480036614806"><ele>22.0</ele><time>2026-04-16T08:34:18Z</time></trkpt><trkpt lat="45.49071299610857" lon="11.73242743538322"><ele>22.0</ele><time>2026-04-16T08:34:19Z</time></trkpt><trkpt lat="45.49065071067012" lon="11.732370517107961"><ele>22.0</ele><time>2026-04-16T08:34:20Z</time></trkpt><trkpt lat="45.49058881809774" lon="11.732316353373669"><ele>22.0</ele><time>2026-04-16T08:34:21Z</time></trkpt><trkpt lat="45.49052437057416" lon="11.732259341448847"><ele>22.0</ele><time>2026-04-16T08:34:22Z</time></trkpt><trkpt lat="45.49045881118995" lon="11.73220030021828"><ele>22.0</ele><time>2026-04-16T08:34:23Z</time></trkpt><trkpt lat="45.490391757652176" lon="11.732124513352916"><ele>22.0</ele><time>2026-04-16T08:34:24Z</time></trkpt><trkpt lat="45.490316527511744" lon="11.732055822282836"><ele>22.0</ele><time>2026-04-16T08:34:25Z</time></trkpt><trkpt lat="45.490236190693324" lon="11.731979993659415"><ele>22.0</ele><time>2026-04-16T08:34:26Z</time></trkpt><trkpt lat="45.49015282474308" lon="11.731904156158878"><ele>22.0</ele><time>2026-04-16T08:34:27Z</time></trkpt><trkpt lat="45.49007224631189" lon="11.731821833832027"><ele>21.6</ele><time>2026-04-16T08:34:28Z</time></trkpt><trkpt lat="45.48999485323144" lon="11.731736700778157"><ele>21.200000000000003</ele><time>2026-04-16T08:34:29Z</time></trkpt><trkpt lat="45.48992316187201" lon="11.731655924332111"><ele>20.8</ele><time>2026-04-16T08:34:30Z</time></trkpt><trkpt lat="45.48984446563794" lon="11.731579657946387"><ele>20.4</ele><time>2026-04-16T08:34:31Z</time></trkpt><trkpt lat="45.48976449095019" lon="11.731512490538732"><ele>20.0</ele><time>2026-04-16T08:34:32.001Z</time></trkpt><trkpt lat="45.48969176038888" lon="11.731445063756748"><ele>20.0</ele><time>2026-04-16T08:34:33.001Z</time></trkpt><trkpt lat="45.489620712821704" lon="11.731374015725716"><ele>20.0</ele><time>2026-04-16T08:34:34.001Z</time></trkpt><trkpt lat="45.489550477481465" lon="11.73130504426403"><ele>20.0</ele><time>2026-04-16T08:34:35.001Z</time></trkpt><trkpt lat="45.48948301065312" lon="11.731237931244701"><ele>20.0</ele><time>2026-04-16T08:34:36.001Z</time></trkpt><trkpt lat="45.48941701284669" lon="11.731173420983575"><ele>20.0</ele><time>2026-04-16T08:34:37.001Z</time></trkpt><trkpt lat="45.48935113702567" lon="11.731109519428117"><ele>20.0</ele><time>2026-04-16T08:34:38.001Z</time></trkpt><trkpt lat="45.489286692777" lon="11.731051443955089"><ele>20.0</ele><time>2026-04-16T08:34:39.001Z</time></trkpt><trkpt lat="45.48922616138034" lon="11.730994817889496"><ele>20.0</ele><time>2026-04-16T08:34:40.001Z</time></trkpt><trkpt lat="45.48916810373537" lon="11.730938781321635"><ele>20.0</ele><time>2026-04-16T08:34:41.001Z</time></trkpt><trkpt lat="45.48906605401534" lon="11.7308517033339"><ele>20.0</ele><time>2026-04-16T08:34:43.001Z</time></trkpt><trkpt lat="45.48898993584491" lon="11.730754618267733"><ele>20.0</ele><time>2026-04-16T08:34:45.001Z</time></trkpt><trkpt lat="45.488949046989575" lon="11.730681102011948"><ele>20.0</ele><time>2026-04-16T08:34:47.001Z</time></trkpt><trkpt lat="45.488887695456896" lon="11.730658488951773"><ele>20.0</ele><time>2026-04-16T08:34:49.001Z</time></trkpt><trkpt lat="45.48880240171564" lon="11.730706736760522"><ele>20.0</ele><time>2026-04-16T08:34:51.001Z</time></trkpt><trkpt lat="45.488705890593565" lon="11.730756085214264"><ele>20.0</ele><time>2026-04-16T08:34:53.001Z</time></trkpt><trkpt lat="45.48858992857138" lon="11.73074070454444"><ele>20.0</ele><time>2026-04-16T08:34:55.001Z</time></trkpt><trkpt lat="45.48848343541049" lon="11.730776726360219"><ele>20.0</ele><time>2026-04-16T08:34:57.001Z</time></trkpt><trkpt lat="45.4884219065392" lon="11.730798115272128"><ele>20.2</ele><time>2026-04-16T08:34:58.001Z</time></trkpt><trkpt lat="45.48835802213508" lon="11.730820323021288"><ele>20.4</ele><time>2026-04-16T08:34:59.001Z</time></trkpt><trkpt lat="45.48825272687625" lon="11.730903562738217"><ele>20.6</ele><time>2026-04-16T08:35:01.001Z</time></trkpt><trkpt lat="45.48814350678525" lon="11.730939616503365"><ele>20.8</ele><time>2026-04-16T08:35:03.001Z</time></trkpt><trkpt lat="45.4880310605342" lon="11.730962102094988"><ele>21.0</ele><time>2026-04-16T08:35:05.001Z</time></trkpt><trkpt lat="45.48793612106304" lon="11.730996147502863"><ele>21.0</ele><time>2026-04-16T08:35:07.001Z</time></trkpt><trkpt lat="45.48785090482589" lon="11.731002844222086"><ele>21.0</ele><time>2026-04-16T08:35:09.001Z</time></trkpt><trkpt lat="45.4877669241875" lon="11.731046337224655"><ele>21.0</ele><time>2026-04-16T08:35:11.001Z</time></trkpt><trkpt lat="45.48767991550877" lon="11.73107208424093"><ele>21.0</ele><time>2026-04-16T08:35:13.001Z</time></trkpt><trkpt lat="45.487597842696275" lon="11.731083767719097"><ele>21.0</ele><time>2026-04-16T08:35:16.001Z</time></trkpt><trkpt lat="45.48759347812967" lon="11.730973311518195"><ele>21.0</ele><time>2026-04-16T08:35:19.001Z</time></trkpt><trkpt lat="45.487586998817044" lon="11.730882576205275"><ele>21.0</ele><time>2026-04-16T08:35:22.001Z</time></trkpt><trkpt lat="45.48750963163998" lon="11.730885624286095"><ele>21.0</ele><time>2026-04-16T08:35:28.002Z</time></trkpt><trkpt lat="45.487409780106844" lon="11.730929199575991"><ele>21.0</ele><time>2026-04-16T08:35:31.002Z</time></trkpt><trkpt lat="45.487333850367065" lon="11.730974114924628"><ele>21.0</ele><time>2026-04-16T08:35:33.002Z</time></trkpt><trkpt lat="45.48726322414748" lon="11.731025321998091"><ele>21.0</ele><time>2026-04-16T08:35:35.002Z</time></trkpt><trkpt lat="45.48718136609048" lon="11.731040286468389"><ele>21.0</ele><time>2026-04-16T08:35:37.002Z</time></trkpt><trkpt lat="45.48709494947471" lon="11.731053052863432"><ele>20.6</ele><time>2026-04-16T08:35:39.002Z</time></trkpt><trkpt lat="45.48701613686055" lon="11.731012291399653"><ele>20.200000000000003</ele><time>2026-04-16T08:35:41.002Z</time></trkpt><trkpt lat="45.486944613895226" lon="11.730912341245071"><ele>19.799999999999997</ele><time>2026-04-16T08:35:43.002Z</time></trkpt><trkpt lat="45.48686260781214" lon="11.73081270667217"><ele>19.4</ele><time>2026-04-16T08:35:45.002Z</time></trkpt><trkpt lat="45.486776654689784" lon="11.730718742648213"><ele>19.0</ele><time>2026-04-16T08:35:47.002Z</time></trkpt><trkpt lat="45.486690787460844" lon="11.730613021700504"><ele>19.0</ele><time>2026-04-16T08:35:49.002Z</time></trkpt><trkpt lat="45.48660572556771" lon="11.730506047044349"><ele>19.0</ele><time>2026-04-16T08:35:51.002Z</time></trkpt><trkpt lat="45.48653631595582" lon="11.73037432091413"><ele>19.0</ele><time>2026-04-16T08:35:53.002Z</time></trkpt><trkpt lat="45.48646714351986" lon="11.730247565723287"><ele>19.0</ele><time>2026-04-16T08:35:55.002Z</time></trkpt><trkpt lat="45.48639990920394" lon="11.73011106444986"><ele>19.0</ele><time>2026-04-16T08:35:57.002Z</time></trkpt><trkpt lat="45.486328669399285" lon="11.729980735270543"><ele>19.0</ele><time>2026-04-16T08:35:59.002Z</time></trkpt><trkpt lat="45.48625779937732" lon="11.729845171510863"><ele>19.0</ele><time>2026-04-16T08:36:01.002Z</time></trkpt><trkpt lat="45.486193194379865" lon="11.729710803029572"><ele>19.0</ele><time>2026-04-16T08:36:03.002Z</time></trkpt><trkpt lat="45.48612824494148" lon="11.729590458232307"><ele>19.0</ele><time>2026-04-16T08:36:05.002Z</time></trkpt><trkpt lat="45.48609484672829" lon="11.729458798163787"><ele>19.0</ele><time>2026-04-16T08:36:07.002Z</time></trkpt><trkpt lat="45.48611762961036" lon="11.72930756459069"><ele>19.0</ele><time>2026-04-16T08:36:09.002Z</time></trkpt><trkpt lat="45.486161596404365" lon="11.729165074378981"><ele>19.0</ele><time>2026-04-16T08:36:11.002Z</time></trkpt><trkpt lat="45.486205014128956" lon="11.72901222336619"><ele>19.0</ele><time>2026-04-16T08:36:13Z</time></trkpt><trkpt lat="45.48624367137067" lon="11.728860920678235"><ele>19.4</ele><time>2026-04-16T08:36:15Z</time></trkpt><trkpt lat="45.486280684836956" lon="11.728711631303474"><ele>19.799999999999997</ele><time>2026-04-16T08:36:17Z</time></trkpt><trkpt lat="45.4863159897379" lon="11.728569809527913"><ele>20.200000000000003</ele><time>2026-04-16T08:36:19Z</time></trkpt><trkpt lat="45.486356692072064" lon="11.728435855526111"><ele>20.6</ele><time>2026-04-16T08:36:21Z</time></trkpt><trkpt lat="45.48640112333184" lon="11.728330021263043"><ele>21.0</ele><time>2026-04-16T08:36:23Z</time></trkpt><trkpt lat="45.48635017099499" lon="11.728239649329312"><ele>21.0</ele><time>2026-04-16T08:42:28Z</time></trkpt><trkpt lat="45.48627655562179" lon="11.728171432205928"><ele>21.0</ele><time>2026-04-16T08:42:32Z</time></trkpt><trkpt lat="45.48617712420105" lon="11.728145624628384"><ele>21.0</ele><time>2026-04-16T08:42:35Z</time></trkpt><trkpt lat="45.48607906844622" lon="11.72810451517007"><ele>21.0</ele><time>2026-04-16T08:42:37Z</time></trkpt><trkpt lat="45.48598990663831" lon="11.727983273163122"><ele>21.0</ele><time>2026-04-16T08:42:39Z</time></trkpt><trkpt lat="45.48593569713771" lon="11.727923690833542"><ele>21.0</ele><time>2026-04-16T08:42:40Z</time></trkpt><trkpt lat="45.485840067995234" lon="11.727818666642932"><ele>21.0</ele><time>2026-04-16T08:42:42Z</time></trkpt><trkpt lat="45.485749444502346" lon="11.727723748324008"><ele>21.0</ele><time>2026-04-16T08:42:44Z</time></trkpt><trkpt lat="45.48566364966665" lon="11.727651726032105"><ele>21.0</ele><time>2026-04-16T08:42:46Z</time></trkpt><trkpt lat="45.48559134536732" lon="11.727577734279974"><ele>21.0</ele><time>2026-04-16T08:42:48Z</time></trkpt><trkpt lat="45.485524950860395" lon="11.7275068413513"><ele>21.0</ele><time>2026-04-16T08:42:50Z</time></trkpt><trkpt lat="45.48553154716144" lon="11.72736525557009"><ele>21.0</ele><time>2026-04-16T08:42:52.001Z</time></trkpt><trkpt lat="45.48561239797051" lon="11.72724420949872"><ele>21.0</ele><time>2026-04-16T08:42:54.001Z</time></trkpt><trkpt lat="45.48567198010797" lon="11.727126514898977"><ele>21.0</ele><time>2026-04-16T08:42:56.001Z</time></trkpt><trkpt lat="45.485728721182355" lon="11.727011517367588"><ele>21.0</ele><time>2026-04-16T08:42:58.001Z</time></trkpt><trkpt lat="45.48580001018193" lon="11.726891146525817"><ele>21.166666666666668</ele><time>2026-04-16T08:43:00.001Z</time></trkpt><trkpt lat="45.48585770977476" lon="11.726779595716977"><ele>21.333333333333332</ele><time>2026-04-16T08:43:02.001Z</time></trkpt><trkpt lat="45.48594313095996" lon="11.726740276753661"><ele>21.5</ele><time>2026-04-16T08:43:04.001Z</time></trkpt><trkpt lat="45.486020927752406" lon="11.726714841689196"><ele>21.666666666666664</ele><time>2026-04-16T08:43:06.001Z</time></trkpt><trkpt lat="45.486067209841195" lon="11.726612874576796"><ele>21.833333333333332</ele><time>2026-04-16T08:43:08.001Z</time></trkpt><trkpt lat="45.48611619147043" lon="11.726530648625541"><ele>22.0</ele><time>2026-04-16T08:43:10.001Z</time></trkpt><trkpt lat="45.48616739180085" lon="11.72647089054722"><ele>22.0</ele><time>2026-04-16T08:43:14.001Z</time></trkpt><trkpt lat="45.48618971852887" lon="11.726362388720542"><ele>22.0</ele><time>2026-04-16T08:43:19.001Z</time></trkpt><trkpt lat="45.48616938767376" lon="11.726237475360048"><ele>22.0</ele><time>2026-04-16T08:43:21.001Z</time></trkpt><trkpt lat="45.48612678463116" lon="11.726083877569236"><ele>22.0</ele><time>2026-04-16T08:43:23.001Z</time></trkpt><trkpt lat="45.48610553006894" lon="11.725998504960733"><ele>22.0</ele><time>2026-04-16T08:43:24.001Z</time></trkpt><trkpt lat="45.486083453207094" lon="11.725910845364849"><ele>22.0</ele><time>2026-04-16T08:43:25.001Z</time></trkpt><trkpt lat="45.48605666557366" lon="11.725816380559346"><ele>22.0</ele><time>2026-04-16T08:43:26.001Z</time></trkpt><trkpt lat="45.48602384292851" lon="11.725633546486014"><ele>22.0</ele><time>2026-04-16T08:43:28.001Z</time></trkpt><trkpt lat="45.486001760496684" lon="11.725539386344723"><ele>22.0</ele><time>2026-04-16T08:43:29.001Z</time></trkpt><trkpt lat="45.48598051318114" lon="11.725440146537354"><ele>22.0</ele><time>2026-04-16T08:43:30.001Z</time></trkpt><trkpt lat="45.485957360609746" lon="11.725339470758843"><ele>22.0</ele><time>2026-04-16T08:43:31.001Z</time></trkpt><trkpt lat="45.48593574478311" lon="11.725240410908617"><ele>22.0</ele><time>2026-04-16T08:43:32.001Z</time></trkpt><trkpt lat="45.48591422960792" lon="11.7251407065963"><ele>21.714285714285715</ele><time>2026-04-16T08:43:33.001Z</time></trkpt><trkpt lat="45.48589411929058" lon="11.725045277834965"><ele>21.428571428571427</ele><time>2026-04-16T08:43:34.001Z</time></trkpt><trkpt lat="45.48587200264626" lon="11.724949115418864"><ele>21.142857142857142</ele><time>2026-04-16T08:43:35.001Z</time></trkpt><trkpt lat="45.485846742861185" lon="11.7248435882023"><ele>20.857142857142858</ele><time>2026-04-16T08:43:36.001Z</time></trkpt><trkpt lat="45.48582585471519" lon="11.724742241459596"><ele>20.571428571428573</ele><time>2026-04-16T08:43:37.001Z</time></trkpt><trkpt lat="45.48580706858345" lon="11.724647647489041"><ele>20.285714285714285</ele><time>2026-04-16T08:43:38.001Z</time></trkpt><trkpt lat="45.48578461334226" lon="11.724543990782994"><ele>20.0</ele><time>2026-04-16T08:43:39.001Z</time></trkpt><trkpt lat="45.485765310218014" lon="11.72444823041787"><ele>20.25</ele><time>2026-04-16T08:43:40.001Z</time></trkpt><trkpt lat="45.48574070984816" lon="11.724359435016046"><ele>20.5</ele><time>2026-04-16T08:43:41.001Z</time></trkpt><trkpt lat="45.48571110444413" lon="11.7241842690339"><ele>20.75</ele><time>2026-04-16T08:43:43.001Z</time></trkpt><trkpt lat="45.48571506737562" lon="11.724031578268749"><ele>21.0</ele><time>2026-04-16T08:43:45.002Z</time></trkpt><trkpt lat="45.48581483939356" lon="11.723865000991236"><ele>21.0</ele><time>2026-04-16T08:43:48.002Z</time></trkpt><trkpt lat="45.48567130671857" lon="11.723813034135931"><ele>21.0</ele><time>2026-04-16T08:43:51.002Z</time></trkpt><trkpt lat="45.48561694234137" lon="11.723754864853294"><ele>21.0</ele><time>2026-04-16T08:43:53.002Z</time></trkpt><trkpt lat="45.48559751506487" lon="11.723582190702855"><ele>21.0</ele><time>2026-04-16T08:43:55.002Z</time></trkpt><trkpt lat="45.48556213843256" lon="11.723421657395013"><ele>21.166666666666668</ele><time>2026-04-16T08:43:57.002Z</time></trkpt><trkpt lat="45.48552476209787" lon="11.723255411700983"><ele>21.333333333333332</ele><time>2026-04-16T08:43:59.002Z</time></trkpt><trkpt lat="45.48550306455128" lon="11.723168202455467"><ele>21.5</ele><time>2026-04-16T08:44:00.002Z</time></trkpt><trkpt lat="45.48548235731596" lon="11.723081922925886"><ele>21.666666666666664</ele><time>2026-04-16T08:44:01.002Z</time></trkpt><trkpt lat="45.48546359564406" lon="11.722992813718646"><ele>21.833333333333332</ele><time>2026-04-16T08:44:02.002Z</time></trkpt><trkpt lat="45.48544251547769" lon="11.722900052577907"><ele>22.0</ele><time>2026-04-16T08:44:03.002Z</time></trkpt><trkpt lat="45.48541833611911" lon="11.722805930307919"><ele>21.8</ele><time>2026-04-16T08:44:04.002Z</time></trkpt><trkpt lat="45.48539154904319" lon="11.722717425167104"><ele>21.6</ele><time>2026-04-16T08:44:05.002Z</time></trkpt><trkpt lat="45.48537018925329" lon="11.722630087387348"><ele>21.400000000000002</ele><time>2026-04-16T08:44:06.002Z</time></trkpt><trkpt lat="45.48533224763091" lon="11.722465112746548"><ele>21.200000000000003</ele><time>2026-04-16T08:44:08.002Z</time></trkpt><trkpt lat="45.48530286309037" lon="11.72230129499322"><ele>21.0</ele><time>2026-04-16T08:44:10.002Z</time></trkpt><trkpt lat="45.48526782239532" lon="11.722151280585882"><ele>21.0</ele><time>2026-04-16T08:44:12.002Z</time></trkpt><trkpt lat="45.48524701443904" lon="11.722064619046169"><ele>21.0</ele><time>2026-04-16T08:44:13.002Z</time></trkpt><trkpt lat="45.48522323338435" lon="11.721978169057229"><ele>21.0</ele><time>2026-04-16T08:44:14.002Z</time></trkpt><trkpt lat="45.485206430880794" lon="11.721883489118884"><ele>21.0</ele><time>2026-04-16T08:44:15.002Z</time></trkpt><trkpt lat="45.485190176264354" lon="11.721789442884022"><ele>21.0</ele><time>2026-04-16T08:44:16.002Z</time></trkpt><trkpt lat="45.48517023940634" lon="11.721694064326677"><ele>21.0</ele><time>2026-04-16T08:44:17.002Z</time></trkpt><trkpt lat="45.485148936975776" lon="11.721603291032094"><ele>21.0</ele><time>2026-04-16T08:44:18.002Z</time></trkpt><trkpt lat="45.48512994941452" lon="11.721516629809079"><ele>21.0</ele><time>2026-04-16T08:44:19.002Z</time></trkpt><trkpt lat="45.4851100128794" lon="11.721431132748615"><ele>21.0</ele><time>2026-04-16T08:44:19.999Z</time></trkpt><trkpt lat="45.48507801582633" lon="11.721270877042091"><ele>21.0</ele><time>2026-04-16T08:44:21.999Z</time></trkpt><trkpt lat="45.485059533318264" lon="11.721181880688667"><ele>21.0</ele><time>2026-04-16T08:44:22.999Z</time></trkpt><trkpt lat="45.48503780180184" lon="11.72108968201655"><ele>21.0</ele><time>2026-04-16T08:44:23.999Z</time></trkpt><trkpt lat="45.485016609238926" lon="11.720999263160497"><ele>21.0</ele><time>2026-04-16T08:44:24.999Z</time></trkpt><trkpt lat="45.48500398488338" lon="11.720910426890207"><ele>21.0</ele><time>2026-04-16T08:44:25.999Z</time></trkpt><trkpt lat="45.48498036856782" lon="11.720823537348336"><ele>21.0</ele><time>2026-04-16T08:44:26.999Z</time></trkpt><trkpt lat="45.48495982034568" lon="11.7207293479655"><ele>21.0</ele><time>2026-04-16T08:44:27.999Z</time></trkpt><trkpt lat="45.484941001332466" lon="11.72063811729992"><ele>21.0</ele><time>2026-04-16T08:44:28.999Z</time></trkpt><trkpt lat="45.48492203736274" lon="11.720541268241998"><ele>21.0</ele><time>2026-04-16T08:44:29.999Z</time></trkpt><trkpt lat="45.48489940664522" lon="11.720451149105005"><ele>21.0</ele><time>2026-04-16T08:44:30.999Z</time></trkpt><trkpt lat="45.48487845272231" lon="11.720360319607428"><ele>21.0</ele><time>2026-04-16T08:44:31.999Z</time></trkpt><trkpt lat="45.484860417530804" lon="11.720270485164084"><ele>21.0</ele><time>2026-04-16T08:44:32.999Z</time></trkpt><trkpt lat="45.484840827319076" lon="11.720179772547587"><ele>20.8</ele><time>2026-04-16T08:44:34Z</time></trkpt><trkpt lat="45.48482208702678" lon="11.720091889091055"><ele>20.6</ele><time>2026-04-16T08:44:35Z</time></trkpt><trkpt lat="45.484807322162105" lon="11.71992268371348"><ele>20.4</ele><time>2026-04-16T08:44:37Z</time></trkpt><trkpt lat="45.48480149631574" lon="11.719766373450563"><ele>20.2</ele><time>2026-04-16T08:44:39Z</time></trkpt><trkpt lat="45.48479913989979" lon="11.719614635187753"><ele>20.0</ele><time>2026-04-16T08:44:41Z</time></trkpt><trkpt lat="45.48479817917562" lon="11.719446061009089"><ele>20.2</ele><time>2026-04-16T08:44:43Z</time></trkpt><trkpt lat="45.4847803943618" lon="11.719277618430947"><ele>20.4</ele><time>2026-04-16T08:44:45Z</time></trkpt><trkpt lat="45.48478034361859" lon="11.719106761227199"><ele>20.6</ele><time>2026-04-16T08:44:47Z</time></trkpt><trkpt lat="45.48476812026043" lon="11.718961031522191"><ele>20.8</ele><time>2026-04-16T08:44:49Z</time></trkpt><trkpt lat="45.48475514478701" lon="11.718810029259696"><ele>21.0</ele><time>2026-04-16T08:44:51Z</time></trkpt><trkpt lat="45.48475043571193" lon="11.718654179704384"><ele>21.5</ele><time>2026-04-16T08:44:53Z</time></trkpt><trkpt lat="45.48474276724379" lon="11.718496068382217"><ele>22.0</ele><time>2026-04-16T08:44:55Z</time></trkpt><trkpt lat="45.48473386980568" lon="11.718328722330039"><ele>22.5</ele><time>2026-04-16T08:44:57Z</time></trkpt><trkpt lat="45.484721089605834" lon="11.718165318499148"><ele>23.0</ele><time>2026-04-16T08:44:59Z</time></trkpt><trkpt lat="45.48470884308456" lon="11.718002373765273"><ele>23.0</ele><time>2026-04-16T08:45:01Z</time></trkpt><trkpt lat="45.48469633177728" lon="11.717838646805394"><ele>23.0</ele><time>2026-04-16T08:45:03Z</time></trkpt><trkpt lat="45.484684971404825" lon="11.717665790326077"><ele>23.0</ele><time>2026-04-16T08:45:05Z</time></trkpt><trkpt lat="45.484676313055076" lon="11.717501578292374"><ele>23.0</ele><time>2026-04-16T08:45:07Z</time></trkpt><trkpt lat="45.484663020753935" lon="11.717333242291541"><ele>23.0</ele><time>2026-04-16T08:45:09Z</time></trkpt><trkpt lat="45.484648677744666" lon="11.717244033206134"><ele>23.0</ele><time>2026-04-16T08:45:10Z</time></trkpt><trkpt lat="45.48462310584301" lon="11.717084419388318"><ele>23.0</ele><time>2026-04-16T08:45:12Z</time></trkpt><trkpt lat="45.48458324009741" lon="11.716937235988931"><ele>23.0</ele><time>2026-04-16T08:45:14.001Z</time></trkpt><trkpt lat="45.484536425659265" lon="11.716807646580166"><ele>23.0</ele><time>2026-04-16T08:45:16.001Z</time></trkpt><trkpt lat="45.48449396166994" lon="11.71668209917527"><ele>23.166666666666668</ele><time>2026-04-16T08:45:18.001Z</time></trkpt><trkpt lat="45.48446202008157" lon="11.71658553293438"><ele>23.333333333333336</ele><time>2026-04-16T08:45:20.001Z</time></trkpt><trkpt lat="45.48446574423319" lon="11.716481327958743"><ele>23.5</ele><time>2026-04-16T08:45:23.001Z</time></trkpt><trkpt lat="45.484422870439275" lon="11.716378598651445"><ele>23.666666666666668</ele><time>2026-04-16T08:45:26.001Z</time></trkpt><trkpt lat="45.48436410174969" lon="11.716304811906262"><ele>23.833333333333332</ele><time>2026-04-16T08:45:29.001Z</time></trkpt><trkpt lat="45.48433317249189" lon="11.716188615644667"><ele>24.0</ele><time>2026-04-16T08:45:31.001Z</time></trkpt><trkpt lat="45.48429892831724" lon="11.716064959259597"><ele>24.2</ele><time>2026-04-16T08:45:33.001Z</time></trkpt><trkpt lat="45.484247519659" lon="11.715924787139357"><ele>24.4</ele><time>2026-04-16T08:45:35.001Z</time></trkpt><trkpt lat="45.484193374603485" lon="11.715774744843616"><ele>24.6</ele><time>2026-04-16T08:45:37.001Z</time></trkpt><trkpt lat="45.48414519304543" lon="11.715636357700797"><ele>24.8</ele><time>2026-04-16T08:45:39.001Z</time></trkpt><trkpt lat="45.4840983435596" lon="11.71549842472266"><ele>25.0</ele><time>2026-04-16T08:45:41.001Z</time></trkpt><trkpt lat="45.48404820056561" lon="11.715356071709921"><ele>24.6</ele><time>2026-04-16T08:45:43.001Z</time></trkpt><trkpt lat="45.484003819140696" lon="11.715215365177565"><ele>24.2</ele><time>2026-04-16T08:45:45.001Z</time></trkpt><trkpt lat="45.48395346752219" lon="11.715062160334652"><ele>23.799999999999997</ele><time>2026-04-16T08:45:47.001Z</time></trkpt><trkpt lat="45.483904493229524" lon="11.714913534038942"><ele>23.4</ele><time>2026-04-16T08:45:49.001Z</time></trkpt><trkpt lat="45.48387455572747" lon="11.714820785397572"><ele>23.0</ele><time>2026-04-16T08:45:50.001Z</time></trkpt><trkpt lat="45.483855322315705" lon="11.714725057476581"><ele>23.0</ele><time>2026-04-16T08:45:51.001Z</time></trkpt><trkpt lat="45.48383269140425" lon="11.714623279374855"><ele>23.0</ele><time>2026-04-16T08:45:52.001Z</time></trkpt><trkpt lat="45.483801197251964" lon="11.714523227962509"><ele>23.0</ele><time>2026-04-16T08:45:53.001Z</time></trkpt><trkpt lat="45.4837786336008" lon="11.714421026685892"><ele>23.0</ele><time>2026-04-16T08:45:54.001Z</time></trkpt><trkpt lat="45.48375165552187" lon="11.71431427656263"><ele>23.0</ele><time>2026-04-16T08:45:55.001Z</time></trkpt><trkpt lat="45.48372258807572" lon="11.714210257254495"><ele>23.0</ele><time>2026-04-16T08:45:56.001Z</time></trkpt><trkpt lat="45.48369340968732" lon="11.714104620229838"><ele>22.857142857142858</ele><time>2026-04-16T08:45:57.001Z</time></trkpt><trkpt lat="45.483670338705075" lon="11.714001159742443"><ele>22.71428571428571</ele><time>2026-04-16T08:45:58.001Z</time></trkpt><trkpt lat="45.48364154813096" lon="11.7138982221195"><ele>22.57142857142857</ele><time>2026-04-16T08:45:59.001Z</time></trkpt><trkpt lat="45.48361423186866" lon="11.713795480451166"><ele>22.42857142857143</ele><time>2026-04-16T08:46:00.001Z</time></trkpt><trkpt lat="45.483584143350086" lon="11.713700945776601"><ele>22.285714285714285</ele><time>2026-04-16T08:46:01.001Z</time></trkpt><trkpt lat="45.48356382418596" lon="11.713613383914026"><ele>22.142857142857142</ele><time>2026-04-16T08:46:02.002Z</time></trkpt><trkpt lat="45.483538134427604" lon="11.713518903055482"><ele>22.0</ele><time>2026-04-16T08:46:03.002Z</time></trkpt><trkpt lat="45.48351706331358" lon="11.713431186923238"><ele>22.0</ele><time>2026-04-16T08:46:04.002Z</time></trkpt><trkpt lat="45.483494046233204" lon="11.713345303520487"><ele>22.0</ele><time>2026-04-16T08:46:05.002Z</time></trkpt><trkpt lat="45.483451994032436" lon="11.71319319178219"><ele>22.0</ele><time>2026-04-16T08:46:07.002Z</time></trkpt><trkpt lat="45.48340767002545" lon="11.713040042516493"><ele>22.0</ele><time>2026-04-16T08:46:09.002Z</time></trkpt><trkpt lat="45.48336605639398" lon="11.712871495097927"><ele>22.0</ele><time>2026-04-16T08:46:11.002Z</time></trkpt><trkpt lat="45.48335161504085" lon="11.712776479280818"><ele>22.0</ele><time>2026-04-16T08:46:12.002Z</time></trkpt><trkpt lat="45.483331206436965" lon="11.712686510146023"><ele>22.0</ele><time>2026-04-16T08:46:13.002Z</time></trkpt><trkpt lat="45.48329931944549" lon="11.712598129986803"><ele>22.0</ele><time>2026-04-16T08:46:14.002Z</time></trkpt><trkpt lat="45.48327788337058" lon="11.71250981828105"><ele>22.0</ele><time>2026-04-16T08:46:15.002Z</time></trkpt><trkpt lat="45.48325726677538" lon="11.712412548703478"><ele>22.0</ele><time>2026-04-16T08:46:16.002Z</time></trkpt><trkpt lat="45.483232807473996" lon="11.712319469633014"><ele>22.0</ele><time>2026-04-16T08:46:17.002Z</time></trkpt><trkpt lat="45.48320865464011" lon="11.712221844026923"><ele>22.0</ele><time>2026-04-16T08:46:18.002Z</time></trkpt><trkpt lat="45.483186599705945" lon="11.71212465391153"><ele>22.0</ele><time>2026-04-16T08:46:19.002Z</time></trkpt><trkpt lat="45.48315470103346" lon="11.712030408428284"><ele>22.0</ele><time>2026-04-16T08:46:20.002Z</time></trkpt><trkpt lat="45.483125121528474" lon="11.711938870434343"><ele>22.0</ele><time>2026-04-16T08:46:21.002Z</time></trkpt><trkpt lat="45.483104079173714" lon="11.711851677240455"><ele>22.0</ele><time>2026-04-16T08:46:22.002Z</time></trkpt><trkpt lat="45.48306761549875" lon="11.711698835079149"><ele>22.0</ele><time>2026-04-16T08:46:24.002Z</time></trkpt><trkpt lat="45.483033782098204" lon="11.71157515187705"><ele>22.0</ele><time>2026-04-16T08:46:25.999Z</time></trkpt><trkpt lat="45.48308349862469" lon="11.711412508979686"><ele>22.0</ele><time>2026-04-16T08:46:29.999Z</time></trkpt><trkpt lat="45.48305411323234" lon="11.711299465071779"><ele>22.0</ele><time>2026-04-16T08:46:31.999Z</time></trkpt><trkpt lat="45.48295113722863" lon="11.711269979726367"><ele>22.0</ele><time>2026-04-16T08:46:33.999Z</time></trkpt><trkpt lat="45.482916401274544" lon="11.71115695358295"><ele>22.0</ele><time>2026-04-16T08:46:35.999Z</time></trkpt><trkpt lat="45.48289474939281" lon="11.710999308574428"><ele>22.0</ele><time>2026-04-16T08:46:37.999Z</time></trkpt><trkpt lat="45.482852542219625" lon="11.710841746345924"><ele>22.0</ele><time>2026-04-16T08:46:39.999Z</time></trkpt><trkpt lat="45.482815149630646" lon="11.710681518847148"><ele>22.0</ele><time>2026-04-16T08:46:41.999Z</time></trkpt><trkpt lat="45.48278108350081" lon="11.710520515501162"><ele>22.0</ele><time>2026-04-16T08:46:43.999Z</time></trkpt><trkpt lat="45.482739204982515" lon="11.71036716051236"><ele>22.0</ele><time>2026-04-16T08:46:45.999Z</time></trkpt><trkpt lat="45.4826999149153" lon="11.710209677203615"><ele>22.166666666666664</ele><time>2026-04-16T08:46:48Z</time></trkpt><trkpt lat="45.48267030175767" lon="11.710047015400946"><ele>22.333333333333332</ele><time>2026-04-16T08:46:50Z</time></trkpt><trkpt lat="45.482637812407326" lon="11.70988288529916"><ele>22.5</ele><time>2026-04-16T08:46:52Z</time></trkpt><trkpt lat="45.48262214779281" lon="11.709794512851303"><ele>22.666666666666668</ele><time>2026-04-16T08:46:53Z</time></trkpt><trkpt lat="45.482601264531404" lon="11.709706779840419"><ele>22.833333333333336</ele><time>2026-04-16T08:46:54Z</time></trkpt><trkpt lat="45.482582635221036" lon="11.70961704261686"><ele>23.0</ele><time>2026-04-16T08:46:55Z</time></trkpt><trkpt lat="45.482567039540065" lon="11.709528075377255"><ele>23.0</ele><time>2026-04-16T08:46:56Z</time></trkpt><trkpt lat="45.48254571962135" lon="11.70943863602973"><ele>23.0</ele><time>2026-04-16T08:46:57Z</time></trkpt><trkpt lat="45.482520583402255" lon="11.709348829378401"><ele>23.0</ele><time>2026-04-16T08:46:58Z</time></trkpt><trkpt lat="45.48250042712297" lon="11.709256288099382"><ele>23.0</ele><time>2026-04-16T08:46:59Z</time></trkpt><trkpt lat="45.48248174694943" lon="11.709159899040966"><ele>23.0</ele><time>2026-04-16T08:47:00Z</time></trkpt><trkpt lat="45.482466254220824" lon="11.70906949529349"><ele>23.0</ele><time>2026-04-16T08:47:01Z</time></trkpt><trkpt lat="45.48244313395103" lon="11.708977247291104"><ele>23.0</ele><time>2026-04-16T08:47:02Z</time></trkpt><trkpt lat="45.4824181618549" lon="11.70888883663268"><ele>22.833333333333336</ele><time>2026-04-16T08:47:03Z</time></trkpt><trkpt lat="45.48240120697761" lon="11.708795638009862"><ele>22.666666666666668</ele><time>2026-04-16T08:47:04Z</time></trkpt><trkpt lat="45.48238326199805" lon="11.708701146301392"><ele>22.5</ele><time>2026-04-16T08:47:05Z</time></trkpt><trkpt lat="45.48236646899835" lon="11.708609301369155"><ele>22.333333333333332</ele><time>2026-04-16T08:47:06Z</time></trkpt><trkpt lat="45.48234314854457" lon="11.708520456830417"><ele>22.166666666666664</ele><time>2026-04-16T08:47:07Z</time></trkpt><trkpt lat="45.48231708173957" lon="11.708436744299568"><ele>22.0</ele><time>2026-04-16T08:47:08Z</time></trkpt><trkpt lat="45.48226637635144" lon="11.708276166920667"><ele>22.0</ele><time>2026-04-16T08:47:10Z</time></trkpt><trkpt lat="45.48222216831467" lon="11.708125472574288"><ele>22.0</ele><time>2026-04-16T08:47:12Z</time></trkpt><trkpt lat="45.482166126395875" lon="11.70798163014367"><ele>22.0</ele><time>2026-04-16T08:47:14Z</time></trkpt><trkpt lat="45.482100492638104" lon="11.707826523094814"><ele>22.0</ele><time>2026-04-16T08:47:16Z</time></trkpt><trkpt lat="45.48204541774741" lon="11.707668481851272"><ele>22.0</ele><time>2026-04-16T08:47:18Z</time></trkpt><trkpt lat="45.482014249792115" lon="11.70758984315366"><ele>22.0</ele><time>2026-04-16T08:47:19.001Z</time></trkpt><trkpt lat="45.48196070759416" lon="11.70742890422583"><ele>22.0</ele><time>2026-04-16T08:47:21.001Z</time></trkpt><trkpt lat="45.481922684418016" lon="11.707265513846997"><ele>22.0</ele><time>2026-04-16T08:47:23.001Z</time></trkpt><trkpt lat="45.48187604570727" lon="11.707110124068535"><ele>22.0</ele><time>2026-04-16T08:47:25.001Z</time></trkpt><trkpt lat="45.481837798843095" lon="11.70696808074678"><ele>22.0</ele><time>2026-04-16T08:47:27.001Z</time></trkpt><trkpt lat="45.481834680498835" lon="11.706829566104167"><ele>22.0</ele><time>2026-04-16T08:47:29.001Z</time></trkpt><trkpt lat="45.48188280402112" lon="11.706714275499799"><ele>22.0</ele><time>2026-04-16T08:47:31.001Z</time></trkpt><trkpt lat="45.481967183466374" lon="11.7066272454741"><ele>22.0</ele><time>2026-04-16T08:47:33.001Z</time></trkpt><trkpt lat="45.48202795914931" lon="11.706595471303947"><ele>22.0</ele><time>2026-04-16T08:47:34.001Z</time></trkpt><trkpt lat="45.48209206869417" lon="11.706584890138584"><ele>22.0</ele><time>2026-04-16T08:47:35.001Z</time></trkpt><trkpt lat="45.48215672830923" lon="11.706561336929344"><ele>22.0</ele><time>2026-04-16T08:47:36.001Z</time></trkpt><trkpt lat="45.48221572641493" lon="11.706514364386985"><ele>22.0</ele><time>2026-04-16T08:47:37.001Z</time></trkpt><trkpt lat="45.4822772746232" lon="11.706475722462212"><ele>22.0</ele><time>2026-04-16T08:47:38.001Z</time></trkpt><trkpt lat="45.48233939473932" lon="11.706436632799564"><ele>22.0</ele><time>2026-04-16T08:47:39.001Z</time></trkpt><trkpt lat="45.48240119467207" lon="11.706391128153363"><ele>22.0</ele><time>2026-04-16T08:47:40.001Z</time></trkpt><trkpt lat="45.48246232873804" lon="11.706346802095192"><ele>22.0</ele><time>2026-04-16T08:47:41.001Z</time></trkpt><trkpt lat="45.482523421308706" lon="11.706294567815313"><ele>22.0</ele><time>2026-04-16T08:47:42.001Z</time></trkpt><trkpt lat="45.48258975124701" lon="11.706257788560741"><ele>22.0</ele><time>2026-04-16T08:47:43.001Z</time></trkpt><trkpt lat="45.48265235999103" lon="11.706221523850123"><ele>22.0</ele><time>2026-04-16T08:47:44.001Z</time></trkpt><trkpt lat="45.482713914922826" lon="11.706180155952767"><ele>22.0</ele><time>2026-04-16T08:47:45.001Z</time></trkpt><trkpt lat="45.482773806472515" lon="11.706134917130898"><ele>22.0</ele><time>2026-04-16T08:47:46.001Z</time></trkpt><trkpt lat="45.48283485133639" lon="11.706089072655114"><ele>22.0</ele><time>2026-04-16T08:47:47.001Z</time></trkpt><trkpt lat="45.48289685658272" lon="11.706051956470063"><ele>22.0</ele><time>2026-04-16T08:47:48.001Z</time></trkpt><trkpt lat="45.48295885515182" lon="11.7060151254577"><ele>22.0</ele><time>2026-04-16T08:47:49.001Z</time></trkpt><trkpt lat="45.483020642137696" lon="11.705981903193443"><ele>22.0</ele><time>2026-04-16T08:47:50.001Z</time></trkpt><trkpt lat="45.483079620795465" lon="11.70594061031801"><ele>22.0</ele><time>2026-04-16T08:47:51.001Z</time></trkpt><trkpt lat="45.4831374006086" lon="11.705894957575804"><ele>22.0</ele><time>2026-04-16T08:47:52.001Z</time></trkpt><trkpt lat="45.48319692862554" lon="11.705857296380513"><ele>22.0</ele><time>2026-04-16T08:47:53.001Z</time></trkpt><trkpt lat="45.483255521773934" lon="11.705820172551938"><ele>22.0</ele><time>2026-04-16T08:47:54.001Z</time></trkpt><trkpt lat="45.483312616471096" lon="11.70578038707012"><ele>22.0</ele><time>2026-04-16T08:47:55.001Z</time></trkpt><trkpt lat="45.48336797800465" lon="11.705734220903963"><ele>22.0</ele><time>2026-04-16T08:47:56.001Z</time></trkpt><trkpt lat="45.48342525451158" lon="11.705696806399922"><ele>22.0</ele><time>2026-04-16T08:47:57.001Z</time></trkpt><trkpt lat="45.483538092956366" lon="11.705618815058571"><ele>22.0</ele><time>2026-04-16T08:47:59.001Z</time></trkpt><trkpt lat="45.483648082741446" lon="11.705597737551606"><ele>22.0</ele><time>2026-04-16T08:48:01.002Z</time></trkpt><trkpt lat="45.4837238985589" lon="11.705632651516007"><ele>22.0</ele><time>2026-04-16T08:48:03.002Z</time></trkpt><trkpt lat="45.48379771077159" lon="11.705625052345168"><ele>22.0</ele><time>2026-04-16T08:48:09.002Z</time></trkpt><trkpt lat="45.4838731020434" lon="11.705563478420062"><ele>22.200000000000003</ele><time>2026-04-16T08:48:12.002Z</time></trkpt><trkpt lat="45.48392740750346" lon="11.705493381757481"><ele>22.4</ele><time>2026-04-16T08:48:14.002Z</time></trkpt><trkpt lat="45.48393534555779" lon="11.705360315579368"><ele>22.6</ele><time>2026-04-16T08:48:16.002Z</time></trkpt><trkpt lat="45.4840115152894" lon="11.705287405315934"><ele>22.799999999999997</ele><time>2026-04-16T08:48:18.002Z</time></trkpt><trkpt lat="45.48411213749866" lon="11.705226622974244"><ele>23.0</ele><time>2026-04-16T08:48:20.002Z</time></trkpt><trkpt lat="45.4842214152265" lon="11.705147411207019"><ele>23.142857142857142</ele><time>2026-04-16T08:48:22.002Z</time></trkpt><trkpt lat="45.484279132496816" lon="11.705107788631603"><ele>23.285714285714285</ele><time>2026-04-16T08:48:23.002Z</time></trkpt><trkpt lat="45.48433329563702" lon="11.705061842751148"><ele>23.428571428571427</ele><time>2026-04-16T08:48:24.002Z</time></trkpt><trkpt lat="45.484388139897945" lon="11.705016819865918"><ele>23.57142857142857</ele><time>2026-04-16T08:48:25.002Z</time></trkpt><trkpt lat="45.48444724280315" lon="11.704982968871342"><ele>23.714285714285715</ele><time>2026-04-16T08:48:26.002Z</time></trkpt><trkpt lat="45.484504820801035" lon="11.704942521235255"><ele>23.857142857142854</ele><time>2026-04-16T08:48:27.002Z</time></trkpt><trkpt lat="45.48456299496204" lon="11.704896046560503"><ele>24.0</ele><time>2026-04-16T08:48:28.002Z</time></trkpt><trkpt lat="45.48462125846125" lon="11.704849336786285"><ele>23.57142857142857</ele><time>2026-04-16T08:48:29.002Z</time></trkpt><trkpt lat="45.48467846591755" lon="11.704801911064937"><ele>23.142857142857142</ele><time>2026-04-16T08:48:30.002Z</time></trkpt><trkpt lat="45.48473794970111" lon="11.704763635821505"><ele>22.714285714285715</ele><time>2026-04-16T08:48:31.002Z</time></trkpt><trkpt lat="45.48479431325118" lon="11.704723503893085"><ele>22.285714285714285</ele><time>2026-04-16T08:48:31.999Z</time></trkpt><trkpt lat="45.4848531357967" lon="11.704678879717173"><ele>21.857142857142858</ele><time>2026-04-16T08:48:32.999Z</time></trkpt><trkpt lat="45.48491087313078" lon="11.704642374150321"><ele>21.428571428571427</ele><time>2026-04-16T08:48:33.999Z</time></trkpt><trkpt lat="45.48497000050712" lon="11.704602408034981"><ele>21.0</ele><time>2026-04-16T08:48:34.999Z</time></trkpt><trkpt lat="45.48502565547619" lon="11.704558028474445"><ele>21.0</ele><time>2026-04-16T08:48:35.999Z</time></trkpt><trkpt lat="45.48513271205904" lon="11.704476971793408"><ele>21.0</ele><time>2026-04-16T08:48:37.999Z</time></trkpt><trkpt lat="45.48523542542838" lon="11.704400449548649"><ele>21.0</ele><time>2026-04-16T08:48:39.999Z</time></trkpt><trkpt lat="45.48533198890537" lon="11.704324563426084"><ele>21.0</ele><time>2026-04-16T08:48:41.999Z</time></trkpt><trkpt lat="45.48543786083891" lon="11.704250810063824"><ele>21.5</ele><time>2026-04-16T08:48:43.999Z</time></trkpt><trkpt lat="45.48554362298319" lon="11.704168892595993"><ele>22.0</ele><time>2026-04-16T08:48:45.999Z</time></trkpt><trkpt lat="45.485647707322116" lon="11.704088764317945"><ele>22.5</ele><time>2026-04-16T08:48:47.999Z</time></trkpt><trkpt lat="45.48575544791842" lon="11.704001848776015"><ele>23.0</ele><time>2026-04-16T08:48:50Z</time></trkpt><trkpt lat="45.485868572303126" lon="11.703926814464662"><ele>23.0</ele><time>2026-04-16T08:48:52Z</time></trkpt><trkpt lat="45.48592612446787" lon="11.70387265785433"><ele>23.0</ele><time>2026-04-16T08:48:53Z</time></trkpt><trkpt lat="45.48598134415119" lon="11.703828581260193"><ele>23.0</ele><time>2026-04-16T08:48:54Z</time></trkpt><trkpt lat="45.48604034517881" lon="11.703786252891403"><ele>23.0</ele><time>2026-04-16T08:48:55Z</time></trkpt><trkpt lat="45.48610079173839" lon="11.70373804851417"><ele>23.0</ele><time>2026-04-16T08:48:56Z</time></trkpt><trkpt lat="45.48615781643747" lon="11.703692943327956"><ele>23.0</ele><time>2026-04-16T08:48:57Z</time></trkpt><trkpt lat="45.486218297279954" lon="11.703646356398714"><ele>23.0</ele><time>2026-04-16T08:48:58Z</time></trkpt><trkpt lat="45.48627790557366" lon="11.703596740796206"><ele>22.857142857142858</ele><time>2026-04-16T08:48:59Z</time></trkpt><trkpt lat="45.486346030890644" lon="11.703554134408602"><ele>22.71428571428571</ele><time>2026-04-16T08:49:00Z</time></trkpt><trkpt lat="45.486415316435235" lon="11.703515874451035"><ele>22.57142857142857</ele><time>2026-04-16T08:49:01Z</time></trkpt><trkpt lat="45.486477879344356" lon="11.703460659097585"><ele>22.42857142857143</ele><time>2026-04-16T08:49:02Z</time></trkpt><trkpt lat="45.486540311106225" lon="11.70340664089852"><ele>22.285714285714285</ele><time>2026-04-16T08:49:03Z</time></trkpt><trkpt lat="45.48660570882085" lon="11.703360709534671"><ele>22.142857142857142</ele><time>2026-04-16T08:49:04Z</time></trkpt><trkpt lat="45.48666983502369" lon="11.703309926975747"><ele>22.0</ele><time>2026-04-16T08:49:05Z</time></trkpt><trkpt lat="45.486734617570946" lon="11.70325942360277"><ele>22.0</ele><time>2026-04-16T08:49:06Z</time></trkpt><trkpt lat="45.486797589140224" lon="11.703213778049069"><ele>22.0</ele><time>2026-04-16T08:49:07Z</time></trkpt><trkpt lat="45.48685825112149" lon="11.703169713441358"><ele>22.0</ele><time>2026-04-16T08:49:08Z</time></trkpt><trkpt lat="45.486918282491764" lon="11.703125062054475"><ele>22.0</ele><time>2026-04-16T08:49:09Z</time></trkpt><trkpt lat="45.48697636299139" lon="11.703085213929095"><ele>22.0</ele><time>2026-04-16T08:49:10Z</time></trkpt><trkpt lat="45.48703370823469" lon="11.703043338839944"><ele>22.0</ele><time>2026-04-16T08:49:11Z</time></trkpt><trkpt lat="45.48709320935355" lon="11.7029979159019"><ele>22.0</ele><time>2026-04-16T08:49:12Z</time></trkpt><trkpt lat="45.48718111885093" lon="11.702932335967427"><ele>22.200000000000003</ele><time>2026-04-16T08:49:14Z</time></trkpt><trkpt lat="45.48723808415276" lon="11.702890627775156"><ele>22.4</ele><time>2026-04-16T08:49:16Z</time></trkpt><trkpt lat="45.48729682549665" lon="11.702825367256825"><ele>22.6</ele><time>2026-04-16T08:49:21.001Z</time></trkpt><trkpt lat="45.48734854075946" lon="11.702727595657509"><ele>22.799999999999997</ele><time>2026-04-16T08:49:28.001Z</time></trkpt><trkpt lat="45.48744126300329" lon="11.702656985031222"><ele>23.0</ele><time>2026-04-16T08:49:30.001Z</time></trkpt><trkpt lat="45.48754915787492" lon="11.70257482008905"><ele>23.0</ele><time>2026-04-16T08:49:32.001Z</time></trkpt><trkpt lat="45.487605234940894" lon="11.70253213043576"><ele>23.0</ele><time>2026-04-16T08:49:33.001Z</time></trkpt><trkpt lat="45.4876632850042" lon="11.702487947358737"><ele>23.0</ele><time>2026-04-16T08:49:34.001Z</time></trkpt><trkpt lat="45.487722067748265" lon="11.7024432066096"><ele>23.0</ele><time>2026-04-16T08:49:35.001Z</time></trkpt><trkpt lat="45.487783666550406" lon="11.702396322524198"><ele>23.0</ele><time>2026-04-16T08:49:36.001Z</time></trkpt><trkpt lat="45.487844416858785" lon="11.70235008422403"><ele>23.0</ele><time>2026-04-16T08:49:37.001Z</time></trkpt><trkpt lat="45.487907442836786" lon="11.702302113877552"><ele>23.0</ele><time>2026-04-16T08:49:38.001Z</time></trkpt><trkpt lat="45.48797311777929" lon="11.702252127338554"><ele>23.0</ele><time>2026-04-16T08:49:39.001Z</time></trkpt><trkpt lat="45.48803775568772" lon="11.702202930121889"><ele>23.0</ele><time>2026-04-16T08:49:40.001Z</time></trkpt><trkpt lat="45.48810286050787" lon="11.702153377526228"><ele>23.0</ele><time>2026-04-16T08:49:41.001Z</time></trkpt><trkpt lat="45.488169510792446" lon="11.702102644207017"><ele>23.0</ele><time>2026-04-16T08:49:42.001Z</time></trkpt><trkpt lat="45.48823503433956" lon="11.702052767463961"><ele>23.0</ele><time>2026-04-16T08:49:43.001Z</time></trkpt><trkpt lat="45.488301091452115" lon="11.70200248459981"><ele>23.0</ele><time>2026-04-16T08:49:44.001Z</time></trkpt><trkpt lat="45.48836648776429" lon="11.701952704732731"><ele>23.0</ele><time>2026-04-16T08:49:45.001Z</time></trkpt><trkpt lat="45.488431800693455" lon="11.7019029883471"><ele>23.0</ele><time>2026-04-16T08:49:46.001Z</time></trkpt><trkpt lat="45.488495472229566" lon="11.701854521393905"><ele>23.0</ele><time>2026-04-16T08:49:47.001Z</time></trkpt><trkpt lat="45.48855930913987" lon="11.701805928539804"><ele>23.0</ele><time>2026-04-16T08:49:48.001Z</time></trkpt><trkpt lat="45.488621335471116" lon="11.701758714005871"><ele>23.0</ele><time>2026-04-16T08:49:49.001Z</time></trkpt><trkpt lat="45.48868451279309" lon="11.70171044658092"><ele>23.0</ele><time>2026-04-16T08:49:50.001Z</time></trkpt><trkpt lat="45.4887442630625" lon="11.701664806188754"><ele>23.0</ele><time>2026-04-16T08:49:51.001Z</time></trkpt><trkpt lat="45.488803593146244" lon="11.701619486736622"><ele>23.0</ele><time>2026-04-16T08:49:52.001Z</time></trkpt><trkpt lat="45.4888649066941" lon="11.701572652254265"><ele>23.28571428571429</ele><time>2026-04-16T08:49:53.001Z</time></trkpt><trkpt lat="45.48892426237943" lon="11.701527313272509"><ele>23.57142857142857</ele><time>2026-04-16T08:49:54.001Z</time></trkpt><trkpt lat="45.48898462487406" lon="11.701481205233286"><ele>23.857142857142858</ele><time>2026-04-16T08:49:55.001Z</time></trkpt><trkpt lat="45.48904757447798" lon="11.701433121034002"><ele>24.142857142857146</ele><time>2026-04-16T08:49:56.002Z</time></trkpt><trkpt lat="45.48910918935421" lon="11.70138605634288"><ele>24.42857142857143</ele><time>2026-04-16T08:49:57.002Z</time></trkpt><trkpt lat="45.489170189374775" lon="11.70133946134379"><ele>24.714285714285715</ele><time>2026-04-16T08:49:58.002Z</time></trkpt><trkpt lat="45.489232156255405" lon="11.70129212778325"><ele>25.0</ele><time>2026-04-16T08:49:59.002Z</time></trkpt><trkpt lat="45.48929437441808" lon="11.701244816750254"><ele>25.000000000000004</ele><time>2026-04-16T08:50:00.002Z</time></trkpt><trkpt lat="45.48935943789596" lon="11.701195605336943"><ele>25.0</ele><time>2026-04-16T08:50:01.002Z</time></trkpt><trkpt lat="45.489424460106065" lon="11.701146425110124"><ele>25.0</ele><time>2026-04-16T08:50:02.002Z</time></trkpt><trkpt lat="45.48949127305814" lon="11.701095890454177"><ele>25.0</ele><time>2026-04-16T08:50:03.002Z</time></trkpt><trkpt lat="45.48955823694083" lon="11.701045241625875"><ele>25.000000000000004</ele><time>2026-04-16T08:50:04.002Z</time></trkpt><trkpt lat="45.48962514011252" lon="11.700994638718742"><ele>25.0</ele><time>2026-04-16T08:50:05.002Z</time></trkpt><trkpt lat="45.4896920124943" lon="11.70094405909966"><ele>25.333333333333336</ele><time>2026-04-16T08:50:06.002Z</time></trkpt><trkpt lat="45.489754835514745" lon="11.700899121759603"><ele>25.666666666666668</ele><time>2026-04-16T08:50:07.002Z</time></trkpt><trkpt lat="45.48982049238905" lon="11.700852656049811"><ele>26.0</ele><time>2026-04-16T08:50:08.002Z</time></trkpt><trkpt lat="45.4898819649818" lon="11.700813694424788"><ele>26.333333333333336</ele><time>2026-04-16T08:50:09.002Z</time></trkpt><trkpt lat="45.48999236584783" lon="11.700766578429525"><ele>26.666666666666668</ele><time>2026-04-16T08:50:11.002Z</time></trkpt><trkpt lat="45.49010404483038" lon="11.700738265903274"><ele>27.0</ele><time>2026-04-16T08:50:13.002Z</time></trkpt><trkpt lat="45.49020443874961" lon="11.700723969303136"><ele>24.5</ele><time>2026-04-16T08:50:15.002Z</time></trkpt><trkpt lat="45.490199627846394" lon="11.700138485074305"><ele>22.0</ele><time>2026-04-16T08:50:17.002Z</time></trkpt><trkpt lat="45.4901772821065" lon="11.7000313598306"><ele>22.0</ele><time>2026-04-16T08:50:18.002Z</time></trkpt><trkpt lat="45.49016799969249" lon="11.6999271341712"><ele>22.0</ele><time>2026-04-16T08:50:19.002Z</time></trkpt><trkpt lat="45.490163886998346" lon="11.699823823414627"><ele>22.0</ele><time>2026-04-16T08:50:20.002Z</time></trkpt><trkpt lat="45.49015935595445" lon="11.699719370060562"><ele>22.0</ele><time>2026-04-16T08:50:21.002Z</time></trkpt><trkpt lat="45.490150009179445" lon="11.699614699190633"><ele>22.0</ele><time>2026-04-16T08:50:22.002Z</time></trkpt><trkpt lat="45.49014116860391" lon="11.699512124691214"><ele>22.0</ele><time>2026-04-16T08:50:23.002Z</time></trkpt><trkpt lat="45.49013402685259" lon="11.69941622417682"><ele>22.0</ele><time>2026-04-16T08:50:24.002Z</time></trkpt><trkpt lat="45.49012098078236" lon="11.699324202835722"><ele>22.0</ele><time>2026-04-16T08:50:25.002Z</time></trkpt><trkpt lat="45.490112682026705" lon="11.699231010983372"><ele>22.0</ele><time>2026-04-16T08:50:26.002Z</time></trkpt><trkpt lat="45.49029455088947" lon="11.699019999511666"><ele>22.0</ele><time>2026-04-16T08:50:28.002Z</time></trkpt><trkpt lat="45.490280580721596" lon="11.698931754856282"><ele>22.0</ele><time>2026-04-16T08:50:30.002Z</time></trkpt><trkpt lat="45.49017063333289" lon="11.698860654263399"><ele>22.0</ele><time>2026-04-16T08:53:26.001Z</time></trkpt><trkpt lat="45.49014627331649" lon="11.69874765693228"><ele>22.0</ele><time>2026-04-16T08:53:29.001Z</time></trkpt><trkpt lat="45.49013437907919" lon="11.698649661447456"><ele>22.0</ele><time>2026-04-16T08:53:31.001Z</time></trkpt><trkpt lat="45.49009648624242" lon="11.698534123972314"><ele>22.0</ele><time>2026-04-16T08:53:33.001Z</time></trkpt><trkpt lat="45.49006899151539" lon="11.698407833554695"><ele>22.0</ele><time>2026-04-16T08:53:35.001Z</time></trkpt><trkpt lat="45.490037055708704" lon="11.698276794442789"><ele>22.0</ele><time>2026-04-16T08:53:37.001Z</time></trkpt><trkpt lat="45.490006755190954" lon="11.698155171603798"><ele>22.0</ele><time>2026-04-16T08:53:39.001Z</time></trkpt><trkpt lat="45.48995950468409" lon="11.698056467116935"><ele>22.0</ele><time>2026-04-16T08:53:41.001Z</time></trkpt><trkpt lat="45.48992005889879" lon="11.697958229410386"><ele>22.0</ele><time>2026-04-16T08:53:43.001Z</time></trkpt><trkpt lat="45.48988313758543" lon="11.697864622659296"><ele>22.0</ele><time>2026-04-16T08:53:45.002Z</time></trkpt><trkpt lat="45.489889868395636" lon="11.6977735412306"><ele>22.0</ele><time>2026-04-16T08:53:47.002Z</time></trkpt><trkpt lat="45.48993826502616" lon="11.69766881637202"><ele>22.0</ele><time>2026-04-16T08:53:49.002Z</time></trkpt><trkpt lat="45.489879846061555" lon="11.697546781046213"><ele>22.0</ele><time>2026-04-16T08:53:51.002Z</time></trkpt><trkpt lat="45.489809601706746" lon="11.697427927022376"><ele>22.0</ele><time>2026-04-16T08:53:53.002Z</time></trkpt><trkpt lat="45.489729586893276" lon="11.697303711125228"><ele>22.0</ele><time>2026-04-16T08:53:55.002Z</time></trkpt><trkpt lat="45.48967392119978" lon="11.697245090187094"><ele>22.0</ele><time>2026-04-16T08:53:56.002Z</time></trkpt><trkpt lat="45.48959008951468" lon="11.697141994046234"><ele>22.0</ele><time>2026-04-16T08:53:58.002Z</time></trkpt><trkpt lat="45.489506508707976" lon="11.697037059055106"><ele>22.0</ele><time>2026-04-16T08:54:00.002Z</time></trkpt><trkpt lat="45.48942242276471" lon="11.696938992045855"><ele>22.0</ele><time>2026-04-16T08:54:02.002Z</time></trkpt><trkpt lat="45.489332537802895" lon="11.696840599281332"><ele>22.0</ele><time>2026-04-16T08:54:04.002Z</time></trkpt><trkpt lat="45.48925463631004" lon="11.696761476230588"><ele>22.0</ele><time>2026-04-16T08:54:06.002Z</time></trkpt><trkpt lat="45.48921368046683" lon="11.696667500682814"><ele>22.0</ele><time>2026-04-16T08:54:09.002Z</time></trkpt><trkpt lat="45.489270944683796" lon="11.696572279323245"><ele>22.200000000000003</ele><time>2026-04-16T08:54:11.002Z</time></trkpt><trkpt lat="45.48936093238207" lon="11.69647562179777"><ele>22.4</ele><time>2026-04-16T08:54:13.002Z</time></trkpt><trkpt lat="45.48944865321735" lon="11.696376688619786"><ele>22.6</ele><time>2026-04-16T08:54:15.002Z</time></trkpt><trkpt lat="45.48953166090669" lon="11.69628340234138"><ele>22.799999999999997</ele><time>2026-04-16T08:54:17.002Z</time></trkpt><trkpt lat="45.489622918033575" lon="11.696177801270856"><ele>23.0</ele><time>2026-04-16T08:54:19.003Z</time></trkpt><trkpt lat="45.48971746548842" lon="11.696070690129764"><ele>23.0</ele><time>2026-04-16T08:54:21.003Z</time></trkpt><trkpt lat="45.48976371619946" lon="11.696009385550429"><ele>23.0</ele><time>2026-04-16T08:54:22.003Z</time></trkpt><trkpt lat="45.48985814992878" lon="11.695902347403585"><ele>23.0</ele><time>2026-04-16T08:54:24.003Z</time></trkpt><trkpt lat="45.48995579398152" lon="11.695799185397677"><ele>23.0</ele><time>2026-04-16T08:54:26.003Z</time></trkpt><trkpt lat="45.49004644288338" lon="11.695684746113283"><ele>23.0</ele><time>2026-04-16T08:54:28.003Z</time></trkpt><trkpt lat="45.49013971801663" lon="11.695579526212446"><ele>23.0</ele><time>2026-04-16T08:54:30Z</time></trkpt><trkpt lat="45.490229952805" lon="11.695465461626545"><ele>23.0</ele><time>2026-04-16T08:54:32Z</time></trkpt><trkpt lat="45.49031702358014" lon="11.695366933743182"><ele>23.0</ele><time>2026-04-16T08:54:34Z</time></trkpt><trkpt lat="45.49040906264512" lon="11.695262529211295"><ele>23.0</ele><time>2026-04-16T08:54:36Z</time></trkpt><trkpt lat="45.49050454809009" lon="11.69515354009374"><ele>22.75</ele><time>2026-04-16T08:54:38Z</time></trkpt><trkpt lat="45.49061948094873" lon="11.695071530669592"><ele>22.5</ele><time>2026-04-16T08:54:40Z</time></trkpt><trkpt lat="45.490705220350065" lon="11.694947001653695"><ele>22.25</ele><time>2026-04-16T08:54:42Z</time></trkpt><trkpt lat="45.490810117189085" lon="11.694849097385744"><ele>22.0</ele><time>2026-04-16T08:54:44Z</time></trkpt><trkpt lat="45.49089797113338" lon="11.694740462347383"><ele>22.0</ele><time>2026-04-16T08:54:46Z</time></trkpt><trkpt lat="45.49099088566907" lon="11.694657317034453"><ele>22.0</ele><time>2026-04-16T08:54:48Z</time></trkpt><trkpt lat="45.49108001788368" lon="11.69455850448058"><ele>22.0</ele><time>2026-04-16T08:54:50Z</time></trkpt><trkpt lat="45.49116424589531" lon="11.694465129015114"><ele>22.0</ele><time>2026-04-16T08:54:52Z</time></trkpt><trkpt lat="45.49124142118347" lon="11.694379572281699"><ele>22.0</ele><time>2026-04-16T08:54:54Z</time></trkpt><trkpt lat="45.491303498026504" lon="11.694310753529491"><ele>22.25</ele><time>2026-04-16T08:54:56Z</time></trkpt><trkpt lat="45.49123315998687" lon="11.694121123835446"><ele>22.5</ele><time>2026-04-16T08:55:00.001Z</time></trkpt><trkpt lat="45.49117008165982" lon="11.693986075189441"><ele>22.75</ele><time>2026-04-16T08:55:02.001Z</time></trkpt><trkpt lat="45.49110805670084" lon="11.693832789518263"><ele>23.0</ele><time>2026-04-16T08:55:04.001Z</time></trkpt><trkpt lat="45.491080690853536" lon="11.693750669482348"><ele>23.0</ele><time>2026-04-16T08:55:05.001Z</time></trkpt><trkpt lat="45.49104628276122" lon="11.693668600116633"><ele>23.0</ele><time>2026-04-16T08:55:06.001Z</time></trkpt><trkpt lat="45.49100188960563" lon="11.693594095743906"><ele>23.0</ele><time>2026-04-16T08:55:07.001Z</time></trkpt><trkpt lat="45.49096043828086" lon="11.69351063165085"><ele>23.0</ele><time>2026-04-16T08:55:08.001Z</time></trkpt><trkpt lat="45.490921404507816" lon="11.69343165616529"><ele>23.0</ele><time>2026-04-16T08:55:09.001Z</time></trkpt><trkpt lat="45.49088393356639" lon="11.693351472667382"><ele>23.0</ele><time>2026-04-16T08:55:10.001Z</time></trkpt><trkpt lat="45.49084246814782" lon="11.693271035650785"><ele>23.0</ele><time>2026-04-16T08:55:11.001Z</time></trkpt><trkpt lat="45.49080287464562" lon="11.693187915484788"><ele>22.857142857142858</ele><time>2026-04-16T08:55:12.001Z</time></trkpt><trkpt lat="45.49076246004705" lon="11.693110903868408"><ele>22.71428571428571</ele><time>2026-04-16T08:55:13.001Z</time></trkpt><trkpt lat="45.49071876602282" lon="11.693034468781882"><ele>22.57142857142857</ele><time>2026-04-16T08:55:14.001Z</time></trkpt><trkpt lat="45.490673968067625" lon="11.692957573558436"><ele>22.42857142857143</ele><time>2026-04-16T08:55:15.001Z</time></trkpt><trkpt lat="45.49063282451742" lon="11.692880101761142"><ele>22.285714285714285</ele><time>2026-04-16T08:55:16.001Z</time></trkpt><trkpt lat="45.490582304302855" lon="11.692806372547"><ele>22.142857142857142</ele><time>2026-04-16T08:55:17.001Z</time></trkpt><trkpt lat="45.49053808127582" lon="11.692732994376062"><ele>22.0</ele><time>2026-04-16T08:55:18.001Z</time></trkpt><trkpt lat="45.49049597668311" lon="11.692654925241888"><ele>22.0</ele><time>2026-04-16T08:55:19.001Z</time></trkpt><trkpt lat="45.49044653937072" lon="11.692580618660553"><ele>22.0</ele><time>2026-04-16T08:55:20.001Z</time></trkpt><trkpt lat="45.49040124816242" lon="11.692509932157584"><ele>22.0</ele><time>2026-04-16T08:55:21.001Z</time></trkpt><trkpt lat="45.49035154913793" lon="11.69243906021944"><ele>22.0</ele><time>2026-04-16T08:55:22.001Z</time></trkpt><trkpt lat="45.49030670996582" lon="11.692365030181026"><ele>22.0</ele><time>2026-04-16T08:55:23.001Z</time></trkpt><trkpt lat="45.49026086758534" lon="11.692288396967864"><ele>22.0</ele><time>2026-04-16T08:55:24.001Z</time></trkpt><trkpt lat="45.49021397658121" lon="11.69221445576586"><ele>22.0</ele><time>2026-04-16T08:55:25.001Z</time></trkpt><trkpt lat="45.49016344904293" lon="11.692143767965929"><ele>21.857142857142858</ele><time>2026-04-16T08:55:26.001Z</time></trkpt><trkpt lat="45.49011949762895" lon="11.692067514231947"><ele>21.714285714285715</ele><time>2026-04-16T08:55:27.001Z</time></trkpt><trkpt lat="45.49007451530447" lon="11.69199316383656"><ele>21.57142857142857</ele><time>2026-04-16T08:55:28.001Z</time></trkpt><trkpt lat="45.490016745965875" lon="11.691925059134268"><ele>21.42857142857143</ele><time>2026-04-16T08:55:29.001Z</time></trkpt><trkpt lat="45.48996693525649" lon="11.691849626122623"><ele>21.285714285714285</ele><time>2026-04-16T08:55:30.001Z</time></trkpt><trkpt lat="45.48992476520447" lon="11.691760757880477"><ele>21.142857142857142</ele><time>2026-04-16T08:55:31.001Z</time></trkpt><trkpt lat="45.489873277142635" lon="11.691687319574907"><ele>21.0</ele><time>2026-04-16T08:55:32.001Z</time></trkpt><trkpt lat="45.48982384214621" lon="11.691609955989703"><ele>21.0</ele><time>2026-04-16T08:55:33.002Z</time></trkpt><trkpt lat="45.48977137421139" lon="11.69153107639211"><ele>21.0</ele><time>2026-04-16T08:55:34.002Z</time></trkpt><trkpt lat="45.48971883482164" lon="11.691454668634806"><ele>21.0</ele><time>2026-04-16T08:55:35.002Z</time></trkpt><trkpt lat="45.489667260500866" lon="11.691377887452742"><ele>21.0</ele><time>2026-04-16T08:55:36.002Z</time></trkpt><trkpt lat="45.48961917429424" lon="11.691301469388577"><ele>21.0</ele><time>2026-04-16T08:55:37.002Z</time></trkpt><trkpt lat="45.48957268935108" lon="11.691215870751373"><ele>21.0</ele><time>2026-04-16T08:55:38.002Z</time></trkpt><trkpt lat="45.48952211515959" lon="11.691141709725136"><ele>21.0</ele><time>2026-04-16T08:55:39.002Z</time></trkpt><trkpt lat="45.48947115122817" lon="11.691062012199653"><ele>21.0</ele><time>2026-04-16T08:55:40.002Z</time></trkpt><trkpt lat="45.48942087845264" lon="11.690979974365138"><ele>21.0</ele><time>2026-04-16T08:55:41.002Z</time></trkpt><trkpt lat="45.489369507462975" lon="11.690898711768728"><ele>21.0</ele><time>2026-04-16T08:55:42.002Z</time></trkpt><trkpt lat="45.489317049478444" lon="11.690821245255755"><ele>21.0</ele><time>2026-04-16T08:55:43.002Z</time></trkpt><trkpt lat="45.489266570135506" lon="11.690740793786148"><ele>21.0</ele><time>2026-04-16T08:55:44.002Z</time></trkpt><trkpt lat="45.489214732560484" lon="11.690662075178487"><ele>21.0</ele><time>2026-04-16T08:55:45.002Z</time></trkpt><trkpt lat="45.48917093792758" lon="11.690578368798745"><ele>21.0</ele><time>2026-04-16T08:55:46.002Z</time></trkpt><trkpt lat="45.48912101408851" lon="11.690495765315175"><ele>21.0</ele><time>2026-04-16T08:55:47.002Z</time></trkpt><trkpt lat="45.48907281834115" lon="11.690419144609239"><ele>21.0</ele><time>2026-04-16T08:55:48.002Z</time></trkpt><trkpt lat="45.48902744536726" lon="11.690340951750832"><ele>21.0</ele><time>2026-04-16T08:55:49.002Z</time></trkpt><trkpt lat="45.488976982504596" lon="11.690263969084553"><ele>21.0</ele><time>2026-04-16T08:55:50.002Z</time></trkpt><trkpt lat="45.488924780775996" lon="11.690186889438092"><ele>21.0</ele><time>2026-04-16T08:55:51.002Z</time></trkpt><trkpt lat="45.48887634543742" lon="11.690112007394099"><ele>21.0</ele><time>2026-04-16T08:55:52.002Z</time></trkpt><trkpt lat="45.48882768922436" lon="11.690030802907215"><ele>20.714285714285715</ele><time>2026-04-16T08:55:53.002Z</time></trkpt><trkpt lat="45.488775315064196" lon="11.68995601873623"><ele>20.42857142857143</ele><time>2026-04-16T08:55:54.002Z</time></trkpt><trkpt lat="45.48872721829833" lon="11.689877194088226"><ele>20.142857142857142</ele><time>2026-04-16T08:55:55.002Z</time></trkpt><trkpt lat="45.488682775112075" lon="11.689800253285407"><ele>19.857142857142858</ele><time>2026-04-16T08:55:56.002Z</time></trkpt><trkpt lat="45.48862677751786" lon="11.68972005726418"><ele>19.571428571428573</ele><time>2026-04-16T08:55:57.002Z</time></trkpt><trkpt lat="45.488576192313985" lon="11.689652021414428"><ele>19.285714285714285</ele><time>2026-04-16T08:55:58.002Z</time></trkpt><trkpt lat="45.48852991537577" lon="11.689573163450834"><ele>19.0</ele><time>2026-04-16T08:55:59.002Z</time></trkpt><trkpt lat="45.48848531857951" lon="11.689488999631312"><ele>19.285714285714285</ele><time>2026-04-16T08:56:00.002Z</time></trkpt><trkpt lat="45.48843407794752" lon="11.689414093101933"><ele>19.571428571428573</ele><time>2026-04-16T08:56:01.002Z</time></trkpt><trkpt lat="45.488386962712596" lon="11.689339796625212"><ele>19.857142857142858</ele><time>2026-04-16T08:56:02.002Z</time></trkpt><trkpt lat="45.48833377121433" lon="11.689265074284547"><ele>20.142857142857142</ele><time>2026-04-16T08:56:03.002Z</time></trkpt><trkpt lat="45.48828657924172" lon="11.689185296578687"><ele>20.42857142857143</ele><time>2026-04-16T08:56:04.002Z</time></trkpt><trkpt lat="45.48824004424809" lon="11.689110696115776"><ele>20.714285714285715</ele><time>2026-04-16T08:56:05.002Z</time></trkpt><trkpt lat="45.48819408266363" lon="11.689041368359856"><ele>21.0</ele><time>2026-04-16T08:56:06.002Z</time></trkpt><trkpt lat="45.488107025628906" lon="11.688913335198446"><ele>21.0</ele><time>2026-04-16T08:56:08.002Z</time></trkpt><trkpt lat="45.488030693052366" lon="11.688770872439068"><ele>21.0</ele><time>2026-04-16T08:56:10.003Z</time></trkpt><trkpt lat="45.48798485721739" lon="11.688702450530872"><ele>21.0</ele><time>2026-04-16T08:56:11.003Z</time></trkpt><trkpt lat="45.4879419732472" lon="11.688636211357784"><ele>21.0</ele><time>2026-04-16T08:56:12.003Z</time></trkpt><trkpt lat="45.487855976230065" lon="11.68849164215625"><ele>21.0</ele><time>2026-04-16T08:56:14.003Z</time></trkpt><trkpt lat="45.48780853536173" lon="11.688416638505986"><ele>20.714285714285715</ele><time>2026-04-16T08:56:15.003Z</time></trkpt><trkpt lat="45.487765951800284" lon="11.68833958700105"><ele>20.42857142857143</ele><time>2026-04-16T08:56:16.003Z</time></trkpt><trkpt lat="45.48771666094541" lon="11.68827126451295"><ele>20.142857142857142</ele><time>2026-04-16T08:56:17.003Z</time></trkpt><trkpt lat="45.48766755561163" lon="11.688195981345524"><ele>19.857142857142858</ele><time>2026-04-16T08:56:18.003Z</time></trkpt><trkpt lat="45.4876183901309" lon="11.688126129182223"><ele>19.571428571428573</ele><time>2026-04-16T08:56:19.003Z</time></trkpt><trkpt lat="45.48757629392947" lon="11.688056392452955"><ele>19.285714285714285</ele><time>2026-04-16T08:56:20.003Z</time></trkpt><trkpt lat="45.48753421895895" lon="11.68798538055027"><ele>19.0</ele><time>2026-04-16T08:56:21.003Z</time></trkpt><trkpt lat="45.48749186580457" lon="11.687917560625857"><ele>19.0</ele><time>2026-04-16T08:56:22.003Z</time></trkpt><trkpt lat="45.487407987190835" lon="11.687778451784704"><ele>19.0</ele><time>2026-04-16T08:56:24.003Z</time></trkpt><trkpt lat="45.487359956451" lon="11.68770776463691"><ele>19.0</ele><time>2026-04-16T08:56:25.003Z</time></trkpt><trkpt lat="45.48731370862666" lon="11.68762510856063"><ele>19.0</ele><time>2026-04-16T08:56:26.003Z</time></trkpt><trkpt lat="45.48726301318953" lon="11.687546376701162"><ele>19.0</ele><time>2026-04-16T08:56:27.003Z</time></trkpt><trkpt lat="45.48720999968005" lon="11.687469899638884"><ele>19.0</ele><time>2026-04-16T08:56:28.003Z</time></trkpt><trkpt lat="45.4871635565757" lon="11.687397226711406"><ele>18.857142857142858</ele><time>2026-04-16T08:56:29.003Z</time></trkpt><trkpt lat="45.48711760393109" lon="11.687324982749574"><ele>18.714285714285715</ele><time>2026-04-16T08:56:30.003Z</time></trkpt><trkpt lat="45.487072360914" lon="11.68725550576392"><ele>18.571428571428573</ele><time>2026-04-16T08:56:31.003Z</time></trkpt><trkpt lat="45.487027378900336" lon="11.687177535574467"><ele>18.42857142857143</ele><time>2026-04-16T08:56:32.003Z</time></trkpt><trkpt lat="45.48697916339997" lon="11.687099656322179"><ele>18.285714285714285</ele><time>2026-04-16T08:56:33.003Z</time></trkpt><trkpt lat="45.48692849701531" lon="11.687031438555696"><ele>18.142857142857146</ele><time>2026-04-16T08:56:34.003Z</time></trkpt><trkpt lat="45.486885823906285" lon="11.686959788151256"><ele>18.0</ele><time>2026-04-16T08:56:35Z</time></trkpt><trkpt lat="45.48680379496852" lon="11.686829816609508"><ele>18.4</ele><time>2026-04-16T08:56:37Z</time></trkpt><trkpt lat="45.486728456229265" lon="11.686706981852595"><ele>18.8</ele><time>2026-04-16T08:56:39Z</time></trkpt><trkpt lat="45.486659489469304" lon="11.686591509224645"><ele>19.2</ele><time>2026-04-16T08:56:41Z</time></trkpt><trkpt lat="45.48658541935356" lon="11.686474020876657"><ele>19.6</ele><time>2026-04-16T08:56:43Z</time></trkpt><trkpt lat="45.48654387030711" lon="11.686406093350689"><ele>20.0</ele><time>2026-04-16T08:56:44Z</time></trkpt><trkpt lat="45.48649469906965" lon="11.686342435966276"><ele>20.0</ele><time>2026-04-16T08:56:45Z</time></trkpt><trkpt lat="45.48645083097581" lon="11.686277720742154"><ele>20.0</ele><time>2026-04-16T08:56:46Z</time></trkpt><trkpt lat="45.48641050650904" lon="11.68620633412952"><ele>20.0</ele><time>2026-04-16T08:56:47Z</time></trkpt><trkpt lat="45.486368894124595" lon="11.686131037539107"><ele>20.0</ele><time>2026-04-16T08:56:48Z</time></trkpt><trkpt lat="45.4862905349796" lon="11.686001735638001"><ele>20.0</ele><time>2026-04-16T08:56:50Z</time></trkpt><trkpt lat="45.48621928838591" lon="11.685875252562305"><ele>20.0</ele><time>2026-04-16T08:56:52Z</time></trkpt><trkpt lat="45.48613659599625" lon="11.68576232803102"><ele>20.4</ele><time>2026-04-16T08:56:54Z</time></trkpt><trkpt lat="45.48606626882313" lon="11.685654795617063"><ele>20.8</ele><time>2026-04-16T08:56:56Z</time></trkpt><trkpt lat="45.48600546441654" lon="11.685540402392835"><ele>21.200000000000003</ele><time>2026-04-16T08:56:58Z</time></trkpt><trkpt lat="45.48592417534033" lon="11.685467136037381"><ele>21.6</ele><time>2026-04-16T08:57:00Z</time></trkpt><trkpt lat="45.48586713991517" lon="11.68535293097426"><ele>22.0</ele><time>2026-04-16T08:57:02Z</time></trkpt><trkpt lat="45.48579517747565" lon="11.685243904581087"><ele>22.200000000000003</ele><time>2026-04-16T08:57:04.001Z</time></trkpt><trkpt lat="45.485727000584376" lon="11.685116318210497"><ele>22.4</ele><time>2026-04-16T08:57:06.001Z</time></trkpt><trkpt lat="45.485653087219326" lon="11.684984307888897"><ele>22.6</ele><time>2026-04-16T08:57:08.001Z</time></trkpt><trkpt lat="45.48556988267805" lon="11.68485665637997"><ele>22.799999999999997</ele><time>2026-04-16T08:57:10.001Z</time></trkpt><trkpt lat="45.485527225665585" lon="11.684777478222951"><ele>23.0</ele><time>2026-04-16T08:57:11.001Z</time></trkpt><trkpt lat="45.485438733236535" lon="11.684642710671817"><ele>22.799999999999997</ele><time>2026-04-16T08:57:13.001Z</time></trkpt><trkpt lat="45.48535788103451" lon="11.684510489794466"><ele>22.6</ele><time>2026-04-16T08:57:15.001Z</time></trkpt><trkpt lat="45.485268916334505" lon="11.684385696109446"><ele>22.4</ele><time>2026-04-16T08:57:17.001Z</time></trkpt><trkpt lat="45.48522513300967" lon="11.684320480134092"><ele>22.200000000000003</ele><time>2026-04-16T08:57:18.001Z</time></trkpt><trkpt lat="45.485136480105105" lon="11.684201658442992"><ele>22.0</ele><time>2026-04-16T08:57:20.001Z</time></trkpt><trkpt lat="45.48505068905888" lon="11.684072024820718"><ele>22.0</ele><time>2026-04-16T08:57:22.001Z</time></trkpt><trkpt lat="45.48500953306975" lon="11.683998190958379"><ele>22.0</ele><time>2026-04-16T08:57:23.001Z</time></trkpt><trkpt lat="45.48496429260829" lon="11.683927318062816"><ele>22.0</ele><time>2026-04-16T08:57:24.001Z</time></trkpt><trkpt lat="45.48491895225617" lon="11.683853734454885"><ele>22.0</ele><time>2026-04-16T08:57:25.001Z</time></trkpt><trkpt lat="45.48487351123621" lon="11.68378346730619"><ele>22.0</ele><time>2026-04-16T08:57:26.001Z</time></trkpt><trkpt lat="45.48483098667142" lon="11.683714528168164"><ele>22.0</ele><time>2026-04-16T08:57:27.001Z</time></trkpt><trkpt lat="45.48479104454795" lon="11.683637160538815"><ele>22.0</ele><time>2026-04-16T08:57:28.001Z</time></trkpt><trkpt lat="45.48474880996785" lon="11.683559396315706"><ele>21.833333333333332</ele><time>2026-04-16T08:57:29.001Z</time></trkpt><trkpt lat="45.48470162180822" lon="11.68349243282863"><ele>21.666666666666664</ele><time>2026-04-16T08:57:30.001Z</time></trkpt><trkpt lat="45.484652008627926" lon="11.683425512226433"><ele>21.5</ele><time>2026-04-16T08:57:31.001Z</time></trkpt><trkpt lat="45.484605028309836" lon="11.68335675500336"><ele>21.333333333333332</ele><time>2026-04-16T08:57:32.001Z</time></trkpt><trkpt lat="45.48456299021146" lon="11.683285694663379"><ele>21.166666666666668</ele><time>2026-04-16T08:57:33.001Z</time></trkpt><trkpt lat="45.48447809662203" lon="11.683148990099761"><ele>21.0</ele><time>2026-04-16T08:57:35.001Z</time></trkpt><trkpt lat="45.48438697782255" lon="11.683025085942576"><ele>20.833333333333332</ele><time>2026-04-16T08:57:37.001Z</time></trkpt><trkpt lat="45.484348094925465" lon="11.682953607701688"><ele>20.666666666666668</ele><time>2026-04-16T08:57:38.001Z</time></trkpt><trkpt lat="45.484305466504395" lon="11.682884484546063"><ele>20.5</ele><time>2026-04-16T08:57:39.001Z</time></trkpt><trkpt lat="45.484265891488434" lon="11.682812887406953"><ele>20.333333333333336</ele><time>2026-04-16T08:57:40.001Z</time></trkpt><trkpt lat="45.48418188446229" lon="11.682685999616846"><ele>20.166666666666668</ele><time>2026-04-16T08:57:42.001Z</time></trkpt><trkpt lat="45.48411408033257" lon="11.682567231600675"><ele>20.0</ele><time>2026-04-16T08:57:44.002Z</time></trkpt><trkpt lat="45.48404136286262" lon="11.682465350478969"><ele>20.0</ele><time>2026-04-16T08:57:46.002Z</time></trkpt><trkpt lat="45.48399471435696" lon="11.682390584148793"><ele>20.0</ele><time>2026-04-16T08:57:48.002Z</time></trkpt><trkpt lat="45.48394610008253" lon="11.68232390744598"><ele>20.0</ele><time>2026-04-16T08:57:51.002Z</time></trkpt><trkpt lat="45.483893958258584" lon="11.682226146169603"><ele>20.0</ele><time>2026-04-16T08:57:55.002Z</time></trkpt><trkpt lat="45.48385695674539" lon="11.682130573532575"><ele>20.0</ele><time>2026-04-16T08:57:58.002Z</time></trkpt><trkpt lat="45.483787058494684" lon="11.682064459577582"><ele>20.0</ele><time>2026-04-16T08:58:00.002Z</time></trkpt><trkpt lat="45.48372829055357" lon="11.68194929566746"><ele>20.5</ele><time>2026-04-16T08:58:02.002Z</time></trkpt><trkpt lat="45.48365195963457" lon="11.6818242599931"><ele>21.0</ele><time>2026-04-16T08:58:04.002Z</time></trkpt><trkpt lat="45.48356685447389" lon="11.681705743996893"><ele>21.5</ele><time>2026-04-16T08:58:06.002Z</time></trkpt><trkpt lat="45.4834882233969" lon="11.681567629407585"><ele>22.0</ele><time>2026-04-16T08:58:08.002Z</time></trkpt><trkpt lat="45.48341674409114" lon="11.681434519757651"><ele>22.0</ele><time>2026-04-16T08:58:10.002Z</time></trkpt><trkpt lat="45.48333446079019" lon="11.68130498033192"><ele>22.0</ele><time>2026-04-16T08:58:12.002Z</time></trkpt><trkpt lat="45.4832509714411" lon="11.68117195805145"><ele>22.0</ele><time>2026-04-16T08:58:14.002Z</time></trkpt><trkpt lat="45.483168122471305" lon="11.68103629543556"><ele>22.0</ele><time>2026-04-16T08:58:16.002Z</time></trkpt><trkpt lat="45.48308473164955" lon="11.6809129065636"><ele>22.0</ele><time>2026-04-16T08:58:18.002Z</time></trkpt><trkpt lat="45.4830002519995" lon="11.680787611572729"><ele>22.0</ele><time>2026-04-16T08:58:20.002Z</time></trkpt><trkpt lat="45.48291905660109" lon="11.680656607170146"><ele>22.0</ele><time>2026-04-16T08:58:22.003Z</time></trkpt><trkpt lat="45.482838633671506" lon="11.680518357492039"><ele>22.0</ele><time>2026-04-16T08:58:24.003Z</time></trkpt><trkpt lat="45.48275932456018" lon="11.68038951827221"><ele>21.833333333333332</ele><time>2026-04-16T08:58:26.003Z</time></trkpt><trkpt lat="45.48267046734252" lon="11.6802772573598"><ele>21.666666666666664</ele><time>2026-04-16T08:58:28.003Z</time></trkpt><trkpt lat="45.48258938499776" lon="11.6801344677604"><ele>21.5</ele><time>2026-04-16T08:58:30.003Z</time></trkpt><trkpt lat="45.48255864115416" lon="11.68005379164531"><ele>21.333333333333332</ele><time>2026-04-16T08:58:31.003Z</time></trkpt><trkpt lat="45.48251610359306" lon="11.679979343472173"><ele>21.166666666666668</ele><time>2026-04-16T08:58:32.003Z</time></trkpt><trkpt lat="45.48246901136102" lon="11.679906918324933"><ele>21.0</ele><time>2026-04-16T08:58:33.003Z</time></trkpt><trkpt lat="45.48241865150249" lon="11.679835664844225"><ele>21.0</ele><time>2026-04-16T08:58:34.003Z</time></trkpt><trkpt lat="45.48236710846255" lon="11.679763481885658"><ele>21.0</ele><time>2026-04-16T08:58:35.003Z</time></trkpt><trkpt lat="45.4823207640528" lon="11.67968241363001"><ele>21.0</ele><time>2026-04-16T08:58:36.003Z</time></trkpt><trkpt lat="45.48227933129158" lon="11.679598790896437"><ele>21.0</ele><time>2026-04-16T08:58:37.003Z</time></trkpt><trkpt lat="45.482225948140886" lon="11.67952547745169"><ele>21.0</ele><time>2026-04-16T08:58:38.003Z</time></trkpt><trkpt lat="45.48217776169351" lon="11.67945282602247"><ele>21.0</ele><time>2026-04-16T08:58:39.003Z</time></trkpt><trkpt lat="45.482123413571045" lon="11.679381609465391"><ele>21.0</ele><time>2026-04-16T08:58:40.003Z</time></trkpt><trkpt lat="45.48207353023515" lon="11.679300506654666"><ele>21.0</ele><time>2026-04-16T08:58:41Z</time></trkpt><trkpt lat="45.482023230296946" lon="11.679225063167705"><ele>21.0</ele><time>2026-04-16T08:58:42Z</time></trkpt><trkpt lat="45.48197443563772" lon="11.679149347627304"><ele>21.0</ele><time>2026-04-16T08:58:43Z</time></trkpt><trkpt lat="45.48192733426319" lon="11.679065632287292"><ele>21.0</ele><time>2026-04-16T08:58:44Z</time></trkpt><trkpt lat="45.481883394080434" lon="11.678989705935427"><ele>21.0</ele><time>2026-04-16T08:58:45Z</time></trkpt><trkpt lat="45.48183431826274" lon="11.678908814330946"><ele>21.0</ele><time>2026-04-16T08:58:46Z</time></trkpt><trkpt lat="45.48178761983529" lon="11.678841495611245"><ele>21.0</ele><time>2026-04-16T08:58:47Z</time></trkpt><trkpt lat="45.48174067905752" lon="11.678772084284086"><ele>21.0</ele><time>2026-04-16T08:58:48Z</time></trkpt><trkpt lat="45.48169461202111" lon="11.67869891838329"><ele>21.0</ele><time>2026-04-16T08:58:49Z</time></trkpt><trkpt lat="45.481653752603904" lon="11.678628172380465"><ele>21.0</ele><time>2026-04-16T08:58:50Z</time></trkpt><trkpt lat="45.48161058160098" lon="11.678560983309476"><ele>21.0</ele><time>2026-04-16T08:58:51Z</time></trkpt><trkpt lat="45.48155903079593" lon="11.678497783282108"><ele>21.0</ele><time>2026-04-16T08:58:52Z</time></trkpt><trkpt lat="45.48151227052163" lon="11.678426105357147"><ele>21.0</ele><time>2026-04-16T08:58:53Z</time></trkpt><trkpt lat="45.48147122372947" lon="11.678343624146237"><ele>21.0</ele><time>2026-04-16T08:58:54Z</time></trkpt><trkpt lat="45.48142915911981" lon="11.678261042835462"><ele>21.0</ele><time>2026-04-16T08:58:55Z</time></trkpt><trkpt lat="45.48137345344427" lon="11.678183784817756"><ele>21.0</ele><time>2026-04-16T08:58:56Z</time></trkpt><trkpt lat="45.48132384947024" lon="11.67811450455553"><ele>21.0</ele><time>2026-04-16T08:58:57Z</time></trkpt><trkpt lat="45.48127452942508" lon="11.678045717532735"><ele>21.0</ele><time>2026-04-16T08:58:58Z</time></trkpt><trkpt lat="45.48119606672858" lon="11.677909482846932"><ele>21.0</ele><time>2026-04-16T08:59:00Z</time></trkpt><trkpt lat="45.48111586064331" lon="11.677789904027044"><ele>20.8</ele><time>2026-04-16T08:59:02Z</time></trkpt><trkpt lat="45.48103771058541" lon="11.677676024580993"><ele>20.6</ele><time>2026-04-16T08:59:04Z</time></trkpt><trkpt lat="45.480977349140936" lon="11.677553790951734"><ele>20.4</ele><time>2026-04-16T08:59:06Z</time></trkpt><trkpt lat="45.48090479548581" lon="11.677457487090713"><ele>20.2</ele><time>2026-04-16T08:59:08Z</time></trkpt><trkpt lat="45.480847318299396" lon="11.677350793094085"><ele>20.0</ele><time>2026-04-16T08:59:10Z</time></trkpt><trkpt lat="45.48078671646536" lon="11.67725995385484"><ele>20.0</ele><time>2026-04-16T08:59:12Z</time></trkpt><trkpt lat="45.48073089116694" lon="11.677175768759518"><ele>20.0</ele><time>2026-04-16T08:59:14Z</time></trkpt><trkpt lat="45.48067352921335" lon="11.677093322056013"><ele>20.0</ele><time>2026-04-16T08:59:16.001Z</time></trkpt><trkpt lat="45.48062230146363" lon="11.67701140927829"><ele>20.0</ele><time>2026-04-16T08:59:18.001Z</time></trkpt><trkpt lat="45.480569535778294" lon="11.676933074279768"><ele>20.0</ele><time>2026-04-16T08:59:20.001Z</time></trkpt><trkpt lat="45.48051937240713" lon="11.676856545561701"><ele>20.0</ele><time>2026-04-16T08:59:22.001Z</time></trkpt><trkpt lat="45.480470573189685" lon="11.676783589883895"><ele>19.833333333333336</ele><time>2026-04-16T08:59:24.001Z</time></trkpt><trkpt lat="45.480420989655556" lon="11.676716262722445"><ele>19.666666666666668</ele><time>2026-04-16T08:59:26.001Z</time></trkpt><trkpt lat="45.48037859757018" lon="11.676628219227025"><ele>19.5</ele><time>2026-04-16T08:59:28.001Z</time></trkpt><trkpt lat="45.480321023811236" lon="11.67654426146492"><ele>19.333333333333332</ele><time>2026-04-16T08:59:30.001Z</time></trkpt><trkpt lat="45.48026079103332" lon="11.676454093507152"><ele>19.166666666666664</ele><time>2026-04-16T08:59:32.001Z</time></trkpt><trkpt lat="45.48019377530075" lon="11.676338155019348"><ele>19.0</ele><time>2026-04-16T08:59:34.001Z</time></trkpt><trkpt lat="45.48012211990834" lon="11.676226382004383"><ele>19.0</ele><time>2026-04-16T08:59:36.001Z</time></trkpt><trkpt lat="45.480052282105206" lon="11.676103785075497"><ele>19.0</ele><time>2026-04-16T08:59:38.001Z</time></trkpt><trkpt lat="45.47997020960951" lon="11.675985315551621"><ele>19.0</ele><time>2026-04-16T08:59:40.001Z</time></trkpt><trkpt lat="45.479886091388565" lon="11.675857730878182"><ele>19.0</ele><time>2026-04-16T08:59:42.001Z</time></trkpt><trkpt lat="45.4798061970045" lon="11.675724537421464"><ele>19.0</ele><time>2026-04-16T08:59:44.001Z</time></trkpt><trkpt lat="45.47976516777928" lon="11.675654379409613"><ele>19.0</ele><time>2026-04-16T08:59:45.001Z</time></trkpt><trkpt lat="45.47972274125609" lon="11.675587524846536"><ele>19.0</ele><time>2026-04-16T08:59:46.001Z</time></trkpt><trkpt lat="45.479639578491486" lon="11.675452915411205"><ele>19.0</ele><time>2026-04-16T08:59:48.001Z</time></trkpt><trkpt lat="45.47959841295269" lon="11.67538463491338"><ele>19.0</ele><time>2026-04-16T08:59:49.001Z</time></trkpt><trkpt lat="45.47955462060878" lon="11.67531793199107"><ele>19.0</ele><time>2026-04-16T08:59:50.001Z</time></trkpt><trkpt lat="45.47946923971941" lon="11.675194538124144"><ele>19.4</ele><time>2026-04-16T08:59:52.001Z</time></trkpt><trkpt lat="45.47938801634166" lon="11.675086397210839"><ele>19.799999999999997</ele><time>2026-04-16T08:59:54.001Z</time></trkpt><trkpt lat="45.47932800507268" lon="11.674961998600567"><ele>20.200000000000003</ele><time>2026-04-16T08:59:56.001Z</time></trkpt><trkpt lat="45.47927054548807" lon="11.674843138371738"><ele>20.6</ele><time>2026-04-16T08:59:58.002Z</time></trkpt><trkpt lat="45.47919996207396" lon="11.67475695038828"><ele>21.0</ele><time>2026-04-16T09:00:00.002Z</time></trkpt><trkpt lat="45.47911186259543" lon="11.67463475417945"><ele>21.0</ele><time>2026-04-16T09:00:02.002Z</time></trkpt><trkpt lat="45.47903354529014" lon="11.674491882207484"><ele>21.0</ele><time>2026-04-16T09:00:04.002Z</time></trkpt><trkpt lat="45.47894816882477" lon="11.674361406887316"><ele>21.0</ele><time>2026-04-16T09:00:06.002Z</time></trkpt><trkpt lat="45.47886420999182" lon="11.674234219077684"><ele>21.0</ele><time>2026-04-16T09:00:08.002Z</time></trkpt><trkpt lat="45.4787828654167" lon="11.674098862098328"><ele>21.0</ele><time>2026-04-16T09:00:10.002Z</time></trkpt><trkpt lat="45.478737533718146" lon="11.674026908385352"><ele>21.0</ele><time>2026-04-16T09:00:11.002Z</time></trkpt><trkpt lat="45.47868845104392" lon="11.673954367461372"><ele>21.0</ele><time>2026-04-16T09:00:12.002Z</time></trkpt><trkpt lat="45.47864049612978" lon="11.67388034508659"><ele>21.0</ele><time>2026-04-16T09:00:13.002Z</time></trkpt><trkpt lat="45.47859249500046" lon="11.673809246305916"><ele>21.0</ele><time>2026-04-16T09:00:14.002Z</time></trkpt><trkpt lat="45.47854537393238" lon="11.673733667418011"><ele>21.0</ele><time>2026-04-16T09:00:15.002Z</time></trkpt><trkpt lat="45.478496673148385" lon="11.673660939202943"><ele>21.0</ele><time>2026-04-16T09:00:16.002Z</time></trkpt><trkpt lat="45.47845047140632" lon="11.6735855247063"><ele>21.0</ele><time>2026-04-16T09:00:17.002Z</time></trkpt><trkpt lat="45.47840392313373" lon="11.673504626396204"><ele>21.0</ele><time>2026-04-16T09:00:18.002Z</time></trkpt><trkpt lat="45.47835467876561" lon="11.673436323319157"><ele>21.0</ele><time>2026-04-16T09:00:19.002Z</time></trkpt><trkpt lat="45.47830607408762" lon="11.673358625817096"><ele>21.0</ele><time>2026-04-16T09:00:20.002Z</time></trkpt><trkpt lat="45.4782651336385" lon="11.673280924407903"><ele>21.0</ele><time>2026-04-16T09:00:21.002Z</time></trkpt><trkpt lat="45.47821544188596" lon="11.673208418527928"><ele>21.0</ele><time>2026-04-16T09:00:22.002Z</time></trkpt><trkpt lat="45.47817237441422" lon="11.673133022429653"><ele>21.0</ele><time>2026-04-16T09:00:23.002Z</time></trkpt><trkpt lat="45.478131235337756" lon="11.673054126632723"><ele>21.0</ele><time>2026-04-16T09:00:24.002Z</time></trkpt><trkpt lat="45.478080379878804" lon="11.672987726565337"><ele>21.0</ele><time>2026-04-16T09:00:25.002Z</time></trkpt><trkpt lat="45.478032255851765" lon="11.672916344508385"><ele>21.0</ele><time>2026-04-16T09:00:26.002Z</time></trkpt><trkpt lat="45.47799074141276" lon="11.67283864493258"><ele>21.0</ele><time>2026-04-16T09:00:27.002Z</time></trkpt><trkpt lat="45.47794777890754" lon="11.6727590437622"><ele>21.0</ele><time>2026-04-16T09:00:28.002Z</time></trkpt><trkpt lat="45.477897080869326" lon="11.672693982741874"><ele>21.0</ele><time>2026-04-16T09:00:29.002Z</time></trkpt><trkpt lat="45.47785274606277" lon="11.672615274962805"><ele>21.0</ele><time>2026-04-16T09:00:30.002Z</time></trkpt><trkpt lat="45.477807957478866" lon="11.672537588792387"><ele>21.166666666666668</ele><time>2026-04-16T09:00:31.002Z</time></trkpt><trkpt lat="45.47776135910831" lon="11.672465861189828"><ele>21.333333333333332</ele><time>2026-04-16T09:00:32.002Z</time></trkpt><trkpt lat="45.47771386408784" lon="11.672392928020683"><ele>21.5</ele><time>2026-04-16T09:00:33.002Z</time></trkpt><trkpt lat="45.477667694708664" lon="11.672320965742527"><ele>21.666666666666664</ele><time>2026-04-16T09:00:34.002Z</time></trkpt><trkpt lat="45.47761825671095" lon="11.67225459965202"><ele>21.833333333333332</ele><time>2026-04-16T09:00:35.002Z</time></trkpt><trkpt lat="45.47757239587962" lon="11.672185027737775"><ele>22.0</ele><time>2026-04-16T09:00:36.003Z</time></trkpt><trkpt lat="45.477491764931194" lon="11.672052525580103"><ele>21.75</ele><time>2026-04-16T09:00:38.003Z</time></trkpt><trkpt lat="45.477419212160754" lon="11.671926573755785"><ele>21.5</ele><time>2026-04-16T09:00:40.003Z</time></trkpt><trkpt lat="45.47734137482708" lon="11.671807982215496"><ele>21.25</ele><time>2026-04-16T09:00:42.003Z</time></trkpt><trkpt lat="45.47727365398681" lon="11.671687723689873"><ele>21.0</ele><time>2026-04-16T09:00:44.003Z</time></trkpt><trkpt lat="45.47719280733001" lon="11.671562382723534"><ele>21.0</ele><time>2026-04-16T09:00:46.003Z</time></trkpt><trkpt lat="45.47712264957616" lon="11.671454247062691"><ele>21.0</ele><time>2026-04-16T09:00:48Z</time></trkpt><trkpt lat="45.477053512477895" lon="11.67134246067865"><ele>21.0</ele><time>2026-04-16T09:00:50Z</time></trkpt><trkpt lat="45.476987361889094" lon="11.67125088769016"><ele>21.0</ele><time>2026-04-16T09:00:52Z</time></trkpt><trkpt lat="45.47694294039872" lon="11.671173188350531"><ele>21.0</ele><time>2026-04-16T09:00:54Z</time></trkpt><trkpt lat="45.476903204513704" lon="11.671083141555709"><ele>21.0</ele><time>2026-04-16T09:00:58Z</time></trkpt><trkpt lat="45.476868008268475" lon="11.671004958639383"><ele>21.333333333333332</ele><time>2026-04-16T09:01:02Z</time></trkpt><trkpt lat="45.47680783296881" lon="11.670976593775523"><ele>21.666666666666668</ele><time>2026-04-16T09:01:34.001Z</time></trkpt><trkpt lat="45.47674069152576" lon="11.670878627702999"><ele>22.0</ele><time>2026-04-16T09:01:38.001Z</time></trkpt><trkpt lat="45.47669536960276" lon="11.670801402793355"><ele>22.333333333333336</ele><time>2026-04-16T09:01:40.001Z</time></trkpt><trkpt lat="45.47663935254623" lon="11.67070883764873"><ele>22.666666666666668</ele><time>2026-04-16T09:01:42.001Z</time></trkpt><trkpt lat="45.4765791498529" lon="11.67058693771335"><ele>23.0</ele><time>2026-04-16T09:01:44.001Z</time></trkpt><trkpt lat="45.476502949929994" lon="11.67046847748654"><ele>23.0</ele><time>2026-04-16T09:01:46.001Z</time></trkpt><trkpt lat="45.476424356160244" lon="11.670336602134423"><ele>23.0</ele><time>2026-04-16T09:01:48.001Z</time></trkpt><trkpt lat="45.47633994873671" lon="11.670203038049554"><ele>23.0</ele><time>2026-04-16T09:01:50.001Z</time></trkpt><trkpt lat="45.47629406898146" lon="11.67013969391328"><ele>23.0</ele><time>2026-04-16T09:01:51.001Z</time></trkpt><trkpt lat="45.476208991801954" lon="11.670012726535209"><ele>23.0</ele><time>2026-04-16T09:01:53.001Z</time></trkpt><trkpt lat="45.47613152404212" lon="11.669881666739945"><ele>22.5</ele><time>2026-04-16T09:01:55.001Z</time></trkpt><trkpt lat="45.47605220075364" lon="11.669752271686535"><ele>22.0</ele><time>2026-04-16T09:01:57.001Z</time></trkpt><trkpt lat="45.475981351084464" lon="11.66962752450215"><ele>21.5</ele><time>2026-04-16T09:01:59.002Z</time></trkpt><trkpt lat="45.47593763464176" lon="11.669559430297992"><ele>21.0</ele><time>2026-04-16T09:02:00.002Z</time></trkpt><trkpt lat="45.47589250272084" lon="11.669489229049987"><ele>20.5</ele><time>2026-04-16T09:02:01.002Z</time></trkpt><trkpt lat="45.47584857564894" lon="11.66941557780998"><ele>20.0</ele><time>2026-04-16T09:02:02.002Z</time></trkpt><trkpt lat="45.47579949402394" lon="11.669345485151448"><ele>20.0</ele><time>2026-04-16T09:02:03.002Z</time></trkpt><trkpt lat="45.47575778495744" lon="11.669277452348778"><ele>20.0</ele><time>2026-04-16T09:02:04.002Z</time></trkpt><trkpt lat="45.475714735734506" lon="11.669200783434773"><ele>20.0</ele><time>2026-04-16T09:02:05.002Z</time></trkpt><trkpt lat="45.47566705433434" lon="11.669128191115746"><ele>20.0</ele><time>2026-04-16T09:02:06.002Z</time></trkpt><trkpt lat="45.47561730496593" lon="11.669059661456359"><ele>20.0</ele><time>2026-04-16T09:02:07.002Z</time></trkpt><trkpt lat="45.47556926000409" lon="11.668989977797372"><ele>20.0</ele><time>2026-04-16T09:02:08.002Z</time></trkpt><trkpt lat="45.475524280273206" lon="11.668918815630738"><ele>20.0</ele><time>2026-04-16T09:02:09.002Z</time></trkpt><trkpt lat="45.47548308928572" lon="11.668845790588414"><ele>20.0</ele><time>2026-04-16T09:02:10.002Z</time></trkpt><trkpt lat="45.47544072763243" lon="11.668779200435505"><ele>20.0</ele><time>2026-04-16T09:02:11.002Z</time></trkpt><trkpt lat="45.475398266104655" lon="11.668711919278179"><ele>20.0</ele><time>2026-04-16T09:02:12.002Z</time></trkpt><trkpt lat="45.4753103480398" lon="11.668603475238992"><ele>20.0</ele><time>2026-04-16T09:02:14.002Z</time></trkpt><trkpt lat="45.47524376749272" lon="11.668488930520118"><ele>20.0</ele><time>2026-04-16T09:02:16.002Z</time></trkpt><trkpt lat="45.47518179687272" lon="11.668400380640918"><ele>20.0</ele><time>2026-04-16T09:02:18.002Z</time></trkpt><trkpt lat="45.4751470944199" lon="11.668315844945417"><ele>20.6</ele><time>2026-04-16T09:02:22.002Z</time></trkpt><trkpt lat="45.47508994737975" lon="11.668248496907351"><ele>21.2</ele><time>2026-04-16T09:02:31.002Z</time></trkpt><trkpt lat="45.47503905618942" lon="11.668166862016607"><ele>21.799999999999997</ele><time>2026-04-16T09:02:33.002Z</time></trkpt><trkpt lat="45.47497064960478" lon="11.668065247469787"><ele>22.4</ele><time>2026-04-16T09:02:35.003Z</time></trkpt><trkpt lat="45.474913418457746" lon="11.667932786982002"><ele>23.0</ele><time>2026-04-16T09:02:37.003Z</time></trkpt><trkpt lat="45.474833225084595" lon="11.667817601188174"><ele>23.0</ele><time>2026-04-16T09:02:39.003Z</time></trkpt><trkpt lat="45.47475950961245" lon="11.667695884254927"><ele>23.0</ele><time>2026-04-16T09:02:41.003Z</time></trkpt><trkpt lat="45.474678629723435" lon="11.66757763807093"><ele>23.0</ele><time>2026-04-16T09:02:43.003Z</time></trkpt><trkpt lat="45.47460566793195" lon="11.667445886377907"><ele>23.0</ele><time>2026-04-16T09:02:45.003Z</time></trkpt><trkpt lat="45.474521663306454" lon="11.667318584953893"><ele>23.0</ele><time>2026-04-16T09:02:47.003Z</time></trkpt><trkpt lat="45.474439652303325" lon="11.667193872966493"><ele>23.0</ele><time>2026-04-16T09:02:49.003Z</time></trkpt><trkpt lat="45.474398426503335" lon="11.667121256359279"><ele>23.0</ele><time>2026-04-16T09:02:50.003Z</time></trkpt><trkpt lat="45.47435289498455" lon="11.667054864192485"><ele>23.0</ele><time>2026-04-16T09:02:51.003Z</time></trkpt><trkpt lat="45.47430691451805" lon="11.66698909935136"><ele>23.0</ele><time>2026-04-16T09:02:52.003Z</time></trkpt><trkpt lat="45.47426112229833" lon="11.66691713616194"><ele>23.0</ele><time>2026-04-16T09:02:53Z</time></trkpt><trkpt lat="45.47421904015513" lon="11.666838842368067"><ele>23.0</ele><time>2026-04-16T09:02:54Z</time></trkpt><trkpt lat="45.47417222457826" lon="11.666764289148864"><ele>23.0</ele><time>2026-04-16T09:02:55Z</time></trkpt><trkpt lat="45.4741226271384" lon="11.666693279481342"><ele>23.0</ele><time>2026-04-16T09:02:56Z</time></trkpt><trkpt lat="45.474077180680425" lon="11.666616964832462"><ele>23.0</ele><time>2026-04-16T09:02:57Z</time></trkpt><trkpt lat="45.4740348199407" lon="11.666534571542083"><ele>23.0</ele><time>2026-04-16T09:02:58Z</time></trkpt><trkpt lat="45.473987038565106" lon="11.666461375587502"><ele>23.0</ele><time>2026-04-16T09:02:59Z</time></trkpt><trkpt lat="45.47393506566191" lon="11.666388457276906"><ele>23.0</ele><time>2026-04-16T09:03:00Z</time></trkpt><trkpt lat="45.473885449679074" lon="11.666311740861536"><ele>23.0</ele><time>2026-04-16T09:03:01Z</time></trkpt><trkpt lat="45.473837338474254" lon="11.666237427240707"><ele>23.0</ele><time>2026-04-16T09:03:02Z</time></trkpt><trkpt lat="45.473789187263336" lon="11.666160430290983"><ele>23.0</ele><time>2026-04-16T09:03:03Z</time></trkpt><trkpt lat="45.47374012762516" lon="11.66608487953398"><ele>23.0</ele><time>2026-04-16T09:03:04Z</time></trkpt><trkpt lat="45.47369439890631" lon="11.666008352356913"><ele>23.0</ele><time>2026-04-16T09:03:05Z</time></trkpt><trkpt lat="45.47364182265841" lon="11.665935767981077"><ele>23.0</ele><time>2026-04-16T09:03:06Z</time></trkpt><trkpt lat="45.473594599687125" lon="11.665854576250057"><ele>23.0</ele><time>2026-04-16T09:03:07Z</time></trkpt><trkpt lat="45.47354869134074" lon="11.6657731223661"><ele>23.0</ele><time>2026-04-16T09:03:08Z</time></trkpt><trkpt lat="45.47349745607678" lon="11.6656971824487"><ele>23.0</ele><time>2026-04-16T09:03:09Z</time></trkpt><trkpt lat="45.47344809304402" lon="11.665624740715835"><ele>23.0</ele><time>2026-04-16T09:03:10Z</time></trkpt><trkpt lat="45.47339991818605" lon="11.66554952302419"><ele>23.0</ele><time>2026-04-16T09:03:11Z</time></trkpt><trkpt lat="45.47335095848809" lon="11.665470841404352"><ele>23.0</ele><time>2026-04-16T09:03:12Z</time></trkpt><trkpt lat="45.47330386223975" lon="11.665391487713283"><ele>23.0</ele><time>2026-04-16T09:03:13Z</time></trkpt><trkpt lat="45.473257051846694" lon="11.66531486670979"><ele>23.0</ele><time>2026-04-16T09:03:14Z</time></trkpt><trkpt lat="45.47320810896291" lon="11.665234678065138"><ele>23.0</ele><time>2026-04-16T09:03:15Z</time></trkpt><trkpt lat="45.47316035429372" lon="11.665155757418095"><ele>23.0</ele><time>2026-04-16T09:03:16Z</time></trkpt><trkpt lat="45.47311139262398" lon="11.665077503894572"><ele>23.0</ele><time>2026-04-16T09:03:17Z</time></trkpt><trkpt lat="45.47306200633098" lon="11.665002074670229"><ele>23.0</ele><time>2026-04-16T09:03:18Z</time></trkpt><trkpt lat="45.47301383901762" lon="11.66492845525182"><ele>23.0</ele><time>2026-04-16T09:03:19Z</time></trkpt><trkpt lat="45.47296724764568" lon="11.664856069522786"><ele>23.0</ele><time>2026-04-16T09:03:20Z</time></trkpt><trkpt lat="45.47292361628452" lon="11.664773300760373"><ele>23.0</ele><time>2026-04-16T09:03:21Z</time></trkpt><trkpt lat="45.47287597019538" lon="11.664698396375695"><ele>23.0</ele><time>2026-04-16T09:03:22Z</time></trkpt><trkpt lat="45.47282846855484" lon="11.664625292111173"><ele>23.0</ele><time>2026-04-16T09:03:23Z</time></trkpt><trkpt lat="45.47277995052326" lon="11.664552956465839"><ele>23.0</ele><time>2026-04-16T09:03:24.001Z</time></trkpt><trkpt lat="45.47273192407083" lon="11.66447543449536"><ele>23.0</ele><time>2026-04-16T09:03:25.001Z</time></trkpt><trkpt lat="45.472686547469934" lon="11.664401580527013"><ele>23.0</ele><time>2026-04-16T09:03:26.001Z</time></trkpt><trkpt lat="45.47263788687687" lon="11.664327028147651"><ele>23.0</ele><time>2026-04-16T09:03:27.001Z</time></trkpt><trkpt lat="45.47259379860567" lon="11.66425299109708"><ele>23.0</ele><time>2026-04-16T09:03:28.001Z</time></trkpt><trkpt lat="45.47254351087746" lon="11.664173663926588"><ele>23.142857142857142</ele><time>2026-04-16T09:03:29.001Z</time></trkpt><trkpt lat="45.472496734055134" lon="11.664098799516008"><ele>23.285714285714285</ele><time>2026-04-16T09:03:30.001Z</time></trkpt><trkpt lat="45.472444414691765" lon="11.664027655820178"><ele>23.428571428571427</ele><time>2026-04-16T09:03:31.001Z</time></trkpt><trkpt lat="45.47239678138018" lon="11.663959116477672"><ele>23.57142857142857</ele><time>2026-04-16T09:03:32.001Z</time></trkpt><trkpt lat="45.47235147772713" lon="11.66388335551978"><ele>23.714285714285715</ele><time>2026-04-16T09:03:33.001Z</time></trkpt><trkpt lat="45.472307769446275" lon="11.663808647435333"><ele>23.857142857142854</ele><time>2026-04-16T09:03:34.001Z</time></trkpt><trkpt lat="45.472261752681284" lon="11.66373439261599"><ele>24.0</ele><time>2026-04-16T09:03:35.001Z</time></trkpt><trkpt lat="45.47221459089317" lon="11.663660684549598"><ele>23.999999999999996</ele><time>2026-04-16T09:03:36.001Z</time></trkpt><trkpt lat="45.472167629336155" lon="11.663585159550651"><ele>24.0</ele><time>2026-04-16T09:03:37.001Z</time></trkpt><trkpt lat="45.472123200370284" lon="11.663514078850984"><ele>24.0</ele><time>2026-04-16T09:03:38.001Z</time></trkpt><trkpt lat="45.47207922271391" lon="11.663443860301038"><ele>24.0</ele><time>2026-04-16T09:03:39.001Z</time></trkpt><trkpt lat="45.472036547287985" lon="11.663374448665104"><ele>24.0</ele><time>2026-04-16T09:03:40.001Z</time></trkpt><trkpt lat="45.471990799950014" lon="11.663303249900265"><ele>23.999999999999996</ele><time>2026-04-16T09:03:41.001Z</time></trkpt><trkpt lat="45.47194809851277" lon="11.663236592828477"><ele>24.0</ele><time>2026-04-16T09:03:42.001Z</time></trkpt><trkpt lat="45.471901475895535" lon="11.663163824691665"><ele>23.999999999999996</ele><time>2026-04-16T09:03:43.001Z</time></trkpt><trkpt lat="45.47185398529395" lon="11.663090563849183"><ele>24.0</ele><time>2026-04-16T09:03:44.001Z</time></trkpt><trkpt lat="45.47180704287759" lon="11.663017106654914"><ele>24.0</ele><time>2026-04-16T09:03:45.001Z</time></trkpt><trkpt lat="45.4717618716029" lon="11.662942135705427"><ele>24.0</ele><time>2026-04-16T09:03:46.001Z</time></trkpt><trkpt lat="45.47171410750252" lon="11.662866672976417"><ele>24.0</ele><time>2026-04-16T09:03:47.001Z</time></trkpt><trkpt lat="45.471665407745114" lon="11.662794557727702"><ele>23.999999999999996</ele><time>2026-04-16T09:03:48.001Z</time></trkpt><trkpt lat="45.471616267404556" lon="11.66271974209228"><ele>24.0</ele><time>2026-04-16T09:03:49.001Z</time></trkpt><trkpt lat="45.47157015825003" lon="11.662640837519458"><ele>23.999999999999996</ele><time>2026-04-16T09:03:50.001Z</time></trkpt><trkpt lat="45.471520782504136" lon="11.662564120835949"><ele>24.0</ele><time>2026-04-16T09:03:51.001Z</time></trkpt><trkpt lat="45.47146987896845" lon="11.662492553726892"><ele>24.0</ele><time>2026-04-16T09:03:52.001Z</time></trkpt><trkpt lat="45.47142496302745" lon="11.662410523561398"><ele>24.0</ele><time>2026-04-16T09:03:53.001Z</time></trkpt><trkpt lat="45.47137657647671" lon="11.662327426184607"><ele>24.0</ele><time>2026-04-16T09:03:54.001Z</time></trkpt><trkpt lat="45.47132457981683" lon="11.66225774336268"><ele>23.999999999999996</ele><time>2026-04-16T09:03:55.001Z</time></trkpt><trkpt lat="45.471280213416854" lon="11.662187519725972"><ele>24.0</ele><time>2026-04-16T09:03:56.001Z</time></trkpt><trkpt lat="45.47123777145863" lon="11.662113744401722"><ele>23.999999999999996</ele><time>2026-04-16T09:03:57.001Z</time></trkpt><trkpt lat="45.47119500619718" lon="11.662037895537198"><ele>24.0</ele><time>2026-04-16T09:03:58.001Z</time></trkpt><trkpt lat="45.471143684294674" lon="11.6619663939505"><ele>24.0</ele><time>2026-04-16T09:03:59.001Z</time></trkpt><trkpt lat="45.47109417503741" lon="11.661891831757389"><ele>24.0</ele><time>2026-04-16T09:04:00.001Z</time></trkpt><trkpt lat="45.471048427291244" lon="11.661808357100268"><ele>24.0</ele><time>2026-04-16T09:04:01.001Z</time></trkpt><trkpt lat="45.471001740163274" lon="11.661728708503073"><ele>23.999999999999996</ele><time>2026-04-16T09:04:02.001Z</time></trkpt><trkpt lat="45.47094757322342" lon="11.661659864121551"><ele>24.0</ele><time>2026-04-16T09:04:03.002Z</time></trkpt><trkpt lat="45.47089820564419" lon="11.661583815754483"><ele>23.999999999999996</ele><time>2026-04-16T09:04:04.002Z</time></trkpt><trkpt lat="45.470849297363436" lon="11.661505136342715"><ele>24.0</ele><time>2026-04-16T09:04:05.002Z</time></trkpt><trkpt lat="45.470801462898415" lon="11.661427987611951"><ele>24.0</ele><time>2026-04-16T09:04:06.002Z</time></trkpt><trkpt lat="45.4707539499485" lon="11.661347214784392"><ele>24.0</ele><time>2026-04-16T09:04:07.002Z</time></trkpt><trkpt lat="45.47070631590712" lon="11.661270526770998"><ele>24.0</ele><time>2026-04-16T09:04:08.002Z</time></trkpt><trkpt lat="45.47066117456229" lon="11.66119810902526"><ele>23.999999999999996</ele><time>2026-04-16T09:04:09.002Z</time></trkpt><trkpt lat="45.47061360127448" lon="11.661124931382494"><ele>24.0</ele><time>2026-04-16T09:04:10.002Z</time></trkpt><trkpt lat="45.47056698683808" lon="11.661053104854213"><ele>24.0</ele><time>2026-04-16T09:04:11.002Z</time></trkpt><trkpt lat="45.4705192366663" lon="11.660985185765604"><ele>24.0</ele><time>2026-04-16T09:04:12.002Z</time></trkpt><trkpt lat="45.470483592039706" lon="11.660910481473097"><ele>24.0</ele><time>2026-04-16T09:04:13.002Z</time></trkpt><trkpt lat="45.47043254059351" lon="11.660857849655283"><ele>24.0</ele><time>2026-04-16T09:04:14.002Z</time></trkpt><trkpt lat="45.470358310627304" lon="11.660713412286446"><ele>24.0</ele><time>2026-04-16T09:04:16.002Z</time></trkpt><trkpt lat="45.47031460053741" lon="11.660643516065488"><ele>24.0</ele><time>2026-04-16T09:04:17.002Z</time></trkpt><trkpt lat="45.47025625951812" lon="11.660586515070843"><ele>23.999999999999996</ele><time>2026-04-16T09:04:18.002Z</time></trkpt><trkpt lat="45.47020905377081" lon="11.660504885947113"><ele>24.0</ele><time>2026-04-16T09:04:19.002Z</time></trkpt><trkpt lat="45.47016640857135" lon="11.660429363757553"><ele>24.0</ele><time>2026-04-16T09:04:20.002Z</time></trkpt><trkpt lat="45.47012019078099" lon="11.660351061569514"><ele>24.0</ele><time>2026-04-16T09:04:21.002Z</time></trkpt><trkpt lat="45.47006968049989" lon="11.660275406286457"><ele>24.0</ele><time>2026-04-16T09:04:22.002Z</time></trkpt><trkpt lat="45.47002011205267" lon="11.6602047429298"><ele>23.999999999999996</ele><time>2026-04-16T09:04:23.002Z</time></trkpt><trkpt lat="45.469974213987086" lon="11.660127225593879"><ele>24.0</ele><time>2026-04-16T09:04:24.002Z</time></trkpt><trkpt lat="45.46992998477164" lon="11.660050205028966"><ele>23.999999999999996</ele><time>2026-04-16T09:04:25.002Z</time></trkpt><trkpt lat="45.46988360610183" lon="11.65997336697015"><ele>24.0</ele><time>2026-04-16T09:04:26.002Z</time></trkpt><trkpt lat="45.46983333855001" lon="11.659901156295833"><ele>24.0</ele><time>2026-04-16T09:04:27.002Z</time></trkpt><trkpt lat="45.46978712331679" lon="11.659822174982443"><ele>24.0</ele><time>2026-04-16T09:04:28.002Z</time></trkpt><trkpt lat="45.46973697045285" lon="11.659748106677313"><ele>24.0</ele><time>2026-04-16T09:04:29.002Z</time></trkpt><trkpt lat="45.469689704079215" lon="11.659670482964595"><ele>23.999999999999996</ele><time>2026-04-16T09:04:30.002Z</time></trkpt><trkpt lat="45.46964139342186" lon="11.659598674802826"><ele>24.0</ele><time>2026-04-16T09:04:31.002Z</time></trkpt><trkpt lat="45.46959553082249" lon="11.659524181026688"><ele>23.999999999999996</ele><time>2026-04-16T09:04:32.002Z</time></trkpt><trkpt lat="45.46954675507922" lon="11.65944657171911"><ele>24.0</ele><time>2026-04-16T09:04:33.002Z</time></trkpt><trkpt lat="45.4694971108321" lon="11.659372109376722"><ele>24.0</ele><time>2026-04-16T09:04:34.002Z</time></trkpt><trkpt lat="45.4694509109174" lon="11.659295294929787"><ele>24.0</ele><time>2026-04-16T09:04:35.002Z</time></trkpt><trkpt lat="45.469403480838196" lon="11.659214398479186"><ele>24.0</ele><time>2026-04-16T09:04:36.002Z</time></trkpt><trkpt lat="45.46935653537674" lon="11.659134758165447"><ele>23.999999999999996</ele><time>2026-04-16T09:04:37.002Z</time></trkpt><trkpt lat="45.469310760595754" lon="11.659053601002947"><ele>24.0</ele><time>2026-04-16T09:04:38.002Z</time></trkpt><trkpt lat="45.4692586921351" lon="11.658976367537417"><ele>23.999999999999996</ele><time>2026-04-16T09:04:39.002Z</time></trkpt><trkpt lat="45.46920902720137" lon="11.658897293477226"><ele>24.0</ele><time>2026-04-16T09:04:40.002Z</time></trkpt><trkpt lat="45.46915708047322" lon="11.658817571653781"><ele>24.0</ele><time>2026-04-16T09:04:41.002Z</time></trkpt><trkpt lat="45.46911060179719" lon="11.658738529506065"><ele>24.0</ele><time>2026-04-16T09:04:42.003Z</time></trkpt><trkpt lat="45.46906252004267" lon="11.658658724600352"><ele>24.0</ele><time>2026-04-16T09:04:43.003Z</time></trkpt><trkpt lat="45.4690133901874" lon="11.65857839575345"><ele>23.999999999999996</ele><time>2026-04-16T09:04:44.003Z</time></trkpt><trkpt lat="45.46896362583565" lon="11.658502078660488"><ele>24.0</ele><time>2026-04-16T09:04:45.003Z</time></trkpt><trkpt lat="45.468912413908726" lon="11.658425053529196"><ele>24.142857142857142</ele><time>2026-04-16T09:04:46.003Z</time></trkpt><trkpt lat="45.468866681297094" lon="11.658343226504861"><ele>24.285714285714285</ele><time>2026-04-16T09:04:47.003Z</time></trkpt><trkpt lat="45.4688143674471" lon="11.658266127281973"><ele>24.42857142857143</ele><time>2026-04-16T09:04:48.003Z</time></trkpt><trkpt lat="45.46876163957697" lon="11.658189381672498"><ele>24.57142857142857</ele><time>2026-04-16T09:04:49.003Z</time></trkpt><trkpt lat="45.46871060978948" lon="11.658115228241448"><ele>24.714285714285715</ele><time>2026-04-16T09:04:50.003Z</time></trkpt><trkpt lat="45.4686641123019" lon="11.65803520530193"><ele>24.857142857142858</ele><time>2026-04-16T09:04:51.003Z</time></trkpt><trkpt lat="45.468614321423296" lon="11.657955884649889"><ele>25.0</ele><time>2026-04-16T09:04:52.003Z</time></trkpt><trkpt lat="45.46856218068774" lon="11.65788322899799"><ele>25.000000000000004</ele><time>2026-04-16T09:04:53.003Z</time></trkpt><trkpt lat="45.46851571208704" lon="11.65780427204119"><ele>25.0</ele><time>2026-04-16T09:04:54.003Z</time></trkpt><trkpt lat="45.468465228609" lon="11.657722894664218"><ele>25.0</ele><time>2026-04-16T09:04:55.003Z</time></trkpt><trkpt lat="45.46841541478418" lon="11.657643951138619"><ele>25.0</ele><time>2026-04-16T09:04:56.003Z</time></trkpt><trkpt lat="45.46836874145113" lon="11.65756304776094"><ele>25.0</ele><time>2026-04-16T09:04:57.003Z</time></trkpt><trkpt lat="45.46831597006761" lon="11.657488675542572"><ele>25.000000000000004</ele><time>2026-04-16T09:04:58.003Z</time></trkpt><trkpt lat="45.46826614727048" lon="11.657413333054908"><ele>25.0</ele><time>2026-04-16T09:04:59Z</time></trkpt><trkpt lat="45.46821649027717" lon="11.657335323525219"><ele>24.714285714285715</ele><time>2026-04-16T09:05:00Z</time></trkpt><trkpt lat="45.46816624187784" lon="11.657254818244736"><ele>24.42857142857143</ele><time>2026-04-16T09:05:01Z</time></trkpt><trkpt lat="45.46812244898507" lon="11.657174000270517"><ele>24.142857142857146</ele><time>2026-04-16T09:05:02Z</time></trkpt><trkpt lat="45.46807533772074" lon="11.65710052295518"><ele>23.857142857142858</ele><time>2026-04-16T09:05:03Z</time></trkpt><trkpt lat="45.46802835515057" lon="11.657033483688432"><ele>23.57142857142857</ele><time>2026-04-16T09:05:04Z</time></trkpt><trkpt lat="45.467975150345055" lon="11.656946563559687"><ele>23.28571428571429</ele><time>2026-04-16T09:05:05Z</time></trkpt><trkpt lat="45.46792862065846" lon="11.656875132046675"><ele>23.0</ele><time>2026-04-16T09:05:06Z</time></trkpt><trkpt lat="45.46787897460808" lon="11.656792897619809"><ele>22.714285714285715</ele><time>2026-04-16T09:05:07Z</time></trkpt><trkpt lat="45.46783022651316" lon="11.656709592843363"><ele>22.428571428571427</ele><time>2026-04-16T09:05:08Z</time></trkpt><trkpt lat="45.46777700845381" lon="11.656636999454216"><ele>22.142857142857142</ele><time>2026-04-16T09:05:09Z</time></trkpt><trkpt lat="45.46773016916943" lon="11.656560192990648"><ele>21.857142857142858</ele><time>2026-04-16T09:05:10Z</time></trkpt><trkpt lat="45.46768655280173" lon="11.65648360404691"><ele>21.57142857142857</ele><time>2026-04-16T09:05:11Z</time></trkpt><trkpt lat="45.46763611116041" lon="11.656420120537527"><ele>21.285714285714285</ele><time>2026-04-16T09:05:12Z</time></trkpt><trkpt lat="45.46758574435456" lon="11.656350226803836"><ele>21.0</ele><time>2026-04-16T09:05:13Z</time></trkpt><trkpt lat="45.467542778934714" lon="11.656271401161352"><ele>21.0</ele><time>2026-04-16T09:05:14Z</time></trkpt><trkpt lat="45.467498941619546" lon="11.656192425987301"><ele>21.0</ele><time>2026-04-16T09:05:15Z</time></trkpt><trkpt lat="45.467449295085075" lon="11.6561155098177"><ele>21.0</ele><time>2026-04-16T09:05:16Z</time></trkpt><trkpt lat="45.46739831329389" lon="11.656042693413033"><ele>21.0</ele><time>2026-04-16T09:05:17Z</time></trkpt><trkpt lat="45.467352666585036" lon="11.655964091535635"><ele>21.0</ele><time>2026-04-16T09:05:18Z</time></trkpt><trkpt lat="45.467308220496456" lon="11.655882017925006"><ele>21.0</ele><time>2026-04-16T09:05:19Z</time></trkpt><trkpt lat="45.4672565846461" lon="11.655805225541057"><ele>21.0</ele><time>2026-04-16T09:05:20Z</time></trkpt><trkpt lat="45.46720433653252" lon="11.65573390692317"><ele>21.0</ele><time>2026-04-16T09:05:21Z</time></trkpt><trkpt lat="45.46715699292493" lon="11.655656112716166"><ele>21.0</ele><time>2026-04-16T09:05:22Z</time></trkpt><trkpt lat="45.46711269864748" lon="11.655576679233985"><ele>21.0</ele><time>2026-04-16T09:05:23Z</time></trkpt><trkpt lat="45.46706425126273" lon="11.655501344125069"><ele>21.0</ele><time>2026-04-16T09:05:24Z</time></trkpt><trkpt lat="45.46701528264178" lon="11.655427896281152"><ele>21.0</ele><time>2026-04-16T09:05:25Z</time></trkpt><trkpt lat="45.46696374928498" lon="11.655361384828787"><ele>21.0</ele><time>2026-04-16T09:05:26Z</time></trkpt><trkpt lat="45.466915252087375" lon="11.655285010471445"><ele>21.0</ele><time>2026-04-16T09:05:27.001Z</time></trkpt><trkpt lat="45.46687031314871" lon="11.655204901377784"><ele>20.857142857142858</ele><time>2026-04-16T09:05:28.001Z</time></trkpt><trkpt lat="45.46682761843509" lon="11.655123373677982"><ele>20.714285714285715</ele><time>2026-04-16T09:05:29.001Z</time></trkpt><trkpt lat="45.466775988923715" lon="11.655049368052925"><ele>20.57142857142857</ele><time>2026-04-16T09:05:30.001Z</time></trkpt><trkpt lat="45.46673015953995" lon="11.654971883977806"><ele>20.42857142857143</ele><time>2026-04-16T09:05:31.001Z</time></trkpt><trkpt lat="45.466681904936685" lon="11.654897309422392"><ele>20.285714285714285</ele><time>2026-04-16T09:05:32.001Z</time></trkpt><trkpt lat="45.466630902932025" lon="11.654821648599471"><ele>20.142857142857142</ele><time>2026-04-16T09:05:33.001Z</time></trkpt><trkpt lat="45.46658207240168" lon="11.65474618392006"><ele>20.0</ele><time>2026-04-16T09:05:34.001Z</time></trkpt><trkpt lat="45.466537267343206" lon="11.654671187894522"><ele>20.0</ele><time>2026-04-16T09:05:35.001Z</time></trkpt><trkpt lat="45.46649282020233" lon="11.654588276398785"><ele>20.0</ele><time>2026-04-16T09:05:36.001Z</time></trkpt><trkpt lat="45.46644094336881" lon="11.65451627996602"><ele>20.0</ele><time>2026-04-16T09:05:37.001Z</time></trkpt><trkpt lat="45.46639062066829" lon="11.6544481088574"><ele>20.0</ele><time>2026-04-16T09:05:38.001Z</time></trkpt><trkpt lat="45.466343954908666" lon="11.65438358709951"><ele>20.0</ele><time>2026-04-16T09:05:39.001Z</time></trkpt><trkpt lat="45.46630018809951" lon="11.65431452265227"><ele>20.0</ele><time>2026-04-16T09:05:40.001Z</time></trkpt><trkpt lat="45.46625939300898" lon="11.654244629355434"><ele>20.0</ele><time>2026-04-16T09:05:41.001Z</time></trkpt><trkpt lat="45.46618088514776" lon="11.654112741512568"><ele>20.166666666666668</ele><time>2026-04-16T09:05:43.001Z</time></trkpt><trkpt lat="45.46613936599709" lon="11.654042907817324"><ele>20.333333333333336</ele><time>2026-04-16T09:05:44.001Z</time></trkpt><trkpt lat="45.4660931656143" lon="11.653978970445042"><ele>20.5</ele><time>2026-04-16T09:05:45.001Z</time></trkpt><trkpt lat="45.46605024744424" lon="11.653909561589636"><ele>20.666666666666668</ele><time>2026-04-16T09:05:46.001Z</time></trkpt><trkpt lat="45.466009116199146" lon="11.65383858160478"><ele>20.833333333333332</ele><time>2026-04-16T09:05:47.001Z</time></trkpt><trkpt lat="45.46592873285774" lon="11.653710106716234"><ele>21.0</ele><time>2026-04-16T09:05:49.001Z</time></trkpt><trkpt lat="45.46585091091913" lon="11.653600597429561"><ele>21.333333333333332</ele><time>2026-04-16T09:05:51.001Z</time></trkpt><trkpt lat="45.46579472304467" lon="11.653510066202122"><ele>21.666666666666668</ele><time>2026-04-16T09:05:53.001Z</time></trkpt><trkpt lat="45.46575026930496" lon="11.653412717880311"><ele>22.0</ele><time>2026-04-16T09:05:57.001Z</time></trkpt><trkpt lat="45.46567998237388" lon="11.653335108806692"><ele>22.333333333333336</ele><time>2026-04-16T09:06:00.001Z</time></trkpt><trkpt lat="45.46562691917454" lon="11.65323107601683"><ele>22.666666666666668</ele><time>2026-04-16T09:06:03.001Z</time></trkpt><trkpt lat="45.46555267644582" lon="11.653140908201523"><ele>23.0</ele><time>2026-04-16T09:06:05.001Z</time></trkpt><trkpt lat="45.46548780874266" lon="11.653017961151699"><ele>22.799999999999997</ele><time>2026-04-16T09:06:07.002Z</time></trkpt><trkpt lat="45.46540272578504" lon="11.652900528641217"><ele>22.6</ele><time>2026-04-16T09:06:09.002Z</time></trkpt><trkpt lat="45.46536277445109" lon="11.65283030172397"><ele>22.4</ele><time>2026-04-16T09:06:10.002Z</time></trkpt><trkpt lat="45.465271871246685" lon="11.65270271306509"><ele>22.200000000000003</ele><time>2026-04-16T09:06:12.002Z</time></trkpt><trkpt lat="45.46519894044807" lon="11.65256505789788"><ele>22.0</ele><time>2026-04-16T09:06:14.002Z</time></trkpt><trkpt lat="45.46515704847712" lon="11.652494643499253"><ele>22.0</ele><time>2026-04-16T09:06:15.002Z</time></trkpt><trkpt lat="45.46510883627358" lon="11.652431484345067"><ele>22.0</ele><time>2026-04-16T09:06:16.002Z</time></trkpt><trkpt lat="45.46506777551675" lon="11.652362622065729"><ele>22.0</ele><time>2026-04-16T09:06:17.002Z</time></trkpt><trkpt lat="45.46502552707908" lon="11.652294284404844"><ele>22.0</ele><time>2026-04-16T09:06:18.002Z</time></trkpt><trkpt lat="45.464975004375795" lon="11.652235103922129"><ele>22.0</ele><time>2026-04-16T09:06:19.002Z</time></trkpt><trkpt lat="45.46493726424286" lon="11.652158101697466"><ele>22.0</ele><time>2026-04-16T09:06:20.002Z</time></trkpt><trkpt lat="45.46485779362412" lon="11.652019011337323"><ele>21.8</ele><time>2026-04-16T09:06:22.002Z</time></trkpt><trkpt lat="45.464776685509136" lon="11.651886252263823"><ele>21.6</ele><time>2026-04-16T09:06:24.002Z</time></trkpt><trkpt lat="45.4647365850622" lon="11.65181477356554"><ele>21.400000000000002</ele><time>2026-04-16T09:06:25.002Z</time></trkpt><trkpt lat="45.46465507076133" lon="11.65168262251234"><ele>21.200000000000003</ele><time>2026-04-16T09:06:27.002Z</time></trkpt><trkpt lat="45.4645728529374" lon="11.651553199309578"><ele>21.0</ele><time>2026-04-16T09:06:29.002Z</time></trkpt><trkpt lat="45.464491464313156" lon="11.651421890916733"><ele>21.0</ele><time>2026-04-16T09:06:31.002Z</time></trkpt><trkpt lat="45.46444666840081" lon="11.651351811354978"><ele>21.0</ele><time>2026-04-16T09:06:32.002Z</time></trkpt><trkpt lat="45.46439783777715" lon="11.651281534840306"><ele>21.0</ele><time>2026-04-16T09:06:33.002Z</time></trkpt><trkpt lat="45.4643536350514" lon="11.651207225852671"><ele>21.0</ele><time>2026-04-16T09:06:34.002Z</time></trkpt><trkpt lat="45.464310479701034" lon="11.65113393640437"><ele>21.0</ele><time>2026-04-16T09:06:35.002Z</time></trkpt><trkpt lat="45.4642662434968" lon="11.651057658546302"><ele>21.0</ele><time>2026-04-16T09:06:36.002Z</time></trkpt><trkpt lat="45.46421877776892" lon="11.650988200651618"><ele>21.0</ele><time>2026-04-16T09:06:37.002Z</time></trkpt><trkpt lat="45.464172366057966" lon="11.650918323877452"><ele>21.333333333333332</ele><time>2026-04-16T09:06:38.002Z</time></trkpt><trkpt lat="45.46412964947146" lon="11.650849071306226"><ele>21.666666666666668</ele><time>2026-04-16T09:06:39.002Z</time></trkpt><trkpt lat="45.464088740667265" lon="11.650778236555299"><ele>22.0</ele><time>2026-04-16T09:06:40.002Z</time></trkpt><trkpt lat="45.464042607880614" lon="11.650708171078751"><ele>22.333333333333336</ele><time>2026-04-16T09:06:41.002Z</time></trkpt><trkpt lat="45.46396058169414" lon="11.650576797337099"><ele>22.666666666666668</ele><time>2026-04-16T09:06:43.002Z</time></trkpt><trkpt lat="45.463879141992294" lon="11.650455447488497"><ele>23.0</ele><time>2026-04-16T09:06:45.003Z</time></trkpt><trkpt lat="45.463805733251235" lon="11.65033548840185"><ele>22.799999999999997</ele><time>2026-04-16T09:06:47.003Z</time></trkpt><trkpt lat="45.46373683839413" lon="11.650225693796967"><ele>22.6</ele><time>2026-04-16T09:06:49.003Z</time></trkpt><trkpt lat="45.46366583789884" lon="11.650122352110184"><ele>22.4</ele><time>2026-04-16T09:06:51.003Z</time></trkpt><trkpt lat="45.46359712396923" lon="11.650012976743781"><ele>22.200000000000003</ele><time>2026-04-16T09:06:53.003Z</time></trkpt><trkpt lat="45.463527415444744" lon="11.649899614574418"><ele>22.0</ele><time>2026-04-16T09:06:55.003Z</time></trkpt><trkpt lat="45.46345460859625" lon="11.649805520533743"><ele>22.0</ele><time>2026-04-16T09:06:57.003Z</time></trkpt><trkpt lat="45.4633820328608" lon="11.649687044789403"><ele>22.0</ele><time>2026-04-16T09:06:59.003Z</time></trkpt><trkpt lat="45.46334053167337" lon="11.649619516215306"><ele>22.0</ele><time>2026-04-16T09:07:00.003Z</time></trkpt><trkpt lat="45.463260961395115" lon="11.649473214028767"><ele>22.0</ele><time>2026-04-16T09:07:02.003Z</time></trkpt><trkpt lat="45.46321129658616" lon="11.649403879281177"><ele>22.0</ele><time>2026-04-16T09:07:03.003Z</time></trkpt><trkpt lat="45.46316787040485" lon="11.649328136864561"><ele>22.0</ele><time>2026-04-16T09:07:04.003Z</time></trkpt><trkpt lat="45.463122094047286" lon="11.649256452024924"><ele>21.75</ele><time>2026-04-16T09:07:05Z</time></trkpt><trkpt lat="45.463043893047164" lon="11.649129925222086"><ele>21.5</ele><time>2026-04-16T09:07:07Z</time></trkpt><trkpt lat="45.46295925824901" lon="11.649014518844774"><ele>21.25</ele><time>2026-04-16T09:07:09Z</time></trkpt><trkpt lat="45.462887715357105" lon="11.648875020139492"><ele>21.0</ele><time>2026-04-16T09:07:11Z</time></trkpt><trkpt lat="45.46280403205842" lon="11.64874747242974"><ele>21.0</ele><time>2026-04-16T09:07:13Z</time></trkpt><trkpt lat="45.462721381590995" lon="11.648623993734065"><ele>21.0</ele><time>2026-04-16T09:07:15Z</time></trkpt><trkpt lat="45.46263773352177" lon="11.64848575637025"><ele>21.0</ele><time>2026-04-16T09:07:17Z</time></trkpt><trkpt lat="45.46259589647109" lon="11.64840693904831"><ele>21.0</ele><time>2026-04-16T09:07:18Z</time></trkpt><trkpt lat="45.462549852789465" lon="11.648338001844404"><ele>21.0</ele><time>2026-04-16T09:07:19Z</time></trkpt><trkpt lat="45.462502410662246" lon="11.648266494517532"><ele>21.0</ele><time>2026-04-16T09:07:20Z</time></trkpt><trkpt lat="45.462453336755594" lon="11.648199039168027"><ele>21.0</ele><time>2026-04-16T09:07:21Z</time></trkpt><trkpt lat="45.46240792073003" lon="11.648128693403773"><ele>21.0</ele><time>2026-04-16T09:07:22Z</time></trkpt><trkpt lat="45.46236499214553" lon="11.648055169579337"><ele>21.0</ele><time>2026-04-16T09:07:23Z</time></trkpt><trkpt lat="45.46231026525367" lon="11.64798157562073"><ele>21.0</ele><time>2026-04-16T09:07:24Z</time></trkpt><trkpt lat="45.46222256048391" lon="11.64783538550278"><ele>21.0</ele><time>2026-04-16T09:07:26Z</time></trkpt><trkpt lat="45.46217555473201" lon="11.647767896438179"><ele>21.142857142857142</ele><time>2026-04-16T09:07:27Z</time></trkpt><trkpt lat="45.46212979715929" lon="11.647694806760665"><ele>21.285714285714285</ele><time>2026-04-16T09:07:28Z</time></trkpt><trkpt lat="45.4620854202021" lon="11.647618411498588"><ele>21.42857142857143</ele><time>2026-04-16T09:07:29Z</time></trkpt><trkpt lat="45.462041278875645" lon="11.647545905175443"><ele>21.57142857142857</ele><time>2026-04-16T09:07:30Z</time></trkpt><trkpt lat="45.461990005722726" lon="11.647473935624115"><ele>21.714285714285715</ele><time>2026-04-16T09:07:31Z</time></trkpt><trkpt lat="45.461943157337075" lon="11.647397834546258"><ele>21.857142857142858</ele><time>2026-04-16T09:07:32Z</time></trkpt><trkpt lat="45.46189394696104" lon="11.64732891714996"><ele>22.0</ele><time>2026-04-16T09:07:33Z</time></trkpt><trkpt lat="45.461845228953145" lon="11.647259425805384"><ele>22.0</ele><time>2026-04-16T09:07:34Z</time></trkpt><trkpt lat="45.46180209081098" lon="11.647179932779451"><ele>22.0</ele><time>2026-04-16T09:07:35Z</time></trkpt><trkpt lat="45.461756811583356" lon="11.647105468742529"><ele>22.0</ele><time>2026-04-16T09:07:36Z</time></trkpt><trkpt lat="45.46170804961934" lon="11.647027783619427"><ele>22.0</ele><time>2026-04-16T09:07:37.001Z</time></trkpt><trkpt lat="45.461656923713306" lon="11.64695936189103"><ele>22.0</ele><time>2026-04-16T09:07:38.001Z</time></trkpt><trkpt lat="45.46160953878529" lon="11.646885895191252"><ele>22.0</ele><time>2026-04-16T09:07:39.001Z</time></trkpt><trkpt lat="45.461560173331605" lon="11.646810018509646"><ele>22.0</ele><time>2026-04-16T09:07:40.001Z</time></trkpt><trkpt lat="45.46151409284044" lon="11.646738653234861"><ele>22.0</ele><time>2026-04-16T09:07:41.001Z</time></trkpt><trkpt lat="45.46146497178695" lon="11.646663198811547"><ele>22.0</ele><time>2026-04-16T09:07:42.001Z</time></trkpt><trkpt lat="45.46141238067377" lon="11.646590424064534"><ele>22.0</ele><time>2026-04-16T09:07:43.001Z</time></trkpt><trkpt lat="45.46136431128556" lon="11.646518851019504"><ele>22.0</ele><time>2026-04-16T09:07:44.001Z</time></trkpt><trkpt lat="45.46131738110174" lon="11.646446926761918"><ele>22.0</ele><time>2026-04-16T09:07:45.001Z</time></trkpt><trkpt lat="45.46127056534135" lon="11.646374249079907"><ele>22.0</ele><time>2026-04-16T09:07:46.001Z</time></trkpt><trkpt lat="45.46121992661549" lon="11.646304750413972"><ele>22.0</ele><time>2026-04-16T09:07:47.001Z</time></trkpt><trkpt lat="45.46117194992493" lon="11.646239510466094"><ele>21.857142857142858</ele><time>2026-04-16T09:07:48.001Z</time></trkpt><trkpt lat="45.46112822667727" lon="11.646166397476145"><ele>21.714285714285715</ele><time>2026-04-16T09:07:49.001Z</time></trkpt><trkpt lat="45.461077779535906" lon="11.646094946463194"><ele>21.57142857142857</ele><time>2026-04-16T09:07:50.001Z</time></trkpt><trkpt lat="45.461026714732945" lon="11.646026570233712"><ele>21.42857142857143</ele><time>2026-04-16T09:07:51.001Z</time></trkpt><trkpt lat="45.460980865681044" lon="11.645954984070315"><ele>21.285714285714285</ele><time>2026-04-16T09:07:52.001Z</time></trkpt><trkpt lat="45.46093078272325" lon="11.645884618901352"><ele>21.142857142857142</ele><time>2026-04-16T09:07:53.001Z</time></trkpt><trkpt lat="45.460883408684154" lon="11.645812747587856"><ele>21.0</ele><time>2026-04-16T09:07:54.001Z</time></trkpt><trkpt lat="45.46083700906813" lon="11.645743733053362"><ele>21.0</ele><time>2026-04-16T09:07:55.001Z</time></trkpt><trkpt lat="45.46074795140943" lon="11.645620881581312"><ele>21.0</ele><time>2026-04-16T09:07:57.001Z</time></trkpt><trkpt lat="45.46065954417463" lon="11.645496498387244"><ele>21.0</ele><time>2026-04-16T09:07:59.001Z</time></trkpt><trkpt lat="45.460578820847196" lon="11.64535908780647"><ele>21.0</ele><time>2026-04-16T09:08:01.001Z</time></trkpt><trkpt lat="45.460493297970025" lon="11.645230205251092"><ele>21.0</ele><time>2026-04-16T09:08:03.001Z</time></trkpt><trkpt lat="45.460406649722835" lon="11.64510444516627"><ele>21.0</ele><time>2026-04-16T09:08:05.001Z</time></trkpt><trkpt lat="45.4603292788403" lon="11.644989433270444"><ele>21.0</ele><time>2026-04-16T09:08:07.001Z</time></trkpt><trkpt lat="45.46025652251006" lon="11.644884827599226"><ele>21.0</ele><time>2026-04-16T09:08:09.001Z</time></trkpt><trkpt lat="45.46017423278082" lon="11.644792004285364"><ele>21.0</ele><time>2026-04-16T09:08:11.001Z</time></trkpt><trkpt lat="45.46010774657051" lon="11.644691678565128"><ele>21.0</ele><time>2026-04-16T09:08:13.001Z</time></trkpt><trkpt lat="45.460055483803934" lon="11.644590960576439"><ele>21.0</ele><time>2026-04-16T09:08:15.001Z</time></trkpt><trkpt lat="45.459994691052835" lon="11.644521719928388"><ele>21.0</ele><time>2026-04-16T09:08:17.002Z</time></trkpt><trkpt lat="45.45995590749047" lon="11.644447296006827"><ele>21.0</ele><time>2026-04-16T09:08:19.002Z</time></trkpt><trkpt lat="45.45989133475858" lon="11.6444015362134"><ele>21.0</ele><time>2026-04-16T09:08:21.002Z</time></trkpt><trkpt lat="45.459847187977935" lon="11.6443285290061"><ele>21.0</ele><time>2026-04-16T09:08:26.002Z</time></trkpt><trkpt lat="45.45979984352433" lon="11.644230704328624"><ele>21.4</ele><time>2026-04-16T09:08:29.002Z</time></trkpt><trkpt lat="45.45971369831352" lon="11.644209277269626"><ele>21.8</ele><time>2026-04-16T09:08:31.002Z</time></trkpt><trkpt lat="45.45963227686985" lon="11.644130818871725"><ele>22.2</ele><time>2026-04-16T09:08:33.002Z</time></trkpt><trkpt lat="45.45958405951931" lon="11.643998830735766"><ele>22.599999999999998</ele><time>2026-04-16T09:08:35.002Z</time></trkpt><trkpt lat="45.45951889121384" lon="11.643889765263957"><ele>23.0</ele><time>2026-04-16T09:08:37.002Z</time></trkpt><trkpt lat="45.45944257573827" lon="11.643817636617264"><ele>23.0</ele><time>2026-04-16T09:08:39.002Z</time></trkpt><trkpt lat="45.459385511743314" lon="11.643740770490869"><ele>23.0</ele><time>2026-04-16T09:08:41.002Z</time></trkpt><trkpt lat="45.459322784181566" lon="11.643733116698897"><ele>23.0</ele><time>2026-04-16T09:08:56.003Z</time></trkpt><trkpt lat="45.459236552788624" lon="11.643786499551915"><ele>23.0</ele><time>2026-04-16T09:08:59.003Z</time></trkpt><trkpt lat="45.45916965019377" lon="11.643799970991681"><ele>23.0</ele><time>2026-04-16T09:09:01.003Z</time></trkpt><trkpt lat="45.459086688266254" lon="11.643779469813486"><ele>23.0</ele><time>2026-04-16T09:09:04.003Z</time></trkpt><trkpt lat="45.459094765795015" lon="11.643666862781153"><ele>23.0</ele><time>2026-04-16T09:09:06.003Z</time></trkpt><trkpt lat="45.45911171345516" lon="11.643543838249888"><ele>23.0</ele><time>2026-04-16T09:09:08.003Z</time></trkpt><trkpt lat="45.45907155882847" lon="11.643436699191598"><ele>23.0</ele><time>2026-04-16T09:09:10.003Z</time></trkpt><trkpt lat="45.45903502712584" lon="11.64331544735034"><ele>23.0</ele><time>2026-04-16T09:09:12Z</time></trkpt><trkpt lat="45.45897512269947" lon="11.643214216726598"><ele>23.0</ele><time>2026-04-16T09:09:14Z</time></trkpt><trkpt lat="45.45892121123611" lon="11.64310986454818"><ele>23.0</ele><time>2026-04-16T09:09:16Z</time></trkpt><trkpt lat="45.45886093130919" lon="11.64301295194019"><ele>23.0</ele><time>2026-04-16T09:09:18Z</time></trkpt><trkpt lat="45.45880331929738" lon="11.642900221914553"><ele>23.0</ele><time>2026-04-16T09:09:20Z</time></trkpt><trkpt lat="45.45872191710583" lon="11.642804524640031"><ele>23.0</ele><time>2026-04-16T09:09:22Z</time></trkpt><trkpt lat="45.45865699664906" lon="11.642697045086207"><ele>23.0</ele><time>2026-04-16T09:09:24Z</time></trkpt><trkpt lat="45.45858453316564" lon="11.642594370491183"><ele>23.0</ele><time>2026-04-16T09:09:26Z</time></trkpt><trkpt lat="45.458509657065505" lon="11.642476805773475"><ele>23.0</ele><time>2026-04-16T09:09:28Z</time></trkpt><trkpt lat="45.45842302097563" lon="11.642359504288452"><ele>23.0</ele><time>2026-04-16T09:09:30Z</time></trkpt><trkpt lat="45.45834020382195" lon="11.642240015545298"><ele>23.0</ele><time>2026-04-16T09:09:32Z</time></trkpt><trkpt lat="45.45829582292518" lon="11.642168298796111"><ele>23.0</ele><time>2026-04-16T09:09:33Z</time></trkpt><trkpt lat="45.45825213136705" lon="11.642103580909527"><ele>23.0</ele><time>2026-04-16T09:09:34Z</time></trkpt><trkpt lat="45.458205678768245" lon="11.642040637589627"><ele>23.0</ele><time>2026-04-16T09:09:35Z</time></trkpt><trkpt lat="45.45816155839976" lon="11.641972752123433"><ele>23.0</ele><time>2026-04-16T09:09:36Z</time></trkpt><trkpt lat="45.45811367541614" lon="11.641903116635984"><ele>23.0</ele><time>2026-04-16T09:09:37Z</time></trkpt><trkpt lat="45.45807081013561" lon="11.641836816764423"><ele>23.0</ele><time>2026-04-16T09:09:38Z</time></trkpt><trkpt lat="45.45798347014793" lon="11.641709471749792"><ele>23.0</ele><time>2026-04-16T09:09:40Z</time></trkpt><trkpt lat="45.45793806041388" lon="11.641646220610548"><ele>23.0</ele><time>2026-04-16T09:09:41Z</time></trkpt><trkpt lat="45.457892917851254" lon="11.641580231215034"><ele>23.0</ele><time>2026-04-16T09:09:42Z</time></trkpt><trkpt lat="45.45784753342246" lon="11.641517146466231"><ele>23.0</ele><time>2026-04-16T09:09:43Z</time></trkpt><trkpt lat="45.45780582311047" lon="11.641448464112695"><ele>22.799999999999997</ele><time>2026-04-16T09:09:44Z</time></trkpt><trkpt lat="45.457723827611325" lon="11.64131837169492"><ele>22.6</ele><time>2026-04-16T09:09:46Z</time></trkpt><trkpt lat="45.45767832219761" lon="11.641252830832402"><ele>22.4</ele><time>2026-04-16T09:09:47Z</time></trkpt><trkpt lat="45.45759817857911" lon="11.64113534700973"><ele>22.200000000000003</ele><time>2026-04-16T09:09:49.001Z</time></trkpt><trkpt lat="45.45751204288482" lon="11.641026444170055"><ele>22.0</ele><time>2026-04-16T09:09:51.001Z</time></trkpt><trkpt lat="45.457431268225776" lon="11.640899180965983"><ele>21.8</ele><time>2026-04-16T09:09:53.001Z</time></trkpt><trkpt lat="45.45734800622243" lon="11.640769676654607"><ele>21.6</ele><time>2026-04-16T09:09:55.001Z</time></trkpt><trkpt lat="45.45725937075944" lon="11.64064731771384"><ele>21.400000000000002</ele><time>2026-04-16T09:09:57.001Z</time></trkpt><trkpt lat="45.45716939249366" lon="11.640513311458585"><ele>21.200000000000003</ele><time>2026-04-16T09:09:59.001Z</time></trkpt><trkpt lat="45.457128701456334" lon="11.64044340863925"><ele>21.0</ele><time>2026-04-16T09:10:00.001Z</time></trkpt><trkpt lat="45.457076815838825" lon="11.640381457726166"><ele>21.75</ele><time>2026-04-16T09:10:01.001Z</time></trkpt><trkpt lat="45.45699214703041" lon="11.640253770367524"><ele>22.5</ele><time>2026-04-16T09:10:03.001Z</time></trkpt><trkpt lat="45.456900581582445" lon="11.640137127750302"><ele>23.25</ele><time>2026-04-16T09:10:05.001Z</time></trkpt><trkpt lat="45.45682528876703" lon="11.640013671939725"><ele>24.0</ele><time>2026-04-16T09:10:07.001Z</time></trkpt><trkpt lat="45.4567537995598" lon="11.639892833665813"><ele>24.0</ele><time>2026-04-16T09:10:09.001Z</time></trkpt><trkpt lat="45.45666450034977" lon="11.63979845266468"><ele>24.0</ele><time>2026-04-16T09:10:11.001Z</time></trkpt><trkpt lat="45.456603767297665" lon="11.639675424997417"><ele>24.0</ele><time>2026-04-16T09:10:13.001Z</time></trkpt><trkpt lat="45.456519661760325" lon="11.639608522796602"><ele>24.0</ele><time>2026-04-16T09:10:15.001Z</time></trkpt><trkpt lat="45.456423457079595" lon="11.639728023259545"><ele>24.0</ele><time>2026-04-16T09:10:17.001Z</time></trkpt><trkpt lat="45.4563864344313" lon="11.639809040731194"><ele>24.0</ele><time>2026-04-16T09:10:18.001Z</time></trkpt><trkpt lat="45.45635569595491" lon="11.639898293205052"><ele>24.0</ele><time>2026-04-16T09:10:19.001Z</time></trkpt><trkpt lat="45.456316612733225" lon="11.63999833835885"><ele>24.0</ele><time>2026-04-16T09:10:20.001Z</time></trkpt><trkpt lat="45.45627153179931" lon="11.640097002465332"><ele>24.0</ele><time>2026-04-16T09:10:21.001Z</time></trkpt><trkpt lat="45.45622529185277" lon="11.640200053458548"><ele>24.0</ele><time>2026-04-16T09:10:22.001Z</time></trkpt><trkpt lat="45.456180581913515" lon="11.64030843100521"><ele>24.0</ele><time>2026-04-16T09:10:23.001Z</time></trkpt><trkpt lat="45.456141160099584" lon="11.640422696552509"><ele>23.666666666666668</ele><time>2026-04-16T09:10:24.001Z</time></trkpt><trkpt lat="45.45609618595815" lon="11.640531419432282"><ele>23.333333333333332</ele><time>2026-04-16T09:10:25.002Z</time></trkpt><trkpt lat="45.45605096757467" lon="11.640636434673594"><ele>23.0</ele><time>2026-04-16T09:10:26.002Z</time></trkpt><trkpt lat="45.456008273281824" lon="11.640742368081074"><ele>22.666666666666664</ele><time>2026-04-16T09:10:27.002Z</time></trkpt><trkpt lat="45.45596732306903" lon="11.640842989192295"><ele>22.333333333333332</ele><time>2026-04-16T09:10:28.002Z</time></trkpt><trkpt lat="45.45592873146048" lon="11.640946736392864"><ele>22.0</ele><time>2026-04-16T09:10:29.002Z</time></trkpt><trkpt lat="45.45588891500886" lon="11.641046879815859"><ele>21.833333333333332</ele><time>2026-04-16T09:10:30.002Z</time></trkpt><trkpt lat="45.4558484761879" lon="11.64114198553992"><ele>21.666666666666664</ele><time>2026-04-16T09:10:31.002Z</time></trkpt><trkpt lat="45.455810880255704" lon="11.64124013628443"><ele>21.5</ele><time>2026-04-16T09:10:32.002Z</time></trkpt><trkpt lat="45.455773509256176" lon="11.641338222739599"><ele>21.333333333333332</ele><time>2026-04-16T09:10:33.002Z</time></trkpt><trkpt lat="45.45573551673083" lon="11.641431121275385"><ele>21.166666666666668</ele><time>2026-04-16T09:10:34.002Z</time></trkpt><trkpt lat="45.45569588017157" lon="11.641520215054241"><ele>21.0</ele><time>2026-04-16T09:10:35.002Z</time></trkpt><trkpt lat="45.45566074688621" lon="11.641611729041424"><ele>21.0</ele><time>2026-04-16T09:10:36.002Z</time></trkpt><trkpt lat="45.45562216422891" lon="11.641704720736719"><ele>21.0</ele><time>2026-04-16T09:10:37.002Z</time></trkpt><trkpt lat="45.4555789823671" lon="11.64179292813769"><ele>21.0</ele><time>2026-04-16T09:10:38.002Z</time></trkpt><trkpt lat="45.455534677381095" lon="11.641880745640242"><ele>21.0</ele><time>2026-04-16T09:10:39.002Z</time></trkpt><trkpt lat="45.455492696021665" lon="11.641968037183013"><ele>21.0</ele><time>2026-04-16T09:10:40.002Z</time></trkpt><trkpt lat="45.455447728698644" lon="11.642051441807737"><ele>21.0</ele><time>2026-04-16T09:10:41.002Z</time></trkpt><trkpt lat="45.45540211973893" lon="11.642134362742699"><ele>21.0</ele><time>2026-04-16T09:10:42.002Z</time></trkpt><trkpt lat="45.45535617801547" lon="11.642215591336889"><ele>21.142857142857142</ele><time>2026-04-16T09:10:43.002Z</time></trkpt><trkpt lat="45.45531609511006" lon="11.642301990197241"><ele>21.285714285714285</ele><time>2026-04-16T09:10:44.002Z</time></trkpt><trkpt lat="45.45527436495399" lon="11.642389546755062"><ele>21.42857142857143</ele><time>2026-04-16T09:10:45.002Z</time></trkpt><trkpt lat="45.45523480151678" lon="11.642480591898488"><ele>21.57142857142857</ele><time>2026-04-16T09:10:46.002Z</time></trkpt><trkpt lat="45.455191985581905" lon="11.642555866192962"><ele>21.714285714285715</ele><time>2026-04-16T09:10:47.002Z</time></trkpt><trkpt lat="45.4551466458044" lon="11.64263144618946"><ele>21.857142857142858</ele><time>2026-04-16T09:10:48.002Z</time></trkpt><trkpt lat="45.45510625270708" lon="11.642723834339451"><ele>22.0</ele><time>2026-04-16T09:10:49.002Z</time></trkpt><trkpt lat="45.45506789385329" lon="11.642807953514435"><ele>22.0</ele><time>2026-04-16T09:10:50.002Z</time></trkpt><trkpt lat="45.45502155207827" lon="11.64289090303206"><ele>22.0</ele><time>2026-04-16T09:10:51.002Z</time></trkpt><trkpt lat="45.454975218894894" lon="11.642969248220172"><ele>22.0</ele><time>2026-04-16T09:10:52.002Z</time></trkpt><trkpt lat="45.454931151351154" lon="11.643051990619929"><ele>22.0</ele><time>2026-04-16T09:10:53.002Z</time></trkpt><trkpt lat="45.45489147453487" lon="11.64313898877871"><ele>22.0</ele><time>2026-04-16T09:10:54.002Z</time></trkpt><trkpt lat="45.4548508854528" lon="11.64322755873723"><ele>22.0</ele><time>2026-04-16T09:10:55.002Z</time></trkpt><trkpt lat="45.45480593401094" lon="11.643312108491006"><ele>22.0</ele><time>2026-04-16T09:10:56.002Z</time></trkpt><trkpt lat="45.454759862927055" lon="11.64339212543314"><ele>22.0</ele><time>2026-04-16T09:10:57.002Z</time></trkpt><trkpt lat="45.4547186843621" lon="11.643473833050454"><ele>22.0</ele><time>2026-04-16T09:10:58.002Z</time></trkpt><trkpt lat="45.45467877581385" lon="11.643546154318296"><ele>22.0</ele><time>2026-04-16T09:10:59.002Z</time></trkpt><trkpt lat="45.45464026721612" lon="11.643617462536037"><ele>22.0</ele><time>2026-04-16T09:11:00.002Z</time></trkpt><trkpt lat="45.45456043271686" lon="11.64374444290388"><ele>22.0</ele><time>2026-04-16T09:11:02.002Z</time></trkpt><trkpt lat="45.45449858798175" lon="11.643835877246515"><ele>22.0</ele><time>2026-04-16T09:11:04.003Z</time></trkpt><trkpt lat="45.45443793211743" lon="11.643891773272689"><ele>22.0</ele><time>2026-04-16T09:11:07.003Z</time></trkpt><trkpt lat="45.45436336499551" lon="11.643920644814235"><ele>22.0</ele><time>2026-04-16T09:11:10.003Z</time></trkpt><trkpt lat="45.45429647388526" lon="11.643860464335837"><ele>22.0</ele><time>2026-04-16T09:11:12.003Z</time></trkpt><trkpt lat="45.454206304250754" lon="11.643760442728743"><ele>22.0</ele><time>2026-04-16T09:11:14.003Z</time></trkpt><trkpt lat="45.45415027793308" lon="11.643705470104953"><ele>22.0</ele><time>2026-04-16T09:11:15.003Z</time></trkpt><trkpt lat="45.4540969548882" lon="11.64364253049399"><ele>22.0</ele><time>2026-04-16T09:11:16.003Z</time></trkpt><trkpt lat="45.45404693250211" lon="11.6435780439099"><ele>22.0</ele><time>2026-04-16T09:11:17Z</time></trkpt><trkpt lat="45.45399426699352" lon="11.643513603676377"><ele>22.0</ele><time>2026-04-16T09:11:18Z</time></trkpt><trkpt lat="45.453938297370605" lon="11.64346029335369"><ele>22.0</ele><time>2026-04-16T09:11:19Z</time></trkpt><trkpt lat="45.453878485562676" lon="11.643408297467928"><ele>22.0</ele><time>2026-04-16T09:11:20Z</time></trkpt><trkpt lat="45.45381844797444" lon="11.643355699671545"><ele>22.0</ele><time>2026-04-16T09:11:21Z</time></trkpt><trkpt lat="45.45376039950032" lon="11.643292503580895"><ele>22.0</ele><time>2026-04-16T09:11:22Z</time></trkpt><trkpt lat="45.45370157816744" lon="11.643238802090096"><ele>22.0</ele><time>2026-04-16T09:11:23Z</time></trkpt><trkpt lat="45.45364210729366" lon="11.643192473145511"><ele>22.0</ele><time>2026-04-16T09:11:24Z</time></trkpt><trkpt lat="45.453586733271635" lon="11.643146573275203"><ele>22.0</ele><time>2026-04-16T09:11:25Z</time></trkpt><trkpt lat="45.45353344032154" lon="11.643083160611882"><ele>22.0</ele><time>2026-04-16T09:11:26Z</time></trkpt><trkpt lat="45.45348025874441" lon="11.643035122002415"><ele>22.0</ele><time>2026-04-16T09:11:27Z</time></trkpt><trkpt lat="45.45337283533299" lon="11.64294751501303"><ele>22.0</ele><time>2026-04-16T09:11:29Z</time></trkpt><trkpt lat="45.45328983007003" lon="11.642824603037699"><ele>22.0</ele><time>2026-04-16T09:11:31Z</time></trkpt><trkpt lat="45.45327189211772" lon="11.642736116709008"><ele>22.0</ele><time>2026-04-16T09:11:32Z</time></trkpt><trkpt lat="45.45326114149365" lon="11.642641292689868"><ele>22.0</ele><time>2026-04-16T09:11:33Z</time></trkpt><trkpt lat="45.453253425310955" lon="11.642547540740875"><ele>22.0</ele><time>2026-04-16T09:11:34Z</time></trkpt><trkpt lat="45.45324749123952" lon="11.642453149565087"><ele>22.0</ele><time>2026-04-16T09:11:35Z</time></trkpt><trkpt lat="45.45324069912849" lon="11.642356045058529"><ele>22.0</ele><time>2026-04-16T09:11:36Z</time></trkpt><trkpt lat="45.453227504169725" lon="11.642257925495331"><ele>22.0</ele><time>2026-04-16T09:11:37Z</time></trkpt><trkpt lat="45.45321556001792" lon="11.64216355451853"><ele>22.0</ele><time>2026-04-16T09:11:38Z</time></trkpt><trkpt lat="45.45320563031838" lon="11.642063976277873"><ele>22.142857142857142</ele><time>2026-04-16T09:11:39Z</time></trkpt><trkpt lat="45.453196373877624" lon="11.641963637635717"><ele>22.285714285714285</ele><time>2026-04-16T09:11:40Z</time></trkpt><trkpt lat="45.4531875609744" lon="11.64187231296501"><ele>22.42857142857143</ele><time>2026-04-16T09:11:41Z</time></trkpt><trkpt lat="45.45316563451175" lon="11.64177708337545"><ele>22.57142857142857</ele><time>2026-04-16T09:11:42Z</time></trkpt><trkpt lat="45.453147990837685" lon="11.641687059254199"><ele>22.71428571428571</ele><time>2026-04-16T09:11:43Z</time></trkpt><trkpt lat="45.453115355365654" lon="11.641597101802835"><ele>22.857142857142858</ele><time>2026-04-16T09:11:44Z</time></trkpt><trkpt lat="45.453070402185354" lon="11.64152232143366"><ele>23.0</ele><time>2026-04-16T09:11:45Z</time></trkpt><trkpt lat="45.45301271308361" lon="11.641465692499935"><ele>23.0</ele><time>2026-04-16T09:11:46Z</time></trkpt><trkpt lat="45.45294580511149" lon="11.641432871105094"><ele>23.0</ele><time>2026-04-16T09:11:47Z</time></trkpt><trkpt lat="45.45287162088413" lon="11.641437522589365"><ele>23.0</ele><time>2026-04-16T09:11:48Z</time></trkpt><trkpt lat="45.4528011741669" lon="11.641419375714825"><ele>23.0</ele><time>2026-04-16T09:11:49.001Z</time></trkpt><trkpt lat="45.452735992945634" lon="11.641391093459124"><ele>23.0</ele><time>2026-04-16T09:11:50.001Z</time></trkpt><trkpt lat="45.4526709715635" lon="11.64137055010187"><ele>23.0</ele><time>2026-04-16T09:11:51.001Z</time></trkpt><trkpt lat="45.45260380042164" lon="11.641352219031697"><ele>23.0</ele><time>2026-04-16T09:11:52.001Z</time></trkpt><trkpt lat="45.45253846730632" lon="11.64132886408107"><ele>23.0</ele><time>2026-04-16T09:11:53.001Z</time></trkpt><trkpt lat="45.45247795178781" lon="11.641301403739705"><ele>23.0</ele><time>2026-04-16T09:11:54.001Z</time></trkpt><trkpt lat="45.4524129736686" lon="11.641280949757554"><ele>23.0</ele><time>2026-04-16T09:11:55.001Z</time></trkpt><trkpt lat="45.45234968239979" lon="11.641261549669874"><ele>23.0</ele><time>2026-04-16T09:11:56.001Z</time></trkpt><trkpt lat="45.45228675786349" lon="11.641239582714064"><ele>23.0</ele><time>2026-04-16T09:11:57.001Z</time></trkpt><trkpt lat="45.45216624234632" lon="11.641207455554014"><ele>23.0</ele><time>2026-04-16T09:11:59.001Z</time></trkpt><trkpt lat="45.45204298644275" lon="11.641171130369786"><ele>23.0</ele><time>2026-04-16T09:12:01.001Z</time></trkpt><trkpt lat="45.45197956568305" lon="11.641150131933854"><ele>23.0</ele><time>2026-04-16T09:12:02.001Z</time></trkpt><trkpt lat="45.45191407559406" lon="11.641130922591127"><ele>23.0</ele><time>2026-04-16T09:12:03.001Z</time></trkpt><trkpt lat="45.451849941125026" lon="11.641112337811112"><ele>23.0</ele><time>2026-04-16T09:12:04.001Z</time></trkpt><trkpt lat="45.451784520752305" lon="11.641091791600562"><ele>23.0</ele><time>2026-04-16T09:12:05.001Z</time></trkpt><trkpt lat="45.45172014461338" lon="11.641065288950527"><ele>23.0</ele><time>2026-04-16T09:12:06.001Z</time></trkpt><trkpt lat="45.451654490829625" lon="11.641046646873258"><ele>23.0</ele><time>2026-04-16T09:12:07.001Z</time></trkpt><trkpt lat="45.45159080986143" lon="11.64102604146021"><ele>23.142857142857142</ele><time>2026-04-16T09:12:08.001Z</time></trkpt><trkpt lat="45.451528772702716" lon="11.641005080991349"><ele>23.285714285714285</ele><time>2026-04-16T09:12:09.001Z</time></trkpt><trkpt lat="45.45146578967412" lon="11.640983174582527"><ele>23.428571428571427</ele><time>2026-04-16T09:12:10.001Z</time></trkpt><trkpt lat="45.45140026126888" lon="11.640960732003819"><ele>23.57142857142857</ele><time>2026-04-16T09:12:11.001Z</time></trkpt><trkpt lat="45.451339300750014" lon="11.64093560289031"><ele>23.714285714285715</ele><time>2026-04-16T09:12:12.001Z</time></trkpt><trkpt lat="45.45127687343097" lon="11.640909271879334"><ele>23.857142857142854</ele><time>2026-04-16T09:12:13.001Z</time></trkpt><trkpt lat="45.45121579613588" lon="11.640877957781013"><ele>24.0</ele><time>2026-04-16T09:12:14.001Z</time></trkpt><trkpt lat="45.45109605168544" lon="11.640810245431187"><ele>24.0</ele><time>2026-04-16T09:12:16.001Z</time></trkpt><trkpt lat="45.450977617811745" lon="11.64075248563333"><ele>24.0</ele><time>2026-04-16T09:12:18.001Z</time></trkpt><trkpt lat="45.45085642384595" lon="11.640691831557556"><ele>24.0</ele><time>2026-04-16T09:12:20.001Z</time></trkpt><trkpt lat="45.45073937694089" lon="11.64062663705107"><ele>24.0</ele><time>2026-04-16T09:12:22.001Z</time></trkpt><trkpt lat="45.45062167955082" lon="11.6405622503247"><ele>24.0</ele><time>2026-04-16T09:12:24.001Z</time></trkpt><trkpt lat="45.45056009090032" lon="11.64052867898828"><ele>24.0</ele><time>2026-04-16T09:12:25.001Z</time></trkpt><trkpt lat="45.450501836604886" lon="11.640487733886038"><ele>24.0</ele><time>2026-04-16T09:12:26.002Z</time></trkpt><trkpt lat="45.45044475093574" lon="11.640440542623386"><ele>24.0</ele><time>2026-04-16T09:12:27.002Z</time></trkpt><trkpt lat="45.45033391747321" lon="11.640366418144456"><ele>24.0</ele><time>2026-04-16T09:12:29.002Z</time></trkpt><trkpt lat="45.45023111381976" lon="11.640278502532766"><ele>24.0</ele><time>2026-04-16T09:12:31.002Z</time></trkpt><trkpt lat="45.45013911900989" lon="11.640198485046406"><ele>24.0</ele><time>2026-04-16T09:12:33.002Z</time></trkpt><trkpt lat="45.45004823757233" lon="11.64010707970624"><ele>24.0</ele><time>2026-04-16T09:12:35.002Z</time></trkpt><trkpt lat="45.44995197112561" lon="11.640018236159428"><ele>24.0</ele><time>2026-04-16T09:12:37.002Z</time></trkpt><trkpt lat="45.449848767841" lon="11.639932830305723"><ele>24.0</ele><time>2026-04-16T09:12:39.002Z</time></trkpt><trkpt lat="45.449756390367945" lon="11.639841127592513"><ele>24.0</ele><time>2026-04-16T09:12:41.002Z</time></trkpt><trkpt lat="45.44965603775877" lon="11.639765406894409"><ele>24.0</ele><time>2026-04-16T09:12:43.002Z</time></trkpt><trkpt lat="45.44955385032874" lon="11.639701865613095"><ele>24.0</ele><time>2026-04-16T09:12:45.002Z</time></trkpt><trkpt lat="45.449463712013326" lon="11.639641751042655"><ele>24.0</ele><time>2026-04-16T09:12:47.002Z</time></trkpt><trkpt lat="45.449385901008114" lon="11.63958377490755"><ele>24.0</ele><time>2026-04-16T09:12:49.002Z</time></trkpt><trkpt lat="45.449307765726424" lon="11.639535462763524"><ele>24.0</ele><time>2026-04-16T09:12:51.002Z</time></trkpt><trkpt lat="45.4492503926838" lon="11.639488618500415"><ele>24.0</ele><time>2026-04-16T09:12:53.002Z</time></trkpt><trkpt lat="45.44925374251767" lon="11.63937007300747"><ele>24.0</ele><time>2026-04-16T09:12:57.002Z</time></trkpt><trkpt lat="45.4492429713171" lon="11.639255702888597"><ele>24.0</ele><time>2026-04-16T09:13:00.002Z</time></trkpt><trkpt lat="45.4491454357189" lon="11.639285886693333"><ele>24.0</ele><time>2026-04-16T09:13:03.002Z</time></trkpt><trkpt lat="45.44904737880224" lon="11.639288513469479"><ele>24.0</ele><time>2026-04-16T09:13:05.003Z</time></trkpt><trkpt lat="45.44898741147981" lon="11.639257851258721"><ele>24.166666666666668</ele><time>2026-04-16T09:13:06.003Z</time></trkpt><trkpt lat="45.44888795535771" lon="11.639172255333841"><ele>24.333333333333336</ele><time>2026-04-16T09:13:08.003Z</time></trkpt><trkpt lat="45.44882612114551" lon="11.639148549617945"><ele>24.5</ele><time>2026-04-16T09:13:09.003Z</time></trkpt><trkpt lat="45.4487156431413" lon="11.639079485752331"><ele>24.666666666666668</ele><time>2026-04-16T09:13:11.003Z</time></trkpt><trkpt lat="45.44865657124856" lon="11.639044319685576"><ele>24.833333333333336</ele><time>2026-04-16T09:13:12.003Z</time></trkpt><trkpt lat="45.44859958139347" lon="11.639000062106513"><ele>25.0</ele><time>2026-04-16T09:13:13.003Z</time></trkpt><trkpt lat="45.44854317554098" lon="11.63894958287187"><ele>24.714285714285715</ele><time>2026-04-16T09:13:14.003Z</time></trkpt><trkpt lat="45.44848013687656" lon="11.638921509770471"><ele>24.42857142857143</ele><time>2026-04-16T09:13:15.003Z</time></trkpt><trkpt lat="45.448415757493684" lon="11.638873502489115"><ele>24.142857142857146</ele><time>2026-04-16T09:13:16.003Z</time></trkpt><trkpt lat="45.448355535517756" lon="11.638828450056137"><ele>23.857142857142858</ele><time>2026-04-16T09:13:17.003Z</time></trkpt><trkpt lat="45.448298017146435" lon="11.638783275056019"><ele>23.57142857142857</ele><time>2026-04-16T09:13:18.003Z</time></trkpt><trkpt lat="45.44823643858493" lon="11.638746759521867"><ele>23.28571428571429</ele><time>2026-04-16T09:13:19.003Z</time></trkpt><trkpt lat="45.44817441365384" lon="11.638705036966439"><ele>23.0</ele><time>2026-04-16T09:13:20.003Z</time></trkpt><trkpt lat="45.4481109938345" lon="11.638667249910092"><ele>23.0</ele><time>2026-04-16T09:13:21.003Z</time></trkpt><trkpt lat="45.448054184462585" lon="11.638622773426363"><ele>23.0</ele><time>2026-04-16T09:13:22.003Z</time></trkpt><trkpt lat="45.44799462257714" lon="11.638577196398879"><ele>23.0</ele><time>2026-04-16T09:13:23Z</time></trkpt><trkpt lat="45.447933988262704" lon="11.638527683093432"><ele>23.0</ele><time>2026-04-16T09:13:24Z</time></trkpt><trkpt lat="45.44787100926855" lon="11.638489743182495"><ele>23.0</ele><time>2026-04-16T09:13:25Z</time></trkpt><trkpt lat="45.447810082091685" lon="11.63845046944703"><ele>23.0</ele><time>2026-04-16T09:13:26Z</time></trkpt><trkpt lat="45.44774870550923" lon="11.638414745555421"><ele>23.0</ele><time>2026-04-16T09:13:27Z</time></trkpt><trkpt lat="45.44768435633762" lon="11.638374337668486"><ele>23.0</ele><time>2026-04-16T09:13:28Z</time></trkpt><trkpt lat="45.44762909002872" lon="11.638325027446365"><ele>23.0</ele><time>2026-04-16T09:13:29Z</time></trkpt><trkpt lat="45.44757236591472" lon="11.638284058451347"><ele>23.0</ele><time>2026-04-16T09:13:30Z</time></trkpt><trkpt lat="45.44751072124859" lon="11.638240892655276"><ele>23.0</ele><time>2026-04-16T09:13:31Z</time></trkpt><trkpt lat="45.44744797551379" lon="11.638206869366691"><ele>23.0</ele><time>2026-04-16T09:13:32Z</time></trkpt><trkpt lat="45.447389271070364" lon="11.638170475558969"><ele>23.0</ele><time>2026-04-16T09:13:33Z</time></trkpt><trkpt lat="45.44728388813975" lon="11.638087079552186"><ele>23.0</ele><time>2026-04-16T09:13:35Z</time></trkpt><trkpt lat="45.44717688042211" lon="11.638019500110188"><ele>23.0</ele><time>2026-04-16T09:13:37Z</time></trkpt><trkpt lat="45.44708479451003" lon="11.63794490949275"><ele>23.0</ele><time>2026-04-16T09:13:39Z</time></trkpt><trkpt lat="45.44701661526327" lon="11.637872212609096"><ele>23.0</ele><time>2026-04-16T09:13:41Z</time></trkpt><trkpt lat="45.44701922576138" lon="11.63774234924898"><ele>23.0</ele><time>2026-04-16T09:13:43Z</time></trkpt><trkpt lat="45.447059336441335" lon="11.637630578878612"><ele>23.0</ele><time>2026-04-16T09:13:45Z</time></trkpt><trkpt lat="45.447108459972554" lon="11.637499275569649"><ele>22.799999999999997</ele><time>2026-04-16T09:13:47Z</time></trkpt><trkpt lat="45.44717250447203" lon="11.637374319556663"><ele>22.6</ele><time>2026-04-16T09:13:49Z</time></trkpt><trkpt lat="45.44726293727658" lon="11.63728381561193"><ele>22.4</ele><time>2026-04-16T09:13:51Z</time></trkpt><trkpt lat="45.44731093472198" lon="11.637170005317866"><ele>22.200000000000003</ele><time>2026-04-16T09:13:53Z</time></trkpt><trkpt lat="45.44733342555779" lon="11.637061157418342"><ele>22.0</ele><time>2026-04-16T09:13:55.001Z</time></trkpt><trkpt lat="45.4473600839808" lon="11.636968620887055"><ele>22.0</ele><time>2026-04-16T09:13:57.001Z</time></trkpt><trkpt lat="45.44729579574781" lon="11.636900425678379"><ele>22.0</ele><time>2026-04-16T09:13:59.001Z</time></trkpt><trkpt lat="45.44720954175759" lon="11.63685809737266"><ele>22.0</ele><time>2026-04-16T09:14:01.001Z</time></trkpt><trkpt lat="45.44710210337063" lon="11.63690236705342"><ele>22.0</ele><time>2026-04-16T09:14:03.001Z</time></trkpt><trkpt lat="45.44698677877087" lon="11.636825431354561"><ele>22.0</ele><time>2026-04-16T09:14:05.001Z</time></trkpt><trkpt lat="45.446951809870775" lon="11.636740484264497"><ele>22.0</ele><time>2026-04-16T09:14:06.001Z</time></trkpt><trkpt lat="45.44692081625397" lon="11.636656594875532"><ele>22.0</ele><time>2026-04-16T09:14:07.001Z</time></trkpt><trkpt lat="45.44688625677936" lon="11.636577400050268"><ele>22.0</ele><time>2026-04-16T09:14:08.001Z</time></trkpt><trkpt lat="45.44684671481341" lon="11.636502967428841"><ele>22.0</ele><time>2026-04-16T09:14:09.001Z</time></trkpt><trkpt lat="45.44680564786578" lon="11.63643037631962"><ele>22.0</ele><time>2026-04-16T09:14:10.001Z</time></trkpt><trkpt lat="45.4467633422548" lon="11.636357235288841"><ele>22.0</ele><time>2026-04-16T09:14:11.001Z</time></trkpt><trkpt lat="45.4467229096761" lon="11.636282052012684"><ele>22.0</ele><time>2026-04-16T09:14:12.001Z</time></trkpt><trkpt lat="45.446672071610706" lon="11.636215116511373"><ele>22.0</ele><time>2026-04-16T09:14:13.001Z</time></trkpt><trkpt lat="45.446623856108204" lon="11.636148831244098"><ele>22.0</ele><time>2026-04-16T09:14:14.001Z</time></trkpt><trkpt lat="45.44657587403716" lon="11.636081547374959"><ele>22.0</ele><time>2026-04-16T09:14:15.001Z</time></trkpt><trkpt lat="45.4465306711323" lon="11.636013196160555"><ele>22.0</ele><time>2026-04-16T09:14:16.001Z</time></trkpt><trkpt lat="45.44648814918027" lon="11.635943294876952"><ele>22.0</ele><time>2026-04-16T09:14:17.001Z</time></trkpt><trkpt lat="45.4464463426463" lon="11.635873611636239"><ele>22.0</ele><time>2026-04-16T09:14:18.001Z</time></trkpt><trkpt lat="45.44640180316356" lon="11.63580439378451"><ele>22.0</ele><time>2026-04-16T09:14:19.001Z</time></trkpt><trkpt lat="45.4463209268815" lon="11.635671427609047"><ele>22.0</ele><time>2026-04-16T09:14:21.001Z</time></trkpt><trkpt lat="45.44624136449029" lon="11.63555484478339"><ele>22.0</ele><time>2026-04-16T09:14:23.001Z</time></trkpt><trkpt lat="45.446168880187514" lon="11.635436791044286"><ele>22.0</ele><time>2026-04-16T09:14:25.001Z</time></trkpt><trkpt lat="45.446048238370054" lon="11.635251238561441"><ele>22.0</ele><time>2026-04-16T09:14:28.001Z</time></trkpt><trkpt lat="45.44597031691307" lon="11.63513293603036"><ele>22.0</ele><time>2026-04-16T09:14:30.001Z</time></trkpt><trkpt lat="45.44589673457274" lon="11.635022195569487"><ele>22.0</ele><time>2026-04-16T09:14:32.002Z</time></trkpt><trkpt lat="45.44582094188205" lon="11.63490836205869"><ele>22.0</ele><time>2026-04-16T09:14:34.002Z</time></trkpt><trkpt lat="45.445742309471235" lon="11.63478969960521"><ele>22.0</ele><time>2026-04-16T09:14:36.002Z</time></trkpt><trkpt lat="45.44566959691693" lon="11.634672714671582"><ele>22.0</ele><time>2026-04-16T09:14:38.002Z</time></trkpt><trkpt lat="45.44560075046709" lon="11.634576559708915"><ele>22.0</ele><time>2026-04-16T09:14:40.002Z</time></trkpt><trkpt lat="45.445546390797396" lon="11.63449131138653"><ele>22.0</ele><time>2026-04-16T09:14:42.002Z</time></trkpt><trkpt lat="45.44549037198666" lon="11.634412218476095"><ele>22.0</ele><time>2026-04-16T09:14:45.002Z</time></trkpt><trkpt lat="45.445348489974826" lon="11.634515932231793"><ele>22.0</ele><time>2026-04-16T09:23:36.001Z</time></trkpt><trkpt lat="45.445267674155915" lon="11.634473628818036"><ele>22.0</ele><time>2026-04-16T09:23:41.001Z</time></trkpt><trkpt lat="45.44521565233751" lon="11.634373328481344"><ele>22.0</ele><time>2026-04-16T09:23:44.001Z</time></trkpt><trkpt lat="45.44517725405965" lon="11.634278281372707"><ele>22.0</ele><time>2026-04-16T09:23:46.001Z</time></trkpt><trkpt lat="45.442449425457305" lon="11.633995366048326"><ele>21.8</ele><time>2026-04-16T09:24:47.002Z</time></trkpt><trkpt lat="45.44233984732127" lon="11.634058139180677"><ele>21.6</ele><time>2026-04-16T09:24:49.002Z</time></trkpt><trkpt lat="45.44223425956568" lon="11.634114094822847"><ele>21.400000000000002</ele><time>2026-04-16T09:24:51.002Z</time></trkpt><trkpt lat="45.44213143775699" lon="11.634170725103974"><ele>21.200000000000003</ele><time>2026-04-16T09:24:53.002Z</time></trkpt><trkpt lat="45.442034014105424" lon="11.634226023779267"><ele>21.0</ele><time>2026-04-16T09:24:55.002Z</time></trkpt><trkpt lat="45.44193984507651" lon="11.63428340264306"><ele>20.833333333333332</ele><time>2026-04-16T09:24:57.002Z</time></trkpt><trkpt lat="45.441825928498154" lon="11.63432732990343"><ele>20.666666666666668</ele><time>2026-04-16T09:24:59.002Z</time></trkpt><trkpt lat="45.44170634252113" lon="11.634389219588437"><ele>20.5</ele><time>2026-04-16T09:25:01Z</time></trkpt><trkpt lat="45.44164287502844" lon="11.634423810334498"><ele>20.333333333333336</ele><time>2026-04-16T09:25:02Z</time></trkpt><trkpt lat="45.441579700459044" lon="11.634458063173616"><ele>20.166666666666668</ele><time>2026-04-16T09:25:03Z</time></trkpt><trkpt lat="45.441517344320694" lon="11.634495377861933"><ele>20.0</ele><time>2026-04-16T09:25:04Z</time></trkpt><trkpt lat="45.441453616725504" lon="11.634528052651824"><ele>20.0</ele><time>2026-04-16T09:25:05Z</time></trkpt><trkpt lat="45.44139193841351" lon="11.634564687897424"><ele>20.0</ele><time>2026-04-16T09:25:06Z</time></trkpt><trkpt lat="45.4413291589464" lon="11.63460206523329"><ele>20.0</ele><time>2026-04-16T09:25:07Z</time></trkpt><trkpt lat="45.44120685259076" lon="11.634662180798875"><ele>20.0</ele><time>2026-04-16T09:25:09Z</time></trkpt><trkpt lat="45.441141871025735" lon="11.634690472668638"><ele>20.0</ele><time>2026-04-16T09:25:10Z</time></trkpt><trkpt lat="45.441082746614796" lon="11.634732164153057"><ele>20.0</ele><time>2026-04-16T09:25:11Z</time></trkpt><trkpt lat="45.44102214390482" lon="11.63476517352125"><ele>20.0</ele><time>2026-04-16T09:25:12Z</time></trkpt><trkpt lat="45.440956046392394" lon="11.634794835361578"><ele>20.0</ele><time>2026-04-16T09:25:13Z</time></trkpt><trkpt lat="45.44088811536526" lon="11.634825145848744"><ele>20.0</ele><time>2026-04-16T09:25:14Z</time></trkpt><trkpt lat="45.440823576871914" lon="11.63486262277838"><ele>20.0</ele><time>2026-04-16T09:25:15Z</time></trkpt><trkpt lat="45.44076046224439" lon="11.634896310071284"><ele>20.0</ele><time>2026-04-16T09:25:16Z</time></trkpt><trkpt lat="45.44069895733607" lon="11.634930032607157"><ele>20.0</ele><time>2026-04-16T09:25:17Z</time></trkpt><trkpt lat="45.44063882925065" lon="11.634969778548735"><ele>20.0</ele><time>2026-04-16T09:25:18Z</time></trkpt><trkpt lat="45.440573781705545" lon="11.635002042647542"><ele>20.0</ele><time>2026-04-16T09:25:19Z</time></trkpt><trkpt lat="45.440509740463476" lon="11.635035518835558"><ele>20.0</ele><time>2026-04-16T09:25:20Z</time></trkpt><trkpt lat="45.44044625648373" lon="11.635067279505632"><ele>20.0</ele><time>2026-04-16T09:25:21Z</time></trkpt><trkpt lat="45.4403817512624" lon="11.635101679646484"><ele>20.0</ele><time>2026-04-16T09:25:22Z</time></trkpt><trkpt lat="45.44031921433529" lon="11.635133369543315"><ele>20.0</ele><time>2026-04-16T09:25:23Z</time></trkpt><trkpt lat="45.44025483645964" lon="11.635165741032306"><ele>20.0</ele><time>2026-04-16T09:25:24Z</time></trkpt><trkpt lat="45.44019182013307" lon="11.635197026486548"><ele>20.0</ele><time>2026-04-16T09:25:25Z</time></trkpt><trkpt lat="45.44012739039215" lon="11.635226745973654"><ele>20.0</ele><time>2026-04-16T09:25:26Z</time></trkpt><trkpt lat="45.44006466436969" lon="11.63525718708014"><ele>20.0</ele><time>2026-04-16T09:25:27Z</time></trkpt><trkpt lat="45.440002259633964" lon="11.63529028020826"><ele>20.0</ele><time>2026-04-16T09:25:28Z</time></trkpt><trkpt lat="45.43994270864599" lon="11.635325664490564"><ele>20.0</ele><time>2026-04-16T09:25:29Z</time></trkpt><trkpt lat="45.43988071052042" lon="11.63535602905405"><ele>20.0</ele><time>2026-04-16T09:25:30Z</time></trkpt><trkpt lat="45.43981544943705" lon="11.635387023014568"><ele>20.0</ele><time>2026-04-16T09:25:31Z</time></trkpt><trkpt lat="45.43974776534959" lon="11.635414824263574"><ele>20.0</ele><time>2026-04-16T09:25:32Z</time></trkpt><trkpt lat="45.43968193049127" lon="11.635445516172943"><ele>19.857142857142858</ele><time>2026-04-16T09:25:33Z</time></trkpt><trkpt lat="45.43961049471954" lon="11.635473537891587"><ele>19.714285714285715</ele><time>2026-04-16T09:25:34Z</time></trkpt><trkpt lat="45.43954460548723" lon="11.635501931663319"><ele>19.57142857142857</ele><time>2026-04-16T09:25:35Z</time></trkpt><trkpt lat="45.439476325956264" lon="11.635538869846926"><ele>19.42857142857143</ele><time>2026-04-16T09:25:36Z</time></trkpt><trkpt lat="45.439407783313385" lon="11.635563321894574"><ele>19.28571428571429</ele><time>2026-04-16T09:25:37Z</time></trkpt><trkpt lat="45.43935226978484" lon="11.6356176925925"><ele>19.142857142857142</ele><time>2026-04-16T09:25:38Z</time></trkpt><trkpt lat="45.439305323061134" lon="11.635686082196965"><ele>19.0</ele><time>2026-04-16T09:25:39Z</time></trkpt><trkpt lat="45.43927557136448" lon="11.635772444499564"><ele>19.0</ele><time>2026-04-16T09:25:40.001Z</time></trkpt><trkpt lat="45.439237627884786" lon="11.63584657624111"><ele>19.0</ele><time>2026-04-16T09:25:41.001Z</time></trkpt><trkpt lat="45.43919130772518" lon="11.635911493576161"><ele>19.0</ele><time>2026-04-16T09:25:42.001Z</time></trkpt><trkpt lat="45.43913956134158" lon="11.635967261118958"><ele>19.0</ele><time>2026-04-16T09:25:43.001Z</time></trkpt><trkpt lat="45.43907877195325" lon="11.6360062110214"><ele>19.0</ele><time>2026-04-16T09:25:44.001Z</time></trkpt><trkpt lat="45.43901616998151" lon="11.636037142788606"><ele>19.0</ele><time>2026-04-16T09:25:45.001Z</time></trkpt><trkpt lat="45.43895021782603" lon="11.636054825658773"><ele>19.0</ele><time>2026-04-16T09:25:46.001Z</time></trkpt><trkpt lat="45.43666103036601" lon="11.63757740772295"><ele>19.0</ele><time>2026-04-16T09:26:47.002Z</time></trkpt><trkpt lat="45.43655476174398" lon="11.637574579910954"><ele>19.0</ele><time>2026-04-16T09:26:49.002Z</time></trkpt><trkpt lat="45.436441015249756" lon="11.63757629794532"><ele>19.0</ele><time>2026-04-16T09:26:51.002Z</time></trkpt><trkpt lat="45.43632472803873" lon="11.637586323852757"><ele>19.0</ele><time>2026-04-16T09:26:53.002Z</time></trkpt><trkpt lat="45.43620749377229" lon="11.63759664875988"><ele>19.0</ele><time>2026-04-16T09:26:55.002Z</time></trkpt><trkpt lat="45.43608778580555" lon="11.637598255623985"><ele>19.0</ele><time>2026-04-16T09:26:57.002Z</time></trkpt><trkpt lat="45.43597889638916" lon="11.637604238829464"><ele>19.0</ele><time>2026-04-16T09:26:59.002Z</time></trkpt><trkpt lat="45.4358664643515" lon="11.637627388499453"><ele>19.0</ele><time>2026-04-16T09:27:01.002Z</time></trkpt><trkpt lat="45.435746660894594" lon="11.637597443050996"><ele>19.0</ele><time>2026-04-16T09:27:03.002Z</time></trkpt><trkpt lat="45.43568979774956" lon="11.637557657839254"><ele>19.0</ele><time>2026-04-16T09:27:04.002Z</time></trkpt><trkpt lat="45.435636623188124" lon="11.637503808692198"><ele>19.0</ele><time>2026-04-16T09:27:05.002Z</time></trkpt><trkpt lat="45.435588507099546" lon="11.63744354114805"><ele>19.0</ele><time>2026-04-16T09:27:06Z</time></trkpt><trkpt lat="45.435547461756805" lon="11.637370193290579"><ele>19.0</ele><time>2026-04-16T09:27:07Z</time></trkpt><trkpt lat="45.435477049558656" lon="11.637226478433863"><ele>19.0</ele><time>2026-04-16T09:27:09Z</time></trkpt><trkpt lat="45.435401662425" lon="11.637097397280023"><ele>19.0</ele><time>2026-04-16T09:27:11Z</time></trkpt><trkpt lat="45.43534841946848" lon="11.63704947341599"><ele>19.0</ele><time>2026-04-16T09:27:12Z</time></trkpt><trkpt lat="45.43523112605885" lon="11.637013651241652"><ele>19.0</ele><time>2026-04-16T09:27:14Z</time></trkpt><trkpt lat="45.435108095542816" lon="11.637003445026753"><ele>19.0</ele><time>2026-04-16T09:27:16Z</time></trkpt><trkpt lat="45.43504133251759" lon="11.63701171159709"><ele>19.0</ele><time>2026-04-16T09:27:17Z</time></trkpt><trkpt lat="45.4349711423789" lon="11.637032722448726"><ele>19.0</ele><time>2026-04-16T09:27:18Z</time></trkpt><trkpt lat="45.43490143447836" lon="11.637059058184619"><ele>19.0</ele><time>2026-04-16T09:27:19Z</time></trkpt><trkpt lat="45.434829724897284" lon="11.637077951826594"><ele>19.0</ele><time>2026-04-16T09:27:20Z</time></trkpt><trkpt lat="45.434757417249216" lon="11.637096562556954"><ele>19.0</ele><time>2026-04-16T09:27:21Z</time></trkpt><trkpt lat="45.434687552841076" lon="11.637114083339343"><ele>19.0</ele><time>2026-04-16T09:27:22Z</time></trkpt><trkpt lat="45.434618109245456" lon="11.637129122349018"><ele>19.0</ele><time>2026-04-16T09:27:23Z</time></trkpt><trkpt lat="45.43454604934616" lon="11.637132546958163"><ele>19.0</ele><time>2026-04-16T09:27:24Z</time></trkpt><trkpt lat="45.43447509507958" lon="11.637133472892417"><ele>19.0</ele><time>2026-04-16T09:27:25Z</time></trkpt><trkpt lat="45.434400296034546" lon="11.637139533631936"><ele>18.71428571428571</ele><time>2026-04-16T09:27:26Z</time></trkpt><trkpt lat="45.43432489967324" lon="11.637139879035233"><ele>18.42857142857143</ele><time>2026-04-16T09:27:27Z</time></trkpt><trkpt lat="45.43425117036745" lon="11.63714366920255"><ele>18.142857142857142</ele><time>2026-04-16T09:27:28Z</time></trkpt><trkpt lat="45.434177022386166" lon="11.63715171319874"><ele>17.857142857142854</ele><time>2026-04-16T09:27:29Z</time></trkpt><trkpt lat="45.43410804947582" lon="11.637149942438185"><ele>17.57142857142857</ele><time>2026-04-16T09:27:30Z</time></trkpt><trkpt lat="45.43404215141069" lon="11.637157016237964"><ele>17.285714285714285</ele><time>2026-04-16T09:27:31Z</time></trkpt><trkpt lat="45.433978514740446" lon="11.637161865998351"><ele>17.0</ele><time>2026-04-16T09:27:32Z</time></trkpt><trkpt lat="45.433906933048576" lon="11.63717048533331"><ele>16.999999999999996</ele><time>2026-04-16T09:27:33Z</time></trkpt><trkpt lat="45.433832648740704" lon="11.637181077513285"><ele>17.0</ele><time>2026-04-16T09:27:34Z</time></trkpt><trkpt lat="45.43376112596826" lon="11.637188798252435"><ele>17.0</ele><time>2026-04-16T09:27:35Z</time></trkpt><trkpt lat="45.43369051940435" lon="11.637201730287268"><ele>17.0</ele><time>2026-04-16T09:27:36Z</time></trkpt><trkpt lat="45.43361960318315" lon="11.637217853067604"><ele>17.0</ele><time>2026-04-16T09:27:37Z</time></trkpt><trkpt lat="45.433551343070086" lon="11.637223186809422"><ele>16.999999999999996</ele><time>2026-04-16T09:27:38Z</time></trkpt><trkpt lat="45.43348022294496" lon="11.63722874106363"><ele>17.0</ele><time>2026-04-16T09:27:39Z</time></trkpt><trkpt lat="45.4334084135132" lon="11.63722943230958"><ele>16.999999999999996</ele><time>2026-04-16T09:27:40Z</time></trkpt><trkpt lat="45.43333747674551" lon="11.637236108412692"><ele>17.0</ele><time>2026-04-16T09:27:41Z</time></trkpt><trkpt lat="45.43326599800648" lon="11.63724288870074"><ele>17.0</ele><time>2026-04-16T09:27:42Z</time></trkpt><trkpt lat="45.433193296344804" lon="11.63724405038209"><ele>17.0</ele><time>2026-04-16T09:27:43Z</time></trkpt><trkpt lat="45.433121778301754" lon="11.63723717051737"><ele>17.0</ele><time>2026-04-16T09:27:44Z</time></trkpt><trkpt lat="45.43305252579547" lon="11.637237091283527"><ele>16.999999999999996</ele><time>2026-04-16T09:27:45Z</time></trkpt><trkpt lat="45.432983720606785" lon="11.637237093789015"><ele>17.0</ele><time>2026-04-16T09:27:46Z</time></trkpt><trkpt lat="45.42989864969044" lon="11.63841497131368"><ele>17.0</ele><time>2026-04-16T09:28:47.002Z</time></trkpt><trkpt lat="45.42983016351566" lon="11.638372630337013"><ele>17.0</ele><time>2026-04-16T09:29:05.002Z</time></trkpt><trkpt lat="45.42993927849936" lon="11.638382393990119"><ele>17.0</ele><time>2026-04-16T09:29:13.999Z</time></trkpt><trkpt lat="45.430115161425604" lon="11.638352843613532"><ele>17.0</ele><time>2026-04-16T09:29:19.999Z</time></trkpt><trkpt lat="45.43021490206056" lon="11.638291543484781"><ele>17.0</ele><time>2026-04-16T09:29:21.999Z</time></trkpt><trkpt lat="45.43031380173971" lon="11.638229721515097"><ele>17.0</ele><time>2026-04-16T09:29:24Z</time></trkpt><trkpt lat="45.43039405473127" lon="11.63816468433817"><ele>17.0</ele><time>2026-04-16T09:29:26Z</time></trkpt><trkpt lat="45.430480882573015" lon="11.638086882618152"><ele>17.0</ele><time>2026-04-16T09:29:28Z</time></trkpt><trkpt lat="45.43056026429488" lon="11.63799281748768"><ele>17.0</ele><time>2026-04-16T09:29:30Z</time></trkpt><trkpt lat="45.43064054027138" lon="11.637898464670418"><ele>17.2</ele><time>2026-04-16T09:29:32Z</time></trkpt><trkpt lat="45.43069851236709" lon="11.637768537993626"><ele>17.4</ele><time>2026-04-16T09:29:34Z</time></trkpt><trkpt lat="45.43072003828375" lon="11.637612094444787"><ele>17.6</ele><time>2026-04-16T09:29:36Z</time></trkpt><trkpt lat="45.430733950399386" lon="11.637453010887995"><ele>17.8</ele><time>2026-04-16T09:29:38Z</time></trkpt><trkpt lat="45.43074602830108" lon="11.637341387086629"><ele>18.0</ele><time>2026-04-16T09:29:40Z</time></trkpt><trkpt lat="45.43077676085334" lon="11.637227240359787"><ele>18.0</ele><time>2026-04-16T09:29:43Z</time></trkpt><trkpt lat="45.430880996848025" lon="11.637211642623472"><ele>18.0</ele><time>2026-04-16T09:29:46Z</time></trkpt><trkpt lat="45.43544839421274" lon="11.636698003322115"><ele>18.5</ele><time>2026-04-16T09:30:57.002Z</time></trkpt><trkpt lat="45.43553647594903" lon="11.637316053561621"><ele>19.0</ele><time>2026-04-16T09:30:58.002Z</time></trkpt><trkpt lat="45.43557847769819" lon="11.637396690871505"><ele>19.0</ele><time>2026-04-16T09:30:59.002Z</time></trkpt><trkpt lat="45.435621030037346" lon="11.637470634034573"><ele>19.0</ele><time>2026-04-16T09:31:00.002Z</time></trkpt><trkpt lat="45.435672721251" lon="11.637531277116226"><ele>19.0</ele><time>2026-04-16T09:31:01.002Z</time></trkpt><trkpt lat="45.435735220432846" lon="11.63757148839496"><ele>19.0</ele><time>2026-04-16T09:31:02.002Z</time></trkpt><trkpt lat="45.435801079825005" lon="11.637600737119213"><ele>19.0</ele><time>2026-04-16T09:31:03.002Z</time></trkpt><trkpt lat="45.43586684683966" lon="11.637615183611459"><ele>19.0</ele><time>2026-04-16T09:31:04.002Z</time></trkpt><trkpt lat="45.435936775982945" lon="11.63761544867235"><ele>19.0</ele><time>2026-04-16T09:31:05.002Z</time></trkpt><trkpt lat="45.43600609669035" lon="11.637604605039089"><ele>19.0</ele><time>2026-04-16T09:31:06.002Z</time></trkpt><trkpt lat="45.43607426663659" lon="11.637583315619842"><ele>19.0</ele><time>2026-04-16T09:31:07.002Z</time></trkpt><trkpt lat="45.436144791529934" lon="11.637573448236978"><ele>19.0</ele><time>2026-04-16T09:31:08.002Z</time></trkpt><trkpt lat="45.43621489462918" lon="11.637572493281493"><ele>19.0</ele><time>2026-04-16T09:31:09.002Z</time></trkpt><trkpt lat="45.43628639569634" lon="11.637569704522658"><ele>19.0</ele><time>2026-04-16T09:31:10.002Z</time></trkpt><trkpt lat="45.43635961142969" lon="11.6375680731135"><ele>19.0</ele><time>2026-04-16T09:31:11.002Z</time></trkpt><trkpt lat="45.436431408499935" lon="11.637572761239852"><ele>19.0</ele><time>2026-04-16T09:31:12.002Z</time></trkpt><trkpt lat="45.43650350269618" lon="11.637575548386911"><ele>18.857142857142858</ele><time>2026-04-16T09:31:13.002Z</time></trkpt><trkpt lat="45.43657506439679" lon="11.6375669526545"><ele>18.714285714285715</ele><time>2026-04-16T09:31:14.002Z</time></trkpt><trkpt lat="45.43664648970778" lon="11.637561182382239"><ele>18.571428571428573</ele><time>2026-04-16T09:31:15.002Z</time></trkpt><trkpt lat="45.43671364455405" lon="11.637559273876956"><ele>18.42857142857143</ele><time>2026-04-16T09:31:16.002Z</time></trkpt><trkpt lat="45.43678321966599" lon="11.637557863820765"><ele>18.285714285714285</ele><time>2026-04-16T09:31:17.002Z</time></trkpt><trkpt lat="45.43685261948431" lon="11.63754840248447"><ele>18.142857142857146</ele><time>2026-04-16T09:31:17.999Z</time></trkpt><trkpt lat="45.436921834290466" lon="11.637542718037489"><ele>18.0</ele><time>2026-04-16T09:31:18.999Z</time></trkpt><trkpt lat="45.4369860215986" lon="11.637548323406016"><ele>18.000000000000004</ele><time>2026-04-16T09:31:19.999Z</time></trkpt><trkpt lat="45.437057301397225" lon="11.637537432627541"><ele>18.0</ele><time>2026-04-16T09:31:20.999Z</time></trkpt><trkpt lat="45.43712540339117" lon="11.637528379547774"><ele>18.0</ele><time>2026-04-16T09:31:21.999Z</time></trkpt><trkpt lat="45.43719737681951" lon="11.637521900298823"><ele>18.0</ele><time>2026-04-16T09:31:23Z</time></trkpt><trkpt lat="45.43726495119004" lon="11.637524878359935"><ele>18.0</ele><time>2026-04-16T09:31:24Z</time></trkpt><trkpt lat="45.43733073420225" lon="11.637523953755093"><ele>18.000000000000004</ele><time>2026-04-16T09:31:25Z</time></trkpt><trkpt lat="45.43739525909595" lon="11.63751960666048"><ele>18.0</ele><time>2026-04-16T09:31:26Z</time></trkpt><trkpt lat="45.43751819616943" lon="11.637506235890857"><ele>18.0</ele><time>2026-04-16T09:31:28Z</time></trkpt><trkpt lat="45.4376343014448" lon="11.637506811244975"><ele>18.0</ele><time>2026-04-16T09:31:30Z</time></trkpt><trkpt lat="45.43774661338391" lon="11.637505101280958"><ele>18.0</ele><time>2026-04-16T09:31:32Z</time></trkpt><trkpt lat="45.4378636000588" lon="11.637504463810764"><ele>18.0</ele><time>2026-04-16T09:31:34Z</time></trkpt><trkpt lat="45.43798045973715" lon="11.637495265655748"><ele>18.0</ele><time>2026-04-16T09:31:36Z</time></trkpt><trkpt lat="45.43809175207619" lon="11.637488058644678"><ele>18.0</ele><time>2026-04-16T09:31:38Z</time></trkpt><trkpt lat="45.438192603366" lon="11.63745050351018"><ele>18.0</ele><time>2026-04-16T09:31:40Z</time></trkpt><trkpt lat="45.43824137200317" lon="11.637317872001754"><ele>18.0</ele><time>2026-04-16T09:31:42Z</time></trkpt><trkpt lat="45.43828976937736" lon="11.637239525696476"><ele>18.0</ele><time>2026-04-16T09:31:44Z</time></trkpt><trkpt lat="45.43836857886348" lon="11.637243533343714"><ele>20.0</ele><time>2026-04-16T09:31:46Z</time></trkpt><trkpt lat="45.43854547695654" lon="11.636438926537666"><ele>20.0</ele><time>2026-04-16T09:32:47.001Z</time></trkpt><trkpt lat="45.43861895791682" lon="11.636431943793111"><ele>20.0</ele><time>2026-04-16T09:32:49.001Z</time></trkpt><trkpt lat="45.438643534590135" lon="11.636306116491825"><ele>20.0</ele><time>2026-04-16T09:32:51.001Z</time></trkpt><trkpt lat="45.43868089559311" lon="11.6361788490375"><ele>20.0</ele><time>2026-04-16T09:32:53.001Z</time></trkpt><trkpt lat="45.43876192344115" lon="11.636095264741568"><ele>20.0</ele><time>2026-04-16T09:32:55.002Z</time></trkpt><trkpt lat="45.43885648926456" lon="11.636055233940052"><ele>19.8</ele><time>2026-04-16T09:32:57.002Z</time></trkpt><trkpt lat="45.43895182750563" lon="11.636015677392185"><ele>19.6</ele><time>2026-04-16T09:32:59.002Z</time></trkpt><trkpt lat="45.439046914311355" lon="11.635976170634482"><ele>19.4</ele><time>2026-04-16T09:33:01.002Z</time></trkpt><trkpt lat="45.43913521423781" lon="11.635940838298561"><ele>19.2</ele><time>2026-04-16T09:33:03.002Z</time></trkpt><trkpt lat="45.43920333772464" lon="11.6358484562327"><ele>19.0</ele><time>2026-04-16T09:33:05.002Z</time></trkpt><trkpt lat="45.43926208019805" lon="11.635755622660367"><ele>19.0</ele><time>2026-04-16T09:33:07.002Z</time></trkpt><trkpt lat="45.439318783681486" lon="11.635647437411963"><ele>19.0</ele><time>2026-04-16T09:33:09.002Z</time></trkpt><trkpt lat="45.43938720788785" lon="11.635549122141002"><ele>19.0</ele><time>2026-04-16T09:33:11.002Z</time></trkpt><trkpt lat="45.43948467809763" lon="11.635503010711439"><ele>19.0</ele><time>2026-04-16T09:33:13.002Z</time></trkpt><trkpt lat="45.43958191625677" lon="11.635460698724438"><ele>19.0</ele><time>2026-04-16T09:33:15.002Z</time></trkpt><trkpt lat="45.43967850671069" lon="11.63542005606995"><ele>19.2</ele><time>2026-04-16T09:33:17.002Z</time></trkpt><trkpt lat="45.43978062473547" lon="11.635375447420138"><ele>19.4</ele><time>2026-04-16T09:33:19.002Z</time></trkpt><trkpt lat="45.439880734557" lon="11.63531718594013"><ele>19.6</ele><time>2026-04-16T09:33:21.002Z</time></trkpt><trkpt lat="45.4399875451601" lon="11.635265587729341"><ele>19.8</ele><time>2026-04-16T09:33:23.002Z</time></trkpt><trkpt lat="45.44009021303086" lon="11.635207556979765"><ele>20.0</ele><time>2026-04-16T09:33:24.999Z</time></trkpt><trkpt lat="45.44019498455379" lon="11.635143507333726"><ele>20.0</ele><time>2026-04-16T09:33:26.999Z</time></trkpt><trkpt lat="45.44030965479929" lon="11.635098381418095"><ele>20.0</ele><time>2026-04-16T09:33:28.999Z</time></trkpt><trkpt lat="45.440424262924374" lon="11.63504699515519"><ele>20.0</ele><time>2026-04-16T09:33:30.999Z</time></trkpt><trkpt lat="45.440539886149026" lon="11.634982678040291"><ele>20.0</ele><time>2026-04-16T09:33:32.999Z</time></trkpt><trkpt lat="45.44059888995228" lon="11.634950997830106"><ele>20.0</ele><time>2026-04-16T09:33:33.999Z</time></trkpt><trkpt lat="45.440714380301564" lon="11.634882194230867"><ele>20.0</ele><time>2026-04-16T09:33:35.999Z</time></trkpt><trkpt lat="45.44083160778427" lon="11.63482558824346"><ele>20.0</ele><time>2026-04-16T09:33:37.999Z</time></trkpt><trkpt lat="45.440892014372565" lon="11.634791414403221"><ele>20.0</ele><time>2026-04-16T09:33:39Z</time></trkpt><trkpt lat="45.44095354599752" lon="11.634755583859455"><ele>20.0</ele><time>2026-04-16T09:33:40Z</time></trkpt><trkpt lat="45.44101709691392" lon="11.63472810988324"><ele>20.0</ele><time>2026-04-16T09:33:41Z</time></trkpt><trkpt lat="45.44108150180265" lon="11.634693446582755"><ele>20.0</ele><time>2026-04-16T09:33:42Z</time></trkpt><trkpt lat="45.44114457585131" lon="11.634662295437584"><ele>20.0</ele><time>2026-04-16T09:33:43Z</time></trkpt><trkpt lat="45.44120885330872" lon="11.634633985586696"><ele>20.0</ele><time>2026-04-16T09:33:44Z</time></trkpt><trkpt lat="45.441274071203225" lon="11.634603368713881"><ele>20.0</ele><time>2026-04-16T09:33:45Z</time></trkpt><trkpt lat="45.441336779053934" lon="11.63456294026632"><ele>20.0</ele><time>2026-04-16T09:33:46Z</time></trkpt><trkpt lat="45.44494922588774" lon="11.633955671503138"><ele>20.333333333333336</ele><time>2026-04-16T09:34:47.001Z</time></trkpt><trkpt lat="45.445020295153675" lon="11.634039737286823"><ele>20.666666666666668</ele><time>2026-04-16T09:34:49.001Z</time></trkpt><trkpt lat="45.445081012962" lon="11.634130580303637"><ele>21.0</ele><time>2026-04-16T09:34:51.002Z</time></trkpt><trkpt lat="45.445137761531306" lon="11.634208065806769"><ele>21.333333333333332</ele><time>2026-04-16T09:34:53.002Z</time></trkpt><trkpt lat="45.445188698233075" lon="11.634286095949863"><ele>21.666666666666664</ele><time>2026-04-16T09:34:55.002Z</time></trkpt><trkpt lat="45.44523221993362" lon="11.63436175245202"><ele>22.0</ele><time>2026-04-16T09:34:57.002Z</time></trkpt><trkpt lat="45.445268961486505" lon="11.634446309623252"><ele>22.0</ele><time>2026-04-16T09:34:59.002Z</time></trkpt><trkpt lat="45.44527787963946" lon="11.634543495151409"><ele>22.0</ele><time>2026-04-16T09:35:01.002Z</time></trkpt><trkpt lat="45.44534408281738" lon="11.63455025024693"><ele>22.0</ele><time>2026-04-16T09:35:04.002Z</time></trkpt><trkpt lat="45.44540904198375" lon="11.634494479983411"><ele>22.0</ele><time>2026-04-16T09:35:08.002Z</time></trkpt><trkpt lat="45.445456435624834" lon="11.634407895927595"><ele>22.0</ele><time>2026-04-16T09:35:23.002Z</time></trkpt><trkpt lat="45.44540775662028" lon="11.634308955478524"><ele>22.0</ele><time>2026-04-16T09:35:34Z</time></trkpt><trkpt lat="45.44535001120863" lon="11.634231023421606"><ele>22.0</ele><time>2026-04-16T09:35:36Z</time></trkpt><trkpt lat="45.445286169815574" lon="11.634131621263396"><ele>22.0</ele><time>2026-04-16T09:35:38Z</time></trkpt><trkpt lat="45.445200730744915" lon="11.634012416028565"><ele>22.0</ele><time>2026-04-16T09:35:40Z</time></trkpt><trkpt lat="45.44511613569695" lon="11.633875373189383"><ele>22.0</ele><time>2026-04-16T09:35:42Z</time></trkpt><trkpt lat="45.445066824483845" lon="11.633808364420041"><ele>22.0</ele><time>2026-04-16T09:35:43Z</time></trkpt><trkpt lat="45.44501897737253" lon="11.633740951492467"><ele>22.0</ele><time>2026-04-16T09:35:44Z</time></trkpt><trkpt lat="45.444974512967775" lon="11.633670637501156"><ele>22.0</ele><time>2026-04-16T09:35:45Z</time></trkpt><trkpt lat="45.444934606338975" lon="11.63359985014109"><ele>22.0</ele><time>2026-04-16T09:35:46Z</time></trkpt><trkpt lat="45.44337556143284" lon="11.631144169041917"><ele>21.666666666666664</ele><time>2026-04-16T09:36:47.001Z</time></trkpt><trkpt lat="45.443482280427475" lon="11.631232458712525"><ele>21.333333333333332</ele><time>2026-04-16T09:36:49.001Z</time></trkpt><trkpt lat="45.443534954545605" lon="11.63128175985603"><ele>21.0</ele><time>2026-04-16T09:36:50.001Z</time></trkpt><trkpt lat="45.44362771216867" lon="11.631406603973332"><ele>20.666666666666668</ele><time>2026-04-16T09:36:52.002Z</time></trkpt><trkpt lat="45.44367220627099" lon="11.631477643283892"><ele>20.333333333333336</ele><time>2026-04-16T09:36:53.002Z</time></trkpt><trkpt lat="45.443720034686415" lon="11.631544784654782"><ele>20.0</ele><time>2026-04-16T09:36:54.002Z</time></trkpt><trkpt lat="45.44377028501912" lon="11.631607403922075"><ele>19.833333333333336</ele><time>2026-04-16T09:36:55.002Z</time></trkpt><trkpt lat="45.44382151394235" lon="11.631666624207465"><ele>19.666666666666668</ele><time>2026-04-16T09:36:56.002Z</time></trkpt><trkpt lat="45.44386927836508" lon="11.631731311105446"><ele>19.5</ele><time>2026-04-16T09:36:57.002Z</time></trkpt><trkpt lat="45.44391684325771" lon="11.631797143328463"><ele>19.333333333333332</ele><time>2026-04-16T09:36:58.002Z</time></trkpt><trkpt lat="45.44396863414508" lon="11.631853705763582"><ele>19.166666666666664</ele><time>2026-04-16T09:36:59.002Z</time></trkpt><trkpt lat="45.44406261828291" lon="11.631958994060955"><ele>19.0</ele><time>2026-04-16T09:37:01.002Z</time></trkpt><trkpt lat="45.44416257645142" lon="11.632035626580793"><ele>19.0</ele><time>2026-04-16T09:37:03.002Z</time></trkpt><trkpt lat="45.44427216582095" lon="11.632004892984236"><ele>19.0</ele><time>2026-04-16T09:37:05.002Z</time></trkpt><trkpt lat="45.44439052843204" lon="11.631961750590378"><ele>19.0</ele><time>2026-04-16T09:37:07.002Z</time></trkpt><trkpt lat="45.444448243442636" lon="11.631921599081675"><ele>19.0</ele><time>2026-04-16T09:37:08.002Z</time></trkpt><trkpt lat="45.444505846017506" lon="11.631881525890089"><ele>19.0</ele><time>2026-04-16T09:37:09.002Z</time></trkpt><trkpt lat="45.44456343544475" lon="11.631841461933206"><ele>19.0</ele><time>2026-04-16T09:37:10.002Z</time></trkpt><trkpt lat="45.44462476466176" lon="11.631798936245467"><ele>19.285714285714285</ele><time>2026-04-16T09:37:11.002Z</time></trkpt><trkpt lat="45.444682341408" lon="11.63175704081038"><ele>19.571428571428573</ele><time>2026-04-16T09:37:12.002Z</time></trkpt><trkpt lat="45.44474076050172" lon="11.631715266563514"><ele>19.857142857142858</ele><time>2026-04-16T09:37:13.002Z</time></trkpt><trkpt lat="45.444799753907056" lon="11.631672098101085"><ele>20.142857142857142</ele><time>2026-04-16T09:37:14.002Z</time></trkpt><trkpt lat="45.444858110976334" lon="11.631629395542449"><ele>20.42857142857143</ele><time>2026-04-16T09:37:15.002Z</time></trkpt><trkpt lat="45.44491904815812" lon="11.631584804794914"><ele>20.714285714285715</ele><time>2026-04-16T09:37:16.002Z</time></trkpt><trkpt lat="45.444980072385825" lon="11.63154015048559"><ele>21.0</ele><time>2026-04-16T09:37:17.002Z</time></trkpt><trkpt lat="45.44504146818921" lon="11.63149522426371"><ele>21.0</ele><time>2026-04-16T09:37:18.002Z</time></trkpt><trkpt lat="45.445093630755764" lon="11.631434262867254"><ele>21.0</ele><time>2026-04-16T09:37:19.002Z</time></trkpt><trkpt lat="45.445153731394406" lon="11.631392179894636"><ele>21.0</ele><time>2026-04-16T09:37:20.002Z</time></trkpt><trkpt lat="45.44521271415018" lon="11.631346325198333"><ele>21.0</ele><time>2026-04-16T09:37:21.002Z</time></trkpt><trkpt lat="45.44527201190547" lon="11.63130075096463"><ele>21.0</ele><time>2026-04-16T09:37:22.002Z</time></trkpt><trkpt lat="45.44533762557827" lon="11.631278741546454"><ele>21.0</ele><time>2026-04-16T09:37:23.002Z</time></trkpt><trkpt lat="45.445394815957435" lon="11.63123798957534"><ele>21.0</ele><time>2026-04-16T09:37:24.002Z</time></trkpt><trkpt lat="45.44545195480168" lon="11.631197274191218"><ele>21.0</ele><time>2026-04-16T09:37:25.002Z</time></trkpt><trkpt lat="45.44551234213256" lon="11.63115424411646"><ele>21.0</ele><time>2026-04-16T09:37:26.002Z</time></trkpt><trkpt lat="45.44557237276264" lon="11.631111468233247"><ele>21.0</ele><time>2026-04-16T09:37:27.002Z</time></trkpt><trkpt lat="45.445625400676704" lon="11.631043093428136"><ele>21.0</ele><time>2026-04-16T09:37:28.002Z</time></trkpt><trkpt lat="45.445686167651466" lon="11.630997026458129"><ele>21.0</ele><time>2026-04-16T09:37:29.002Z</time></trkpt><trkpt lat="45.445749545393056" lon="11.630957059187226"><ele>21.0</ele><time>2026-04-16T09:37:30.002Z</time></trkpt><trkpt lat="45.44581426703365" lon="11.630918687793256"><ele>21.0</ele><time>2026-04-16T09:37:31.002Z</time></trkpt><trkpt lat="45.4458797178094" lon="11.630878960507488"><ele>21.142857142857142</ele><time>2026-04-16T09:37:32.002Z</time></trkpt><trkpt lat="45.445944434178266" lon="11.630841400747759"><ele>21.285714285714285</ele><time>2026-04-16T09:37:33.003Z</time></trkpt><trkpt lat="45.4460111119333" lon="11.630800192181537"><ele>21.42857142857143</ele><time>2026-04-16T09:37:34.003Z</time></trkpt><trkpt lat="45.446077888087274" lon="11.630763800780246"><ele>21.57142857142857</ele><time>2026-04-16T09:37:35.003Z</time></trkpt><trkpt lat="45.44614320969697" lon="11.630720776212538"><ele>21.714285714285715</ele><time>2026-04-16T09:37:36Z</time></trkpt><trkpt lat="45.44620822526081" lon="11.630678598662113"><ele>21.857142857142858</ele><time>2026-04-16T09:37:37Z</time></trkpt><trkpt lat="45.44627415271941" lon="11.630638258629421"><ele>22.0</ele><time>2026-04-16T09:37:38Z</time></trkpt><trkpt lat="45.446339674711766" lon="11.630602008383791"><ele>21.714285714285715</ele><time>2026-04-16T09:37:39Z</time></trkpt><trkpt lat="45.44640538860486" lon="11.63055769996086"><ele>21.428571428571427</ele><time>2026-04-16T09:37:40Z</time></trkpt><trkpt lat="45.44647195317891" lon="11.630521665120547"><ele>21.142857142857142</ele><time>2026-04-16T09:37:41Z</time></trkpt><trkpt lat="45.44654032826971" lon="11.63048936023285"><ele>20.857142857142858</ele><time>2026-04-16T09:37:42Z</time></trkpt><trkpt lat="45.446606083333975" lon="11.630451772123024"><ele>20.571428571428573</ele><time>2026-04-16T09:37:43Z</time></trkpt><trkpt lat="45.446672664845394" lon="11.63041490931462"><ele>20.285714285714285</ele><time>2026-04-16T09:37:44Z</time></trkpt><trkpt lat="45.446741420603516" lon="11.630376068411893"><ele>20.0</ele><time>2026-04-16T09:37:45Z</time></trkpt><trkpt lat="45.44680776160453" lon="11.63033749237795"><ele>21.0</ele><time>2026-04-16T09:37:46Z</time></trkpt><trkpt lat="45.44815871045548" lon="11.628497909543938"><ele>21.0</ele><time>2026-04-16T09:38:47.001Z</time></trkpt><trkpt lat="45.44807016593472" lon="11.628377747723468"><ele>21.0</ele><time>2026-04-16T09:38:49.001Z</time></trkpt><trkpt lat="45.4479762720986" lon="11.628266426154795"><ele>21.0</ele><time>2026-04-16T09:38:51.002Z</time></trkpt><trkpt lat="45.44792492668318" lon="11.628211988024436"><ele>21.0</ele><time>2026-04-16T09:38:52.002Z</time></trkpt><trkpt lat="45.44783035829513" lon="11.628099154269025"><ele>21.0</ele><time>2026-04-16T09:38:54.002Z</time></trkpt><trkpt lat="45.4477410149145" lon="11.62797159549025"><ele>21.200000000000003</ele><time>2026-04-16T09:38:56.002Z</time></trkpt><trkpt lat="45.44763984813105" lon="11.627854609416111"><ele>21.400000000000002</ele><time>2026-04-16T09:38:58.002Z</time></trkpt><trkpt lat="45.44759129199875" lon="11.62779700363823"><ele>21.6</ele><time>2026-04-16T09:38:59.002Z</time></trkpt><trkpt lat="45.447505098464475" lon="11.62768766703463"><ele>21.8</ele><time>2026-04-16T09:39:01.002Z</time></trkpt><trkpt lat="45.44742475905035" lon="11.627592509021298"><ele>22.0</ele><time>2026-04-16T09:39:03.002Z</time></trkpt><trkpt lat="45.4473406939818" lon="11.62749283128414"><ele>22.25</ele><time>2026-04-16T09:39:05.002Z</time></trkpt><trkpt lat="45.44725574757992" lon="11.62739280544909"><ele>22.5</ele><time>2026-04-16T09:39:07.002Z</time></trkpt><trkpt lat="45.44717222285761" lon="11.62728059522684"><ele>22.75</ele><time>2026-04-16T09:39:09.002Z</time></trkpt><trkpt lat="45.44709687183258" lon="11.627155908056007"><ele>23.0</ele><time>2026-04-16T09:39:11.002Z</time></trkpt><trkpt lat="45.44703222178218" lon="11.627012459704115"><ele>22.833333333333336</ele><time>2026-04-16T09:39:13.002Z</time></trkpt><trkpt lat="45.44695613669335" lon="11.626881141506114"><ele>22.666666666666668</ele><time>2026-04-16T09:39:15.002Z</time></trkpt><trkpt lat="45.44690771847594" lon="11.626823661014443"><ele>22.5</ele><time>2026-04-16T09:39:16.002Z</time></trkpt><trkpt lat="45.44679991091696" lon="11.626733259943737"><ele>22.333333333333332</ele><time>2026-04-16T09:39:18.002Z</time></trkpt><trkpt lat="45.446747012888416" lon="11.626683033707868"><ele>22.166666666666664</ele><time>2026-04-16T09:39:19.002Z</time></trkpt><trkpt lat="45.44670114915996" lon="11.626619369602647"><ele>22.0</ele><time>2026-04-16T09:39:20.002Z</time></trkpt><trkpt lat="45.446614716825394" lon="11.626494981342072"><ele>22.0</ele><time>2026-04-16T09:39:22.002Z</time></trkpt><trkpt lat="45.4465208616544" lon="11.626390837579132"><ele>22.0</ele><time>2026-04-16T09:39:24.002Z</time></trkpt><trkpt lat="45.446430910486605" lon="11.626276068762314"><ele>22.0</ele><time>2026-04-16T09:39:26.002Z</time></trkpt><trkpt lat="45.44633884125973" lon="11.626170186476754"><ele>22.0</ele><time>2026-04-16T09:39:28.002Z</time></trkpt><trkpt lat="45.44624230398614" lon="11.62604256950027"><ele>22.200000000000003</ele><time>2026-04-16T09:39:30.003Z</time></trkpt><trkpt lat="45.446187813183634" lon="11.625983344031143"><ele>22.4</ele><time>2026-04-16T09:39:31.003Z</time></trkpt><trkpt lat="45.44613754365342" lon="11.625924175298474"><ele>22.6</ele><time>2026-04-16T09:39:32.003Z</time></trkpt><trkpt lat="45.44604256311704" lon="11.625804430404356"><ele>22.799999999999997</ele><time>2026-04-16T09:39:34.003Z</time></trkpt><trkpt lat="45.44599302857548" lon="11.625748128602282"><ele>23.0</ele><time>2026-04-16T09:39:35.003Z</time></trkpt><trkpt lat="45.445901071235554" lon="11.625625571435442"><ele>23.0</ele><time>2026-04-16T09:39:37.003Z</time></trkpt><trkpt lat="45.445808245066026" lon="11.625501916703392"><ele>23.0</ele><time>2026-04-16T09:39:39.003Z</time></trkpt><trkpt lat="45.445706565755756" lon="11.625394963683156"><ele>23.0</ele><time>2026-04-16T09:39:41.003Z</time></trkpt><trkpt lat="45.44566059264716" lon="11.625331478034617"><ele>23.0</ele><time>2026-04-16T09:39:42Z</time></trkpt><trkpt lat="45.44561621785771" lon="11.625267132957346"><ele>23.0</ele><time>2026-04-16T09:39:43Z</time></trkpt><trkpt lat="45.44556715186267" lon="11.625202881645722"><ele>23.0</ele><time>2026-04-16T09:39:44Z</time></trkpt><trkpt lat="45.44551525299177" lon="11.625147757619715"><ele>22.5</ele><time>2026-04-16T09:39:45Z</time></trkpt><trkpt lat="45.44546554151862" lon="11.62508832605572"><ele>22.0</ele><time>2026-04-16T09:39:46Z</time></trkpt><trkpt lat="45.44232891912823" lon="11.62131271050813"><ele>22.0</ele><time>2026-04-16T09:40:47.001Z</time></trkpt><trkpt lat="45.44227893491938" lon="11.621248285280881"><ele>22.0</ele><time>2026-04-16T09:40:48.001Z</time></trkpt><trkpt lat="45.44222508334058" lon="11.621187099592918"><ele>22.0</ele><time>2026-04-16T09:40:49.001Z</time></trkpt><trkpt lat="45.442169279406016" lon="11.621128854988328"><ele>22.0</ele><time>2026-04-16T09:40:50.001Z</time></trkpt><trkpt lat="45.44211734086887" lon="11.62106511929673"><ele>22.0</ele><time>2026-04-16T09:40:51.001Z</time></trkpt><trkpt lat="45.442061804328645" lon="11.621006582780918"><ele>22.0</ele><time>2026-04-16T09:40:52.001Z</time></trkpt><trkpt lat="45.442009653859344" lon="11.620949077044239"><ele>22.0</ele><time>2026-04-16T09:40:53.001Z</time></trkpt><trkpt lat="45.441913470230304" lon="11.620838743178714"><ele>22.166666666666664</ele><time>2026-04-16T09:40:55.002Z</time></trkpt><trkpt lat="45.44182355065644" lon="11.620727048398864"><ele>22.333333333333332</ele><time>2026-04-16T09:40:57.002Z</time></trkpt><trkpt lat="45.441780347714655" lon="11.62066098097518"><ele>22.5</ele><time>2026-04-16T09:40:58.002Z</time></trkpt><trkpt lat="45.44173118022988" lon="11.620597698428707"><ele>22.666666666666668</ele><time>2026-04-16T09:40:59.002Z</time></trkpt><trkpt lat="45.44167567688382" lon="11.620537036714861"><ele>22.833333333333336</ele><time>2026-04-16T09:41:00.002Z</time></trkpt><trkpt lat="45.441626242698526" lon="11.62047222221315"><ele>23.0</ele><time>2026-04-16T09:41:01.002Z</time></trkpt><trkpt lat="45.44157045048161" lon="11.620414525826048"><ele>23.0</ele><time>2026-04-16T09:41:02.002Z</time></trkpt><trkpt lat="45.44151641884591" lon="11.62035464790712"><ele>23.0</ele><time>2026-04-16T09:41:03.002Z</time></trkpt><trkpt lat="45.44146094873334" lon="11.620290312806983"><ele>23.0</ele><time>2026-04-16T09:41:04.002Z</time></trkpt><trkpt lat="45.44140826274751" lon="11.620224753906694"><ele>23.0</ele><time>2026-04-16T09:41:05.002Z</time></trkpt><trkpt lat="45.441349826854946" lon="11.620156983304172"><ele>23.0</ele><time>2026-04-16T09:41:06.002Z</time></trkpt><trkpt lat="45.44129272626101" lon="11.62009972126001"><ele>23.0</ele><time>2026-04-16T09:41:07.002Z</time></trkpt><trkpt lat="45.44123644442575" lon="11.620043178376614"><ele>23.0</ele><time>2026-04-16T09:41:08.002Z</time></trkpt><trkpt lat="45.44118057291735" lon="11.619977630999761"><ele>22.857142857142858</ele><time>2026-04-16T09:41:09.002Z</time></trkpt><trkpt lat="45.44112556623249" lon="11.61991383507728"><ele>22.71428571428571</ele><time>2026-04-16T09:41:10.002Z</time></trkpt><trkpt lat="45.44107200332974" lon="11.619842411434314"><ele>22.57142857142857</ele><time>2026-04-16T09:41:11.002Z</time></trkpt><trkpt lat="45.44101687391068" lon="11.619776921488567"><ele>22.42857142857143</ele><time>2026-04-16T09:41:12.002Z</time></trkpt><trkpt lat="45.440959194380035" lon="11.61971142218837"><ele>22.285714285714285</ele><time>2026-04-16T09:41:13.002Z</time></trkpt><trkpt lat="45.44090316531431" lon="11.619644865278072"><ele>22.142857142857142</ele><time>2026-04-16T09:41:14.002Z</time></trkpt><trkpt lat="45.44085125941674" lon="11.619571170903008"><ele>22.0</ele><time>2026-04-16T09:41:15.002Z</time></trkpt><trkpt lat="45.44080244989282" lon="11.619497376609283"><ele>22.0</ele><time>2026-04-16T09:41:16.002Z</time></trkpt><trkpt lat="45.44074704597266" lon="11.61943072560651"><ele>22.0</ele><time>2026-04-16T09:41:17.002Z</time></trkpt><trkpt lat="45.44069328315386" lon="11.619367249784345"><ele>22.0</ele><time>2026-04-16T09:41:18.002Z</time></trkpt><trkpt lat="45.44064381954861" lon="11.619295459206704"><ele>22.0</ele><time>2026-04-16T09:41:19.002Z</time></trkpt><trkpt lat="45.440589502306636" lon="11.619227613496586"><ele>22.0</ele><time>2026-04-16T09:41:20.002Z</time></trkpt><trkpt lat="45.44053397826917" lon="11.619161757849257"><ele>22.0</ele><time>2026-04-16T09:41:21.002Z</time></trkpt><trkpt lat="45.44047862754105" lon="11.619096328678545"><ele>22.0</ele><time>2026-04-16T09:41:22.002Z</time></trkpt><trkpt lat="45.440425874463905" lon="11.61903214529708"><ele>22.0</ele><time>2026-04-16T09:41:23.002Z</time></trkpt><trkpt lat="45.44037367463296" lon="11.61896693156029"><ele>22.0</ele><time>2026-04-16T09:41:24.002Z</time></trkpt><trkpt lat="45.44031985658829" lon="11.61890234153155"><ele>22.0</ele><time>2026-04-16T09:41:25.002Z</time></trkpt><trkpt lat="45.44026680248582" lon="11.618837099554998"><ele>22.0</ele><time>2026-04-16T09:41:26.002Z</time></trkpt><trkpt lat="45.44021179738311" lon="11.618772406567542"><ele>22.0</ele><time>2026-04-16T09:41:27.002Z</time></trkpt><trkpt lat="45.440153862620015" lon="11.618713406486851"><ele>22.0</ele><time>2026-04-16T09:41:28.002Z</time></trkpt><trkpt lat="45.44009936022184" lon="11.618651940413734"><ele>22.0</ele><time>2026-04-16T09:41:29.002Z</time></trkpt><trkpt lat="45.440049101993765" lon="11.618575311304378"><ele>22.0</ele><time>2026-04-16T09:41:30.002Z</time></trkpt><trkpt lat="45.44000093181063" lon="11.618496378891516"><ele>22.0</ele><time>2026-04-16T09:41:31.002Z</time></trkpt><trkpt lat="45.439946934441686" lon="11.618428510922756"><ele>22.0</ele><time>2026-04-16T09:41:32.002Z</time></trkpt><trkpt lat="45.439894914205155" lon="11.618358880636933"><ele>22.0</ele><time>2026-04-16T09:41:33.002Z</time></trkpt><trkpt lat="45.43984168268874" lon="11.618294230410738"><ele>22.0</ele><time>2026-04-16T09:41:34.002Z</time></trkpt><trkpt lat="45.43978737705768" lon="11.618231949556614"><ele>22.0</ele><time>2026-04-16T09:41:35.003Z</time></trkpt><trkpt lat="45.439729972078595" lon="11.618172076750717"><ele>22.0</ele><time>2026-04-16T09:41:36.003Z</time></trkpt><trkpt lat="45.439674991958235" lon="11.618109275197604"><ele>22.0</ele><time>2026-04-16T09:41:37.003Z</time></trkpt><trkpt lat="45.43962328790896" lon="11.618045873854266"><ele>22.0</ele><time>2026-04-16T09:41:38.003Z</time></trkpt><trkpt lat="45.4395695568948" lon="11.61798746842998"><ele>22.0</ele><time>2026-04-16T09:41:39.003Z</time></trkpt><trkpt lat="45.439517686527" lon="11.617930532734594"><ele>22.0</ele><time>2026-04-16T09:41:40.003Z</time></trkpt><trkpt lat="45.43946813063255" lon="11.617871763289285"><ele>22.0</ele><time>2026-04-16T09:41:41.003Z</time></trkpt><trkpt lat="45.439419079443276" lon="11.617812549837488"><ele>22.0</ele><time>2026-04-16T09:41:42.003Z</time></trkpt><trkpt lat="45.43936941965279" lon="11.617752644310576"><ele>22.0</ele><time>2026-04-16T09:41:43.003Z</time></trkpt><trkpt lat="45.43931437171243" lon="11.61769744520528"><ele>21.666666666666664</ele><time>2026-04-16T09:41:44.003Z</time></trkpt><trkpt lat="45.43926602797426" lon="11.617631008883402"><ele>21.333333333333332</ele><time>2026-04-16T09:41:45.003Z</time></trkpt><trkpt lat="45.43921732540589" lon="11.617565389313706"><ele>21.0</ele><time>2026-04-16T09:41:46.003Z</time></trkpt><trkpt lat="45.43714836269478" lon="11.614790327298788"><ele>21.0</ele><time>2026-04-16T09:42:47.001Z</time></trkpt><trkpt lat="45.437060170845655" lon="11.614791356590391"><ele>21.0</ele><time>2026-04-16T09:42:49.001Z</time></trkpt><trkpt lat="45.436965845588134" lon="11.614793232244832"><ele>21.0</ele><time>2026-04-16T09:42:51.001Z</time></trkpt><trkpt lat="45.436880112908256" lon="11.614728907188185"><ele>21.0</ele><time>2026-04-16T09:42:53.001Z</time></trkpt><trkpt lat="45.43680101864458" lon="11.614631561937124"><ele>21.0</ele><time>2026-04-16T09:42:55.001Z</time></trkpt><trkpt lat="45.436718182637804" lon="11.614527239532043"><ele>20.75</ele><time>2026-04-16T09:42:57.001Z</time></trkpt><trkpt lat="45.436631998545224" lon="11.614423274889246"><ele>20.5</ele><time>2026-04-16T09:42:59.001Z</time></trkpt><trkpt lat="45.43654349731147" lon="11.614315105661614"><ele>20.25</ele><time>2026-04-16T09:43:01.002Z</time></trkpt><trkpt lat="45.436457382976094" lon="11.614205768975651"><ele>20.0</ele><time>2026-04-16T09:43:03.002Z</time></trkpt><trkpt lat="45.436369891902" lon="11.614099749632395"><ele>20.0</ele><time>2026-04-16T09:43:05.002Z</time></trkpt><trkpt lat="45.43628068039948" lon="11.613999346625803"><ele>20.0</ele><time>2026-04-16T09:43:07.002Z</time></trkpt><trkpt lat="45.43619743238297" lon="11.6138938917255"><ele>20.0</ele><time>2026-04-16T09:43:09.002Z</time></trkpt><trkpt lat="45.43611646139448" lon="11.613796016862446"><ele>20.0</ele><time>2026-04-16T09:43:11.002Z</time></trkpt><trkpt lat="45.436047245147805" lon="11.613695664689935"><ele>20.0</ele><time>2026-04-16T09:43:13.002Z</time></trkpt><trkpt lat="45.43597709957941" lon="11.613612085247132"><ele>20.0</ele><time>2026-04-16T09:43:15.002Z</time></trkpt><trkpt lat="45.4359037591887" lon="11.613543099463563"><ele>20.0</ele><time>2026-04-16T09:43:17.002Z</time></trkpt><trkpt lat="45.43585358777041" lon="11.61348860126245"><ele>20.0</ele><time>2026-04-16T09:43:19.002Z</time></trkpt><trkpt lat="45.43577922161015" lon="11.613434162633213"><ele>20.0</ele><time>2026-04-16T09:43:32.002Z</time></trkpt><trkpt lat="45.43572578675961" lon="11.613335528864251"><ele>20.0</ele><time>2026-04-16T09:43:36.002Z</time></trkpt><trkpt lat="45.43569219728029" lon="11.613246367484695"><ele>20.0</ele><time>2026-04-16T09:43:39.002Z</time></trkpt><trkpt lat="45.43564334062338" lon="11.613185272423033"><ele>20.0</ele><time>2026-04-16T09:43:41.003Z</time></trkpt><trkpt lat="45.43557202170156" lon="11.613095233683786"><ele>20.0</ele><time>2026-04-16T09:43:43.003Z</time></trkpt><trkpt lat="45.43548877526528" lon="11.612999806416974"><ele>20.0</ele><time>2026-04-16T09:43:45.003Z</time></trkpt><trkpt lat="45.43271457990888" lon="11.60960412012637"><ele>19.833333333333336</ele><time>2026-04-16T09:44:47.001Z</time></trkpt><trkpt lat="45.43266905860473" lon="11.609537978100201"><ele>19.666666666666668</ele><time>2026-04-16T09:44:50.001Z</time></trkpt><trkpt lat="45.43261878282795" lon="11.60946103106627"><ele>19.5</ele><time>2026-04-16T09:44:53.001Z</time></trkpt><trkpt lat="45.43253261518286" lon="11.60940499948956"><ele>19.333333333333332</ele><time>2026-04-16T09:44:56.001Z</time></trkpt><trkpt lat="45.43247975240388" lon="11.609323054074881"><ele>19.166666666666664</ele><time>2026-04-16T09:44:58.001Z</time></trkpt><trkpt lat="45.43242969008676" lon="11.609253380916869"><ele>19.0</ele><time>2026-04-16T09:45:00.001Z</time></trkpt><trkpt lat="45.43237824323446" lon="11.609189828930232"><ele>19.2</ele><time>2026-04-16T09:45:02.002Z</time></trkpt><trkpt lat="45.43232934796496" lon="11.60913051133285"><ele>19.4</ele><time>2026-04-16T09:45:04.002Z</time></trkpt><trkpt lat="45.43225635082341" lon="11.609033012820996"><ele>19.6</ele><time>2026-04-16T09:45:07.002Z</time></trkpt><trkpt lat="45.43218702691671" lon="11.608958316037329"><ele>19.8</ele><time>2026-04-16T09:45:09.002Z</time></trkpt><trkpt lat="45.43211471840821" lon="11.608869155124722"><ele>20.0</ele><time>2026-04-16T09:45:11.002Z</time></trkpt><trkpt lat="45.43203700322832" lon="11.608766044849686"><ele>20.0</ele><time>2026-04-16T09:45:13.002Z</time></trkpt><trkpt lat="45.43195591740194" lon="11.60866269494279"><ele>20.0</ele><time>2026-04-16T09:45:15.002Z</time></trkpt><trkpt lat="45.43186822195921" lon="11.608558888141193"><ele>20.0</ele><time>2026-04-16T09:45:17.002Z</time></trkpt><trkpt lat="45.43178337327932" lon="11.608449632189862"><ele>20.0</ele><time>2026-04-16T09:45:19.002Z</time></trkpt><trkpt lat="45.43169918690758" lon="11.608346322017388"><ele>20.0</ele><time>2026-04-16T09:45:21.002Z</time></trkpt><trkpt lat="45.43161816941901" lon="11.608243068614348"><ele>20.0</ele><time>2026-04-16T09:45:23.002Z</time></trkpt><trkpt lat="45.43154076966684" lon="11.608146940455946"><ele>20.0</ele><time>2026-04-16T09:45:25.002Z</time></trkpt><trkpt lat="45.43145618802086" lon="11.608042267918394"><ele>20.0</ele><time>2026-04-16T09:45:27.002Z</time></trkpt><trkpt lat="45.431370132751354" lon="11.607951056233485"><ele>20.0</ele><time>2026-04-16T09:45:29.002Z</time></trkpt><trkpt lat="45.43130059206297" lon="11.607860217930108"><ele>20.0</ele><time>2026-04-16T09:45:31.002Z</time></trkpt><trkpt lat="45.431232825567484" lon="11.607781946137987"><ele>20.0</ele><time>2026-04-16T09:45:33.002Z</time></trkpt><trkpt lat="45.43115960158631" lon="11.607701289073614"><ele>20.0</ele><time>2026-04-16T09:45:35.002Z</time></trkpt><trkpt lat="45.43108257613161" lon="11.60760224049993"><ele>20.0</ele><time>2026-04-16T09:45:37.002Z</time></trkpt><trkpt lat="45.43100243170483" lon="11.607508395966383"><ele>20.0</ele><time>2026-04-16T09:45:39.002Z</time></trkpt><trkpt lat="45.430934690429005" lon="11.607412041016756"><ele>20.0</ele><time>2026-04-16T09:45:41.002Z</time></trkpt><trkpt lat="45.43085735908645" lon="11.607323735673825"><ele>20.0</ele><time>2026-04-16T09:45:43.002Z</time></trkpt><trkpt lat="45.430768837244095" lon="11.607212943671298"><ele>20.0</ele><time>2026-04-16T09:45:45.003Z</time></trkpt><trkpt lat="45.42937017228741" lon="11.605520182460888"><ele>19.6</ele><time>2026-04-16T09:46:47.001Z</time></trkpt><trkpt lat="45.429309293882135" lon="11.605436435972214"><ele>19.2</ele><time>2026-04-16T09:46:50.001Z</time></trkpt><trkpt lat="45.429254075887776" lon="11.605356903328698"><ele>18.8</ele><time>2026-04-16T09:46:52.001Z</time></trkpt><trkpt lat="45.429180040872026" lon="11.605281576991938"><ele>18.4</ele><time>2026-04-16T09:46:54.001Z</time></trkpt><trkpt lat="45.42909876839674" lon="11.605175527191443"><ele>18.0</ele><time>2026-04-16T09:46:56.001Z</time></trkpt><trkpt lat="45.42900717655676" lon="11.605070099715084"><ele>18.0</ele><time>2026-04-16T09:46:58.001Z</time></trkpt><trkpt lat="45.4289140531386" lon="11.604960436302722"><ele>18.0</ele><time>2026-04-16T09:47:00.001Z</time></trkpt><trkpt lat="45.428865466740916" lon="11.60490319170394"><ele>18.0</ele><time>2026-04-16T09:47:01.001Z</time></trkpt><trkpt lat="45.42877054578519" lon="11.604784259374348"><ele>18.0</ele><time>2026-04-16T09:47:03.001Z</time></trkpt><trkpt lat="45.42867482906629" lon="11.60467080201443"><ele>18.0</ele><time>2026-04-16T09:47:05.001Z</time></trkpt><trkpt lat="45.428577359855886" lon="11.604556958914085"><ele>17.75</ele><time>2026-04-16T09:47:07.001Z</time></trkpt><trkpt lat="45.42848599909718" lon="11.604441456936286"><ele>17.5</ele><time>2026-04-16T09:47:09.001Z</time></trkpt><trkpt lat="45.42839329170224" lon="11.604330071230097"><ele>17.25</ele><time>2026-04-16T09:47:11.001Z</time></trkpt><trkpt lat="45.42830327426781" lon="11.604215598935381"><ele>17.0</ele><time>2026-04-16T09:47:13.001Z</time></trkpt><trkpt lat="45.4282117100968" lon="11.604101150606416"><ele>17.0</ele><time>2026-04-16T09:47:15.002Z</time></trkpt><trkpt lat="45.42811786844609" lon="11.603985988655763"><ele>17.0</ele><time>2026-04-16T09:47:17.002Z</time></trkpt><trkpt lat="45.42802393558287" lon="11.603867903717529"><ele>17.0</ele><time>2026-04-16T09:47:19.002Z</time></trkpt><trkpt lat="45.427977067579064" lon="11.603807952892145"><ele>17.0</ele><time>2026-04-16T09:47:20.002Z</time></trkpt><trkpt lat="45.427887864520756" lon="11.603691670336302"><ele>17.0</ele><time>2026-04-16T09:47:22.002Z</time></trkpt><trkpt lat="45.42779642564065" lon="11.603572595914542"><ele>17.333333333333336</ele><time>2026-04-16T09:47:24.002Z</time></trkpt><trkpt lat="45.42774559482379" lon="11.603516964239683"><ele>17.666666666666668</ele><time>2026-04-16T09:47:25.002Z</time></trkpt><trkpt lat="45.42764999707832" lon="11.603395547916692"><ele>18.0</ele><time>2026-04-16T09:47:27.002Z</time></trkpt><trkpt lat="45.427599280004586" lon="11.603336515082415"><ele>18.333333333333332</ele><time>2026-04-16T09:47:28.002Z</time></trkpt><trkpt lat="45.42755392626776" lon="11.603272753889089"><ele>18.666666666666664</ele><time>2026-04-16T09:47:29.002Z</time></trkpt><trkpt lat="45.42750521780225" lon="11.603208633875907"><ele>19.0</ele><time>2026-04-16T09:47:30.002Z</time></trkpt><trkpt lat="45.42745501427123" lon="11.603148207314442"><ele>19.0</ele><time>2026-04-16T09:47:31.002Z</time></trkpt><trkpt lat="45.42740477594724" lon="11.603090532707826"><ele>19.0</ele><time>2026-04-16T09:47:32.002Z</time></trkpt><trkpt lat="45.427353468703274" lon="11.60303075920084"><ele>19.0</ele><time>2026-04-16T09:47:33.002Z</time></trkpt><trkpt lat="45.42730278364981" lon="11.60297521753243"><ele>19.0</ele><time>2026-04-16T09:47:34.002Z</time></trkpt><trkpt lat="45.42725430868876" lon="11.602913284214948"><ele>19.0</ele><time>2026-04-16T09:47:35.002Z</time></trkpt><trkpt lat="45.42720432319304" lon="11.602853120293796"><ele>19.0</ele><time>2026-04-16T09:47:36.002Z</time></trkpt><trkpt lat="45.42715610529144" lon="11.602790058245578"><ele>19.0</ele><time>2026-04-16T09:47:37.002Z</time></trkpt><trkpt lat="45.427106453108046" lon="11.602729589721621"><ele>19.142857142857142</ele><time>2026-04-16T09:47:38.002Z</time></trkpt><trkpt lat="45.42705573035898" lon="11.602668029223517"><ele>19.28571428571429</ele><time>2026-04-16T09:47:39.002Z</time></trkpt><trkpt lat="45.42700371321974" lon="11.602613785244264"><ele>19.42857142857143</ele><time>2026-04-16T09:47:40.002Z</time></trkpt><trkpt lat="45.426953362476546" lon="11.602555415263714"><ele>19.57142857142857</ele><time>2026-04-16T09:47:41.002Z</time></trkpt><trkpt lat="45.42690590670673" lon="11.602495977573128"><ele>19.714285714285715</ele><time>2026-04-16T09:47:42.002Z</time></trkpt><trkpt lat="45.426858375096835" lon="11.602434959316978"><ele>19.857142857142858</ele><time>2026-04-16T09:47:43.002Z</time></trkpt><trkpt lat="45.42676218884969" lon="11.602321459864305"><ele>20.0</ele><time>2026-04-16T09:47:45.002Z</time></trkpt><trkpt lat="45.42419166738203" lon="11.599159217881608"><ele>20.0</ele><time>2026-04-16T09:48:47.001Z</time></trkpt><trkpt lat="45.42414287813485" lon="11.599097765479954"><ele>20.0</ele><time>2026-04-16T09:48:48.001Z</time></trkpt><trkpt lat="45.42408879328799" lon="11.599038987615245"><ele>20.0</ele><time>2026-04-16T09:48:49.001Z</time></trkpt><trkpt lat="45.42403982727915" lon="11.598980115312221"><ele>20.0</ele><time>2026-04-16T09:48:50.001Z</time></trkpt><trkpt lat="45.42399182815357" lon="11.59891791585167"><ele>20.0</ele><time>2026-04-16T09:48:51.001Z</time></trkpt><trkpt lat="45.42394111293415" lon="11.598864538306788"><ele>20.0</ele><time>2026-04-16T09:48:52.001Z</time></trkpt><trkpt lat="45.42384719800639" lon="11.59875540401154"><ele>20.0</ele><time>2026-04-16T09:48:54.001Z</time></trkpt><trkpt lat="45.42379805732117" lon="11.598692832528886"><ele>20.166666666666668</ele><time>2026-04-16T09:48:55.001Z</time></trkpt><trkpt lat="45.42375035619585" lon="11.598633671372214"><ele>20.333333333333336</ele><time>2026-04-16T09:48:56.001Z</time></trkpt><trkpt lat="45.423700659211285" lon="11.59857103089354"><ele>20.5</ele><time>2026-04-16T09:48:57.001Z</time></trkpt><trkpt lat="45.42365058783282" lon="11.598509621850749"><ele>20.666666666666668</ele><time>2026-04-16T09:48:58.001Z</time></trkpt><trkpt lat="45.42360091255792" lon="11.598451496558972"><ele>20.833333333333332</ele><time>2026-04-16T09:48:59.001Z</time></trkpt><trkpt lat="45.42350409889098" lon="11.598347302947323"><ele>21.0</ele><time>2026-04-16T09:49:01.001Z</time></trkpt><trkpt lat="45.423421201746294" lon="11.598233594406095"><ele>21.0</ele><time>2026-04-16T09:49:03.001Z</time></trkpt><trkpt lat="45.423327646769415" lon="11.598129385617064"><ele>21.0</ele><time>2026-04-16T09:49:05.001Z</time></trkpt><trkpt lat="45.42328021647484" lon="11.598067861085438"><ele>21.0</ele><time>2026-04-16T09:49:06.001Z</time></trkpt><trkpt lat="45.423192310352206" lon="11.59795036982351"><ele>21.0</ele><time>2026-04-16T09:49:08.001Z</time></trkpt><trkpt lat="45.42309813862159" lon="11.5978340002754"><ele>21.0</ele><time>2026-04-16T09:49:10.001Z</time></trkpt><trkpt lat="45.423013334316096" lon="11.597724192360353"><ele>20.8</ele><time>2026-04-16T09:49:12.001Z</time></trkpt><trkpt lat="45.42292739958426" lon="11.597627264259684"><ele>20.6</ele><time>2026-04-16T09:49:14.001Z</time></trkpt><trkpt lat="45.4228470092359" lon="11.59753714932705"><ele>20.4</ele><time>2026-04-16T09:49:16.001Z</time></trkpt><trkpt lat="45.42277897791472" lon="11.597447861148511"><ele>20.2</ele><time>2026-04-16T09:49:18.001Z</time></trkpt><trkpt lat="45.4227143425371" lon="11.597374022993678"><ele>20.0</ele><time>2026-04-16T09:49:20.002Z</time></trkpt><trkpt lat="45.422654713216865" lon="11.597303192401984"><ele>20.0</ele><time>2026-04-16T09:49:23.002Z</time></trkpt><trkpt lat="45.42261934016516" lon="11.597226245047425"><ele>20.0</ele><time>2026-04-16T09:49:42.002Z</time></trkpt><trkpt lat="45.42255973637243" lon="11.597187967950243"><ele>20.0</ele><time>2026-04-16T09:49:45.002Z</time></trkpt><trkpt lat="45.419765376078374" lon="11.593747070019885"><ele>19.833333333333336</ele><time>2026-04-16T09:50:47.001Z</time></trkpt><trkpt lat="45.41971227744273" lon="11.593692456171958"><ele>19.666666666666668</ele><time>2026-04-16T09:50:48.001Z</time></trkpt><trkpt lat="45.41966169422965" lon="11.593635499974914"><ele>19.5</ele><time>2026-04-16T09:50:49.001Z</time></trkpt><trkpt lat="45.419613307430055" lon="11.593574985347495"><ele>19.333333333333332</ele><time>2026-04-16T09:50:50.001Z</time></trkpt><trkpt lat="45.41956959174654" lon="11.59350903265399"><ele>19.166666666666664</ele><time>2026-04-16T09:50:51.001Z</time></trkpt><trkpt lat="45.41947903993902" lon="11.593389372134615"><ele>19.0</ele><time>2026-04-16T09:50:53.001Z</time></trkpt><trkpt lat="45.41938298698648" lon="11.59327806615911"><ele>19.0</ele><time>2026-04-16T09:50:55.001Z</time></trkpt><trkpt lat="45.41928727792635" lon="11.593166685632715"><ele>19.0</ele><time>2026-04-16T09:50:57.001Z</time></trkpt><trkpt lat="45.419195644445864" lon="11.59304841402728"><ele>19.0</ele><time>2026-04-16T09:50:59.001Z</time></trkpt><trkpt lat="45.419102352160074" lon="11.592937152179411"><ele>19.0</ele><time>2026-04-16T09:51:01.001Z</time></trkpt><trkpt lat="45.419007598064496" lon="11.592824120975463"><ele>19.0</ele><time>2026-04-16T09:51:03.001Z</time></trkpt><trkpt lat="45.418914532243264" lon="11.592725520692818"><ele>19.0</ele><time>2026-04-16T09:51:05.001Z</time></trkpt><trkpt lat="45.41882140088934" lon="11.592605113107979"><ele>19.0</ele><time>2026-04-16T09:51:07.001Z</time></trkpt><trkpt lat="45.418732063103214" lon="11.592486674116243"><ele>19.0</ele><time>2026-04-16T09:51:09.001Z</time></trkpt><trkpt lat="45.41863889185387" lon="11.592373134246435"><ele>19.0</ele><time>2026-04-16T09:51:11.001Z</time></trkpt><trkpt lat="45.418554863256524" lon="11.592262842281581"><ele>19.0</ele><time>2026-04-16T09:51:13.001Z</time></trkpt><trkpt lat="45.41847278084554" lon="11.592171175362695"><ele>19.0</ele><time>2026-04-16T09:51:15.001Z</time></trkpt><trkpt lat="45.41839864288741" lon="11.592082212407902"><ele>19.0</ele><time>2026-04-16T09:51:17.002Z</time></trkpt><trkpt lat="45.41832829373675" lon="11.591996882468795"><ele>19.0</ele><time>2026-04-16T09:51:19.002Z</time></trkpt><trkpt lat="45.41825338729939" lon="11.591914861734551"><ele>19.0</ele><time>2026-04-16T09:51:21.002Z</time></trkpt><trkpt lat="45.41818511975033" lon="11.591834820078992"><ele>19.0</ele><time>2026-04-16T09:51:23.002Z</time></trkpt><trkpt lat="45.41812329632182" lon="11.59176001800064"><ele>19.0</ele><time>2026-04-16T09:51:25.002Z</time></trkpt><trkpt lat="45.41807626501254" lon="11.591683666779588"><ele>19.0</ele><time>2026-04-16T09:51:27.002Z</time></trkpt><trkpt lat="45.418013102571834" lon="11.591601155042447"><ele>19.0</ele><time>2026-04-16T09:51:30.002Z</time></trkpt><trkpt lat="45.41839596000594" lon="11.592090806802242"><ele>19.25</ele><time>2026-04-16T09:57:47.001Z</time></trkpt><trkpt lat="45.4183082563871" lon="11.591979074830553"><ele>19.5</ele><time>2026-04-16T09:57:49.001Z</time></trkpt><trkpt lat="45.41822261444894" lon="11.591880436437675"><ele>19.75</ele><time>2026-04-16T09:57:51.001Z</time></trkpt><trkpt lat="45.418135287961356" lon="11.591769736825018"><ele>20.0</ele><time>2026-04-16T09:57:53.001Z</time></trkpt><trkpt lat="45.41803674559905" lon="11.591672061814942"><ele>19.75</ele><time>2026-04-16T09:57:55.001Z</time></trkpt><trkpt lat="45.41797394137212" lon="11.591519039313335"><ele>19.5</ele><time>2026-04-16T09:57:57.001Z</time></trkpt><trkpt lat="45.41788454351289" lon="11.591410709443613"><ele>19.25</ele><time>2026-04-16T09:57:59.001Z</time></trkpt><trkpt lat="45.41779546577077" lon="11.591302767485534"><ele>19.0</ele><time>2026-04-16T09:58:01.001Z</time></trkpt><trkpt lat="45.41771223092372" lon="11.591201905787607"><ele>18.599999999999998</ele><time>2026-04-16T09:58:03.001Z</time></trkpt><trkpt lat="45.41763082216612" lon="11.591103256895138"><ele>18.2</ele><time>2026-04-16T09:58:05.001Z</time></trkpt><trkpt lat="45.41755661888178" lon="11.591013339396438"><ele>17.799999999999997</ele><time>2026-04-16T09:58:07.001Z</time></trkpt><trkpt lat="45.41748947448755" lon="11.590931975667555"><ele>17.4</ele><time>2026-04-16T09:58:09.001Z</time></trkpt><trkpt lat="45.41742950835587" lon="11.590859035467995"><ele>17.0</ele><time>2026-04-16T09:58:11.001Z</time></trkpt><trkpt lat="45.41734550570684" lon="11.590774109734102"><ele>17.0</ele><time>2026-04-16T09:58:13.001Z</time></trkpt><trkpt lat="45.4172656133774" lon="11.590680062350481"><ele>17.0</ele><time>2026-04-16T09:58:15.001Z</time></trkpt><trkpt lat="45.41718285333111" lon="11.5905608171364"><ele>17.0</ele><time>2026-04-16T09:58:17.001Z</time></trkpt><trkpt lat="45.41712684138156" lon="11.590518342270569"><ele>17.0</ele><time>2026-04-16T09:58:18.001Z</time></trkpt><trkpt lat="45.41707776050036" lon="11.590454409871699"><ele>17.0</ele><time>2026-04-16T09:58:19.001Z</time></trkpt><trkpt lat="45.4170236428144" lon="11.590394086143878"><ele>17.0</ele><time>2026-04-16T09:58:20.001Z</time></trkpt><trkpt lat="45.41697267651493" lon="11.59033144690068"><ele>17.285714285714285</ele><time>2026-04-16T09:58:21.001Z</time></trkpt><trkpt lat="45.41692088868312" lon="11.590269621400445"><ele>17.57142857142857</ele><time>2026-04-16T09:58:22.002Z</time></trkpt><trkpt lat="45.41687201607149" lon="11.590208300969394"><ele>17.857142857142854</ele><time>2026-04-16T09:58:23.002Z</time></trkpt><trkpt lat="45.41682619725169" lon="11.590141898082129"><ele>18.142857142857142</ele><time>2026-04-16T09:58:24.002Z</time></trkpt><trkpt lat="45.41677606247919" lon="11.590087330028133"><ele>18.42857142857143</ele><time>2026-04-16T09:58:25.002Z</time></trkpt><trkpt lat="45.41672828729486" lon="11.590026701485122"><ele>18.71428571428571</ele><time>2026-04-16T09:58:26.002Z</time></trkpt><trkpt lat="45.41667305744257" lon="11.58997394835931"><ele>19.0</ele><time>2026-04-16T09:58:27.002Z</time></trkpt><trkpt lat="45.41662035859787" lon="11.58991736898209"><ele>19.0</ele><time>2026-04-16T09:58:28.002Z</time></trkpt><trkpt lat="45.41657047530017" lon="11.589854747374256"><ele>19.0</ele><time>2026-04-16T09:58:29.002Z</time></trkpt><trkpt lat="45.416516797174914" lon="11.589797256772368"><ele>19.0</ele><time>2026-04-16T09:58:30.002Z</time></trkpt><trkpt lat="45.416471258549784" lon="11.589728646523245"><ele>19.0</ele><time>2026-04-16T09:58:31.002Z</time></trkpt><trkpt lat="45.41642715264324" lon="11.589662445195849"><ele>19.0</ele><time>2026-04-16T09:58:32.002Z</time></trkpt><trkpt lat="45.41637721358077" lon="11.589601559786214"><ele>19.0</ele><time>2026-04-16T09:58:33.002Z</time></trkpt><trkpt lat="45.416325627420846" lon="11.58954350934258"><ele>19.0</ele><time>2026-04-16T09:58:34.002Z</time></trkpt><trkpt lat="45.41627566366747" lon="11.589483041473072"><ele>18.857142857142858</ele><time>2026-04-16T09:58:35.002Z</time></trkpt><trkpt lat="45.416224195564986" lon="11.5894250959926"><ele>18.714285714285715</ele><time>2026-04-16T09:58:36Z</time></trkpt><trkpt lat="45.41617342875852" lon="11.589367399872556"><ele>18.571428571428573</ele><time>2026-04-16T09:58:37Z</time></trkpt><trkpt lat="45.41612104585943" lon="11.589312333036382"><ele>18.42857142857143</ele><time>2026-04-16T09:58:38Z</time></trkpt><trkpt lat="45.41607059143595" lon="11.58925227964705"><ele>18.285714285714285</ele><time>2026-04-16T09:58:39Z</time></trkpt><trkpt lat="45.41601730314454" lon="11.589191925075811"><ele>18.142857142857146</ele><time>2026-04-16T09:58:40Z</time></trkpt><trkpt lat="45.41596678511793" lon="11.589126220224424"><ele>18.0</ele><time>2026-04-16T09:58:41Z</time></trkpt><trkpt lat="45.415916122540956" lon="11.58906680549016"><ele>18.0</ele><time>2026-04-16T09:58:42Z</time></trkpt><trkpt lat="45.41586514974789" lon="11.589006742238405"><ele>18.0</ele><time>2026-04-16T09:58:43Z</time></trkpt><trkpt lat="45.41581605725131" lon="11.588946650194085"><ele>18.0</ele><time>2026-04-16T09:58:44Z</time></trkpt><trkpt lat="45.415771958384354" lon="11.588877323730426"><ele>18.0</ele><time>2026-04-16T09:58:45Z</time></trkpt><trkpt lat="45.415728249763774" lon="11.588809225242816"><ele>18.0</ele><time>2026-04-16T09:58:46Z</time></trkpt><trkpt lat="45.412890758802725" lon="11.585377941673032"><ele>18.0</ele><time>2026-04-16T09:59:47.001Z</time></trkpt><trkpt lat="45.41281949603337" lon="11.585273311986015"><ele>18.0</ele><time>2026-04-16T09:59:49.001Z</time></trkpt><trkpt lat="45.41276157352656" lon="11.585191972544672"><ele>18.0</ele><time>2026-04-16T09:59:51.001Z</time></trkpt><trkpt lat="45.412716370023254" lon="11.585118875595297"><ele>18.0</ele><time>2026-04-16T09:59:53.001Z</time></trkpt><trkpt lat="45.41266528959817" lon="11.585065526925622"><ele>18.0</ele><time>2026-04-16T09:59:55.001Z</time></trkpt><trkpt lat="45.41259406654116" lon="11.584979509483096"><ele>18.0</ele><time>2026-04-16T09:59:58.001Z</time></trkpt><trkpt lat="45.412536696840746" lon="11.584898983258649"><ele>18.0</ele><time>2026-04-16T10:00:01.001Z</time></trkpt><trkpt lat="45.41246381034185" lon="11.584821470687315"><ele>18.0</ele><time>2026-04-16T10:00:04.001Z</time></trkpt><trkpt lat="45.412388855663764" lon="11.58473824784595"><ele>18.0</ele><time>2026-04-16T10:00:06.001Z</time></trkpt><trkpt lat="45.41228944215007" lon="11.584635559291819"><ele>18.0</ele><time>2026-04-16T10:00:08.001Z</time></trkpt><trkpt lat="45.41219572734278" lon="11.584520574777681"><ele>18.0</ele><time>2026-04-16T10:00:10.001Z</time></trkpt><trkpt lat="45.41214352098841" lon="11.584468222173001"><ele>17.857142857142858</ele><time>2026-04-16T10:00:11.001Z</time></trkpt><trkpt lat="45.41209128574978" lon="11.584407385845466"><ele>17.714285714285715</ele><time>2026-04-16T10:00:12.001Z</time></trkpt><trkpt lat="45.41203957447981" lon="11.584341617333232"><ele>17.57142857142857</ele><time>2026-04-16T10:00:13.001Z</time></trkpt><trkpt lat="45.411986141029" lon="11.5842772549716"><ele>17.42857142857143</ele><time>2026-04-16T10:00:14.001Z</time></trkpt><trkpt lat="45.41193467655584" lon="11.58420859727793"><ele>17.285714285714285</ele><time>2026-04-16T10:00:15.001Z</time></trkpt><trkpt lat="45.41188129605262" lon="11.584142999069062"><ele>17.142857142857142</ele><time>2026-04-16T10:00:16.001Z</time></trkpt><trkpt lat="45.41182448933319" lon="11.584084867813882"><ele>17.0</ele><time>2026-04-16T10:00:17.002Z</time></trkpt><trkpt lat="45.41176899554348" lon="11.584023123778081"><ele>16.999999999999996</ele><time>2026-04-16T10:00:18.002Z</time></trkpt><trkpt lat="45.411716907003004" lon="11.583952892065373"><ele>17.0</ele><time>2026-04-16T10:00:19.002Z</time></trkpt><trkpt lat="45.41166648133356" lon="11.58388402204902"><ele>17.0</ele><time>2026-04-16T10:00:20.002Z</time></trkpt><trkpt lat="45.41161178688969" lon="11.58382119729407"><ele>17.0</ele><time>2026-04-16T10:00:21.002Z</time></trkpt><trkpt lat="45.41155684885334" lon="11.583760646975671"><ele>17.0</ele><time>2026-04-16T10:00:22.002Z</time></trkpt><trkpt lat="45.41150899586746" lon="11.583692533564946"><ele>16.999999999999996</ele><time>2026-04-16T10:00:23.002Z</time></trkpt><trkpt lat="45.41145900052819" lon="11.583633738207727"><ele>17.0</ele><time>2026-04-16T10:00:24.002Z</time></trkpt><trkpt lat="45.41136711728121" lon="11.583513775277197"><ele>16.857142857142854</ele><time>2026-04-16T10:00:26.002Z</time></trkpt><trkpt lat="45.411316896781564" lon="11.583455576721798"><ele>16.714285714285715</ele><time>2026-04-16T10:00:27.002Z</time></trkpt><trkpt lat="45.41126244849206" lon="11.583401737464937"><ele>16.57142857142857</ele><time>2026-04-16T10:00:28.002Z</time></trkpt><trkpt lat="45.41121370209078" lon="11.583341554509504"><ele>16.428571428571427</ele><time>2026-04-16T10:00:29.002Z</time></trkpt><trkpt lat="45.4111638161979" lon="11.583275218200384"><ele>16.285714285714285</ele><time>2026-04-16T10:00:30.002Z</time></trkpt><trkpt lat="45.41111541223021" lon="11.583205735003926"><ele>16.142857142857142</ele><time>2026-04-16T10:00:31.002Z</time></trkpt><trkpt lat="45.41106602679325" lon="11.58314150897211"><ele>16.0</ele><time>2026-04-16T10:00:32.002Z</time></trkpt><trkpt lat="45.411013844129315" lon="11.58307982614941"><ele>16.0</ele><time>2026-04-16T10:00:33.002Z</time></trkpt><trkpt lat="45.41096128524889" lon="11.58301517896331"><ele>15.999999999999998</ele><time>2026-04-16T10:00:34.002Z</time></trkpt><trkpt lat="45.410908502710164" lon="11.58294960643793"><ele>16.0</ele><time>2026-04-16T10:00:35.002Z</time></trkpt><trkpt lat="45.41085372093474" lon="11.582890268679485"><ele>16.0</ele><time>2026-04-16T10:00:36.002Z</time></trkpt><trkpt lat="45.41080245711552" lon="11.582823150864826"><ele>15.999999999999998</ele><time>2026-04-16T10:00:37.002Z</time></trkpt><trkpt lat="45.41075075762356" lon="11.582755785194632"><ele>16.0</ele><time>2026-04-16T10:00:38.002Z</time></trkpt><trkpt lat="45.41069883562446" lon="11.582689846321944"><ele>16.0</ele><time>2026-04-16T10:00:39.002Z</time></trkpt><trkpt lat="45.41064412268857" lon="11.582628902113147"><ele>16.166666666666664</ele><time>2026-04-16T10:00:40.002Z</time></trkpt><trkpt lat="45.410592166020905" lon="11.582567339420596"><ele>16.333333333333332</ele><time>2026-04-16T10:00:41.002Z</time></trkpt><trkpt lat="45.410540507778165" lon="11.582504496767974"><ele>16.5</ele><time>2026-04-16T10:00:42.001Z</time></trkpt><trkpt lat="45.41048960999986" lon="11.582444168654284"><ele>16.666666666666668</ele><time>2026-04-16T10:00:43.001Z</time></trkpt><trkpt lat="45.410443355813335" lon="11.582380789060263"><ele>16.833333333333336</ele><time>2026-04-16T10:00:44.001Z</time></trkpt><trkpt lat="45.41034605371615" lon="11.582266487726251"><ele>17.0</ele><time>2026-04-16T10:00:46.001Z</time></trkpt><trkpt lat="45.409804123663385" lon="11.581632778672594"><ele>17.2</ele><time>2026-04-16T10:01:47.001Z</time></trkpt><trkpt lat="45.40986466374674" lon="11.58168574237894"><ele>17.4</ele><time>2026-04-16T10:02:53Z</time></trkpt><trkpt lat="45.40993677222395" lon="11.581791018071515"><ele>17.6</ele><time>2026-04-16T10:02:56Z</time></trkpt><trkpt lat="45.4100216147201" lon="11.581875295917762"><ele>17.8</ele><time>2026-04-16T10:02:58Z</time></trkpt><trkpt lat="45.410098340051476" lon="11.5819715887029"><ele>18.0</ele><time>2026-04-16T10:03:00Z</time></trkpt><trkpt lat="45.41017628134573" lon="11.582078084151048"><ele>18.0</ele><time>2026-04-16T10:03:02Z</time></trkpt><trkpt lat="45.41026385254977" lon="11.582181762518871"><ele>18.0</ele><time>2026-04-16T10:03:04Z</time></trkpt><trkpt lat="45.410358671782824" lon="11.582279013618761"><ele>18.0</ele><time>2026-04-16T10:03:06Z</time></trkpt><trkpt lat="45.410447696363995" lon="11.582393171194434"><ele>18.0</ele><time>2026-04-16T10:03:08Z</time></trkpt><trkpt lat="45.41053483954084" lon="11.582502400238551"><ele>17.75</ele><time>2026-04-16T10:03:10Z</time></trkpt><trkpt lat="45.41062394959013" lon="11.58261025182931"><ele>17.5</ele><time>2026-04-16T10:03:12Z</time></trkpt><trkpt lat="45.41071188783267" lon="11.582718888270835"><ele>17.25</ele><time>2026-04-16T10:03:14Z</time></trkpt><trkpt lat="45.410801874040466" lon="11.582819279658919"><ele>17.0</ele><time>2026-04-16T10:03:16Z</time></trkpt><trkpt lat="45.410889533781805" lon="11.582927674114147"><ele>16.833333333333336</ele><time>2026-04-16T10:03:18Z</time></trkpt><trkpt lat="45.41097812860376" lon="11.58304408671866"><ele>16.666666666666668</ele><time>2026-04-16T10:03:20Z</time></trkpt><trkpt lat="45.411027646737686" lon="11.583109567965488"><ele>16.5</ele><time>2026-04-16T10:03:21Z</time></trkpt><trkpt lat="45.41112552507083" lon="11.583220897193465"><ele>16.333333333333332</ele><time>2026-04-16T10:03:23Z</time></trkpt><trkpt lat="45.411172259713176" lon="11.5832812694483"><ele>16.166666666666664</ele><time>2026-04-16T10:03:24Z</time></trkpt><trkpt lat="45.411219886704835" lon="11.5833448177607"><ele>16.0</ele><time>2026-04-16T10:03:25Z</time></trkpt><trkpt lat="45.4112723107563" lon="11.58339961226654"><ele>16.0</ele><time>2026-04-16T10:03:26Z</time></trkpt><trkpt lat="45.41136635372628" lon="11.583520876213397"><ele>16.0</ele><time>2026-04-16T10:03:28Z</time></trkpt><trkpt lat="45.41146092596822" lon="11.583641654241124"><ele>16.0</ele><time>2026-04-16T10:03:30Z</time></trkpt><trkpt lat="45.41155799704691" lon="11.58375820625335"><ele>16.0</ele><time>2026-04-16T10:03:32Z</time></trkpt><trkpt lat="45.41165235202558" lon="11.583880646549364"><ele>16.2</ele><time>2026-04-16T10:03:34Z</time></trkpt><trkpt lat="45.411703203736174" lon="11.583937308562266"><ele>16.400000000000002</ele><time>2026-04-16T10:03:35Z</time></trkpt><trkpt lat="45.41175628739528" lon="11.583991618508437"><ele>16.6</ele><time>2026-04-16T10:03:36Z</time></trkpt><trkpt lat="45.411853008848645" lon="11.584100592626905"><ele>16.8</ele><time>2026-04-16T10:03:38Z</time></trkpt><trkpt lat="45.41194718887604" lon="11.584211299476731"><ele>17.0</ele><time>2026-04-16T10:03:40.001Z</time></trkpt><trkpt lat="45.41203618399757" lon="11.58433036467284"><ele>17.0</ele><time>2026-04-16T10:03:42.001Z</time></trkpt><trkpt lat="45.41208473832615" lon="11.584389119474082"><ele>17.0</ele><time>2026-04-16T10:03:43.001Z</time></trkpt><trkpt lat="45.41218386323891" lon="11.584493668375686"><ele>17.0</ele><time>2026-04-16T10:03:45.001Z</time></trkpt><trkpt lat="45.412234129260995" lon="11.584551035986928"><ele>17.0</ele><time>2026-04-16T10:03:46.001Z</time></trkpt><trkpt lat="45.41380149784675" lon="11.586485618683549"><ele>17.666666666666668</ele><time>2026-04-16T10:04:24.001Z</time></trkpt><trkpt lat="45.41386068247776" lon="11.586552184882274"><ele>18.333333333333332</ele><time>2026-04-16T10:04:26.001Z</time></trkpt><trkpt lat="45.413908417359174" lon="11.586631554458341"><ele>19.0</ele><time>2026-04-16T10:04:28.001Z</time></trkpt><trkpt lat="45.41475418171744" lon="11.587621661840696"><ele>19.0</ele><time>2026-04-16T10:04:47.001Z</time></trkpt><trkpt lat="45.41483966201418" lon="11.587724244409841"><ele>19.0</ele><time>2026-04-16T10:04:49.001Z</time></trkpt><trkpt lat="45.41488833974554" lon="11.587790522571469"><ele>19.0</ele><time>2026-04-16T10:04:51.001Z</time></trkpt><trkpt lat="45.414962819221756" lon="11.587881778910896"><ele>19.0</ele><time>2026-04-16T10:04:52.999Z</time></trkpt><trkpt lat="45.415056444486744" lon="11.588001500431941"><ele>19.0</ele><time>2026-04-16T10:04:54.999Z</time></trkpt><trkpt lat="45.415150784932116" lon="11.588114385229147"><ele>19.0</ele><time>2026-04-16T10:04:56.999Z</time></trkpt><trkpt lat="45.41524541519077" lon="11.58821673454298"><ele>19.0</ele><time>2026-04-16T10:04:58.999Z</time></trkpt><trkpt lat="45.415330789490376" lon="11.588320548053288"><ele>19.0</ele><time>2026-04-16T10:05:00.999Z</time></trkpt><trkpt lat="45.41541521573646" lon="11.588420087112699"><ele>19.0</ele><time>2026-04-16T10:05:02.999Z</time></trkpt><trkpt lat="45.415487394488736" lon="11.5885416222777"><ele>19.0</ele><time>2026-04-16T10:05:04.999Z</time></trkpt><trkpt lat="45.41557209151965" lon="11.588666132732612"><ele>19.0</ele><time>2026-04-16T10:05:06.999Z</time></trkpt><trkpt lat="45.41562371170234" lon="11.588721586853843"><ele>19.0</ele><time>2026-04-16T10:05:07.999Z</time></trkpt><trkpt lat="45.41567197444553" lon="11.588784355118388"><ele>19.0</ele><time>2026-04-16T10:05:08.999Z</time></trkpt><trkpt lat="45.41572513141946" lon="11.588840489757805"><ele>19.0</ele><time>2026-04-16T10:05:09.999Z</time></trkpt><trkpt lat="45.41578030582939" lon="11.58889775982334"><ele>19.0</ele><time>2026-04-16T10:05:10.999Z</time></trkpt><trkpt lat="45.41582862393195" lon="11.588963818537165"><ele>18.857142857142858</ele><time>2026-04-16T10:05:11.999Z</time></trkpt><trkpt lat="45.41587390108356" lon="11.589030241851157"><ele>18.714285714285715</ele><time>2026-04-16T10:05:12.999Z</time></trkpt><trkpt lat="45.41592362232192" lon="11.589091199250753"><ele>18.571428571428573</ele><time>2026-04-16T10:05:13.999Z</time></trkpt><trkpt lat="45.41597555737786" lon="11.589146408325496"><ele>18.42857142857143</ele><time>2026-04-16T10:05:14.999Z</time></trkpt><trkpt lat="45.416020850697464" lon="11.589212647039892"><ele>18.285714285714285</ele><time>2026-04-16T10:05:16Z</time></trkpt><trkpt lat="45.41607071646457" lon="11.589273370081544"><ele>18.142857142857146</ele><time>2026-04-16T10:05:17Z</time></trkpt><trkpt lat="45.416121915141844" lon="11.589328623953234"><ele>18.0</ele><time>2026-04-16T10:05:18Z</time></trkpt><trkpt lat="45.4161721902083" lon="11.589390384135104"><ele>18.000000000000004</ele><time>2026-04-16T10:05:19Z</time></trkpt><trkpt lat="45.41622197891355" lon="11.589448258772975"><ele>18.0</ele><time>2026-04-16T10:05:20Z</time></trkpt><trkpt lat="45.4162694409381" lon="11.589512592018835"><ele>18.0</ele><time>2026-04-16T10:05:21Z</time></trkpt><trkpt lat="45.41632047573765" lon="11.58957435035808"><ele>18.0</ele><time>2026-04-16T10:05:22Z</time></trkpt><trkpt lat="45.41637161589582" lon="11.589634987477675"><ele>18.0</ele><time>2026-04-16T10:05:23Z</time></trkpt><trkpt lat="45.41641963856956" lon="11.589703051996894"><ele>18.000000000000004</ele><time>2026-04-16T10:05:24Z</time></trkpt><trkpt lat="45.41647038001587" lon="11.589767830732434"><ele>18.0</ele><time>2026-04-16T10:05:25Z</time></trkpt><trkpt lat="45.416521282287384" lon="11.589831998825188"><ele>18.142857142857146</ele><time>2026-04-16T10:05:26Z</time></trkpt><trkpt lat="45.41657271168936" lon="11.589892969669991"><ele>18.285714285714285</ele><time>2026-04-16T10:05:27Z</time></trkpt><trkpt lat="45.41662355705963" lon="11.589957704592917"><ele>18.42857142857143</ele><time>2026-04-16T10:05:28Z</time></trkpt><trkpt lat="45.41667554363555" lon="11.590019942219364"><ele>18.571428571428573</ele><time>2026-04-16T10:05:29Z</time></trkpt><trkpt lat="45.416729371363004" lon="11.590081290955892"><ele>18.714285714285715</ele><time>2026-04-16T10:05:30Z</time></trkpt><trkpt lat="45.41678301111675" lon="11.59014530287956"><ele>18.857142857142858</ele><time>2026-04-16T10:05:31Z</time></trkpt><trkpt lat="45.41683475598176" lon="11.590210477685247"><ele>19.0</ele><time>2026-04-16T10:05:32Z</time></trkpt><trkpt lat="45.41688689863598" lon="11.590269787331572"><ele>19.0</ele><time>2026-04-16T10:05:33Z</time></trkpt><trkpt lat="45.416939167827046" lon="11.590333702847708"><ele>19.0</ele><time>2026-04-16T10:05:34Z</time></trkpt><trkpt lat="45.41699249191048" lon="11.590397783819672"><ele>19.0</ele><time>2026-04-16T10:05:35Z</time></trkpt><trkpt lat="45.41704474475677" lon="11.590458928184328"><ele>19.0</ele><time>2026-04-16T10:05:36Z</time></trkpt><trkpt lat="45.417093919207794" lon="11.59051738258243"><ele>19.0</ele><time>2026-04-16T10:05:37Z</time></trkpt><trkpt lat="45.41717558877003" lon="11.590617664509763"><ele>19.0</ele><time>2026-04-16T10:05:39Z</time></trkpt><trkpt lat="45.41724952186647" lon="11.590693876714937"><ele>19.0</ele><time>2026-04-16T10:05:41Z</time></trkpt><trkpt lat="45.41730730080376" lon="11.590786200876897"><ele>19.0</ele><time>2026-04-16T10:05:43Z</time></trkpt><trkpt lat="45.41737240165115" lon="11.590825161094186"><ele>19.0</ele><time>2026-04-16T10:05:46Z</time></trkpt><trkpt lat="45.41912718371198" lon="11.592986790395004"><ele>19.0</ele><time>2026-04-16T10:07:47Z</time></trkpt><trkpt lat="45.419175077796346" lon="11.593045555797547"><ele>19.0</ele><time>2026-04-16T10:07:48Z</time></trkpt><trkpt lat="45.4192243694644" lon="11.593102235655632"><ele>19.0</ele><time>2026-04-16T10:07:49Z</time></trkpt><trkpt lat="45.41931918064982" lon="11.593218646212522"><ele>19.0</ele><time>2026-04-16T10:07:51Z</time></trkpt><trkpt lat="45.41936616619935" lon="11.593281623205367"><ele>19.0</ele><time>2026-04-16T10:07:52Z</time></trkpt><trkpt lat="45.41941582996304" lon="11.593343186065633"><ele>19.0</ele><time>2026-04-16T10:07:53Z</time></trkpt><trkpt lat="45.41946637685427" lon="11.5934003696982"><ele>19.0</ele><time>2026-04-16T10:07:54Z</time></trkpt><trkpt lat="45.419514829721976" lon="11.59346174692288"><ele>19.0</ele><time>2026-04-16T10:07:55Z</time></trkpt><trkpt lat="45.41956501489037" lon="11.59352340458568"><ele>19.0</ele><time>2026-04-16T10:07:56Z</time></trkpt><trkpt lat="45.41961618203653" lon="11.593580200226352"><ele>19.0</ele><time>2026-04-16T10:07:57Z</time></trkpt><trkpt lat="45.4196685303539" lon="11.593635141369743"><ele>19.0</ele><time>2026-04-16T10:07:58Z</time></trkpt><trkpt lat="45.419722912560886" lon="11.593695761278436"><ele>19.0</ele><time>2026-04-16T10:07:59Z</time></trkpt><trkpt lat="45.41977084510439" lon="11.593761509885658"><ele>19.0</ele><time>2026-04-16T10:08:00Z</time></trkpt><trkpt lat="45.41982342914267" lon="11.59382032705187"><ele>19.0</ele><time>2026-04-16T10:08:01Z</time></trkpt><trkpt lat="45.41987362759987" lon="11.593884444631154"><ele>19.0</ele><time>2026-04-16T10:08:02Z</time></trkpt><trkpt lat="45.41992307034633" lon="11.593943980586346"><ele>19.0</ele><time>2026-04-16T10:08:03Z</time></trkpt><trkpt lat="45.41996879857619" lon="11.594007979185518"><ele>19.0</ele><time>2026-04-16T10:08:04Z</time></trkpt><trkpt lat="45.42001614135433" lon="11.594068794629488"><ele>19.0</ele><time>2026-04-16T10:08:05Z</time></trkpt><trkpt lat="45.4200686428658" lon="11.59413184303087"><ele>19.0</ele><time>2026-04-16T10:08:06Z</time></trkpt><trkpt lat="45.42012092044463" lon="11.594203634493399"><ele>19.0</ele><time>2026-04-16T10:08:07Z</time></trkpt><trkpt lat="45.42017770939994" lon="11.594272674864872"><ele>19.0</ele><time>2026-04-16T10:08:08Z</time></trkpt><trkpt lat="45.42022918999302" lon="11.594337448893071"><ele>19.0</ele><time>2026-04-16T10:08:09Z</time></trkpt><trkpt lat="45.42027957566208" lon="11.59439889907242"><ele>19.0</ele><time>2026-04-16T10:08:10Z</time></trkpt><trkpt lat="45.42033039858317" lon="11.59445818999048"><ele>19.0</ele><time>2026-04-16T10:08:11Z</time></trkpt><trkpt lat="45.42037865833182" lon="11.594522970489837"><ele>19.0</ele><time>2026-04-16T10:08:12.001Z</time></trkpt><trkpt lat="45.42042762607697" lon="11.594589556855198"><ele>19.0</ele><time>2026-04-16T10:08:13.001Z</time></trkpt><trkpt lat="45.42047855263935" lon="11.594650774539222"><ele>19.0</ele><time>2026-04-16T10:08:14.001Z</time></trkpt><trkpt lat="45.420532434255016" lon="11.594712407163433"><ele>19.0</ele><time>2026-04-16T10:08:15.001Z</time></trkpt><trkpt lat="45.420584512521835" lon="11.594773968025136"><ele>19.0</ele><time>2026-04-16T10:08:16.001Z</time></trkpt><trkpt lat="45.42064039465002" lon="11.594837151779164"><ele>19.0</ele><time>2026-04-16T10:08:17.001Z</time></trkpt><trkpt lat="45.42069413477983" lon="11.594899388862116"><ele>19.0</ele><time>2026-04-16T10:08:18.001Z</time></trkpt><trkpt lat="45.420743802447255" lon="11.594964797678015"><ele>19.0</ele><time>2026-04-16T10:08:19.001Z</time></trkpt><trkpt lat="45.42079441928066" lon="11.595034466702216"><ele>19.0</ele><time>2026-04-16T10:08:20.001Z</time></trkpt><trkpt lat="45.420845487241586" lon="11.595097226477286"><ele>19.0</ele><time>2026-04-16T10:08:21.001Z</time></trkpt><trkpt lat="45.420896093916326" lon="11.59515679760747"><ele>19.0</ele><time>2026-04-16T10:08:22.001Z</time></trkpt><trkpt lat="45.420946604452965" lon="11.595214302183651"><ele>19.0</ele><time>2026-04-16T10:08:23.001Z</time></trkpt><trkpt lat="45.421046126394266" lon="11.59533079276591"><ele>19.0</ele><time>2026-04-16T10:08:25.001Z</time></trkpt><trkpt lat="45.42109565721623" lon="11.595391807449877"><ele>19.0</ele><time>2026-04-16T10:08:26.001Z</time></trkpt><trkpt lat="45.421143439808716" lon="11.595452586338432"><ele>19.0</ele><time>2026-04-16T10:08:27.001Z</time></trkpt><trkpt lat="45.42119300856741" lon="11.595512806294867"><ele>19.0</ele><time>2026-04-16T10:08:28.001Z</time></trkpt><trkpt lat="45.421239746239706" lon="11.595576036620594"><ele>19.0</ele><time>2026-04-16T10:08:29.001Z</time></trkpt><trkpt lat="45.42128701083312" lon="11.595639201059475"><ele>18.8</ele><time>2026-04-16T10:08:30.001Z</time></trkpt><trkpt lat="45.42133870807234" lon="11.595696087646035"><ele>18.599999999999998</ele><time>2026-04-16T10:08:31.001Z</time></trkpt><trkpt lat="45.42142755074581" lon="11.595811412231981"><ele>18.4</ele><time>2026-04-16T10:08:33.001Z</time></trkpt><trkpt lat="45.421516551853934" lon="11.595904399893858"><ele>18.2</ele><time>2026-04-16T10:08:35.001Z</time></trkpt><trkpt lat="45.421600201649106" lon="11.596010762985108"><ele>18.0</ele><time>2026-04-16T10:08:37.001Z</time></trkpt><trkpt lat="45.42168876289015" lon="11.596119499605289"><ele>18.0</ele><time>2026-04-16T10:08:39.001Z</time></trkpt><trkpt lat="45.42178174428659" lon="11.5962239666345"><ele>18.0</ele><time>2026-04-16T10:08:41.001Z</time></trkpt><trkpt lat="45.42187539914937" lon="11.5963358518116"><ele>18.0</ele><time>2026-04-16T10:08:43.001Z</time></trkpt><trkpt lat="45.421963480710794" lon="11.596448774599299"><ele>18.0</ele><time>2026-04-16T10:08:45.001Z</time></trkpt><trkpt lat="45.424486555459815" lon="11.599537419731245"><ele>18.42857142857143</ele><time>2026-04-16T10:09:47Z</time></trkpt><trkpt lat="45.42453984131493" lon="11.599592297105113"><ele>18.857142857142858</ele><time>2026-04-16T10:09:48Z</time></trkpt><trkpt lat="45.42459116533318" lon="11.599652165359704"><ele>19.285714285714285</ele><time>2026-04-16T10:09:49Z</time></trkpt><trkpt lat="45.42464231652902" lon="11.599720290367856"><ele>19.714285714285715</ele><time>2026-04-16T10:09:50Z</time></trkpt><trkpt lat="45.42469371222369" lon="11.599787198320419"><ele>20.142857142857142</ele><time>2026-04-16T10:09:51Z</time></trkpt><trkpt lat="45.42474553989993" lon="11.599847125271785"><ele>20.571428571428573</ele><time>2026-04-16T10:09:52Z</time></trkpt><trkpt lat="45.42479600986591" lon="11.599909388271232"><ele>21.0</ele><time>2026-04-16T10:09:53Z</time></trkpt><trkpt lat="45.42484582053877" lon="11.599977286787107"><ele>21.142857142857142</ele><time>2026-04-16T10:09:54Z</time></trkpt><trkpt lat="45.424898764578934" lon="11.600045186742468"><ele>21.285714285714285</ele><time>2026-04-16T10:09:55Z</time></trkpt><trkpt lat="45.42494927886722" lon="11.600106936654452"><ele>21.42857142857143</ele><time>2026-04-16T10:09:56Z</time></trkpt><trkpt lat="45.42500317865096" lon="11.600167380088994"><ele>21.57142857142857</ele><time>2026-04-16T10:09:57Z</time></trkpt><trkpt lat="45.42504973538419" lon="11.600230391730557"><ele>21.714285714285715</ele><time>2026-04-16T10:09:58Z</time></trkpt><trkpt lat="45.42510356472918" lon="11.600295029056763"><ele>21.857142857142858</ele><time>2026-04-16T10:09:59Z</time></trkpt><trkpt lat="45.42515646558429" lon="11.600357142699043"><ele>22.0</ele><time>2026-04-16T10:10:00Z</time></trkpt><trkpt lat="45.42520769732517" lon="11.600415619755557"><ele>21.6</ele><time>2026-04-16T10:10:01Z</time></trkpt><trkpt lat="45.42525809394484" lon="11.600472186664117"><ele>21.200000000000003</ele><time>2026-04-16T10:10:02Z</time></trkpt><trkpt lat="45.42534701674921" lon="11.600588882457753"><ele>20.8</ele><time>2026-04-16T10:10:04Z</time></trkpt><trkpt lat="45.425442372836834" lon="11.600703803574621"><ele>20.4</ele><time>2026-04-16T10:10:06.001Z</time></trkpt><trkpt lat="45.42553363379877" lon="11.600817958963077"><ele>20.0</ele><time>2026-04-16T10:10:08.001Z</time></trkpt><trkpt lat="45.42562413445375" lon="11.600931906729876"><ele>20.0</ele><time>2026-04-16T10:10:10.001Z</time></trkpt><trkpt lat="45.42572114622565" lon="11.601016208304044"><ele>20.0</ele><time>2026-04-16T10:10:12.001Z</time></trkpt><trkpt lat="45.425794955849916" lon="11.601122504969167"><ele>20.0</ele><time>2026-04-16T10:10:14.001Z</time></trkpt><trkpt lat="45.42587393490595" lon="11.601210927226429"><ele>20.0</ele><time>2026-04-16T10:10:16.001Z</time></trkpt><trkpt lat="45.42594043928442" lon="11.601309040956336"><ele>20.0</ele><time>2026-04-16T10:10:18.001Z</time></trkpt><trkpt lat="45.4260093919222" lon="11.601382474891025"><ele>20.0</ele><time>2026-04-16T10:10:20.001Z</time></trkpt><trkpt lat="45.42606209366809" lon="11.601431701898173"><ele>20.0</ele><time>2026-04-16T10:10:23.001Z</time></trkpt><trkpt lat="45.42787592789826" lon="11.603702067949705"><ele>19.857142857142858</ele><time>2026-04-16T10:18:47.002Z</time></trkpt><trkpt lat="45.427923201684756" lon="11.603764097437022"><ele>19.714285714285715</ele><time>2026-04-16T10:18:48.002Z</time></trkpt><trkpt lat="45.427972702202005" lon="11.60383178523546"><ele>19.57142857142857</ele><time>2026-04-16T10:18:49.002Z</time></trkpt><trkpt lat="45.428024094305215" lon="11.603894186310702"><ele>19.42857142857143</ele><time>2026-04-16T10:18:50.002Z</time></trkpt><trkpt lat="45.428077622685876" lon="11.603956384009392"><ele>19.28571428571429</ele><time>2026-04-16T10:18:51.002Z</time></trkpt><trkpt lat="45.428126815194126" lon="11.604020488419303"><ele>19.142857142857142</ele><time>2026-04-16T10:18:52.002Z</time></trkpt><trkpt lat="45.428178062046825" lon="11.604077622751314"><ele>19.0</ele><time>2026-04-16T10:18:53.002Z</time></trkpt><trkpt lat="45.428227475907924" lon="11.604137548440187"><ele>18.857142857142858</ele><time>2026-04-16T10:18:54.002Z</time></trkpt><trkpt lat="45.428275283735054" lon="11.604198535318744"><ele>18.714285714285715</ele><time>2026-04-16T10:18:55.002Z</time></trkpt><trkpt lat="45.42832048459528" lon="11.604262120344904"><ele>18.571428571428573</ele><time>2026-04-16T10:18:56.002Z</time></trkpt><trkpt lat="45.42836796881137" lon="11.604324287205351"><ele>18.42857142857143</ele><time>2026-04-16T10:18:57.002Z</time></trkpt><trkpt lat="45.42841471419108" lon="11.604385603656985"><ele>18.285714285714285</ele><time>2026-04-16T10:18:58.002Z</time></trkpt><trkpt lat="45.42846150258892" lon="11.604447086238524"><ele>18.142857142857146</ele><time>2026-04-16T10:18:59.002Z</time></trkpt><trkpt lat="45.42851008386611" lon="11.604510861552061"><ele>18.0</ele><time>2026-04-16T10:19:00.002Z</time></trkpt><trkpt lat="45.428565044058594" lon="11.604574745738804"><ele>18.0</ele><time>2026-04-16T10:19:01.002Z</time></trkpt><trkpt lat="45.42862115419556" lon="11.604636892263192"><ele>18.0</ele><time>2026-04-16T10:19:02.002Z</time></trkpt><trkpt lat="45.42867759211563" lon="11.604696578815307"><ele>18.0</ele><time>2026-04-16T10:19:03.002Z</time></trkpt><trkpt lat="45.42872846780282" lon="11.604753874877186"><ele>18.0</ele><time>2026-04-16T10:19:04.002Z</time></trkpt><trkpt lat="45.42881891060956" lon="11.60486886164879"><ele>18.0</ele><time>2026-04-16T10:19:06.002Z</time></trkpt><trkpt lat="45.428917988106384" lon="11.604986860876728"><ele>18.000000000000004</ele><time>2026-04-16T10:19:08.002Z</time></trkpt><trkpt lat="45.42896928699069" lon="11.605045611046869"><ele>18.0</ele><time>2026-04-16T10:19:09.002Z</time></trkpt><trkpt lat="45.42901863301256" lon="11.605107919486962"><ele>18.0</ele><time>2026-04-16T10:19:10.002Z</time></trkpt><trkpt lat="45.42906853550708" lon="11.605172962485723"><ele>18.0</ele><time>2026-04-16T10:19:11.002Z</time></trkpt><trkpt lat="45.42912169056053" lon="11.605233710817506"><ele>18.0</ele><time>2026-04-16T10:19:12.002Z</time></trkpt><trkpt lat="45.42917207459899" lon="11.6052997510984"><ele>18.000000000000004</ele><time>2026-04-16T10:19:13.002Z</time></trkpt><trkpt lat="45.42922376726482" lon="11.60536385999723"><ele>18.0</ele><time>2026-04-16T10:19:14.002Z</time></trkpt><trkpt lat="45.4292781657276" lon="11.605419892233824"><ele>18.0</ele><time>2026-04-16T10:19:15.002Z</time></trkpt><trkpt lat="45.42932882098358" lon="11.605476012708703"><ele>18.0</ele><time>2026-04-16T10:19:16.002Z</time></trkpt><trkpt lat="45.42941997628437" lon="11.60559744991515"><ele>18.0</ele><time>2026-04-16T10:19:18.003Z</time></trkpt><trkpt lat="45.429470351740264" lon="11.60565664594519"><ele>18.0</ele><time>2026-04-16T10:19:19.003Z</time></trkpt><trkpt lat="45.4295203250014" lon="11.605720000206295"><ele>18.0</ele><time>2026-04-16T10:19:20.003Z</time></trkpt><trkpt lat="45.42957418259639" lon="11.605779399663867"><ele>18.0</ele><time>2026-04-16T10:19:21.003Z</time></trkpt><trkpt lat="45.42962534900647" lon="11.605841848443823"><ele>18.000000000000004</ele><time>2026-04-16T10:19:22.003Z</time></trkpt><trkpt lat="45.42967735030655" lon="11.60590062209533"><ele>18.0</ele><time>2026-04-16T10:19:23.003Z</time></trkpt><trkpt lat="45.42972442489126" lon="11.605967377267593"><ele>18.0</ele><time>2026-04-16T10:19:24.003Z</time></trkpt><trkpt lat="45.42977936226374" lon="11.60602779231413"><ele>18.0</ele><time>2026-04-16T10:19:25.003Z</time></trkpt><trkpt lat="45.42983173644137" lon="11.60609309441093"><ele>18.0</ele><time>2026-04-16T10:19:26.003Z</time></trkpt><trkpt lat="45.429884053461315" lon="11.606156036879275"><ele>18.000000000000004</ele><time>2026-04-16T10:19:27.003Z</time></trkpt><trkpt lat="45.429934610298844" lon="11.606220697402149"><ele>18.0</ele><time>2026-04-16T10:19:28.003Z</time></trkpt><trkpt lat="45.42998832847451" lon="11.606283748504259"><ele>18.142857142857146</ele><time>2026-04-16T10:19:29.003Z</time></trkpt><trkpt lat="45.43003899296727" lon="11.606350908030729"><ele>18.285714285714285</ele><time>2026-04-16T10:19:30.003Z</time></trkpt><trkpt lat="45.430092104572324" lon="11.606414450656178"><ele>18.42857142857143</ele><time>2026-04-16T10:19:31.003Z</time></trkpt><trkpt lat="45.43014191356552" lon="11.606481272585919"><ele>18.571428571428573</ele><time>2026-04-16T10:19:32.003Z</time></trkpt><trkpt lat="45.43019659179629" lon="11.606545493939288"><ele>18.714285714285715</ele><time>2026-04-16T10:19:33.003Z</time></trkpt><trkpt lat="45.430249448825535" lon="11.60660919220269"><ele>18.857142857142858</ele><time>2026-04-16T10:19:34.003Z</time></trkpt><trkpt lat="45.430299727694354" lon="11.606676251689624"><ele>19.0</ele><time>2026-04-16T10:19:35.001Z</time></trkpt><trkpt lat="45.43035067319713" lon="11.606744113847023"><ele>19.0</ele><time>2026-04-16T10:19:36.001Z</time></trkpt><trkpt lat="45.43040113369286" lon="11.60681045546794"><ele>19.0</ele><time>2026-04-16T10:19:37.001Z</time></trkpt><trkpt lat="45.43045454034272" lon="11.606868888153505"><ele>19.0</ele><time>2026-04-16T10:19:38.001Z</time></trkpt><trkpt lat="45.43054969353749" lon="11.606979170135482"><ele>19.0</ele><time>2026-04-16T10:19:40.001Z</time></trkpt><trkpt lat="45.43064588916236" lon="11.607094486521369"><ele>19.0</ele><time>2026-04-16T10:19:42.001Z</time></trkpt><trkpt lat="45.43069659835469" lon="11.60715621909957"><ele>19.0</ele><time>2026-04-16T10:19:43.001Z</time></trkpt><trkpt lat="45.43074694271537" lon="11.607216652205972"><ele>19.0</ele><time>2026-04-16T10:19:44.001Z</time></trkpt><trkpt lat="45.43079765546188" lon="11.607278505365857"><ele>19.0</ele><time>2026-04-16T10:19:45.001Z</time></trkpt><trkpt lat="45.43085022172293" lon="11.60734177732104"><ele>19.0</ele><time>2026-04-16T10:19:46.001Z</time></trkpt><trkpt lat="45.433753678610245" lon="11.610876202058598"><ele>18.857142857142858</ele><time>2026-04-16T10:20:47.002Z</time></trkpt><trkpt lat="45.433810082551815" lon="11.61093600768826"><ele>18.714285714285715</ele><time>2026-04-16T10:20:48.002Z</time></trkpt><trkpt lat="45.433863212787145" lon="11.610997022502136"><ele>18.571428571428573</ele><time>2026-04-16T10:20:49.002Z</time></trkpt><trkpt lat="45.43391265344988" lon="11.611066037050412"><ele>18.42857142857143</ele><time>2026-04-16T10:20:50.002Z</time></trkpt><trkpt lat="45.433965815758825" lon="11.611129285303596"><ele>18.285714285714285</ele><time>2026-04-16T10:20:51.002Z</time></trkpt><trkpt lat="45.43401725320769" lon="11.611187466612398"><ele>18.142857142857146</ele><time>2026-04-16T10:20:52.002Z</time></trkpt><trkpt lat="45.434068842290706" lon="11.611246261172457"><ele>18.0</ele><time>2026-04-16T10:20:53.002Z</time></trkpt><trkpt lat="45.43412147266875" lon="11.611297422343265"><ele>18.000000000000004</ele><time>2026-04-16T10:20:54.002Z</time></trkpt><trkpt lat="45.43416977538896" lon="11.61136368690424"><ele>18.0</ele><time>2026-04-16T10:20:55.002Z</time></trkpt><trkpt lat="45.4342202640277" lon="11.611428430928845"><ele>18.0</ele><time>2026-04-16T10:20:56.002Z</time></trkpt><trkpt lat="45.43426807931906" lon="11.611496398038057"><ele>18.0</ele><time>2026-04-16T10:20:57.002Z</time></trkpt><trkpt lat="45.43431992516013" lon="11.611562484419817"><ele>18.0</ele><time>2026-04-16T10:20:58.002Z</time></trkpt><trkpt lat="45.4343741753146" lon="11.611625618746361"><ele>18.000000000000004</ele><time>2026-04-16T10:20:59.002Z</time></trkpt><trkpt lat="45.434428682198245" lon="11.611685020659264"><ele>18.0</ele><time>2026-04-16T10:21:00.002Z</time></trkpt><trkpt lat="45.434486849360724" lon="11.611744530879152"><ele>18.000000000000004</ele><time>2026-04-16T10:21:01.002Z</time></trkpt><trkpt lat="45.43454382410805" lon="11.611803502022108"><ele>18.0</ele><time>2026-04-16T10:21:02.002Z</time></trkpt><trkpt lat="45.43459477042446" lon="11.611874040555632"><ele>18.0</ele><time>2026-04-16T10:21:03.002Z</time></trkpt><trkpt lat="45.43464842810063" lon="11.611942466628097"><ele>18.0</ele><time>2026-04-16T10:21:04.002Z</time></trkpt><trkpt lat="45.434698845068056" lon="11.612008057865006"><ele>18.0</ele><time>2026-04-16T10:21:05.002Z</time></trkpt><trkpt lat="45.43475486618722" lon="11.612066303878375"><ele>18.000000000000004</ele><time>2026-04-16T10:21:06.002Z</time></trkpt><trkpt lat="45.43480797923789" lon="11.612129648855099"><ele>18.0</ele><time>2026-04-16T10:21:07.002Z</time></trkpt><trkpt lat="45.43485794696904" lon="11.612198035283274"><ele>18.5</ele><time>2026-04-16T10:21:08.002Z</time></trkpt><trkpt lat="45.43490960858251" lon="11.612263183896687"><ele>19.0</ele><time>2026-04-16T10:21:09.002Z</time></trkpt><trkpt lat="45.43496047509647" lon="11.612326601437925"><ele>19.5</ele><time>2026-04-16T10:21:10.002Z</time></trkpt><trkpt lat="45.43501001341942" lon="11.612387846245314"><ele>20.0</ele><time>2026-04-16T10:21:11.002Z</time></trkpt><trkpt lat="45.43506051119343" lon="11.612449910577928"><ele>20.5</ele><time>2026-04-16T10:21:12.002Z</time></trkpt><trkpt lat="45.43511167964608" lon="11.612505826407823"><ele>21.0</ele><time>2026-04-16T10:21:13.002Z</time></trkpt><trkpt lat="45.43520960784327" lon="11.612625477364062"><ele>21.0</ele><time>2026-04-16T10:21:15.002Z</time></trkpt><trkpt lat="45.43529967613244" lon="11.612751934050486"><ele>21.0</ele><time>2026-04-16T10:21:17.002Z</time></trkpt><trkpt lat="45.435348730441476" lon="11.612809397826359"><ele>21.0</ele><time>2026-04-16T10:21:18.002Z</time></trkpt><trkpt lat="45.43543160188696" lon="11.612933189792805"><ele>21.0</ele><time>2026-04-16T10:21:20.002Z</time></trkpt><trkpt lat="45.43551814961601" lon="11.613028679787893"><ele>21.0</ele><time>2026-04-16T10:21:22.002Z</time></trkpt><trkpt lat="45.435596087176016" lon="11.613129584829942"><ele>20.833333333333332</ele><time>2026-04-16T10:21:24.002Z</time></trkpt><trkpt lat="45.435663307775144" lon="11.613205903787419"><ele>20.666666666666668</ele><time>2026-04-16T10:21:26.002Z</time></trkpt><trkpt lat="45.4357168434719" lon="11.613279546199653"><ele>20.5</ele><time>2026-04-16T10:21:29.003Z</time></trkpt><trkpt lat="45.43576154729089" lon="11.613353140854237"><ele>20.333333333333336</ele><time>2026-04-16T10:21:31.003Z</time></trkpt><trkpt lat="45.435828439219335" lon="11.61343157603738"><ele>20.166666666666668</ele><time>2026-04-16T10:21:33.003Z</time></trkpt><trkpt lat="45.43590906050579" lon="11.6135390470986"><ele>20.0</ele><time>2026-04-16T10:21:35.003Z</time></trkpt><trkpt lat="45.435996433185075" lon="11.613656083185077"><ele>20.0</ele><time>2026-04-16T10:21:37.003Z</time></trkpt><trkpt lat="45.436041777961265" lon="11.613718632476711"><ele>20.0</ele><time>2026-04-16T10:21:38.003Z</time></trkpt><trkpt lat="45.43609332917136" lon="11.613774042520935"><ele>20.0</ele><time>2026-04-16T10:21:39.003Z</time></trkpt><trkpt lat="45.43614236945985" lon="11.613833157239212"><ele>20.0</ele><time>2026-04-16T10:21:40.003Z</time></trkpt><trkpt lat="45.43619515997349" lon="11.61388844126824"><ele>20.0</ele><time>2026-04-16T10:21:41.001Z</time></trkpt><trkpt lat="45.43628733244877" lon="11.614013905586084"><ele>20.0</ele><time>2026-04-16T10:21:43.001Z</time></trkpt><trkpt lat="45.43634420927296" lon="11.614069267291212"><ele>20.0</ele><time>2026-04-16T10:21:44.001Z</time></trkpt><trkpt lat="45.43639228218059" lon="11.614133084071451"><ele>20.0</ele><time>2026-04-16T10:21:45.001Z</time></trkpt><trkpt lat="45.436444194830635" lon="11.614190655923437"><ele>20.0</ele><time>2026-04-16T10:21:46.001Z</time></trkpt><trkpt lat="45.438892768566284" lon="11.6171938298751"><ele>20.142857142857142</ele><time>2026-04-16T10:22:47.001Z</time></trkpt><trkpt lat="45.43898928137836" lon="11.617304150802784"><ele>20.285714285714285</ele><time>2026-04-16T10:22:49.001Z</time></trkpt><trkpt lat="45.43903664289761" lon="11.617363580114299"><ele>20.42857142857143</ele><time>2026-04-16T10:22:50.001Z</time></trkpt><trkpt lat="45.43909087808468" lon="11.617416845698656"><ele>20.57142857142857</ele><time>2026-04-16T10:22:51.001Z</time></trkpt><trkpt lat="45.43913909416199" lon="11.617477008942634"><ele>20.714285714285715</ele><time>2026-04-16T10:22:52.001Z</time></trkpt><trkpt lat="45.439190155277934" lon="11.617532165049468"><ele>20.857142857142858</ele><time>2026-04-16T10:22:53.001Z</time></trkpt><trkpt lat="45.439238588680155" lon="11.617590281999865"><ele>21.0</ele><time>2026-04-16T10:22:54.001Z</time></trkpt><trkpt lat="45.439285682139726" lon="11.61765048986539"><ele>21.0</ele><time>2026-04-16T10:22:55.001Z</time></trkpt><trkpt lat="45.43933340767778" lon="11.617709979964216"><ele>21.0</ele><time>2026-04-16T10:22:56.001Z</time></trkpt><trkpt lat="45.439379425011595" lon="11.617771546039814"><ele>21.0</ele><time>2026-04-16T10:22:57.001Z</time></trkpt><trkpt lat="45.43947966824828" lon="11.617878539955509"><ele>21.0</ele><time>2026-04-16T10:22:59.001Z</time></trkpt><trkpt lat="45.43956945662942" lon="11.6179985701524"><ele>21.0</ele><time>2026-04-16T10:23:01.001Z</time></trkpt><trkpt lat="45.43961568343366" lon="11.618062153927788"><ele>21.0</ele><time>2026-04-16T10:23:02.002Z</time></trkpt><trkpt lat="45.439665893913315" lon="11.618122628951287"><ele>21.25</ele><time>2026-04-16T10:23:03.002Z</time></trkpt><trkpt lat="45.43976219546497" lon="11.618227747201098"><ele>21.5</ele><time>2026-04-16T10:23:05.002Z</time></trkpt><trkpt lat="45.43985007321543" lon="11.618326515994966"><ele>21.75</ele><time>2026-04-16T10:23:07.002Z</time></trkpt><trkpt lat="45.439938046732216" lon="11.618443061727948"><ele>22.0</ele><time>2026-04-16T10:23:09.002Z</time></trkpt><trkpt lat="45.440025029807835" lon="11.618553976390341"><ele>22.0</ele><time>2026-04-16T10:23:11.002Z</time></trkpt><trkpt lat="45.440110013565736" lon="11.618666079660343"><ele>22.0</ele><time>2026-04-16T10:23:13.002Z</time></trkpt><trkpt lat="45.44020164514592" lon="11.618772084756563"><ele>22.0</ele><time>2026-04-16T10:23:15.002Z</time></trkpt><trkpt lat="45.44029091134143" lon="11.618876781597068"><ele>22.0</ele><time>2026-04-16T10:23:17.002Z</time></trkpt><trkpt lat="45.44038206624435" lon="11.618976742818882"><ele>22.0</ele><time>2026-04-16T10:23:19.002Z</time></trkpt><trkpt lat="45.44046894745216" lon="11.619089843154404"><ele>22.0</ele><time>2026-04-16T10:23:21.002Z</time></trkpt><trkpt lat="45.44055420162591" lon="11.619207238602902"><ele>22.0</ele><time>2026-04-16T10:23:23.002Z</time></trkpt><trkpt lat="45.44064326103304" lon="11.619318060008196"><ele>22.0</ele><time>2026-04-16T10:23:25.002Z</time></trkpt><trkpt lat="45.44073315590296" lon="11.619428900912967"><ele>22.0</ele><time>2026-04-16T10:23:27.002Z</time></trkpt><trkpt lat="45.44082554163779" lon="11.619540543615484"><ele>22.0</ele><time>2026-04-16T10:23:29.002Z</time></trkpt><trkpt lat="45.44091308916084" lon="11.619659512312541"><ele>22.0</ele><time>2026-04-16T10:23:31.002Z</time></trkpt><trkpt lat="45.44100269168126" lon="11.619774205334965"><ele>22.0</ele><time>2026-04-16T10:23:33.002Z</time></trkpt><trkpt lat="45.44109549945548" lon="11.619886990185716"><ele>22.0</ele><time>2026-04-16T10:23:35.002Z</time></trkpt><trkpt lat="45.441148616737365" lon="11.61994272368244"><ele>22.0</ele><time>2026-04-16T10:23:36.002Z</time></trkpt><trkpt lat="45.44119803761619" lon="11.620005731334606"><ele>22.0</ele><time>2026-04-16T10:23:37.002Z</time></trkpt><trkpt lat="45.44125041382898" lon="11.620066917955462"><ele>22.0</ele><time>2026-04-16T10:23:38.002Z</time></trkpt><trkpt lat="45.44130494394367" lon="11.620122332466716"><ele>22.0</ele><time>2026-04-16T10:23:39.002Z</time></trkpt><trkpt lat="45.44135484080347" lon="11.62018014679903"><ele>22.0</ele><time>2026-04-16T10:23:40.002Z</time></trkpt><trkpt lat="45.44140204024823" lon="11.620244549899821"><ele>22.0</ele><time>2026-04-16T10:23:41.002Z</time></trkpt><trkpt lat="45.44146228899762" lon="11.620304299122015"><ele>22.200000000000003</ele><time>2026-04-16T10:23:42.002Z</time></trkpt><trkpt lat="45.44151410122733" lon="11.620368868570576"><ele>22.4</ele><time>2026-04-16T10:23:43.002Z</time></trkpt><trkpt lat="45.44156198686973" lon="11.620440049082298"><ele>22.6</ele><time>2026-04-16T10:23:44.002Z</time></trkpt><trkpt lat="45.44161604171739" lon="11.620497730620466"><ele>22.799999999999997</ele><time>2026-04-16T10:23:45.002Z</time></trkpt><trkpt lat="45.44166903434145" lon="11.620555647574328"><ele>23.0</ele><time>2026-04-16T10:23:46.002Z</time></trkpt><trkpt lat="45.44486827450609" lon="11.62434865689197"><ele>22.714285714285715</ele><time>2026-04-16T10:24:47.001Z</time></trkpt><trkpt lat="45.44492092470012" lon="11.624410698212639"><ele>22.428571428571427</ele><time>2026-04-16T10:24:48.001Z</time></trkpt><trkpt lat="45.444972524047905" lon="11.624472106187214"><ele>22.142857142857142</ele><time>2026-04-16T10:24:49.001Z</time></trkpt><trkpt lat="45.44501931756896" lon="11.624540270392524"><ele>21.857142857142858</ele><time>2026-04-16T10:24:50.001Z</time></trkpt><trkpt lat="45.44507073974461" lon="11.624607253480981"><ele>21.57142857142857</ele><time>2026-04-16T10:24:51.001Z</time></trkpt><trkpt lat="45.445124041729464" lon="11.624671943613478"><ele>21.285714285714285</ele><time>2026-04-16T10:24:52.001Z</time></trkpt><trkpt lat="45.445177710706325" lon="11.624737342971708"><ele>21.0</ele><time>2026-04-16T10:24:53.001Z</time></trkpt><trkpt lat="45.445225966317416" lon="11.624805292231772"><ele>21.0</ele><time>2026-04-16T10:24:54.001Z</time></trkpt><trkpt lat="45.4452751621633" lon="11.62487066773015"><ele>21.0</ele><time>2026-04-16T10:24:55.001Z</time></trkpt><trkpt lat="45.44532974255008" lon="11.624930761236113"><ele>21.0</ele><time>2026-04-16T10:24:56.001Z</time></trkpt><trkpt lat="45.44538474188008" lon="11.624992278147944"><ele>21.0</ele><time>2026-04-16T10:24:57.001Z</time></trkpt><trkpt lat="45.44543670590751" lon="11.625051994153772"><ele>21.0</ele><time>2026-04-16T10:24:58.001Z</time></trkpt><trkpt lat="45.445485247410744" lon="11.625118424913733"><ele>21.0</ele><time>2026-04-16T10:24:59.001Z</time></trkpt><trkpt lat="45.44553538841291" lon="11.625182220529572"><ele>21.0</ele><time>2026-04-16T10:25:00.001Z</time></trkpt><trkpt lat="45.445588039882864" lon="11.62524172858718"><ele>21.0</ele><time>2026-04-16T10:25:01.001Z</time></trkpt><trkpt lat="45.445636513144194" lon="11.625310407253084"><ele>21.0</ele><time>2026-04-16T10:25:02.001Z</time></trkpt><trkpt lat="45.44568781957617" lon="11.62537434213199"><ele>21.0</ele><time>2026-04-16T10:25:03.001Z</time></trkpt><trkpt lat="45.44574070511235" lon="11.625435043299174"><ele>21.0</ele><time>2026-04-16T10:25:04.001Z</time></trkpt><trkpt lat="45.44579077257777" lon="11.625503982563066"><ele>21.0</ele><time>2026-04-16T10:25:05.001Z</time></trkpt><trkpt lat="45.44584231464188" lon="11.625569754112908"><ele>21.0</ele><time>2026-04-16T10:25:06.001Z</time></trkpt><trkpt lat="45.44589658163071" lon="11.625627740721105"><ele>21.0</ele><time>2026-04-16T10:25:07.001Z</time></trkpt><trkpt lat="45.44595026186112" lon="11.62568973513313"><ele>21.142857142857142</ele><time>2026-04-16T10:25:08.001Z</time></trkpt><trkpt lat="45.44600116174473" lon="11.625756426588671"><ele>21.285714285714285</ele><time>2026-04-16T10:25:09.002Z</time></trkpt><trkpt lat="45.44605137055321" lon="11.625822281613097"><ele>21.42857142857143</ele><time>2026-04-16T10:25:10.002Z</time></trkpt><trkpt lat="45.446100647397785" lon="11.625891872403445"><ele>21.57142857142857</ele><time>2026-04-16T10:25:11.002Z</time></trkpt><trkpt lat="45.446154874570844" lon="11.62595965221483"><ele>21.714285714285715</ele><time>2026-04-16T10:25:12.002Z</time></trkpt><trkpt lat="45.44621500581087" lon="11.626018689285711"><ele>21.857142857142858</ele><time>2026-04-16T10:25:13.002Z</time></trkpt><trkpt lat="45.44626889475523" lon="11.626078185037473"><ele>22.0</ele><time>2026-04-16T10:25:14.002Z</time></trkpt><trkpt lat="45.44631892531007" lon="11.626145458364782"><ele>22.0</ele><time>2026-04-16T10:25:15.002Z</time></trkpt><trkpt lat="45.44637277998191" lon="11.626210871274782"><ele>22.0</ele><time>2026-04-16T10:25:16.002Z</time></trkpt><trkpt lat="45.44642421559876" lon="11.626274430034652"><ele>22.0</ele><time>2026-04-16T10:25:17.002Z</time></trkpt><trkpt lat="45.44647320497813" lon="11.626339107156847"><ele>22.0</ele><time>2026-04-16T10:25:18.002Z</time></trkpt><trkpt lat="45.446527019476655" lon="11.62640036164302"><ele>22.0</ele><time>2026-04-16T10:25:19.002Z</time></trkpt><trkpt lat="45.446579583075206" lon="11.626465695472833"><ele>22.0</ele><time>2026-04-16T10:25:20.002Z</time></trkpt><trkpt lat="45.44662982181333" lon="11.626530943874535"><ele>22.0</ele><time>2026-04-16T10:25:21.002Z</time></trkpt><trkpt lat="45.44668214002998" lon="11.626598317800626"><ele>22.0</ele><time>2026-04-16T10:25:22.002Z</time></trkpt><trkpt lat="45.44673787468212" lon="11.62666328510723"><ele>22.0</ele><time>2026-04-16T10:25:23.002Z</time></trkpt><trkpt lat="45.44679278254006" lon="11.626724656223368"><ele>22.0</ele><time>2026-04-16T10:25:24.002Z</time></trkpt><trkpt lat="45.44684768673138" lon="11.626791083416641"><ele>22.0</ele><time>2026-04-16T10:25:25.002Z</time></trkpt><trkpt lat="45.446899552735886" lon="11.626849391396389"><ele>22.0</ele><time>2026-04-16T10:25:26.002Z</time></trkpt><trkpt lat="45.44695226464826" lon="11.626903567429522"><ele>22.0</ele><time>2026-04-16T10:25:27.002Z</time></trkpt><trkpt lat="45.447004443451405" lon="11.626961705448085"><ele>22.0</ele><time>2026-04-16T10:25:28.002Z</time></trkpt><trkpt lat="45.44705137771644" lon="11.627029894072473"><ele>22.142857142857142</ele><time>2026-04-16T10:25:29.002Z</time></trkpt><trkpt lat="45.44708608790718" lon="11.62711056537117"><ele>22.285714285714285</ele><time>2026-04-16T10:25:30.002Z</time></trkpt><trkpt lat="45.44711467606029" lon="11.62719970551306"><ele>22.42857142857143</ele><time>2026-04-16T10:25:31.002Z</time></trkpt><trkpt lat="45.447152644674716" lon="11.627272959876048"><ele>22.57142857142857</ele><time>2026-04-16T10:25:32.002Z</time></trkpt><trkpt lat="45.44720267743638" lon="11.627336198991664"><ele>22.71428571428571</ele><time>2026-04-16T10:25:33.002Z</time></trkpt><trkpt lat="45.44725491037785" lon="11.627395320625988"><ele>22.857142857142858</ele><time>2026-04-16T10:25:34.002Z</time></trkpt><trkpt lat="45.447305430333664" lon="11.627454006399399"><ele>23.0</ele><time>2026-04-16T10:25:35.002Z</time></trkpt><trkpt lat="45.44735180568977" lon="11.627517039870435"><ele>23.0</ele><time>2026-04-16T10:25:36.002Z</time></trkpt><trkpt lat="45.44740386672181" lon="11.627577171521073"><ele>23.0</ele><time>2026-04-16T10:25:37.002Z</time></trkpt><trkpt lat="45.447455565989074" lon="11.62763779844266"><ele>23.0</ele><time>2026-04-16T10:25:38.002Z</time></trkpt><trkpt lat="45.447508463129374" lon="11.627698341063052"><ele>23.0</ele><time>2026-04-16T10:25:39.002Z</time></trkpt><trkpt lat="45.44755968465993" lon="11.627759315444369"><ele>23.0</ele><time>2026-04-16T10:25:40.002Z</time></trkpt><trkpt lat="45.44761262406345" lon="11.627822073254704"><ele>23.0</ele><time>2026-04-16T10:25:41.002Z</time></trkpt><trkpt lat="45.4476631465004" lon="11.627889798186335"><ele>23.0</ele><time>2026-04-16T10:25:42.002Z</time></trkpt><trkpt lat="45.44771448688839" lon="11.627955715431142"><ele>22.75</ele><time>2026-04-16T10:25:43.002Z</time></trkpt><trkpt lat="45.44776719363383" lon="11.628014541656428"><ele>22.5</ele><time>2026-04-16T10:25:44.002Z</time></trkpt><trkpt lat="45.44782053955342" lon="11.628071147122013"><ele>22.25</ele><time>2026-04-16T10:25:45.002Z</time></trkpt><trkpt lat="45.447868824277506" lon="11.628132533853494"><ele>22.0</ele><time>2026-04-16T10:25:46.002Z</time></trkpt><trkpt lat="45.44668689299772" lon="11.630405206786987"><ele>22.0</ele><time>2026-04-16T10:26:47.001Z</time></trkpt><trkpt lat="45.44662309945779" lon="11.630446669145877"><ele>22.0</ele><time>2026-04-16T10:26:48.001Z</time></trkpt><trkpt lat="45.446551777788784" lon="11.630475327799097"><ele>22.0</ele><time>2026-04-16T10:26:49.001Z</time></trkpt><trkpt lat="45.44648586721762" lon="11.630509889063298"><ele>22.0</ele><time>2026-04-16T10:26:50.001Z</time></trkpt><trkpt lat="45.446416831682306" lon="11.630547573198276"><ele>22.0</ele><time>2026-04-16T10:26:51.001Z</time></trkpt><trkpt lat="45.44635130661178" lon="11.630585599736557"><ele>22.0</ele><time>2026-04-16T10:26:52.001Z</time></trkpt><trkpt lat="45.44628146773202" lon="11.630623868107966"><ele>22.0</ele><time>2026-04-16T10:26:53.001Z</time></trkpt><trkpt lat="45.44621659911638" lon="11.630661234485432"><ele>22.0</ele><time>2026-04-16T10:26:54.001Z</time></trkpt><trkpt lat="45.446154221060816" lon="11.63069893001734"><ele>22.0</ele><time>2026-04-16T10:26:55.001Z</time></trkpt><trkpt lat="45.446086155121236" lon="11.630739603741015"><ele>22.0</ele><time>2026-04-16T10:26:56.001Z</time></trkpt><trkpt lat="45.446022867603205" lon="11.63078223727652"><ele>22.0</ele><time>2026-04-16T10:26:57.001Z</time></trkpt><trkpt lat="45.445955875743024" lon="11.630816497104442"><ele>22.0</ele><time>2026-04-16T10:26:58.001Z</time></trkpt><trkpt lat="45.445895712214096" lon="11.630855964585095"><ele>22.0</ele><time>2026-04-16T10:26:59.001Z</time></trkpt><trkpt lat="45.44583165325646" lon="11.630891672845292"><ele>22.0</ele><time>2026-04-16T10:27:00.001Z</time></trkpt><trkpt lat="45.44576798310571" lon="11.630931879983585"><ele>22.0</ele><time>2026-04-16T10:27:01.001Z</time></trkpt><trkpt lat="45.44570476285679" lon="11.63097835731962"><ele>22.0</ele><time>2026-04-16T10:27:02.001Z</time></trkpt><trkpt lat="45.4456416611206" lon="11.6310209741235"><ele>22.0</ele><time>2026-04-16T10:27:03.001Z</time></trkpt><trkpt lat="45.44557708562161" lon="11.631062051115588"><ele>22.0</ele><time>2026-04-16T10:27:04.001Z</time></trkpt><trkpt lat="45.44551255390012" lon="11.631103779186242"><ele>22.0</ele><time>2026-04-16T10:27:05.001Z</time></trkpt><trkpt lat="45.445449943670695" lon="11.631156347554114"><ele>22.0</ele><time>2026-04-16T10:27:06.001Z</time></trkpt><trkpt lat="45.445385582099696" lon="11.631204745288029"><ele>22.0</ele><time>2026-04-16T10:27:07.001Z</time></trkpt><trkpt lat="45.445320513058206" lon="11.631251984882878"><ele>21.857142857142858</ele><time>2026-04-16T10:27:08.001Z</time></trkpt><trkpt lat="45.44525829129371" lon="11.631301125931602"><ele>21.714285714285715</ele><time>2026-04-16T10:27:09.001Z</time></trkpt><trkpt lat="45.44519577444738" lon="11.63134539109788"><ele>21.57142857142857</ele><time>2026-04-16T10:27:10.001Z</time></trkpt><trkpt lat="45.445129709169606" lon="11.631391993841738"><ele>21.42857142857143</ele><time>2026-04-16T10:27:11.001Z</time></trkpt><trkpt lat="45.445069168848406" lon="11.631436887961534"><ele>21.285714285714285</ele><time>2026-04-16T10:27:12.001Z</time></trkpt><trkpt lat="45.44500808631931" lon="11.631482339500442"><ele>21.142857142857142</ele><time>2026-04-16T10:27:13.001Z</time></trkpt><trkpt lat="45.444943466628004" lon="11.63152565453657"><ele>21.0</ele><time>2026-04-16T10:27:14.001Z</time></trkpt><trkpt lat="45.44487927828124" lon="11.631565634829938"><ele>21.0</ele><time>2026-04-16T10:27:15.001Z</time></trkpt><trkpt lat="45.44481847170367" lon="11.631613926026297"><ele>21.0</ele><time>2026-04-16T10:27:16.001Z</time></trkpt><trkpt lat="45.44475749329553" lon="11.631660859189095"><ele>21.0</ele><time>2026-04-16T10:27:17.001Z</time></trkpt><trkpt lat="45.44469780389977" lon="11.631709213876317"><ele>21.0</ele><time>2026-04-16T10:27:18.001Z</time></trkpt><trkpt lat="45.4446392809419" lon="11.631750281149435"><ele>21.0</ele><time>2026-04-16T10:27:19.001Z</time></trkpt><trkpt lat="45.44458430135502" lon="11.631794898473622"><ele>21.0</ele><time>2026-04-16T10:27:20.001Z</time></trkpt><trkpt lat="45.44452639026147" lon="11.631834687110207"><ele>21.0</ele><time>2026-04-16T10:27:21.001Z</time></trkpt><trkpt lat="45.444417356722234" lon="11.631901586860241"><ele>21.0</ele><time>2026-04-16T10:27:23.002Z</time></trkpt><trkpt lat="45.44430851874935" lon="11.631967942459832"><ele>21.0</ele><time>2026-04-16T10:27:25.002Z</time></trkpt><trkpt lat="45.44419675727987" lon="11.63202630068122"><ele>21.0</ele><time>2026-04-16T10:27:27.002Z</time></trkpt><trkpt lat="45.444079222970736" lon="11.63197916601498"><ele>21.0</ele><time>2026-04-16T10:27:29.002Z</time></trkpt><trkpt lat="45.4440466314151" lon="11.63187378990757"><ele>21.0</ele><time>2026-04-16T10:27:30.002Z</time></trkpt><trkpt lat="45.44397772285963" lon="11.631837411718122"><ele>20.857142857142858</ele><time>2026-04-16T10:27:31.002Z</time></trkpt><trkpt lat="45.44393166885766" lon="11.631768815389647"><ele>20.714285714285715</ele><time>2026-04-16T10:27:32.002Z</time></trkpt><trkpt lat="45.44389169411564" lon="11.631686163090563"><ele>20.57142857142857</ele><time>2026-04-16T10:27:33.002Z</time></trkpt><trkpt lat="45.44383156028989" lon="11.631642141736762"><ele>20.42857142857143</ele><time>2026-04-16T10:27:34.002Z</time></trkpt><trkpt lat="45.443781033983974" lon="11.63157761819609"><ele>20.285714285714285</ele><time>2026-04-16T10:27:35.002Z</time></trkpt><trkpt lat="45.44373986462846" lon="11.631497643574571"><ele>20.142857142857142</ele><time>2026-04-16T10:27:36.002Z</time></trkpt><trkpt lat="45.44369083024082" lon="11.631432642046503"><ele>20.0</ele><time>2026-04-16T10:27:37.002Z</time></trkpt><trkpt lat="45.44364477320521" lon="11.631362582219099"><ele>20.0</ele><time>2026-04-16T10:27:38.002Z</time></trkpt><trkpt lat="45.44359731901242" lon="11.63128927002606"><ele>20.0</ele><time>2026-04-16T10:27:39.002Z</time></trkpt><trkpt lat="45.44354908928374" lon="11.631224462775188"><ele>20.0</ele><time>2026-04-16T10:27:40.002Z</time></trkpt><trkpt lat="45.44347650482698" lon="11.631197133425957"><ele>20.0</ele><time>2026-04-16T10:27:41.002Z</time></trkpt><trkpt lat="45.4434187631023" lon="11.631153668038131"><ele>20.0</ele><time>2026-04-16T10:27:42.002Z</time></trkpt><trkpt lat="45.44336169863388" lon="11.6311085468344"><ele>20.0</ele><time>2026-04-16T10:27:43.002Z</time></trkpt><trkpt lat="45.44331339372345" lon="11.631047797622509"><ele>20.0</ele><time>2026-04-16T10:27:44.002Z</time></trkpt><trkpt lat="45.44324797449422" lon="11.630902333986803"><ele>22.0</ele><time>2026-04-16T10:27:46.002Z</time></trkpt><trkpt lat="45.44473000650749" lon="11.633347302706772"><ele>22.0</ele><time>2026-04-16T10:28:47.001Z</time></trkpt><trkpt lat="45.444790692009605" lon="11.633435156202605"><ele>22.0</ele><time>2026-04-16T10:28:48.001Z</time></trkpt><trkpt lat="45.44484021036254" lon="11.633541675818458"><ele>22.0</ele><time>2026-04-16T10:28:49.001Z</time></trkpt><trkpt lat="45.444901094276744" lon="11.633634453856168"><ele>22.0</ele><time>2026-04-16T10:28:50.001Z</time></trkpt><trkpt lat="45.444972881526546" lon="11.633711074858269"><ele>22.0</ele><time>2026-04-16T10:28:51.001Z</time></trkpt><trkpt lat="45.445033783458165" lon="11.633806090098762"><ele>22.0</ele><time>2026-04-16T10:28:52.001Z</time></trkpt><trkpt lat="45.445088996909966" lon="11.633912537715661"><ele>22.0</ele><time>2026-04-16T10:28:53.001Z</time></trkpt><trkpt lat="45.44515447723652" lon="11.633998489926299"><ele>22.0</ele><time>2026-04-16T10:28:54.001Z</time></trkpt><trkpt lat="45.44521229184939" lon="11.634085126765786"><ele>22.0</ele><time>2026-04-16T10:28:55.001Z</time></trkpt><trkpt lat="45.44526923142127" lon="11.634166795725982"><ele>22.0</ele><time>2026-04-16T10:28:56.001Z</time></trkpt><trkpt lat="45.445323041836886" lon="11.634243471148691"><ele>22.0</ele><time>2026-04-16T10:28:57.001Z</time></trkpt><trkpt lat="45.445366143272416" lon="11.634310685924381"><ele>22.0</ele><time>2026-04-16T10:28:58.001Z</time></trkpt><trkpt lat="45.44544182134025" lon="11.634418889436718"><ele>22.0</ele><time>2026-04-16T10:29:00.001Z</time></trkpt><trkpt lat="45.445485190777255" lon="11.634483983317866"><ele>22.0</ele><time>2026-04-16T10:29:01.001Z</time></trkpt><trkpt lat="45.44557475333873" lon="11.634608950944573"><ele>22.0</ele><time>2026-04-16T10:29:03.001Z</time></trkpt><trkpt lat="45.44561780639409" lon="11.634676870656543"><ele>22.0</ele><time>2026-04-16T10:29:04.001Z</time></trkpt><trkpt lat="45.445688322901574" lon="11.63480851507949"><ele>22.0</ele><time>2026-04-16T10:29:06.001Z</time></trkpt><trkpt lat="45.44573312134408" lon="11.63487817456369"><ele>22.0</ele><time>2026-04-16T10:29:07.001Z</time></trkpt><trkpt lat="45.445776199970815" lon="11.634945159799901"><ele>22.0</ele><time>2026-04-16T10:29:08.001Z</time></trkpt><trkpt lat="45.44581913582659" lon="11.635010952380066"><ele>22.0</ele><time>2026-04-16T10:29:09.001Z</time></trkpt><trkpt lat="45.44590215478984" lon="11.63513769191178"><ele>22.0</ele><time>2026-04-16T10:29:11.001Z</time></trkpt><trkpt lat="45.44598494426023" lon="11.635264081061816"><ele>22.0</ele><time>2026-04-16T10:29:13.001Z</time></trkpt><trkpt lat="45.44606594284466" lon="11.635387736152953"><ele>22.0</ele><time>2026-04-16T10:29:15.001Z</time></trkpt><trkpt lat="45.446143982828055" lon="11.635506874581909"><ele>22.0</ele><time>2026-04-16T10:29:17.001Z</time></trkpt><trkpt lat="45.446223209776576" lon="11.635627837706677"><ele>22.0</ele><time>2026-04-16T10:29:19.001Z</time></trkpt><trkpt lat="45.446300808758" lon="11.635744645041362"><ele>22.0</ele><time>2026-04-16T10:29:21.001Z</time></trkpt><trkpt lat="45.446379190436026" lon="11.635861746248395"><ele>22.0</ele><time>2026-04-16T10:29:23.001Z</time></trkpt><trkpt lat="45.44645906077331" lon="11.63598107141166"><ele>22.0</ele><time>2026-04-16T10:29:25.001Z</time></trkpt><trkpt lat="45.44654024414954" lon="11.636102358224665"><ele>22.0</ele><time>2026-04-16T10:29:27.001Z</time></trkpt><trkpt lat="45.44661286255274" lon="11.63621154042726"><ele>22.0</ele><time>2026-04-16T10:29:29.001Z</time></trkpt><trkpt lat="45.44668247085027" lon="11.636318991335472"><ele>22.0</ele><time>2026-04-16T10:29:31.001Z</time></trkpt><trkpt lat="45.44675474578179" lon="11.636430557116233"><ele>22.0</ele><time>2026-04-16T10:29:33.001Z</time></trkpt><trkpt lat="45.44682333635592" lon="11.636557570082756"><ele>22.0</ele><time>2026-04-16T10:29:35.001Z</time></trkpt><trkpt lat="45.446876516384904" lon="11.636679065736466"><ele>22.0</ele><time>2026-04-16T10:29:37.002Z</time></trkpt><trkpt lat="45.446927297019855" lon="11.636806027382839"><ele>22.0</ele><time>2026-04-16T10:29:39.002Z</time></trkpt><trkpt lat="45.44698891558476" lon="11.636934485435914"><ele>22.0</ele><time>2026-04-16T10:29:41.002Z</time></trkpt><trkpt lat="45.44703098400329" lon="11.637013814504312"><ele>22.0</ele><time>2026-04-16T10:29:43.002Z</time></trkpt><trkpt lat="45.44729064093197" lon="11.636908746573669"><ele>22.0</ele><time>2026-04-16T10:29:48.002Z</time></trkpt><trkpt lat="45.44734233386537" lon="11.636962281625822"><ele>22.0</ele><time>2026-04-16T10:29:50.002Z</time></trkpt><trkpt lat="45.44733357535427" lon="11.63706522861943"><ele>22.0</ele><time>2026-04-16T10:29:52.002Z</time></trkpt><trkpt lat="45.44728064881694" lon="11.637190408109587"><ele>22.0</ele><time>2026-04-16T10:29:54.002Z</time></trkpt><trkpt lat="45.447232962918484" lon="11.63732535398483"><ele>22.0</ele><time>2026-04-16T10:29:56.002Z</time></trkpt><trkpt lat="45.447148678269166" lon="11.637428058632377"><ele>22.0</ele><time>2026-04-16T10:29:58.002Z</time></trkpt><trkpt lat="45.447034616526295" lon="11.637437409012069"><ele>22.0</ele><time>2026-04-16T10:29:59.002Z</time></trkpt><trkpt lat="45.446996032136845" lon="11.637569905427961"><ele>22.0</ele><time>2026-04-16T10:30:01.002Z</time></trkpt><trkpt lat="45.4469529505068" lon="11.637694442279477"><ele>22.0</ele><time>2026-04-16T10:30:03.002Z</time></trkpt><trkpt lat="45.446913475474" lon="11.637797876837519"><ele>22.0</ele><time>2026-04-16T10:30:05Z</time></trkpt><trkpt lat="45.44704075589434" lon="11.637983737983355"><ele>22.25</ele><time>2026-04-16T10:30:06Z</time></trkpt><trkpt lat="45.44714242391234" lon="11.638055038623143"><ele>22.5</ele><time>2026-04-16T10:30:08Z</time></trkpt><trkpt lat="45.447246276668274" lon="11.638125609327961"><ele>22.75</ele><time>2026-04-16T10:30:10Z</time></trkpt><trkpt lat="45.447350174441524" lon="11.63819621063938"><ele>23.0</ele><time>2026-04-16T10:30:12Z</time></trkpt><trkpt lat="45.447459555928354" lon="11.638270538276124"><ele>23.0</ele><time>2026-04-16T10:30:14Z</time></trkpt><trkpt lat="45.44756590806131" lon="11.638343626808918"><ele>23.0</ele><time>2026-04-16T10:30:16Z</time></trkpt><trkpt lat="45.44767578134252" lon="11.638419707696853"><ele>23.0</ele><time>2026-04-16T10:30:18Z</time></trkpt><trkpt lat="45.44778414070045" lon="11.638494740257265"><ele>23.0</ele><time>2026-04-16T10:30:20Z</time></trkpt><trkpt lat="45.44789488869529" lon="11.638571426826054"><ele>23.0</ele><time>2026-04-16T10:30:22Z</time></trkpt><trkpt lat="45.44795203382581" lon="11.638610995452336"><ele>23.0</ele><time>2026-04-16T10:30:23Z</time></trkpt><trkpt lat="45.44806043180582" lon="11.638686518212204"><ele>23.0</ele><time>2026-04-16T10:30:25Z</time></trkpt><trkpt lat="45.44817068780262" lon="11.638763190270788"><ele>23.0</ele><time>2026-04-16T10:30:27Z</time></trkpt><trkpt lat="45.44828046013737" lon="11.6388395242872"><ele>23.0</ele><time>2026-04-16T10:30:29Z</time></trkpt><trkpt lat="45.448387085918924" lon="11.638913963341189"><ele>23.0</ele><time>2026-04-16T10:30:31Z</time></trkpt><trkpt lat="45.44849229283055" lon="11.638987625621622"><ele>23.0</ele><time>2026-04-16T10:30:33Z</time></trkpt><trkpt lat="45.448598507078394" lon="11.639061993101668"><ele>23.0</ele><time>2026-04-16T10:30:35Z</time></trkpt><trkpt lat="45.44870294171226" lon="11.639135114581244"><ele>23.0</ele><time>2026-04-16T10:30:37Z</time></trkpt><trkpt lat="45.4488066065593" lon="11.639207697090079"><ele>23.0</ele><time>2026-04-16T10:30:39.001Z</time></trkpt><trkpt lat="45.44890698253969" lon="11.639277395177453"><ele>23.0</ele><time>2026-04-16T10:30:41.001Z</time></trkpt><trkpt lat="45.44900270651413" lon="11.639342839277777"><ele>23.0</ele><time>2026-04-16T10:30:43.001Z</time></trkpt><trkpt lat="45.449104508727395" lon="11.639390772597107"><ele>23.0</ele><time>2026-04-16T10:30:45.001Z</time></trkpt><trkpt lat="45.45227039539534" lon="11.641261291718386"><ele>23.0</ele><time>2026-04-16T10:31:47.001Z</time></trkpt><trkpt lat="45.452332526128956" lon="11.641282196755894"><ele>23.0</ele><time>2026-04-16T10:31:48.001Z</time></trkpt><trkpt lat="45.45239745442707" lon="11.641300134105784"><ele>23.0</ele><time>2026-04-16T10:31:49.001Z</time></trkpt><trkpt lat="45.45246263597606" lon="11.6413235802458"><ele>23.0</ele><time>2026-04-16T10:31:50.001Z</time></trkpt><trkpt lat="45.45252675689714" lon="11.64134653142636"><ele>23.0</ele><time>2026-04-16T10:31:51.002Z</time></trkpt><trkpt lat="45.452587596548646" lon="11.641374398223716"><ele>23.0</ele><time>2026-04-16T10:31:52.002Z</time></trkpt><trkpt lat="45.45265221645984" lon="11.641392053209984"><ele>23.0</ele><time>2026-04-16T10:31:53.002Z</time></trkpt><trkpt lat="45.45271556280139" lon="11.641412871643416"><ele>23.0</ele><time>2026-04-16T10:31:54.002Z</time></trkpt><trkpt lat="45.452778403269335" lon="11.64143027944729"><ele>23.0</ele><time>2026-04-16T10:31:55.002Z</time></trkpt><trkpt lat="45.452896755806584" lon="11.641466389427897"><ele>23.0</ele><time>2026-04-16T10:31:57.002Z</time></trkpt><trkpt lat="45.453008215461125" lon="11.64150659340338"><ele>23.0</ele><time>2026-04-16T10:31:59.002Z</time></trkpt><trkpt lat="45.45309575971195" lon="11.641612000162361"><ele>23.0</ele><time>2026-04-16T10:32:01.002Z</time></trkpt><trkpt lat="45.45312698369569" lon="11.641691506624586"><ele>23.0</ele><time>2026-04-16T10:32:02.002Z</time></trkpt><trkpt lat="45.45314633437933" lon="11.641778010589046"><ele>23.0</ele><time>2026-04-16T10:32:03.002Z</time></trkpt><trkpt lat="45.45317037848833" lon="11.641953172070433"><ele>23.0</ele><time>2026-04-16T10:32:05.002Z</time></trkpt><trkpt lat="45.453183656874735" lon="11.642042279695751"><ele>23.0</ele><time>2026-04-16T10:32:06.002Z</time></trkpt><trkpt lat="45.45319062284345" lon="11.642134475556624"><ele>23.0</ele><time>2026-04-16T10:32:07.002Z</time></trkpt><trkpt lat="45.45320202463468" lon="11.642227751606303"><ele>23.0</ele><time>2026-04-16T10:32:08.002Z</time></trkpt><trkpt lat="45.45321452283694" lon="11.642319295808289"><ele>23.0</ele><time>2026-04-16T10:32:09.002Z</time></trkpt><trkpt lat="45.45323063973187" lon="11.642489887859284"><ele>23.0</ele><time>2026-04-16T10:32:11Z</time></trkpt><trkpt lat="45.45324792461234" lon="11.64265319283374"><ele>23.0</ele><time>2026-04-16T10:32:13Z</time></trkpt><trkpt lat="45.45326838533852" lon="11.642821084939454"><ele>23.0</ele><time>2026-04-16T10:32:15Z</time></trkpt><trkpt lat="45.45330075140789" lon="11.642904827751902"><ele>23.0</ele><time>2026-04-16T10:32:16Z</time></trkpt><trkpt lat="45.45340709366649" lon="11.643005163457754"><ele>23.0</ele><time>2026-04-16T10:32:18Z</time></trkpt><trkpt lat="45.453510629196316" lon="11.643101333975697"><ele>23.0</ele><time>2026-04-16T10:32:20Z</time></trkpt><trkpt lat="45.45356465744246" lon="11.64315020282641"><ele>23.0</ele><time>2026-04-16T10:32:21Z</time></trkpt><trkpt lat="45.453620852680004" lon="11.643198563975844"><ele>23.0</ele><time>2026-04-16T10:32:22Z</time></trkpt><trkpt lat="45.45367809790339" lon="11.643245007876507"><ele>23.0</ele><time>2026-04-16T10:32:23Z</time></trkpt><trkpt lat="45.453733397352195" lon="11.643295404379467"><ele>23.0</ele><time>2026-04-16T10:32:24Z</time></trkpt><trkpt lat="45.45378483719141" lon="11.643347716255997"><ele>23.0</ele><time>2026-04-16T10:32:25Z</time></trkpt><trkpt lat="45.453843099356654" lon="11.643397371401456"><ele>22.833333333333336</ele><time>2026-04-16T10:32:26Z</time></trkpt><trkpt lat="45.4538987541015" lon="11.643451709071767"><ele>22.666666666666668</ele><time>2026-04-16T10:32:27Z</time></trkpt><trkpt lat="45.4539535096838" lon="11.643505467401573"><ele>22.5</ele><time>2026-04-16T10:32:28Z</time></trkpt><trkpt lat="45.45400669856543" lon="11.643557526425576"><ele>22.333333333333332</ele><time>2026-04-16T10:32:29Z</time></trkpt><trkpt lat="45.454060315175475" lon="11.643608391913197"><ele>22.166666666666664</ele><time>2026-04-16T10:32:30Z</time></trkpt><trkpt lat="45.45415242395049" lon="11.64371240310972"><ele>22.0</ele><time>2026-04-16T10:32:32Z</time></trkpt><trkpt lat="45.45423903046613" lon="11.643799212997218"><ele>22.0</ele><time>2026-04-16T10:32:34Z</time></trkpt><trkpt lat="45.45431616692025" lon="11.643873315908872"><ele>22.0</ele><time>2026-04-16T10:32:36Z</time></trkpt><trkpt lat="45.4543804741082" lon="11.643947853070864"><ele>22.0</ele><time>2026-04-16T10:32:38Z</time></trkpt><trkpt lat="45.45444442189925" lon="11.643888720330528"><ele>22.0</ele><time>2026-04-16T10:32:39Z</time></trkpt><trkpt lat="45.45452365038564" lon="11.643783456403074"><ele>22.0</ele><time>2026-04-16T10:32:41Z</time></trkpt><trkpt lat="45.45459891512536" lon="11.64365866953811"><ele>22.0</ele><time>2026-04-16T10:32:43Z</time></trkpt><trkpt lat="45.45467389453183" lon="11.643526722886104"><ele>22.0</ele><time>2026-04-16T10:32:45Z</time></trkpt><trkpt lat="45.45690598954349" lon="11.64013259107471"><ele>21.8</ele><time>2026-04-16T10:33:47.001Z</time></trkpt><trkpt lat="45.45699229493281" lon="11.640260429603403"><ele>21.6</ele><time>2026-04-16T10:33:49.001Z</time></trkpt><trkpt lat="45.45707106515209" lon="11.640370509557199"><ele>21.400000000000002</ele><time>2026-04-16T10:33:51.001Z</time></trkpt><trkpt lat="45.45714236971279" lon="11.640482097679465"><ele>21.200000000000003</ele><time>2026-04-16T10:33:53.001Z</time></trkpt><trkpt lat="45.457216520176324" lon="11.640591192145653"><ele>21.0</ele><time>2026-04-16T10:33:55.001Z</time></trkpt><trkpt lat="45.45728270971871" lon="11.640687612637487"><ele>21.0</ele><time>2026-04-16T10:33:57.001Z</time></trkpt><trkpt lat="45.45735043306046" lon="11.640781570190478"><ele>21.0</ele><time>2026-04-16T10:33:59.001Z</time></trkpt><trkpt lat="45.45740627952303" lon="11.640870694686894"><ele>21.0</ele><time>2026-04-16T10:34:01.001Z</time></trkpt><trkpt lat="45.45744782955117" lon="11.640941580981723"><ele>21.0</ele><time>2026-04-16T10:34:06.002Z</time></trkpt><trkpt lat="45.4575207074574" lon="11.641033339645677"><ele>21.0</ele><time>2026-04-16T10:34:44Z</time></trkpt><trkpt lat="45.457570771604864" lon="11.641111532471285"><ele>21.0</ele><time>2026-04-16T10:34:46Z</time></trkpt><trkpt lat="45.45977676169028" lon="11.64422505311746"><ele>21.0</ele><time>2026-04-16T10:35:47.001Z</time></trkpt><trkpt lat="45.45984546713001" lon="11.64431948320495"><ele>21.0</ele><time>2026-04-16T10:35:51.001Z</time></trkpt><trkpt lat="45.45989931621787" lon="11.644421511734917"><ele>21.0</ele><time>2026-04-16T10:35:53.001Z</time></trkpt><trkpt lat="45.45998833020219" lon="11.644500707452464"><ele>21.0</ele><time>2026-04-16T10:35:55.001Z</time></trkpt><trkpt lat="45.46006148996773" lon="11.644611740431374"><ele>21.0</ele><time>2026-04-16T10:35:57.001Z</time></trkpt><trkpt lat="45.46012129501078" lon="11.644742483352335"><ele>21.0</ele><time>2026-04-16T10:35:59.001Z</time></trkpt><trkpt lat="45.46021631736043" lon="11.644849850447677"><ele>21.0</ele><time>2026-04-16T10:36:01.001Z</time></trkpt><trkpt lat="45.46026420623264" lon="11.644910225548008"><ele>21.0</ele><time>2026-04-16T10:36:02.001Z</time></trkpt><trkpt lat="45.460314547007265" lon="11.644973091982463"><ele>21.0</ele><time>2026-04-16T10:36:03.001Z</time></trkpt><trkpt lat="45.460360300833024" lon="11.645038956265525"><ele>21.0</ele><time>2026-04-16T10:36:04.001Z</time></trkpt><trkpt lat="45.460402129706246" lon="11.645111931053988"><ele>21.0</ele><time>2026-04-16T10:36:05.001Z</time></trkpt><trkpt lat="45.46044678148445" lon="11.64518044079393"><ele>21.0</ele><time>2026-04-16T10:36:06.001Z</time></trkpt><trkpt lat="45.46049423466279" lon="11.645251522531884"><ele>21.0</ele><time>2026-04-16T10:36:07.001Z</time></trkpt><trkpt lat="45.46054178922861" lon="11.645317351219086"><ele>21.0</ele><time>2026-04-16T10:36:08.001Z</time></trkpt><trkpt lat="45.46058610267913" lon="11.645384659718605"><ele>21.0</ele><time>2026-04-16T10:36:09.001Z</time></trkpt><trkpt lat="45.4606268420816" lon="11.64545461176894"><ele>21.0</ele><time>2026-04-16T10:36:10.001Z</time></trkpt><trkpt lat="45.46067593563878" lon="11.645513206309296"><ele>21.0</ele><time>2026-04-16T10:36:11.001Z</time></trkpt><trkpt lat="45.46072522912896" lon="11.645572928179933"><ele>21.0</ele><time>2026-04-16T10:36:12.001Z</time></trkpt><trkpt lat="45.460769042456754" lon="11.645638877866508"><ele>21.0</ele><time>2026-04-16T10:36:13.001Z</time></trkpt><trkpt lat="45.460807093065625" lon="11.645711934760948"><ele>21.0</ele><time>2026-04-16T10:36:14.001Z</time></trkpt><trkpt lat="45.46089772715422" lon="11.645830053371492"><ele>21.0</ele><time>2026-04-16T10:36:16.001Z</time></trkpt><trkpt lat="45.46094260070381" lon="11.645894633023087"><ele>21.0</ele><time>2026-04-16T10:36:17.001Z</time></trkpt><trkpt lat="45.461028712124275" lon="11.646029675445018"><ele>21.0</ele><time>2026-04-16T10:36:19.001Z</time></trkpt><trkpt lat="45.461072974413064" lon="11.646094822684205"><ele>21.0</ele><time>2026-04-16T10:36:20.001Z</time></trkpt><trkpt lat="45.461117788917484" lon="11.646158331942152"><ele>21.0</ele><time>2026-04-16T10:36:21.001Z</time></trkpt><trkpt lat="45.46116054046793" lon="11.646224411576078"><ele>20.75</ele><time>2026-04-16T10:36:22Z</time></trkpt><trkpt lat="45.46124749100648" lon="11.64634925718436"><ele>20.5</ele><time>2026-04-16T10:36:24Z</time></trkpt><trkpt lat="45.46133567038747" lon="11.646468172518706"><ele>20.25</ele><time>2026-04-16T10:36:26Z</time></trkpt><trkpt lat="45.46140957418288" lon="11.646596656434701"><ele>20.0</ele><time>2026-04-16T10:36:28Z</time></trkpt><trkpt lat="45.461488691308034" lon="11.64670227585693"><ele>20.5</ele><time>2026-04-16T10:36:30Z</time></trkpt><trkpt lat="45.46156394277139" lon="11.646821875102507"><ele>21.0</ele><time>2026-04-16T10:36:32Z</time></trkpt><trkpt lat="45.4616500861825" lon="11.646937402703765"><ele>21.5</ele><time>2026-04-16T10:36:34Z</time></trkpt><trkpt lat="45.461726720833695" lon="11.64706831690831"><ele>22.0</ele><time>2026-04-16T10:36:36Z</time></trkpt><trkpt lat="45.46181100396927" lon="11.647190920251768"><ele>22.0</ele><time>2026-04-16T10:36:38Z</time></trkpt><trkpt lat="45.46189534902829" lon="11.647314483829085"><ele>22.0</ele><time>2026-04-16T10:36:40Z</time></trkpt><trkpt lat="45.46197904141768" lon="11.647440985597573"><ele>22.0</ele><time>2026-04-16T10:36:42Z</time></trkpt><trkpt lat="45.46205752068589" lon="11.647572155573844"><ele>22.0</ele><time>2026-04-16T10:36:44Z</time></trkpt><trkpt lat="45.46213882109781" lon="11.647699221585592"><ele>23.0</ele><time>2026-04-16T10:36:46Z</time></trkpt><trkpt lat="45.46428070415715" lon="11.651104213488033"><ele>22.666666666666668</ele><time>2026-04-16T10:37:47.001Z</time></trkpt><trkpt lat="45.464363538171824" lon="11.651232229197339"><ele>22.333333333333336</ele><time>2026-04-16T10:37:49.001Z</time></trkpt><trkpt lat="45.46440598448412" lon="11.65130133079853"><ele>22.0</ele><time>2026-04-16T10:37:50.001Z</time></trkpt><trkpt lat="45.46445186090218" lon="11.651368551101841"><ele>21.666666666666668</ele><time>2026-04-16T10:37:51.001Z</time></trkpt><trkpt lat="45.46449889134707" lon="11.651434282204548"><ele>21.333333333333332</ele><time>2026-04-16T10:37:52.001Z</time></trkpt><trkpt lat="45.46454344994524" lon="11.651507982145876"><ele>21.0</ele><time>2026-04-16T10:37:53.001Z</time></trkpt><trkpt lat="45.4645898260999" lon="11.651579911864912"><ele>21.142857142857142</ele><time>2026-04-16T10:37:54.001Z</time></trkpt><trkpt lat="45.46463666908226" lon="11.651650686450983"><ele>21.285714285714285</ele><time>2026-04-16T10:37:55.001Z</time></trkpt><trkpt lat="45.46468236543142" lon="11.651722513486042"><ele>21.42857142857143</ele><time>2026-04-16T10:37:56.001Z</time></trkpt><trkpt lat="45.464725636599645" lon="11.651798241319064"><ele>21.57142857142857</ele><time>2026-04-16T10:37:57.001Z</time></trkpt><trkpt lat="45.46476938869723" lon="11.651871780863"><ele>21.714285714285715</ele><time>2026-04-16T10:37:58.001Z</time></trkpt><trkpt lat="45.46481743877535" lon="11.651942244346479"><ele>21.857142857142858</ele><time>2026-04-16T10:37:59.001Z</time></trkpt><trkpt lat="45.46486415773175" lon="11.652013605747518"><ele>22.0</ele><time>2026-04-16T10:38:00.001Z</time></trkpt><trkpt lat="45.464910399773885" lon="11.652083340677006"><ele>22.0</ele><time>2026-04-16T10:38:01.001Z</time></trkpt><trkpt lat="45.46495514713687" lon="11.652156363047135"><ele>22.0</ele><time>2026-04-16T10:38:02.001Z</time></trkpt><trkpt lat="45.465000323298256" lon="11.652228990404138"><ele>22.0</ele><time>2026-04-16T10:38:03.001Z</time></trkpt><trkpt lat="45.465045857036124" lon="11.652303508377422"><ele>22.0</ele><time>2026-04-16T10:38:04.001Z</time></trkpt><trkpt lat="45.46508952931678" lon="11.652377169406513"><ele>22.0</ele><time>2026-04-16T10:38:05.001Z</time></trkpt><trkpt lat="45.46513666507807" lon="11.65244945090354"><ele>22.0</ele><time>2026-04-16T10:38:06.001Z</time></trkpt><trkpt lat="45.46518134532617" lon="11.652521446163185"><ele>22.0</ele><time>2026-04-16T10:38:07.001Z</time></trkpt><trkpt lat="45.46522660897475" lon="11.65259550015795"><ele>22.0</ele><time>2026-04-16T10:38:08.001Z</time></trkpt><trkpt lat="45.46527176198444" lon="11.652669058300443"><ele>22.0</ele><time>2026-04-16T10:38:09.001Z</time></trkpt><trkpt lat="45.46531824152458" lon="11.65273975160731"><ele>22.0</ele><time>2026-04-16T10:38:10.001Z</time></trkpt><trkpt lat="45.465362656292676" lon="11.652813386012355"><ele>22.0</ele><time>2026-04-16T10:38:11.001Z</time></trkpt><trkpt lat="45.46541078041935" lon="11.652882531899621"><ele>22.0</ele><time>2026-04-16T10:38:12.001Z</time></trkpt><trkpt lat="45.46545674308305" lon="11.652947018023598"><ele>22.0</ele><time>2026-04-16T10:38:13.001Z</time></trkpt><trkpt lat="45.46550067506013" lon="11.653017363108152"><ele>22.0</ele><time>2026-04-16T10:38:14.001Z</time></trkpt><trkpt lat="45.46557729449831" lon="11.653152190386448"><ele>22.166666666666664</ele><time>2026-04-16T10:38:16.001Z</time></trkpt><trkpt lat="45.465648734436584" lon="11.653240377711022"><ele>22.333333333333332</ele><time>2026-04-16T10:38:18.001Z</time></trkpt><trkpt lat="45.465693749728665" lon="11.653304326552243"><ele>22.5</ele><time>2026-04-16T10:38:20.001Z</time></trkpt><trkpt lat="45.46576667240134" lon="11.653264444510327"><ele>22.666666666666668</ele><time>2026-04-16T10:38:21.001Z</time></trkpt><trkpt lat="45.46581050368743" lon="11.653340906170659"><ele>22.833333333333336</ele><time>2026-04-16T10:38:24.001Z</time></trkpt><trkpt lat="45.46586479600701" lon="11.653435623299385"><ele>23.0</ele><time>2026-04-16T10:38:27.002Z</time></trkpt><trkpt lat="45.46591610159125" lon="11.653526221727091"><ele>22.599999999999998</ele><time>2026-04-16T10:38:29Z</time></trkpt><trkpt lat="45.46599230166895" lon="11.653650614233259"><ele>22.2</ele><time>2026-04-16T10:38:31Z</time></trkpt><trkpt lat="45.46607259429751" lon="11.65377600422943"><ele>21.8</ele><time>2026-04-16T10:38:33Z</time></trkpt><trkpt lat="45.466150811487346" lon="11.653897554324786"><ele>21.4</ele><time>2026-04-16T10:38:35Z</time></trkpt><trkpt lat="45.466193736518825" lon="11.653964786676791"><ele>21.0</ele><time>2026-04-16T10:38:36Z</time></trkpt><trkpt lat="45.466277748945515" lon="11.654097772537321"><ele>21.166666666666668</ele><time>2026-04-16T10:38:38Z</time></trkpt><trkpt lat="45.46632181439809" lon="11.654167525325912"><ele>21.333333333333332</ele><time>2026-04-16T10:38:39Z</time></trkpt><trkpt lat="45.46640533427244" lon="11.654299731624128"><ele>21.5</ele><time>2026-04-16T10:38:41Z</time></trkpt><trkpt lat="45.466449094631244" lon="11.654369001247648"><ele>21.666666666666664</ele><time>2026-04-16T10:38:42Z</time></trkpt><trkpt lat="45.466491629499075" lon="11.654435286426448"><ele>21.833333333333332</ele><time>2026-04-16T10:38:43Z</time></trkpt><trkpt lat="45.46653627685177" lon="11.654504127903992"><ele>22.0</ele><time>2026-04-16T10:38:44Z</time></trkpt><trkpt lat="45.46658281010748" lon="11.654575877543476"><ele>21.0</ele><time>2026-04-16T10:38:45Z</time></trkpt><trkpt lat="45.4666285488161" lon="11.654646401967002"><ele>20.0</ele><time>2026-04-16T10:38:46Z</time></trkpt><trkpt lat="45.469075442892645" lon="11.658700619930546"><ele>20.8</ele><time>2026-04-16T10:39:47.001Z</time></trkpt><trkpt lat="45.469142298577154" lon="11.658803797360974"><ele>21.6</ele><time>2026-04-16T10:39:49.001Z</time></trkpt><trkpt lat="45.46921146814447" lon="11.658922677901517"><ele>22.4</ele><time>2026-04-16T10:39:51.001Z</time></trkpt><trkpt lat="45.46928819075964" lon="11.659046732280192"><ele>23.2</ele><time>2026-04-16T10:39:53.001Z</time></trkpt><trkpt lat="45.46937060490816" lon="11.659177115615151"><ele>24.0</ele><time>2026-04-16T10:39:55.001Z</time></trkpt><trkpt lat="45.46945217287017" lon="11.65930589165809"><ele>24.0</ele><time>2026-04-16T10:39:57.001Z</time></trkpt><trkpt lat="45.46953469521357" lon="11.659428576011335"><ele>24.0</ele><time>2026-04-16T10:39:59.001Z</time></trkpt><trkpt lat="45.46961365373369" lon="11.659555841850395"><ele>24.0</ele><time>2026-04-16T10:40:01.001Z</time></trkpt><trkpt lat="45.469695832948936" lon="11.659682593217914"><ele>24.0</ele><time>2026-04-16T10:40:03.001Z</time></trkpt><trkpt lat="45.46977505584538" lon="11.659811796019014"><ele>24.0</ele><time>2026-04-16T10:40:05.001Z</time></trkpt><trkpt lat="45.46985568208526" lon="11.659936142009613"><ele>24.0</ele><time>2026-04-16T10:40:07.001Z</time></trkpt><trkpt lat="45.46993965670346" lon="11.660061134752453"><ele>24.0</ele><time>2026-04-16T10:40:09.001Z</time></trkpt><trkpt lat="45.47001771820754" lon="11.660192584569646"><ele>24.0</ele><time>2026-04-16T10:40:11.001Z</time></trkpt><trkpt lat="45.47009509125549" lon="11.660299805152441"><ele>24.0</ele><time>2026-04-16T10:40:13.001Z</time></trkpt><trkpt lat="45.470159244246375" lon="11.660409569111284"><ele>24.0</ele><time>2026-04-16T10:40:15.001Z</time></trkpt><trkpt lat="45.47021636704815" lon="11.660513848205479"><ele>24.0</ele><time>2026-04-16T10:40:17.001Z</time></trkpt><trkpt lat="45.470275505436064" lon="11.660603448456346"><ele>24.0</ele><time>2026-04-16T10:40:19.001Z</time></trkpt><trkpt lat="45.470330956170706" lon="11.660680888921737"><ele>24.0</ele><time>2026-04-16T10:40:21.001Z</time></trkpt><trkpt lat="45.470395544399146" lon="11.660771311287704"><ele>24.0</ele><time>2026-04-16T10:40:23.002Z</time></trkpt><trkpt lat="45.47046013652812" lon="11.660885055337467"><ele>24.0</ele><time>2026-04-16T10:40:25.002Z</time></trkpt><trkpt lat="45.47052954767347" lon="11.660997072094986"><ele>24.0</ele><time>2026-04-16T10:40:27.002Z</time></trkpt><trkpt lat="45.470604733711575" lon="11.66110419445048"><ele>24.0</ele><time>2026-04-16T10:40:29.002Z</time></trkpt><trkpt lat="45.470677694749746" lon="11.661224002676576"><ele>24.0</ele><time>2026-04-16T10:40:31.002Z</time></trkpt><trkpt lat="45.47074693826099" lon="11.6613457055852"><ele>24.0</ele><time>2026-04-16T10:40:33.002Z</time></trkpt><trkpt lat="45.47082734379267" lon="11.66146441990748"><ele>24.0</ele><time>2026-04-16T10:40:35.001Z</time></trkpt><trkpt lat="45.470908733552704" lon="11.66159142755291"><ele>24.0</ele><time>2026-04-16T10:40:37.001Z</time></trkpt><trkpt lat="45.47095079750014" lon="11.661658894689106"><ele>24.0</ele><time>2026-04-16T10:40:38Z</time></trkpt><trkpt lat="45.470995740401065" lon="11.661722090537154"><ele>24.0</ele><time>2026-04-16T10:40:39.001Z</time></trkpt><trkpt lat="45.471067918923836" lon="11.661870485691978"><ele>24.0</ele><time>2026-04-16T10:40:41Z</time></trkpt><trkpt lat="45.471156116279204" lon="11.661997884000874"><ele>23.5</ele><time>2026-04-16T10:40:43Z</time></trkpt><trkpt lat="45.47123779675474" lon="11.66212606781523"><ele>23.0</ele><time>2026-04-16T10:40:45Z</time></trkpt><trkpt lat="45.47367395487932" lon="11.665981212412264"><ele>23.0</ele><time>2026-04-16T10:41:47.001Z</time></trkpt><trkpt lat="45.47371464423575" lon="11.666051165705978"><ele>23.0</ele><time>2026-04-16T10:41:48.001Z</time></trkpt><trkpt lat="45.47375560369162" lon="11.666125460050385"><ele>23.0</ele><time>2026-04-16T10:41:49.001Z</time></trkpt><trkpt lat="45.473797415033005" lon="11.666196604890398"><ele>23.0</ele><time>2026-04-16T10:41:50.001Z</time></trkpt><trkpt lat="45.47384037059534" lon="11.66626424044935"><ele>23.0</ele><time>2026-04-16T10:41:51.001Z</time></trkpt><trkpt lat="45.47392431650996" lon="11.666388909913236"><ele>23.0</ele><time>2026-04-16T10:41:53.001Z</time></trkpt><trkpt lat="45.47399738944321" lon="11.666516913050458"><ele>23.0</ele><time>2026-04-16T10:41:55.001Z</time></trkpt><trkpt lat="45.47408836458455" lon="11.666644152751262"><ele>23.0</ele><time>2026-04-16T10:41:57.001Z</time></trkpt><trkpt lat="45.47413430151516" lon="11.666709825608457"><ele>23.0</ele><time>2026-04-16T10:41:58.001Z</time></trkpt><trkpt lat="45.47417668014896" lon="11.666779755804031"><ele>23.0</ele><time>2026-04-16T10:41:59.001Z</time></trkpt><trkpt lat="45.47421802908675" lon="11.666849383463166"><ele>23.0</ele><time>2026-04-16T10:42:00.001Z</time></trkpt><trkpt lat="45.47426316334724" lon="11.666916884717649"><ele>23.0</ele><time>2026-04-16T10:42:01.001Z</time></trkpt><trkpt lat="45.47434312062436" lon="11.66704926117272"><ele>23.0</ele><time>2026-04-16T10:42:03.001Z</time></trkpt><trkpt lat="45.4744324686562" lon="11.66717416160658"><ele>23.0</ele><time>2026-04-16T10:42:05.001Z</time></trkpt><trkpt lat="45.47451575167281" lon="11.667305198691835"><ele>23.0</ele><time>2026-04-16T10:42:07.001Z</time></trkpt><trkpt lat="45.47458353741629" lon="11.667439705329093"><ele>23.0</ele><time>2026-04-16T10:42:09.001Z</time></trkpt><trkpt lat="45.474661784641846" lon="11.66755128600754"><ele>23.0</ele><time>2026-04-16T10:42:11.001Z</time></trkpt><trkpt lat="45.474732117656195" lon="11.667661912543108"><ele>23.0</ele><time>2026-04-16T10:42:13.001Z</time></trkpt><trkpt lat="45.47480982351172" lon="11.667766139544993"><ele>23.0</ele><time>2026-04-16T10:42:15.001Z</time></trkpt><trkpt lat="45.47488080864955" lon="11.66789103398272"><ele>23.0</ele><time>2026-04-16T10:42:17.001Z</time></trkpt><trkpt lat="45.47494940809785" lon="11.66800077753612"><ele>23.0</ele><time>2026-04-16T10:42:19.001Z</time></trkpt><trkpt lat="45.4750118389013" lon="11.668102865494687"><ele>23.0</ele><time>2026-04-16T10:42:21.002Z</time></trkpt><trkpt lat="45.475053826968754" lon="11.668183454301802"><ele>23.0</ele><time>2026-04-16T10:42:23.002Z</time></trkpt><trkpt lat="45.47510185992664" lon="11.668245378087807"><ele>23.0</ele><time>2026-04-16T10:42:26.002Z</time></trkpt><trkpt lat="45.47514161050565" lon="11.66832501737153"><ele>23.0</ele><time>2026-04-16T10:42:29.002Z</time></trkpt><trkpt lat="45.475186145128696" lon="11.668395548300758"><ele>23.0</ele><time>2026-04-16T10:42:32.002Z</time></trkpt><trkpt lat="45.475234179336034" lon="11.66850259429969"><ele>23.0</ele><time>2026-04-16T10:42:34.002Z</time></trkpt><trkpt lat="45.475323768443815" lon="11.668586421116615"><ele>22.5</ele><time>2026-04-16T10:42:36.002Z</time></trkpt><trkpt lat="45.47538993712151" lon="11.668706894605918"><ele>22.0</ele><time>2026-04-16T10:42:38.002Z</time></trkpt><trkpt lat="45.475465425448846" lon="11.668819868721409"><ele>21.5</ele><time>2026-04-16T10:42:40.001Z</time></trkpt><trkpt lat="45.47554851408281" lon="11.668933499741984"><ele>21.0</ele><time>2026-04-16T10:42:42.001Z</time></trkpt><trkpt lat="45.47562153633281" lon="11.669070372435415"><ele>21.0</ele><time>2026-04-16T10:42:44.001Z</time></trkpt><trkpt lat="45.475703422743145" lon="11.669200498761723"><ele>21.0</ele><time>2026-04-16T10:42:46.001Z</time></trkpt><trkpt lat="45.47806971630432" lon="11.672962587133833"><ele>21.0</ele><time>2026-04-16T10:43:47.001Z</time></trkpt><trkpt lat="45.47811763809957" lon="11.673032243086544"><ele>21.0</ele><time>2026-04-16T10:43:48.001Z</time></trkpt><trkpt lat="45.478165623798674" lon="11.67310524664394"><ele>21.0</ele><time>2026-04-16T10:43:49.001Z</time></trkpt><trkpt lat="45.47821095547131" lon="11.673182428280455"><ele>21.0</ele><time>2026-04-16T10:43:50.001Z</time></trkpt><trkpt lat="45.478255628884924" lon="11.67325222391221"><ele>21.0</ele><time>2026-04-16T10:43:51.001Z</time></trkpt><trkpt lat="45.47829888961582" lon="11.673334130741361"><ele>21.0</ele><time>2026-04-16T10:43:52.001Z</time></trkpt><trkpt lat="45.47834269420093" lon="11.673406636745476"><ele>21.0</ele><time>2026-04-16T10:43:53.001Z</time></trkpt><trkpt lat="45.47839075940703" lon="11.67347484475725"><ele>21.0</ele><time>2026-04-16T10:43:54.001Z</time></trkpt><trkpt lat="45.4784388616681" lon="11.673542045413647"><ele>21.0</ele><time>2026-04-16T10:43:55.001Z</time></trkpt><trkpt lat="45.47848345041353" lon="11.673612134697976"><ele>21.0</ele><time>2026-04-16T10:43:56.001Z</time></trkpt><trkpt lat="45.478529894715344" lon="11.673680877306131"><ele>21.0</ele><time>2026-04-16T10:43:57.001Z</time></trkpt><trkpt lat="45.478574619806885" lon="11.673751531765435"><ele>21.0</ele><time>2026-04-16T10:43:58.001Z</time></trkpt><trkpt lat="45.478617600813266" lon="11.673824158645694"><ele>21.0</ele><time>2026-04-16T10:43:59.001Z</time></trkpt><trkpt lat="45.47866287240085" lon="11.673888451331752"><ele>21.0</ele><time>2026-04-16T10:44:00.001Z</time></trkpt><trkpt lat="45.47870610015729" lon="11.673958842694441"><ele>21.0</ele><time>2026-04-16T10:44:01.001Z</time></trkpt><trkpt lat="45.47879147391905" lon="11.674089877235135"><ele>21.0</ele><time>2026-04-16T10:44:03.001Z</time></trkpt><trkpt lat="45.47886353715007" lon="11.674222581297427"><ele>21.0</ele><time>2026-04-16T10:44:05.001Z</time></trkpt><trkpt lat="45.47894173774976" lon="11.674338433670966"><ele>21.0</ele><time>2026-04-16T10:44:07.001Z</time></trkpt><trkpt lat="45.47901162133158" lon="11.674459140226201"><ele>21.0</ele><time>2026-04-16T10:44:09.001Z</time></trkpt><trkpt lat="45.47908245795539" lon="11.674560353220715"><ele>21.0</ele><time>2026-04-16T10:44:11.001Z</time></trkpt><trkpt lat="45.47915238008955" lon="11.674666163556756"><ele>21.0</ele><time>2026-04-16T10:44:13.001Z</time></trkpt><trkpt lat="45.4792163135662" lon="11.674766311154137"><ele>21.0</ele><time>2026-04-16T10:44:15.001Z</time></trkpt><trkpt lat="45.479271813203276" lon="11.674859321575614"><ele>21.0</ele><time>2026-04-16T10:44:17.001Z</time></trkpt><trkpt lat="45.479316944044434" lon="11.674926728208607"><ele>21.0</ele><time>2026-04-16T10:44:20.001Z</time></trkpt><trkpt lat="45.47936469330133" lon="11.674990396548129"><ele>21.0</ele><time>2026-04-16T10:45:05Z</time></trkpt><trkpt lat="45.47941073669921" lon="11.675083569016211"><ele>21.0</ele><time>2026-04-16T10:45:07Z</time></trkpt><trkpt lat="45.479492909926066" lon="11.675187598569012"><ele>21.0</ele><time>2026-04-16T10:45:09Z</time></trkpt><trkpt lat="45.479556672613754" lon="11.675309429088928"><ele>21.0</ele><time>2026-04-16T10:45:11Z</time></trkpt><trkpt lat="45.47963035772784" lon="11.67543455264628"><ele>21.0</ele><time>2026-04-16T10:45:13Z</time></trkpt><trkpt lat="45.47971164697867" lon="11.675558465641785"><ele>20.714285714285715</ele><time>2026-04-16T10:45:15Z</time></trkpt><trkpt lat="45.4797535372644" lon="11.675628464374382"><ele>20.42857142857143</ele><time>2026-04-16T10:45:16Z</time></trkpt><trkpt lat="45.479800201745036" lon="11.675689304616412"><ele>20.142857142857142</ele><time>2026-04-16T10:45:17Z</time></trkpt><trkpt lat="45.47984973056342" lon="11.675749604564018"><ele>19.857142857142858</ele><time>2026-04-16T10:45:18Z</time></trkpt><trkpt lat="45.47989070484869" lon="11.675822555879146"><ele>19.571428571428573</ele><time>2026-04-16T10:45:19Z</time></trkpt><trkpt lat="45.47992917373662" lon="11.675899137807422"><ele>19.285714285714285</ele><time>2026-04-16T10:45:20Z</time></trkpt><trkpt lat="45.47997197114887" lon="11.675970153850407"><ele>19.0</ele><time>2026-04-16T10:45:21Z</time></trkpt><trkpt lat="45.48001591261487" lon="11.676039722810144"><ele>19.0</ele><time>2026-04-16T10:45:22Z</time></trkpt><trkpt lat="45.480060633006026" lon="11.676110125867199"><ele>19.0</ele><time>2026-04-16T10:45:23Z</time></trkpt><trkpt lat="45.48014363475921" lon="11.676246074807374"><ele>19.0</ele><time>2026-04-16T10:45:25Z</time></trkpt><trkpt lat="45.480229647581886" lon="11.676376495398994"><ele>19.0</ele><time>2026-04-16T10:45:27Z</time></trkpt><trkpt lat="45.480314065606414" lon="11.67651291868398"><ele>19.0</ele><time>2026-04-16T10:45:29Z</time></trkpt><trkpt lat="45.48035774557927" lon="11.676581975902213"><ele>19.0</ele><time>2026-04-16T10:45:30Z</time></trkpt><trkpt lat="45.4803965784798" lon="11.676655111501333"><ele>19.0</ele><time>2026-04-16T10:45:31Z</time></trkpt><trkpt lat="45.48044114089361" lon="11.676725938344395"><ele>19.0</ele><time>2026-04-16T10:45:32Z</time></trkpt><trkpt lat="45.480487368936345" lon="11.676793042518508"><ele>19.0</ele><time>2026-04-16T10:45:33Z</time></trkpt><trkpt lat="45.48053218256888" lon="11.676859236745472"><ele>19.0</ele><time>2026-04-16T10:45:34Z</time></trkpt><trkpt lat="45.48057614893916" lon="11.67692773116966"><ele>19.0</ele><time>2026-04-16T10:45:35Z</time></trkpt><trkpt lat="45.480618589074595" lon="11.67699450676898"><ele>19.0</ele><time>2026-04-16T10:45:36.001Z</time></trkpt><trkpt lat="45.48066581340158" lon="11.677058760798209"><ele>19.166666666666664</ele><time>2026-04-16T10:45:37.001Z</time></trkpt><trkpt lat="45.480709992971725" lon="11.677124499243428"><ele>19.333333333333332</ele><time>2026-04-16T10:45:38.001Z</time></trkpt><trkpt lat="45.48075275454298" lon="11.677192317119372"><ele>19.5</ele><time>2026-04-16T10:45:39.001Z</time></trkpt><trkpt lat="45.48079577223973" lon="11.67725830389746"><ele>19.666666666666668</ele><time>2026-04-16T10:45:40.001Z</time></trkpt><trkpt lat="45.480870260645325" lon="11.677389152314083"><ele>19.833333333333336</ele><time>2026-04-16T10:45:42.001Z</time></trkpt><trkpt lat="45.480944746742196" lon="11.677506585653651"><ele>20.0</ele><time>2026-04-16T10:45:44.001Z</time></trkpt><trkpt lat="45.4810121038563" lon="11.677629365511537"><ele>22.0</ele><time>2026-04-16T10:45:46.001Z</time></trkpt><trkpt lat="45.483645795253764" lon="11.681811548001138"><ele>22.0</ele><time>2026-04-16T10:46:47.001Z</time></trkpt><trkpt lat="45.48369386290046" lon="11.681870255297989"><ele>22.0</ele><time>2026-04-16T10:46:48.001Z</time></trkpt><trkpt lat="45.48377400745182" lon="11.68199413324362"><ele>22.0</ele><time>2026-04-16T10:46:50.001Z</time></trkpt><trkpt lat="45.4838344324332" lon="11.68209795828301"><ele>22.0</ele><time>2026-04-16T10:46:52Z</time></trkpt><trkpt lat="45.48387371382106" lon="11.68217271306592"><ele>22.0</ele><time>2026-04-16T10:46:54Z</time></trkpt><trkpt lat="45.48390539049101" lon="11.682255731721218"><ele>22.0</ele><time>2026-04-16T10:46:57Z</time></trkpt><trkpt lat="45.48397027151128" lon="11.68232014603589"><ele>21.6</ele><time>2026-04-16T10:46:59Z</time></trkpt><trkpt lat="45.48403523612902" lon="11.682442190713138"><ele>21.200000000000003</ele><time>2026-04-16T10:47:01Z</time></trkpt><trkpt lat="45.48412231141076" lon="11.68256161214485"><ele>20.8</ele><time>2026-04-16T10:47:03Z</time></trkpt><trkpt lat="45.484163453188756" lon="11.682634463814153"><ele>20.4</ele><time>2026-04-16T10:47:04Z</time></trkpt><trkpt lat="45.48423977976338" lon="11.68275938880243"><ele>20.0</ele><time>2026-04-16T10:47:06Z</time></trkpt><trkpt lat="45.48431874686104" lon="11.682881389917451"><ele>20.0</ele><time>2026-04-16T10:47:08Z</time></trkpt><trkpt lat="45.484402429610505" lon="11.68301750166877"><ele>20.0</ele><time>2026-04-16T10:47:10Z</time></trkpt><trkpt lat="45.48444981239815" lon="11.683088602644352"><ele>20.0</ele><time>2026-04-16T10:47:11Z</time></trkpt><trkpt lat="45.484500026396084" lon="11.683157940897608"><ele>20.0</ele><time>2026-04-16T10:47:12Z</time></trkpt><trkpt lat="45.48454221042916" lon="11.683234060720507"><ele>20.0</ele><time>2026-04-16T10:47:13Z</time></trkpt><trkpt lat="45.484586284908445" lon="11.683308921347535"><ele>20.0</ele><time>2026-04-16T10:47:14Z</time></trkpt><trkpt lat="45.48463370799395" lon="11.68337653574888"><ele>20.2</ele><time>2026-04-16T10:47:15Z</time></trkpt><trkpt lat="45.4846772492631" lon="11.68345487253241"><ele>20.4</ele><time>2026-04-16T10:47:16Z</time></trkpt><trkpt lat="45.48472056375669" lon="11.683529732707276"><ele>20.6</ele><time>2026-04-16T10:47:17Z</time></trkpt><trkpt lat="45.48481135143221" lon="11.683648756260002"><ele>20.8</ele><time>2026-04-16T10:47:19Z</time></trkpt><trkpt lat="45.48489941640609" lon="11.683784851390245"><ele>21.0</ele><time>2026-04-16T10:47:21Z</time></trkpt><trkpt lat="45.48494442974243" lon="11.683853919176773"><ele>21.166666666666668</ele><time>2026-04-16T10:47:22Z</time></trkpt><trkpt lat="45.484989338867834" lon="11.683924275939384"><ele>21.333333333333332</ele><time>2026-04-16T10:47:23Z</time></trkpt><trkpt lat="45.485036790160656" lon="11.683988136084944"><ele>21.5</ele><time>2026-04-16T10:47:24Z</time></trkpt><trkpt lat="45.48511467233003" lon="11.684127460016892"><ele>21.666666666666664</ele><time>2026-04-16T10:47:26Z</time></trkpt><trkpt lat="45.485156905241816" lon="11.684201083648224"><ele>21.833333333333332</ele><time>2026-04-16T10:47:27Z</time></trkpt><trkpt lat="45.48520726668715" lon="11.684264656160034"><ele>22.0</ele><time>2026-04-16T10:47:28Z</time></trkpt><trkpt lat="45.48524906952709" lon="11.684332691347093"><ele>22.0</ele><time>2026-04-16T10:47:29Z</time></trkpt><trkpt lat="45.485287761146886" lon="11.684407915814349"><ele>22.0</ele><time>2026-04-16T10:47:30Z</time></trkpt><trkpt lat="45.485333258872416" lon="11.6844768064134"><ele>22.0</ele><time>2026-04-16T10:47:31Z</time></trkpt><trkpt lat="45.485379574221966" lon="11.684546148532174"><ele>22.0</ele><time>2026-04-16T10:47:32Z</time></trkpt><trkpt lat="45.485458654829756" lon="11.684685604750753"><ele>22.0</ele><time>2026-04-16T10:47:34Z</time></trkpt><trkpt lat="45.485536810316155" lon="11.684815825032176"><ele>22.0</ele><time>2026-04-16T10:47:36Z</time></trkpt><trkpt lat="45.48561240058815" lon="11.684927616483744"><ele>22.0</ele><time>2026-04-16T10:47:38Z</time></trkpt><trkpt lat="45.48565571368856" lon="11.684998728162375"><ele>22.0</ele><time>2026-04-16T10:47:39Z</time></trkpt><trkpt lat="45.48570154062032" lon="11.685066757423797"><ele>22.0</ele><time>2026-04-16T10:47:40Z</time></trkpt><trkpt lat="45.4857542319721" lon="11.685138188953097"><ele>22.0</ele><time>2026-04-16T10:47:41Z</time></trkpt><trkpt lat="45.48580380637869" lon="11.68521076558993"><ele>22.0</ele><time>2026-04-16T10:47:42Z</time></trkpt><trkpt lat="45.48583785320539" lon="11.685294529914106"><ele>22.0</ele><time>2026-04-16T10:47:43Z</time></trkpt><trkpt lat="45.485907592031" lon="11.685400026765548"><ele>22.0</ele><time>2026-04-16T10:47:45Z</time></trkpt><trkpt lat="45.488495246792034" lon="11.68950597725565"><ele>21.571428571428573</ele><time>2026-04-16T10:48:47.001Z</time></trkpt><trkpt lat="45.48853647994608" lon="11.689580119363566"><ele>21.142857142857142</ele><time>2026-04-16T10:48:48.001Z</time></trkpt><trkpt lat="45.488579783397924" lon="11.68964831962593"><ele>20.714285714285715</ele><time>2026-04-16T10:48:49.001Z</time></trkpt><trkpt lat="45.48862186785708" lon="11.689717071503011"><ele>20.285714285714285</ele><time>2026-04-16T10:48:50.001Z</time></trkpt><trkpt lat="45.48866718780568" lon="11.689784567675478"><ele>19.857142857142858</ele><time>2026-04-16T10:48:51.001Z</time></trkpt><trkpt lat="45.488712244444976" lon="11.689852224473176"><ele>19.428571428571427</ele><time>2026-04-16T10:48:52.001Z</time></trkpt><trkpt lat="45.48875643416551" lon="11.689919540296799"><ele>19.0</ele><time>2026-04-16T10:48:53.001Z</time></trkpt><trkpt lat="45.488797756122715" lon="11.68999280219246"><ele>19.0</ele><time>2026-04-16T10:48:54.001Z</time></trkpt><trkpt lat="45.48884205876234" lon="11.690061865991291"><ele>19.0</ele><time>2026-04-16T10:48:55.001Z</time></trkpt><trkpt lat="45.488885823372875" lon="11.690129158635058"><ele>19.0</ele><time>2026-04-16T10:48:56.001Z</time></trkpt><trkpt lat="45.48892856110939" lon="11.690198700631708"><ele>19.0</ele><time>2026-04-16T10:48:57.001Z</time></trkpt><trkpt lat="45.488972762967535" lon="11.690266434294044"><ele>19.0</ele><time>2026-04-16T10:48:58Z</time></trkpt><trkpt lat="45.48901644721191" lon="11.690334347970671"><ele>19.0</ele><time>2026-04-16T10:48:59Z</time></trkpt><trkpt lat="45.48905748029407" lon="11.690406693776323"><ele>19.0</ele><time>2026-04-16T10:49:00Z</time></trkpt><trkpt lat="45.48910072608052" lon="11.69047739122582"><ele>19.285714285714285</ele><time>2026-04-16T10:49:01Z</time></trkpt><trkpt lat="45.48914737346423" lon="11.690549549100453"><ele>19.571428571428573</ele><time>2026-04-16T10:49:02Z</time></trkpt><trkpt lat="45.489188805487196" lon="11.690618468407134"><ele>19.857142857142858</ele><time>2026-04-16T10:49:03Z</time></trkpt><trkpt lat="45.489233361575494" lon="11.690687572511521"><ele>20.142857142857142</ele><time>2026-04-16T10:49:04Z</time></trkpt><trkpt lat="45.48927598656726" lon="11.690754636273617"><ele>20.42857142857143</ele><time>2026-04-16T10:49:05Z</time></trkpt><trkpt lat="45.48932110138734" lon="11.690823077618907"><ele>20.714285714285715</ele><time>2026-04-16T10:49:06Z</time></trkpt><trkpt lat="45.48936882193313" lon="11.690891493810526"><ele>21.0</ele><time>2026-04-16T10:49:07Z</time></trkpt><trkpt lat="45.48941244427701" lon="11.69095869189436"><ele>21.0</ele><time>2026-04-16T10:49:08Z</time></trkpt><trkpt lat="45.48945338151981" lon="11.691030626271692"><ele>21.0</ele><time>2026-04-16T10:49:09Z</time></trkpt><trkpt lat="45.48949590212109" lon="11.691106602854775"><ele>21.0</ele><time>2026-04-16T10:49:10Z</time></trkpt><trkpt lat="45.48954041034322" lon="11.691175261822156"><ele>21.0</ele><time>2026-04-16T10:49:11Z</time></trkpt><trkpt lat="45.48958693223314" lon="11.691242211350495"><ele>21.0</ele><time>2026-04-16T10:49:12Z</time></trkpt><trkpt lat="45.48963185228964" lon="11.69131023725724"><ele>21.0</ele><time>2026-04-16T10:49:13Z</time></trkpt><trkpt lat="45.48967513879226" lon="11.691381429861346"><ele>21.0</ele><time>2026-04-16T10:49:14Z</time></trkpt><trkpt lat="45.48971450103149" lon="11.691451787583702"><ele>21.0</ele><time>2026-04-16T10:49:15Z</time></trkpt><trkpt lat="45.489759596200265" lon="11.691520060358041"><ele>21.0</ele><time>2026-04-16T10:49:16Z</time></trkpt><trkpt lat="45.48980103285216" lon="11.69158858167806"><ele>21.0</ele><time>2026-04-16T10:49:17Z</time></trkpt><trkpt lat="45.489844315210476" lon="11.691657982443232"><ele>21.0</ele><time>2026-04-16T10:49:18Z</time></trkpt><trkpt lat="45.48988936505354" lon="11.691726286591427"><ele>21.0</ele><time>2026-04-16T10:49:19Z</time></trkpt><trkpt lat="45.489933500057035" lon="11.69179328233654"><ele>21.0</ele><time>2026-04-16T10:49:20Z</time></trkpt><trkpt lat="45.48997509910426" lon="11.691866304512184"><ele>21.0</ele><time>2026-04-16T10:49:21Z</time></trkpt><trkpt lat="45.49002003631986" lon="11.69193319319577"><ele>21.0</ele><time>2026-04-16T10:49:22Z</time></trkpt><trkpt lat="45.49006389158997" lon="11.692003016837129"><ele>21.0</ele><time>2026-04-16T10:49:23Z</time></trkpt><trkpt lat="45.49010957215567" lon="11.692068937263922"><ele>21.0</ele><time>2026-04-16T10:49:24Z</time></trkpt><trkpt lat="45.490152736604045" lon="11.692140189746652"><ele>21.0</ele><time>2026-04-16T10:49:25Z</time></trkpt><trkpt lat="45.49019652338506" lon="11.692207434655696"><ele>21.0</ele><time>2026-04-16T10:49:26Z</time></trkpt><trkpt lat="45.49024114652769" lon="11.692280449382983"><ele>21.0</ele><time>2026-04-16T10:49:27Z</time></trkpt><trkpt lat="45.490284042837864" lon="11.692351393073114"><ele>21.0</ele><time>2026-04-16T10:49:28Z</time></trkpt><trkpt lat="45.49032617467492" lon="11.692425414014835"><ele>21.0</ele><time>2026-04-16T10:49:29Z</time></trkpt><trkpt lat="45.49037292435139" lon="11.69249486821188"><ele>21.0</ele><time>2026-04-16T10:49:30Z</time></trkpt><trkpt lat="45.4904174804399" lon="11.692565417781042"><ele>21.0</ele><time>2026-04-16T10:49:31Z</time></trkpt><trkpt lat="45.490461449722936" lon="11.692636653095304"><ele>21.0</ele><time>2026-04-16T10:49:32Z</time></trkpt><trkpt lat="45.49050789747346" lon="11.692707347973887"><ele>21.0</ele><time>2026-04-16T10:49:33Z</time></trkpt><trkpt lat="45.49055001733132" lon="11.692777352621336"><ele>21.0</ele><time>2026-04-16T10:49:34Z</time></trkpt><trkpt lat="45.49059803506909" lon="11.69284378446321"><ele>21.0</ele><time>2026-04-16T10:49:35Z</time></trkpt><trkpt lat="45.490639663355054" lon="11.692912408191054"><ele>21.166666666666668</ele><time>2026-04-16T10:49:36Z</time></trkpt><trkpt lat="45.49068392521681" lon="11.69298303861478"><ele>21.333333333333332</ele><time>2026-04-16T10:49:37Z</time></trkpt><trkpt lat="45.49072709188493" lon="11.693054528624828"><ele>21.5</ele><time>2026-04-16T10:49:38Z</time></trkpt><trkpt lat="45.49076588704419" lon="11.69312883038058"><ele>21.666666666666664</ele><time>2026-04-16T10:49:39Z</time></trkpt><trkpt lat="45.490803398680335" lon="11.69320907746745"><ele>21.833333333333332</ele><time>2026-04-16T10:49:40Z</time></trkpt><trkpt lat="45.490880668249154" lon="11.693353239917714"><ele>22.0</ele><time>2026-04-16T10:49:42Z</time></trkpt><trkpt lat="45.49094923588713" lon="11.693482188066149"><ele>22.5</ele><time>2026-04-16T10:49:44Z</time></trkpt><trkpt lat="45.49100677257975" lon="11.693624290848346"><ele>23.0</ele><time>2026-04-16T10:49:46Z</time></trkpt><trkpt lat="45.48920695325713" lon="11.696680395612859"><ele>23.0</ele><time>2026-04-16T10:50:47.001Z</time></trkpt><trkpt lat="45.48927572948767" lon="11.696773226379465"><ele>23.0</ele><time>2026-04-16T10:50:49.001Z</time></trkpt><trkpt lat="45.48935973364867" lon="11.696854955880688"><ele>23.0</ele><time>2026-04-16T10:50:51.001Z</time></trkpt><trkpt lat="45.489443798434564" lon="11.696953032992814"><ele>23.0</ele><time>2026-04-16T10:50:53.001Z</time></trkpt><trkpt lat="45.489459266864486" lon="11.697059705985842"><ele>23.0</ele><time>2026-04-16T10:50:54.001Z</time></trkpt><trkpt lat="45.48955100061531" lon="11.697167072611473"><ele>22.799999999999997</ele><time>2026-04-16T10:50:56.001Z</time></trkpt><trkpt lat="45.48964003175823" lon="11.697275036667673"><ele>22.6</ele><time>2026-04-16T10:50:58.001Z</time></trkpt><trkpt lat="45.48972139344209" lon="11.697379770671494"><ele>22.4</ele><time>2026-04-16T10:51:00.001Z</time></trkpt><trkpt lat="45.48979030110664" lon="11.697487178797575"><ele>22.200000000000003</ele><time>2026-04-16T10:51:02.001Z</time></trkpt><trkpt lat="45.48983953540432" lon="11.697587343904257"><ele>22.0</ele><time>2026-04-16T10:51:04Z</time></trkpt><trkpt lat="45.48988691243976" lon="11.697692585515421"><ele>22.200000000000003</ele><time>2026-04-16T10:51:06Z</time></trkpt><trkpt lat="45.489931372073784" lon="11.69777170130723"><ele>22.4</ele><time>2026-04-16T10:51:08Z</time></trkpt><trkpt lat="45.48994850970313" lon="11.697883057062745"><ele>22.6</ele><time>2026-04-16T10:51:10Z</time></trkpt><trkpt lat="45.490001098076" lon="11.698026077650804"><ele>22.799999999999997</ele><time>2026-04-16T10:51:12Z</time></trkpt><trkpt lat="45.490013065776594" lon="11.698194091490333"><ele>23.0</ele><time>2026-04-16T10:51:14Z</time></trkpt><trkpt lat="45.490065898957084" lon="11.698356039329225"><ele>23.0</ele><time>2026-04-16T10:51:16Z</time></trkpt><trkpt lat="45.49008600642291" lon="11.698441372287098"><ele>23.0</ele><time>2026-04-16T10:51:17Z</time></trkpt><trkpt lat="45.49010335442621" lon="11.69853046098872"><ele>23.0</ele><time>2026-04-16T10:51:18Z</time></trkpt><trkpt lat="45.490127438406404" lon="11.698614985589392"><ele>23.0</ele><time>2026-04-16T10:51:19Z</time></trkpt><trkpt lat="45.49015402093569" lon="11.698791763803573"><ele>23.0</ele><time>2026-04-16T10:51:21Z</time></trkpt><trkpt lat="45.490230675182" lon="11.698939292353288"><ele>23.0</ele><time>2026-04-16T10:51:23Z</time></trkpt><trkpt lat="45.49024948997949" lon="11.699068096133898"><ele>22.833333333333336</ele><time>2026-04-16T10:51:25Z</time></trkpt><trkpt lat="45.49026925904703" lon="11.699239694529584"><ele>22.666666666666668</ele><time>2026-04-16T10:51:27Z</time></trkpt><trkpt lat="45.49027967796472" lon="11.699333727717477"><ele>22.5</ele><time>2026-04-16T10:51:28Z</time></trkpt><trkpt lat="45.49029789808988" lon="11.699510723193749"><ele>22.333333333333332</ele><time>2026-04-16T10:51:30Z</time></trkpt><trkpt lat="45.490307315165786" lon="11.699602825109903"><ele>22.166666666666664</ele><time>2026-04-16T10:51:31Z</time></trkpt><trkpt lat="45.49031605708471" lon="11.699692805036824"><ele>22.0</ele><time>2026-04-16T10:51:32Z</time></trkpt><trkpt lat="45.49032479264563" lon="11.699782719565869"><ele>22.0</ele><time>2026-04-16T10:51:33Z</time></trkpt><trkpt lat="45.49034319385167" lon="11.69996207915606"><ele>22.0</ele><time>2026-04-16T10:51:35Z</time></trkpt><trkpt lat="45.49036318803223" lon="11.700131021121306"><ele>22.0</ele><time>2026-04-16T10:51:37Z</time></trkpt><trkpt lat="45.49038282432489" lon="11.70028702653125"><ele>22.0</ele><time>2026-04-16T10:51:39Z</time></trkpt><trkpt lat="45.49006729607896" lon="11.70046187682382"><ele>22.400000000000002</ele><time>2026-04-16T10:51:41Z</time></trkpt><trkpt lat="45.49000396854876" lon="11.700492680983757"><ele>22.8</ele><time>2026-04-16T10:51:42Z</time></trkpt><trkpt lat="45.48994073632478" lon="11.7005176689593"><ele>23.2</ele><time>2026-04-16T10:51:43Z</time></trkpt><trkpt lat="45.48991329718249" lon="11.700688134203057"><ele>23.6</ele><time>2026-04-16T10:51:44Z</time></trkpt><trkpt lat="45.48980709621566" lon="11.70074453713597"><ele>24.0</ele><time>2026-04-16T10:51:46Z</time></trkpt><trkpt lat="45.48953644876965" lon="11.700941093727875"><ele>24.0</ele><time>2026-04-16T10:51:51Z</time></trkpt><trkpt lat="45.48948067896263" lon="11.700983275789058"><ele>24.0</ele><time>2026-04-16T10:51:52Z</time></trkpt><trkpt lat="45.48937481045555" lon="11.701063350532628"><ele>24.0</ele><time>2026-04-16T10:51:54Z</time></trkpt><trkpt lat="45.48926949513129" lon="11.701143006862468"><ele>24.0</ele><time>2026-04-16T10:51:56Z</time></trkpt><trkpt lat="45.48916645407038" lon="11.701221422365421"><ele>24.0</ele><time>2026-04-16T10:51:58.001Z</time></trkpt><trkpt lat="45.489053516437885" lon="11.701307690056089"><ele>24.2</ele><time>2026-04-16T10:52:00.001Z</time></trkpt><trkpt lat="45.488991737452245" lon="11.701354880083684"><ele>24.4</ele><time>2026-04-16T10:52:01.001Z</time></trkpt><trkpt lat="45.48893608743271" lon="11.701397388481634"><ele>24.6</ele><time>2026-04-16T10:52:02.001Z</time></trkpt><trkpt lat="45.48882486230071" lon="11.701482348076942"><ele>24.8</ele><time>2026-04-16T10:52:04.001Z</time></trkpt><trkpt lat="45.4887147536484" lon="11.701566454836733"><ele>25.0</ele><time>2026-04-16T10:52:06.001Z</time></trkpt><trkpt lat="45.48865675578585" lon="11.701610756647872"><ele>25.142857142857146</ele><time>2026-04-16T10:52:07.001Z</time></trkpt><trkpt lat="45.488598521536844" lon="11.701655239009753"><ele>25.285714285714285</ele><time>2026-04-16T10:52:08.001Z</time></trkpt><trkpt lat="45.48853690992197" lon="11.701702301027133"><ele>25.42857142857143</ele><time>2026-04-16T10:52:09.001Z</time></trkpt><trkpt lat="45.488472561326084" lon="11.701751162842724"><ele>25.571428571428573</ele><time>2026-04-16T10:52:10.001Z</time></trkpt><trkpt lat="45.48840994029538" lon="11.701798830150656"><ele>25.714285714285715</ele><time>2026-04-16T10:52:11.001Z</time></trkpt><trkpt lat="45.48834922693106" lon="11.701845045352743"><ele>25.857142857142858</ele><time>2026-04-16T10:52:12.001Z</time></trkpt><trkpt lat="45.48828831077481" lon="11.701891414914696"><ele>26.0</ele><time>2026-04-16T10:52:13.001Z</time></trkpt><trkpt lat="45.48822844422099" lon="11.70193698551262"><ele>26.0</ele><time>2026-04-16T10:52:14.001Z</time></trkpt><trkpt lat="45.48816982424217" lon="11.701981607200874"><ele>26.0</ele><time>2026-04-16T10:52:15.001Z</time></trkpt><trkpt lat="45.48811413583683" lon="11.70202399737575"><ele>26.0</ele><time>2026-04-16T10:52:16.001Z</time></trkpt><trkpt lat="45.48805732128854" lon="11.702067244676028"><ele>26.0</ele><time>2026-04-16T10:52:17.001Z</time></trkpt><trkpt lat="45.48800147174608" lon="11.702109751083944"><ele>26.0</ele><time>2026-04-16T10:52:18.001Z</time></trkpt><trkpt lat="45.48794457386013" lon="11.702153057222267"><ele>26.0</ele><time>2026-04-16T10:52:19.001Z</time></trkpt><trkpt lat="45.48788758618411" lon="11.702196431704598"><ele>26.0</ele><time>2026-04-16T10:52:20.001Z</time></trkpt><trkpt lat="45.48782956173212" lon="11.702240595279221"><ele>25.4</ele><time>2026-04-16T10:52:21.001Z</time></trkpt><trkpt lat="45.487773924201925" lon="11.702282942136371"><ele>24.8</ele><time>2026-04-16T10:52:22.001Z</time></trkpt><trkpt lat="45.487662322508314" lon="11.702367884452094"><ele>24.2</ele><time>2026-04-16T10:52:24.001Z</time></trkpt><trkpt lat="45.48755813583099" lon="11.702447183047202"><ele>23.599999999999998</ele><time>2026-04-16T10:52:26.001Z</time></trkpt><trkpt lat="45.48746464816073" lon="11.702518366721497"><ele>23.0</ele><time>2026-04-16T10:52:28.001Z</time></trkpt><trkpt lat="45.48737315394863" lon="11.702588042121858"><ele>23.0</ele><time>2026-04-16T10:52:30.001Z</time></trkpt><trkpt lat="45.48729755978877" lon="11.702645609172675"><ele>23.0</ele><time>2026-04-16T10:52:32.001Z</time></trkpt><trkpt lat="45.487236615031655" lon="11.702692020274988"><ele>23.0</ele><time>2026-04-16T10:52:34.001Z</time></trkpt><trkpt lat="45.48719332618107" lon="11.702790085736535"><ele>23.0</ele><time>2026-04-16T10:52:41.001Z</time></trkpt><trkpt lat="45.48710455341741" lon="11.702858435331464"><ele>23.0</ele><time>2026-04-16T10:52:43.001Z</time></trkpt><trkpt lat="45.48701882324089" lon="11.702923644680718"><ele>23.0</ele><time>2026-04-16T10:52:45.001Z</time></trkpt><trkpt lat="45.48346475542265" lon="11.705525766739425"><ele>22.799999999999997</ele><time>2026-04-16T10:53:57Z</time></trkpt><trkpt lat="45.483364156024315" lon="11.705593279141322"><ele>22.6</ele><time>2026-04-16T10:53:59Z</time></trkpt><trkpt lat="45.483255510583355" lon="11.705665686521318"><ele>22.4</ele><time>2026-04-16T10:54:01Z</time></trkpt><trkpt lat="45.48314251051077" lon="11.705740996062858"><ele>22.200000000000003</ele><time>2026-04-16T10:54:03Z</time></trkpt><trkpt lat="45.48308383542361" lon="11.705780054395943"><ele>22.0</ele><time>2026-04-16T10:54:04Z</time></trkpt><trkpt lat="45.48302501081799" lon="11.70581921227229"><ele>22.0</ele><time>2026-04-16T10:54:05Z</time></trkpt><trkpt lat="45.48296762806394" lon="11.705857406717953"><ele>22.0</ele><time>2026-04-16T10:54:06Z</time></trkpt><trkpt lat="45.482907617538544" lon="11.70589709307179"><ele>22.0</ele><time>2026-04-16T10:54:07Z</time></trkpt><trkpt lat="45.48279661960481" lon="11.705970498563877"><ele>22.0</ele><time>2026-04-16T10:54:09Z</time></trkpt><trkpt lat="45.482738304239255" lon="11.706009063856266"><ele>22.0</ele><time>2026-04-16T10:54:10Z</time></trkpt><trkpt lat="45.48267986219751" lon="11.706047712923542"><ele>22.0</ele><time>2026-04-16T10:54:11Z</time></trkpt><trkpt lat="45.48261740626434" lon="11.706089016467244"><ele>22.0</ele><time>2026-04-16T10:54:12Z</time></trkpt><trkpt lat="45.482556095327126" lon="11.706129562809556"><ele>22.0</ele><time>2026-04-16T10:54:13Z</time></trkpt><trkpt lat="45.482495704561195" lon="11.706169500614402"><ele>22.0</ele><time>2026-04-16T10:54:14.001Z</time></trkpt><trkpt lat="45.48243389323656" lon="11.70621166283757"><ele>22.0</ele><time>2026-04-16T10:54:15.001Z</time></trkpt><trkpt lat="45.48231913329483" lon="11.70629109653815"><ele>22.0</ele><time>2026-04-16T10:54:17.001Z</time></trkpt><trkpt lat="45.482209252248495" lon="11.706367153202697"><ele>22.0</ele><time>2026-04-16T10:54:19.001Z</time></trkpt><trkpt lat="45.48211050400974" lon="11.706430315592923"><ele>22.0</ele><time>2026-04-16T10:54:21.001Z</time></trkpt><trkpt lat="45.482018118828584" lon="11.706484386285178"><ele>22.0</ele><time>2026-04-16T10:54:23.001Z</time></trkpt><trkpt lat="45.48192828470014" lon="11.70652855620524"><ele>22.0</ele><time>2026-04-16T10:54:25.001Z</time></trkpt><trkpt lat="45.48183794539265" lon="11.7065709810694"><ele>22.0</ele><time>2026-04-16T10:54:27.001Z</time></trkpt><trkpt lat="45.48177223299014" lon="11.706601840854546"><ele>22.0</ele><time>2026-04-16T10:54:29.001Z</time></trkpt><trkpt lat="45.481836708806235" lon="11.707004515001021"><ele>22.0</ele><time>2026-04-16T10:54:32.001Z</time></trkpt><trkpt lat="45.48187969800242" lon="11.707154013651463"><ele>22.0</ele><time>2026-04-16T10:54:34.001Z</time></trkpt><trkpt lat="45.48187019235697" lon="11.707355560810678"><ele>22.0</ele><time>2026-04-16T10:54:36.001Z</time></trkpt><trkpt lat="45.48189634241607" lon="11.707438017025797"><ele>22.0</ele><time>2026-04-16T10:54:37.001Z</time></trkpt><trkpt lat="45.4819231686394" lon="11.707522604835523"><ele>22.0</ele><time>2026-04-16T10:54:38.001Z</time></trkpt><trkpt lat="45.481950158977625" lon="11.707607710196536"><ele>22.0</ele><time>2026-04-16T10:54:39.001Z</time></trkpt><trkpt lat="45.48197633665175" lon="11.70769025320193"><ele>22.0</ele><time>2026-04-16T10:54:40.001Z</time></trkpt><trkpt lat="45.482027848137776" lon="11.707852678183722"><ele>22.0</ele><time>2026-04-16T10:54:42.001Z</time></trkpt><trkpt lat="45.4820558051928" lon="11.707936241234016"><ele>22.0</ele><time>2026-04-16T10:54:43.001Z</time></trkpt><trkpt lat="45.48208638072576" lon="11.7080176420235"><ele>22.0</ele><time>2026-04-16T10:54:44.001Z</time></trkpt><trkpt lat="45.48214486143896" lon="11.708173333903062"><ele>22.0</ele><time>2026-04-16T10:54:46.001Z</time></trkpt><trkpt lat="45.483274412978886" lon="11.712430343301188"><ele>22.0</ele><time>2026-04-16T10:55:47Z</time></trkpt><trkpt lat="45.48331393691367" lon="11.712583706668887"><ele>22.0</ele><time>2026-04-16T10:55:49Z</time></trkpt><trkpt lat="45.48334774153907" lon="11.712735367480958"><ele>22.0</ele><time>2026-04-16T10:55:51Z</time></trkpt><trkpt lat="45.48338711956197" lon="11.71288149149964"><ele>22.0</ele><time>2026-04-16T10:55:53Z</time></trkpt><trkpt lat="45.48337036683103" lon="11.713064053216716"><ele>22.0</ele><time>2026-04-16T10:55:55Z</time></trkpt><trkpt lat="45.48340752450592" lon="11.713208329177238"><ele>22.0</ele><time>2026-04-16T10:55:57Z</time></trkpt><trkpt lat="45.483447962436344" lon="11.71336697024933"><ele>22.0</ele><time>2026-04-16T10:55:59Z</time></trkpt><trkpt lat="45.48353988148612" lon="11.71349210566121"><ele>22.0</ele><time>2026-04-16T10:56:01Z</time></trkpt><trkpt lat="45.48357698143611" lon="11.713648321130108"><ele>22.0</ele><time>2026-04-16T10:56:03Z</time></trkpt><trkpt lat="45.48362059940054" lon="11.713790332510934"><ele>22.0</ele><time>2026-04-16T10:56:05Z</time></trkpt><trkpt lat="45.48365765637012" lon="11.713936531434088"><ele>22.0</ele><time>2026-04-16T10:56:07Z</time></trkpt><trkpt lat="45.483641471336796" lon="11.714115795805903"><ele>22.0</ele><time>2026-04-16T10:56:09Z</time></trkpt><trkpt lat="45.483680245544555" lon="11.714267548861988"><ele>22.200000000000003</ele><time>2026-04-16T10:56:11Z</time></trkpt><trkpt lat="45.483718623659726" lon="11.714417751716825"><ele>22.4</ele><time>2026-04-16T10:56:13Z</time></trkpt><trkpt lat="45.483756341044874" lon="11.714565368624418"><ele>22.6</ele><time>2026-04-16T10:56:15Z</time></trkpt><trkpt lat="45.48379413274277" lon="11.714709032604949"><ele>22.799999999999997</ele><time>2026-04-16T10:56:17Z</time></trkpt><trkpt lat="45.48383100228989" lon="11.714845439310947"><ele>23.0</ele><time>2026-04-16T10:56:19Z</time></trkpt><trkpt lat="45.483872053533645" lon="11.714991021338303"><ele>23.0</ele><time>2026-04-16T10:56:21Z</time></trkpt><trkpt lat="45.48391244016397" lon="11.715118849367391"><ele>23.0</ele><time>2026-04-16T10:56:23Z</time></trkpt><trkpt lat="45.483947095748086" lon="11.715221599792615"><ele>23.0</ele><time>2026-04-16T10:56:25Z</time></trkpt><trkpt lat="45.48398059212871" lon="11.715317525679133"><ele>23.0</ele><time>2026-04-16T10:56:27Z</time></trkpt><trkpt lat="45.484012410195554" lon="11.71540864520264"><ele>23.0</ele><time>2026-04-16T10:56:29Z</time></trkpt><trkpt lat="45.48404335823678" lon="11.715497273214652"><ele>23.0</ele><time>2026-04-16T10:56:31Z</time></trkpt><trkpt lat="45.48407600480248" lon="11.715592618512046"><ele>23.2</ele><time>2026-04-16T10:56:33Z</time></trkpt><trkpt lat="45.484116081640934" lon="11.715709241161221"><ele>23.4</ele><time>2026-04-16T10:56:35Z</time></trkpt><trkpt lat="45.48415488431622" lon="11.715822156076944"><ele>23.599999999999998</ele><time>2026-04-16T10:56:37Z</time></trkpt><trkpt lat="45.484219650471935" lon="11.715920865403637"><ele>23.799999999999997</ele><time>2026-04-16T10:56:39Z</time></trkpt><trkpt lat="45.48426048343879" lon="11.716044656501127"><ele>24.0</ele><time>2026-04-16T10:56:41.001Z</time></trkpt><trkpt lat="45.484300212625776" lon="11.71616513918025"><ele>24.0</ele><time>2026-04-16T10:56:43.001Z</time></trkpt><trkpt lat="45.484340930871156" lon="11.716277004385582"><ele>24.0</ele><time>2026-04-16T10:56:45.001Z</time></trkpt><trkpt lat="45.484940868436155" lon="11.720935019898404"><ele>23.4</ele><time>2026-04-16T10:57:47Z</time></trkpt><trkpt lat="45.48497675560076" lon="11.721103019969853"><ele>22.799999999999997</ele><time>2026-04-16T10:57:49Z</time></trkpt><trkpt lat="45.485012349661325" lon="11.721269647828457"><ele>22.200000000000003</ele><time>2026-04-16T10:57:51Z</time></trkpt><trkpt lat="45.48503077976205" lon="11.721355925431233"><ele>21.6</ele><time>2026-04-16T10:57:52Z</time></trkpt><trkpt lat="45.48506699205531" lon="11.721525447524291"><ele>21.0</ele><time>2026-04-16T10:57:54Z</time></trkpt><trkpt lat="45.48508566938735" lon="11.72161288238848"><ele>21.0</ele><time>2026-04-16T10:57:55Z</time></trkpt><trkpt lat="45.48510454735591" lon="11.721701265358218"><ele>21.0</ele><time>2026-04-16T10:57:56Z</time></trkpt><trkpt lat="45.4851401847947" lon="11.72186193486954"><ele>21.0</ele><time>2026-04-16T10:57:58Z</time></trkpt><trkpt lat="45.48517384392649" lon="11.722012960550058"><ele>21.0</ele><time>2026-04-16T10:58:00Z</time></trkpt><trkpt lat="45.48521043500823" lon="11.722175279380219"><ele>21.0</ele><time>2026-04-16T10:58:02Z</time></trkpt><trkpt lat="45.48523046042874" lon="11.722264112632848"><ele>21.0</ele><time>2026-04-16T10:58:03Z</time></trkpt><trkpt lat="45.48525096586179" lon="11.722355075209462"><ele>21.0</ele><time>2026-04-16T10:58:04Z</time></trkpt><trkpt lat="45.48527082249084" lon="11.722442218271068"><ele>21.0</ele><time>2026-04-16T10:58:05Z</time></trkpt><trkpt lat="45.485310561137105" lon="11.722611498715954"><ele>21.0</ele><time>2026-04-16T10:58:07Z</time></trkpt><trkpt lat="45.48534671918843" lon="11.722764982306616"><ele>21.0</ele><time>2026-04-16T10:58:09Z</time></trkpt><trkpt lat="45.485382125413246" lon="11.722911947695343"><ele>21.0</ele><time>2026-04-16T10:58:11Z</time></trkpt><trkpt lat="45.48542284308188" lon="11.723080959769657"><ele>21.0</ele><time>2026-04-16T10:58:13Z</time></trkpt><trkpt lat="45.48544353756477" lon="11.72316685899693"><ele>21.0</ele><time>2026-04-16T10:58:14Z</time></trkpt><trkpt lat="45.485483449658346" lon="11.723339308453278"><ele>21.0</ele><time>2026-04-16T10:58:16Z</time></trkpt><trkpt lat="45.48550286215917" lon="11.723424754116937"><ele>21.0</ele><time>2026-04-16T10:58:17Z</time></trkpt><trkpt lat="45.4855396063118" lon="11.723587727149601"><ele>21.0</ele><time>2026-04-16T10:58:19Z</time></trkpt><trkpt lat="45.48557330040059" lon="11.723741943171557"><ele>21.0</ele><time>2026-04-16T10:58:21Z</time></trkpt><trkpt lat="45.48559837334993" lon="11.723856701248707"><ele>21.0</ele><time>2026-04-16T10:58:23Z</time></trkpt><trkpt lat="45.48582652570193" lon="11.7238357100531"><ele>21.0</ele><time>2026-04-16T10:58:26Z</time></trkpt><trkpt lat="45.485838216138404" lon="11.723930215300713"><ele>21.0</ele><time>2026-04-16T10:58:28Z</time></trkpt><trkpt lat="45.48576568926509" lon="11.723949851537919"><ele>21.0</ele><time>2026-04-16T10:58:31Z</time></trkpt><trkpt lat="45.485733877045085" lon="11.724042638221354"><ele>21.0</ele><time>2026-04-16T10:58:33Z</time></trkpt><trkpt lat="45.485714472466434" lon="11.724170275887031"><ele>21.0</ele><time>2026-04-16T10:58:35Z</time></trkpt><trkpt lat="45.48572442283967" lon="11.724314734859956"><ele>21.0</ele><time>2026-04-16T10:58:37Z</time></trkpt><trkpt lat="45.48573162501339" lon="11.724474014578226"><ele>21.0</ele><time>2026-04-16T10:58:39Z</time></trkpt><trkpt lat="45.4857586853771" lon="11.724600220918903"><ele>21.0</ele><time>2026-04-16T10:58:41Z</time></trkpt><trkpt lat="45.48578242038136" lon="11.724710918351693"><ele>21.0</ele><time>2026-04-16T10:58:45Z</time></trkpt><trkpt lat="45.48727192773394" lon="11.728599133413994"><ele>21.0</ele><time>2026-04-16T10:59:47Z</time></trkpt><trkpt lat="45.48731224950757" lon="11.72867537484763"><ele>21.0</ele><time>2026-04-16T10:59:48Z</time></trkpt><trkpt lat="45.4873420192148" lon="11.72876378796434"><ele>21.0</ele><time>2026-04-16T10:59:49Z</time></trkpt><trkpt lat="45.48737168592375" lon="11.728849938492916"><ele>21.0</ele><time>2026-04-16T10:59:50Z</time></trkpt><trkpt lat="45.48741324547647" lon="11.729018918018083"><ele>21.0</ele><time>2026-04-16T10:59:52Z</time></trkpt><trkpt lat="45.48742041917412" lon="11.7291110176613"><ele>21.0</ele><time>2026-04-16T10:59:53Z</time></trkpt><trkpt lat="45.48743469071344" lon="11.729207569491178"><ele>21.0</ele><time>2026-04-16T10:59:54Z</time></trkpt><trkpt lat="45.4874370964762" lon="11.729304601472986"><ele>21.0</ele><time>2026-04-16T10:59:55Z</time></trkpt><trkpt lat="45.48743481327975" lon="11.729400636487485"><ele>21.0</ele><time>2026-04-16T10:59:56Z</time></trkpt><trkpt lat="45.48743525823219" lon="11.729496981049214"><ele>21.0</ele><time>2026-04-16T10:59:57Z</time></trkpt><trkpt lat="45.48743566490518" lon="11.729592650964712"><ele>21.0</ele><time>2026-04-16T10:59:58Z</time></trkpt><trkpt lat="45.48743822699563" lon="11.729689474793988"><ele>21.0</ele><time>2026-04-16T10:59:59Z</time></trkpt><trkpt lat="45.487442115034504" lon="11.729783914233892"><ele>21.0</ele><time>2026-04-16T11:00:00Z</time></trkpt><trkpt lat="45.48744635654168" lon="11.729879297655371"><ele>21.0</ele><time>2026-04-16T11:00:01Z</time></trkpt><trkpt lat="45.48744687421486" lon="11.7299704418974"><ele>21.0</ele><time>2026-04-16T11:00:02Z</time></trkpt><trkpt lat="45.48745004571188" lon="11.730062462324383"><ele>21.0</ele><time>2026-04-16T11:00:03Z</time></trkpt><trkpt lat="45.48745568075977" lon="11.730235875473264"><ele>21.0</ele><time>2026-04-16T11:00:05Z</time></trkpt><trkpt lat="45.48746978251987" lon="11.730416589995755"><ele>21.0</ele><time>2026-04-16T11:00:07Z</time></trkpt><trkpt lat="45.487476119653756" lon="11.73051353069822"><ele>21.0</ele><time>2026-04-16T11:00:08Z</time></trkpt><trkpt lat="45.48748573059224" lon="11.730610037523483"><ele>21.0</ele><time>2026-04-16T11:00:09Z</time></trkpt><trkpt lat="45.48749884168811" lon="11.730770690267354"><ele>21.0</ele><time>2026-04-16T11:00:11Z</time></trkpt><trkpt lat="45.48751277120561" lon="11.730904549044508"><ele>21.0</ele><time>2026-04-16T11:00:13Z</time></trkpt><trkpt lat="45.48750571024738" lon="11.731005843837055"><ele>21.0</ele><time>2026-04-16T11:00:15Z</time></trkpt><trkpt lat="45.48752204165112" lon="11.73112139379259"><ele>21.0</ele><time>2026-04-16T11:00:18Z</time></trkpt><trkpt lat="45.48754035438098" lon="11.7312158403287"><ele>21.0</ele><time>2026-04-16T11:00:21Z</time></trkpt><trkpt lat="45.48759344682548" lon="11.731140057903318"><ele>21.0</ele><time>2026-04-16T11:00:24Z</time></trkpt><trkpt lat="45.48766779520472" lon="11.73106840862673"><ele>21.0</ele><time>2026-04-16T11:00:26Z</time></trkpt><trkpt lat="45.48778289970452" lon="11.731057475604894"><ele>21.0</ele><time>2026-04-16T11:00:28Z</time></trkpt><trkpt lat="45.48790369197009" lon="11.73102576356007"><ele>21.0</ele><time>2026-04-16T11:00:30Z</time></trkpt><trkpt lat="45.487968620822315" lon="11.730999167880485"><ele>21.0</ele><time>2026-04-16T11:00:31Z</time></trkpt><trkpt lat="45.48803631404638" lon="11.730980808805148"><ele>21.0</ele><time>2026-04-16T11:00:32Z</time></trkpt><trkpt lat="45.48809728713422" lon="11.730957487479973"><ele>21.0</ele><time>2026-04-16T11:00:33Z</time></trkpt><trkpt lat="45.48816428362122" lon="11.730941136362087"><ele>21.0</ele><time>2026-04-16T11:00:34Z</time></trkpt><trkpt lat="45.48822816454423" lon="11.730907627222447"><ele>21.0</ele><time>2026-04-16T11:00:35Z</time></trkpt><trkpt lat="45.488348968592874" lon="11.730883781157047"><ele>21.0</ele><time>2026-04-16T11:00:37Z</time></trkpt><trkpt lat="45.488411596864225" lon="11.73085493391218"><ele>21.0</ele><time>2026-04-16T11:00:38Z</time></trkpt><trkpt lat="45.48852779152028" lon="11.730806594667005"><ele>21.0</ele><time>2026-04-16T11:00:40Z</time></trkpt><trkpt lat="45.488642226831345" lon="11.730789691307127"><ele>21.0</ele><time>2026-04-16T11:00:42Z</time></trkpt><trkpt lat="45.48874206356465" lon="11.73071739395281"><ele>21.0</ele><time>2026-04-16T11:00:44Z</time></trkpt><trkpt lat="45.48883969637394" lon="11.730714318154172"><ele>21.0</ele><time>2026-04-16T11:00:46Z</time></trkpt><trkpt lat="45.49183235096181" lon="11.733525166334699"><ele>20.75</ele><time>2026-04-16T11:01:47Z</time></trkpt><trkpt lat="45.49191966559607" lon="11.733599905793772"><ele>20.5</ele><time>2026-04-16T11:01:49Z</time></trkpt><trkpt lat="45.49202083464913" lon="11.733691363073328"><ele>20.25</ele><time>2026-04-16T11:01:51Z</time></trkpt><trkpt lat="45.49211356640711" lon="11.73378450590101"><ele>20.0</ele><time>2026-04-16T11:01:53Z</time></trkpt><trkpt lat="45.492214809414634" lon="11.73388751937512"><ele>20.0</ele><time>2026-04-16T11:01:55Z</time></trkpt><trkpt lat="45.49231213675791" lon="11.733977308264295"><ele>20.0</ele><time>2026-04-16T11:01:57Z</time></trkpt><trkpt lat="45.49239705904373" lon="11.734064425132102"><ele>20.0</ele><time>2026-04-16T11:01:59Z</time></trkpt><trkpt lat="45.49248905851135" lon="11.734139305264737"><ele>20.0</ele><time>2026-04-16T11:02:01Z</time></trkpt><trkpt lat="45.492583599595434" lon="11.734233841247674"><ele>20.0</ele><time>2026-04-16T11:02:03Z</time></trkpt><trkpt lat="45.49268115512577" lon="11.734324899506413"><ele>20.0</ele><time>2026-04-16T11:02:05Z</time></trkpt><trkpt lat="45.49279310241158" lon="11.734423058566025"><ele>20.0</ele><time>2026-04-16T11:02:07Z</time></trkpt><trkpt lat="45.49284681348438" lon="11.734474707537608"><ele>20.0</ele><time>2026-04-16T11:02:08Z</time></trkpt><trkpt lat="45.49290011030061" lon="11.734528980832753"><ele>20.0</ele><time>2026-04-16T11:02:09Z</time></trkpt><trkpt lat="45.4930072863227" lon="11.734628719996868"><ele>20.0</ele><time>2026-04-16T11:02:11Z</time></trkpt><trkpt lat="45.493061530960695" lon="11.734675762670781"><ele>20.0</ele><time>2026-04-16T11:02:12Z</time></trkpt><trkpt lat="45.49316781829171" lon="11.734778318699176"><ele>20.0</ele><time>2026-04-16T11:02:14Z</time></trkpt><trkpt lat="45.49322467861329" lon="11.734825075311125"><ele>20.0</ele><time>2026-04-16T11:02:15Z</time></trkpt><trkpt lat="45.4933212344205" lon="11.734919489219031"><ele>20.0</ele><time>2026-04-16T11:02:17Z</time></trkpt><trkpt lat="45.493421275273406" lon="11.735019716550394"><ele>20.0</ele><time>2026-04-16T11:02:19Z</time></trkpt><trkpt lat="45.49352611002545" lon="11.735115139037267"><ele>20.0</ele><time>2026-04-16T11:02:21Z</time></trkpt><trkpt lat="45.493629859274215" lon="11.735217544201264"><ele>20.0</ele><time>2026-04-16T11:02:23Z</time></trkpt><trkpt lat="45.49368151528553" lon="11.735278047593404"><ele>20.0</ele><time>2026-04-16T11:02:24Z</time></trkpt><trkpt lat="45.49378594122987" lon="11.735378113662343"><ele>20.0</ele><time>2026-04-16T11:02:26Z</time></trkpt><trkpt lat="45.493884074167546" lon="11.735470554790556"><ele>20.0</ele><time>2026-04-16T11:02:28Z</time></trkpt><trkpt lat="45.493965133886135" lon="11.735548600735006"><ele>20.166666666666668</ele><time>2026-04-16T11:02:30Z</time></trkpt><trkpt lat="45.49402384736442" lon="11.735602092104957"><ele>20.333333333333336</ele><time>2026-04-16T11:02:32Z</time></trkpt><trkpt lat="45.494088102846625" lon="11.735676983791663"><ele>20.5</ele><time>2026-04-16T11:02:35Z</time></trkpt><trkpt lat="45.49413991281545" lon="11.735730509122641"><ele>20.666666666666668</ele><time>2026-04-16T11:02:37Z</time></trkpt><trkpt lat="45.49420413180225" lon="11.735756523914105"><ele>20.833333333333332</ele><time>2026-04-16T11:02:40Z</time></trkpt><trkpt lat="45.4942782241281" lon="11.735858776804434"><ele>21.0</ele><time>2026-04-16T11:02:43Z</time></trkpt><trkpt lat="45.494355565820506" lon="11.735930978754622"><ele>21.0</ele><time>2026-04-16T11:02:45Z</time></trkpt><trkpt lat="45.4943726821669" lon="11.735654962328452"><ele>21.0</ele><time>2026-04-16T11:02:46Z</time></trkpt><trkpt lat="45.49474254211591" lon="11.736295745540625"><ele>20.25</ele><time>2026-04-16T11:02:55Z</time></trkpt><trkpt lat="45.49483655919592" lon="11.73638087109412"><ele>19.5</ele><time>2026-04-16T11:02:57Z</time></trkpt><trkpt lat="45.494941585163645" lon="11.736463627032641"><ele>18.75</ele><time>2026-04-16T11:02:59Z</time></trkpt><trkpt lat="45.49504007196138" lon="11.736567106379093"><ele>18.0</ele><time>2026-04-16T11:03:01Z</time></trkpt><trkpt lat="45.49514757571691" lon="11.73666597401456"><ele>18.0</ele><time>2026-04-16T11:03:03Z</time></trkpt><trkpt lat="45.49524198631966" lon="11.736766642302682"><ele>18.0</ele><time>2026-04-16T11:03:05Z</time></trkpt><trkpt lat="45.49533979930796" lon="11.736855887802298"><ele>18.0</ele><time>2026-04-16T11:03:07Z</time></trkpt><trkpt lat="45.49543869720115" lon="11.736939926450765"><ele>18.0</ele><time>2026-04-16T11:03:09Z</time></trkpt><trkpt lat="45.49553381774803" lon="11.73702956442127"><ele>18.75</ele><time>2026-04-16T11:03:11Z</time></trkpt><trkpt lat="45.49562197496587" lon="11.737134739887779"><ele>19.5</ele><time>2026-04-16T11:03:13Z</time></trkpt><trkpt lat="45.495718302200515" lon="11.737242550723675"><ele>20.25</ele><time>2026-04-16T11:03:15Z</time></trkpt><trkpt lat="45.49582309205331" lon="11.73732698644018"><ele>21.0</ele><time>2026-04-16T11:03:17Z</time></trkpt><trkpt lat="45.49592386514875" lon="11.737403351456607"><ele>21.0</ele><time>2026-04-16T11:03:19Z</time></trkpt><trkpt lat="45.49597533731362" lon="11.73746080399839"><ele>21.0</ele><time>2026-04-16T11:03:20Z</time></trkpt><trkpt lat="45.49602894496463" lon="11.73751211981739"><ele>21.0</ele><time>2026-04-16T11:03:21Z</time></trkpt><trkpt lat="45.49612824061049" lon="11.73760248523866"><ele>21.0</ele><time>2026-04-16T11:03:23Z</time></trkpt><trkpt lat="45.49621034507685" lon="11.737691662131182"><ele>21.0</ele><time>2026-04-16T11:03:25Z</time></trkpt><trkpt lat="45.496308997477705" lon="11.737779643679158"><ele>21.0</ele><time>2026-04-16T11:03:27Z</time></trkpt><trkpt lat="45.49640115134669" lon="11.737872773361465"><ele>21.0</ele><time>2026-04-16T11:03:29Z</time></trkpt><trkpt lat="45.496506446820405" lon="11.737968013916086"><ele>21.0</ele><time>2026-04-16T11:03:31Z</time></trkpt><trkpt lat="45.496597619948176" lon="11.73806923217881"><ele>21.0</ele><time>2026-04-16T11:03:33Z</time></trkpt><trkpt lat="45.49669345913657" lon="11.738166945629173"><ele>21.0</ele><time>2026-04-16T11:03:35Z</time></trkpt><trkpt lat="45.496788106340794" lon="11.738241258638444"><ele>21.0</ele><time>2026-04-16T11:03:37Z</time></trkpt><trkpt lat="45.49687949674636" lon="11.738330271406282"><ele>21.0</ele><time>2026-04-16T11:03:39Z</time></trkpt><trkpt lat="45.496976580019705" lon="11.738422295698475"><ele>21.0</ele><time>2026-04-16T11:03:41Z</time></trkpt><trkpt lat="45.49707255034959" lon="11.738516357916364"><ele>21.0</ele><time>2026-04-16T11:03:43Z</time></trkpt><trkpt lat="45.497176830952775" lon="11.738605623857653"><ele>21.0</ele><time>2026-04-16T11:03:45Z</time></trkpt><trkpt lat="45.500293166250415" lon="11.741781567854378"><ele>21.0</ele><time>2026-04-16T11:04:47Z</time></trkpt><trkpt lat="45.50034840218945" lon="11.741839942238071"><ele>21.0</ele><time>2026-04-16T11:04:48Z</time></trkpt><trkpt lat="45.50043646276085" lon="11.741951618349617"><ele>21.0</ele><time>2026-04-16T11:04:50Z</time></trkpt><trkpt lat="45.500472289737964" lon="11.742075006870156"><ele>21.0</ele><time>2026-04-16T11:04:52Z</time></trkpt><trkpt lat="45.50049551955291" lon="11.742196485636114"><ele>21.0</ele><time>2026-04-16T11:04:54Z</time></trkpt><trkpt lat="45.50098448678022" lon="11.742274550634155"><ele>21.25</ele><time>2026-04-16T11:05:00Z</time></trkpt><trkpt lat="45.50107959669499" lon="11.742358335081343"><ele>21.5</ele><time>2026-04-16T11:05:02Z</time></trkpt><trkpt lat="45.50117672049606" lon="11.742452650043235"><ele>21.75</ele><time>2026-04-16T11:05:04Z</time></trkpt><trkpt lat="45.50127026556908" lon="11.74255097012342"><ele>22.0</ele><time>2026-04-16T11:05:06Z</time></trkpt><trkpt lat="45.50137011174525" lon="11.742633766066223"><ele>22.200000000000003</ele><time>2026-04-16T11:05:08Z</time></trkpt><trkpt lat="45.50145885495339" lon="11.742722137733065"><ele>22.4</ele><time>2026-04-16T11:05:10Z</time></trkpt><trkpt lat="45.50153831795766" lon="11.742814172076907"><ele>22.6</ele><time>2026-04-16T11:05:12Z</time></trkpt><trkpt lat="45.501614771106695" lon="11.742885516776472"><ele>22.799999999999997</ele><time>2026-04-16T11:05:14Z</time></trkpt><trkpt lat="45.50161338311781" lon="11.743016432003241"><ele>23.0</ele><time>2026-04-16T11:05:15Z</time></trkpt><trkpt lat="45.50169740944425" lon="11.743071136024797"><ele>23.0</ele><time>2026-04-16T11:05:18Z</time></trkpt><trkpt lat="45.50179411624566" lon="11.743106852522251"><ele>23.0</ele><time>2026-04-16T11:05:20Z</time></trkpt><trkpt lat="45.50187672597908" lon="11.743202198932702"><ele>23.0</ele><time>2026-04-16T11:05:23Z</time></trkpt><trkpt lat="45.501937651490714" lon="11.743302024464061"><ele>23.0</ele><time>2026-04-16T11:05:25Z</time></trkpt><trkpt lat="45.502063550304975" lon="11.74309204694834"><ele>23.0</ele><time>2026-04-16T11:05:26Z</time></trkpt><trkpt lat="45.502138488291905" lon="11.743052438315416"><ele>23.0</ele><time>2026-04-16T11:05:28Z</time></trkpt><trkpt lat="45.502139938944644" lon="11.74316345278067"><ele>23.0</ele><time>2026-04-16T11:05:30Z</time></trkpt><trkpt lat="45.502067845102935" lon="11.743264099135837"><ele>23.0</ele><time>2026-04-16T11:05:32Z</time></trkpt><trkpt lat="45.50207797437627" lon="11.743384389003365"><ele>23.0</ele><time>2026-04-16T11:05:34Z</time></trkpt><trkpt lat="45.50217651981856" lon="11.743446456067703"><ele>23.0</ele><time>2026-04-16T11:05:36Z</time></trkpt><trkpt lat="45.50219659493789" lon="11.743651534136074"><ele>23.0</ele><time>2026-04-16T11:05:38Z</time></trkpt><trkpt lat="45.50229156005665" lon="11.743753579541277"><ele>23.0</ele><time>2026-04-16T11:05:40Z</time></trkpt><trkpt lat="45.50239095466904" lon="11.743859591676268"><ele>23.0</ele><time>2026-04-16T11:05:42Z</time></trkpt><trkpt lat="45.502448021420015" lon="11.743919378521225"><ele>23.0</ele><time>2026-04-16T11:05:43Z</time></trkpt><trkpt lat="45.50254983767149" lon="11.74402115453357"><ele>23.0</ele><time>2026-04-16T11:05:45Z</time></trkpt><trkpt lat="45.50329064696987" lon="11.74451412062975"><ele>22.599999999999998</ele><time>2026-04-16T11:05:57Z</time></trkpt><trkpt lat="45.503349057588416" lon="11.744565458653675"><ele>22.2</ele><time>2026-04-16T11:05:58Z</time></trkpt><trkpt lat="45.50341141975716" lon="11.74461811993858"><ele>21.8</ele><time>2026-04-16T11:05:59Z</time></trkpt><trkpt lat="45.50345928666017" lon="11.744677894842871"><ele>21.4</ele><time>2026-04-16T11:06:00Z</time></trkpt><trkpt lat="45.503562742194674" lon="11.744779059870035"><ele>21.0</ele><time>2026-04-16T11:06:02Z</time></trkpt><trkpt lat="45.503664194126536" lon="11.744870002129005"><ele>21.0</ele><time>2026-04-16T11:06:04Z</time></trkpt><trkpt lat="45.50376017828284" lon="11.74495634619033"><ele>21.0</ele><time>2026-04-16T11:06:06Z</time></trkpt><trkpt lat="45.5037088865263" lon="11.745193863787465"><ele>21.0</ele><time>2026-04-16T11:06:07Z</time></trkpt><trkpt lat="45.50379417186249" lon="11.745279186077884"><ele>21.0</ele><time>2026-04-16T11:06:09Z</time></trkpt><trkpt lat="45.503875936630855" lon="11.745363440045544"><ele>21.666666666666668</ele><time>2026-04-16T11:06:11Z</time></trkpt><trkpt lat="45.50397175121834" lon="11.745467411769154"><ele>22.333333333333336</ele><time>2026-04-16T11:06:13Z</time></trkpt><trkpt lat="45.504018339464636" lon="11.74557013686481"><ele>23.0</ele><time>2026-04-16T11:06:15Z</time></trkpt><trkpt lat="45.50424726457296" lon="11.745369376091029"><ele>23.0</ele><time>2026-04-16T11:06:16Z</time></trkpt><trkpt lat="45.50433901874639" lon="11.745459641144794"><ele>23.0</ele><time>2026-04-16T11:06:18Z</time></trkpt><trkpt lat="45.504434435919684" lon="11.745548746157272"><ele>23.0</ele><time>2026-04-16T11:06:20Z</time></trkpt><trkpt lat="45.504528555024095" lon="11.74564832219727"><ele>23.0</ele><time>2026-04-16T11:06:22Z</time></trkpt><trkpt lat="45.50461830873514" lon="11.745751728003386"><ele>23.0</ele><time>2026-04-16T11:06:24Z</time></trkpt><trkpt lat="45.504718535243526" lon="11.745847252171895"><ele>23.0</ele><time>2026-04-16T11:06:26Z</time></trkpt><trkpt lat="45.50481338619508" lon="11.745949079172435"><ele>23.0</ele><time>2026-04-16T11:06:28Z</time></trkpt><trkpt lat="45.50490700987113" lon="11.746047959224656"><ele>23.0</ele><time>2026-04-16T11:06:30Z</time></trkpt><trkpt lat="45.50496022971501" lon="11.746098452068933"><ele>23.0</ele><time>2026-04-16T11:06:31Z</time></trkpt><trkpt lat="45.505061801754806" lon="11.746198060039212"><ele>23.0</ele><time>2026-04-16T11:06:33Z</time></trkpt><trkpt lat="45.505163140794764" lon="11.746299292683776"><ele>23.0</ele><time>2026-04-16T11:06:35Z</time></trkpt><trkpt lat="45.50521416101263" lon="11.746353367289293"><ele>23.0</ele><time>2026-04-16T11:06:36Z</time></trkpt><trkpt lat="45.505266047788346" lon="11.746406067353366"><ele>23.0</ele><time>2026-04-16T11:06:37Z</time></trkpt><trkpt lat="45.50532570571365" lon="11.746455176802423"><ele>23.0</ele><time>2026-04-16T11:06:38Z</time></trkpt><trkpt lat="45.50537865112396" lon="11.746508633558006"><ele>23.0</ele><time>2026-04-16T11:06:39Z</time></trkpt><trkpt lat="45.50547018955101" lon="11.746582316996381"><ele>23.0</ele><time>2026-04-16T11:06:41Z</time></trkpt><trkpt lat="45.50555052388211" lon="11.74668784415141"><ele>23.0</ele><time>2026-04-16T11:06:43Z</time></trkpt><trkpt lat="45.505642911062786" lon="11.74675800048208"><ele>23.0</ele><time>2026-04-16T11:06:45Z</time></trkpt><trkpt lat="45.50846901486209" lon="11.749478385501032"><ele>23.0</ele><time>2026-04-16T11:07:47Z</time></trkpt><trkpt lat="45.508539741664514" lon="11.749569402712698"><ele>23.0</ele><time>2026-04-16T11:07:49Z</time></trkpt><trkpt lat="45.5086256013417" lon="11.749646839936867"><ele>23.0</ele><time>2026-04-16T11:07:51Z</time></trkpt><trkpt lat="45.5087271608136" lon="11.7497170932454"><ele>23.0</ele><time>2026-04-16T11:07:53Z</time></trkpt><trkpt lat="45.508813476200054" lon="11.74981820845398"><ele>23.0</ele><time>2026-04-16T11:07:55Z</time></trkpt><trkpt lat="45.50887919496625" lon="11.749892024254176"><ele>22.857142857142858</ele><time>2026-04-16T11:07:57Z</time></trkpt><trkpt lat="45.50893835960189" lon="11.74997234863244"><ele>22.71428571428571</ele><time>2026-04-16T11:08:00Z</time></trkpt><trkpt lat="45.50900528111097" lon="11.750011678245126"><ele>22.57142857142857</ele><time>2026-04-16T11:08:03Z</time></trkpt><trkpt lat="45.509066676631136" lon="11.750048323947617"><ele>22.42857142857143</ele><time>2026-04-16T11:08:05Z</time></trkpt><trkpt lat="45.50911805873285" lon="11.750101197330032"><ele>22.285714285714285</ele><time>2026-04-16T11:08:08Z</time></trkpt><trkpt lat="45.50916310340575" lon="11.750170246510619"><ele>22.142857142857142</ele><time>2026-04-16T11:08:10Z</time></trkpt><trkpt lat="45.509244420076406" lon="11.75024086496955"><ele>22.0</ele><time>2026-04-16T11:08:12Z</time></trkpt><trkpt lat="45.509331861826446" lon="11.750331504350283"><ele>22.25</ele><time>2026-04-16T11:08:14Z</time></trkpt><trkpt lat="45.509416888727124" lon="11.750423637965811"><ele>22.5</ele><time>2026-04-16T11:08:16Z</time></trkpt><trkpt lat="45.509513155952106" lon="11.750517309523302"><ele>22.75</ele><time>2026-04-16T11:08:18Z</time></trkpt><trkpt lat="45.509613705990674" lon="11.750612549324595"><ele>23.0</ele><time>2026-04-16T11:08:20Z</time></trkpt><trkpt lat="45.5097189510211" lon="11.750707481335448"><ele>23.0</ele><time>2026-04-16T11:08:22Z</time></trkpt><trkpt lat="45.50982543404416" lon="11.750806234076993"><ele>23.0</ele><time>2026-04-16T11:08:24Z</time></trkpt><trkpt lat="45.50987926169274" lon="11.75085769011665"><ele>23.0</ele><time>2026-04-16T11:08:25Z</time></trkpt><trkpt lat="45.509994053075175" lon="11.750953926581088"><ele>23.0</ele><time>2026-04-16T11:08:27Z</time></trkpt><trkpt lat="45.510101606768146" lon="11.751054444323898"><ele>23.0</ele><time>2026-04-16T11:08:29Z</time></trkpt><trkpt lat="45.51015854604081" lon="11.75110983182068"><ele>23.0</ele><time>2026-04-16T11:08:30Z</time></trkpt><trkpt lat="45.51021808195019" lon="11.751167225887157"><ele>23.0</ele><time>2026-04-16T11:08:31Z</time></trkpt><trkpt lat="45.5102739725565" lon="11.751226576785761"><ele>23.0</ele><time>2026-04-16T11:08:32Z</time></trkpt><trkpt lat="45.51032802401039" lon="11.751286221685145"><ele>23.0</ele><time>2026-04-16T11:08:33Z</time></trkpt><trkpt lat="45.51038381584244" lon="11.751340624617303"><ele>23.0</ele><time>2026-04-16T11:08:34Z</time></trkpt><trkpt lat="45.51044385686042" lon="11.751388823336699"><ele>23.0</ele><time>2026-04-16T11:08:35Z</time></trkpt><trkpt lat="45.510502562154585" lon="11.751440500562682"><ele>22.857142857142858</ele><time>2026-04-16T11:08:36Z</time></trkpt><trkpt lat="45.510560883945345" lon="11.751492666595208"><ele>22.71428571428571</ele><time>2026-04-16T11:08:37Z</time></trkpt><trkpt lat="45.51062106278014" lon="11.751554889721634"><ele>22.57142857142857</ele><time>2026-04-16T11:08:38Z</time></trkpt><trkpt lat="45.51067738461332" lon="11.751611288166574"><ele>22.42857142857143</ele><time>2026-04-16T11:08:39Z</time></trkpt><trkpt lat="45.510734293838375" lon="11.75166859255947"><ele>22.285714285714285</ele><time>2026-04-16T11:08:40Z</time></trkpt><trkpt lat="45.51078933132976" lon="11.751725337924531"><ele>22.142857142857142</ele><time>2026-04-16T11:08:41Z</time></trkpt><trkpt lat="45.51084385620074" lon="11.751770742879929"><ele>22.0</ele><time>2026-04-16T11:08:42Z</time></trkpt><trkpt lat="45.5109010088783" lon="11.75182306753112"><ele>22.0</ele><time>2026-04-16T11:08:43Z</time></trkpt><trkpt lat="45.51095793394115" lon="11.751872267052104"><ele>22.0</ele><time>2026-04-16T11:08:44Z</time></trkpt><trkpt lat="45.51101491002867" lon="11.75193286287174"><ele>22.0</ele><time>2026-04-16T11:08:45Z</time></trkpt><trkpt lat="45.51106975474224" lon="11.751990738692708"><ele>22.0</ele><time>2026-04-16T11:08:46Z</time></trkpt><trkpt lat="45.51456417211335" lon="11.755328988152874"><ele>22.200000000000003</ele><time>2026-04-16T11:09:51Z</time></trkpt><trkpt lat="45.51465274666967" lon="11.755421145134031"><ele>22.4</ele><time>2026-04-16T11:09:53Z</time></trkpt><trkpt lat="45.51473919518247" lon="11.755514087914403"><ele>22.6</ele><time>2026-04-16T11:09:55Z</time></trkpt><trkpt lat="45.51483018833129" lon="11.755584708081557"><ele>22.799999999999997</ele><time>2026-04-16T11:09:57Z</time></trkpt><trkpt lat="45.514888096686796" lon="11.755645488329405"><ele>23.0</ele><time>2026-04-16T11:09:59Z</time></trkpt><trkpt lat="45.51492195073484" lon="11.755724537003493"><ele>23.0</ele><time>2026-04-16T11:10:01Z</time></trkpt><trkpt lat="45.514988319482995" lon="11.755763596203632"><ele>23.0</ele><time>2026-04-16T11:10:04Z</time></trkpt><trkpt lat="45.51507787290603" lon="11.755823302601547"><ele>23.0</ele><time>2026-04-16T11:10:07Z</time></trkpt><trkpt lat="45.5151435016293" lon="11.755904512954109"><ele>23.0</ele><time>2026-04-16T11:10:09Z</time></trkpt><trkpt lat="45.51521956809096" lon="11.755982753563028"><ele>23.0</ele><time>2026-04-16T11:10:11Z</time></trkpt><trkpt lat="45.51531833185797" lon="11.756060375943278"><ele>23.2</ele><time>2026-04-16T11:10:13Z</time></trkpt><trkpt lat="45.51537439372198" lon="11.756109828097987"><ele>23.4</ele><time>2026-04-16T11:10:14Z</time></trkpt><trkpt lat="45.51546624084548" lon="11.756204784589654"><ele>23.599999999999998</ele><time>2026-04-16T11:10:16Z</time></trkpt><trkpt lat="45.515559610970236" lon="11.756302670185319"><ele>23.799999999999997</ele><time>2026-04-16T11:10:18Z</time></trkpt><trkpt lat="45.51562056656051" lon="11.75635188396136"><ele>24.0</ele><time>2026-04-16T11:10:19Z</time></trkpt><trkpt lat="45.51572016957511" lon="11.756452663154041"><ele>24.0</ele><time>2026-04-16T11:10:21Z</time></trkpt><trkpt lat="45.51582401456578" lon="11.756560616370464"><ele>24.0</ele><time>2026-04-16T11:10:23Z</time></trkpt><trkpt lat="45.51588150889321" lon="11.756609090917019"><ele>24.0</ele><time>2026-04-16T11:10:24Z</time></trkpt><trkpt lat="45.515936529650645" lon="11.756658337103334"><ele>24.0</ele><time>2026-04-16T11:10:25Z</time></trkpt><trkpt lat="45.51598848924566" lon="11.756713570670877"><ele>24.0</ele><time>2026-04-16T11:10:26Z</time></trkpt><trkpt lat="45.51608723467751" lon="11.756809727474845"><ele>24.0</ele><time>2026-04-16T11:10:28Z</time></trkpt><trkpt lat="45.51615108889946" lon="11.75686985574448"><ele>24.0</ele><time>2026-04-16T11:10:29Z</time></trkpt><trkpt lat="45.51620617767504" lon="11.756924683398438"><ele>24.0</ele><time>2026-04-16T11:10:30Z</time></trkpt><trkpt lat="45.51626542260534" lon="11.756974637054386"><ele>24.0</ele><time>2026-04-16T11:10:31Z</time></trkpt><trkpt lat="45.51636380116407" lon="11.757065689563449"><ele>24.0</ele><time>2026-04-16T11:10:33Z</time></trkpt><trkpt lat="45.516425349968884" lon="11.75712903603186"><ele>24.0</ele><time>2026-04-16T11:10:34Z</time></trkpt><trkpt lat="45.51653227142019" lon="11.757226648479055"><ele>23.6</ele><time>2026-04-16T11:10:36Z</time></trkpt><trkpt lat="45.5165871264253" lon="11.757282326391055"><ele>23.2</ele><time>2026-04-16T11:10:37Z</time></trkpt><trkpt lat="45.516638962235085" lon="11.75733567687292"><ele>22.8</ele><time>2026-04-16T11:10:38Z</time></trkpt><trkpt lat="45.516733452565354" lon="11.757441309808163"><ele>22.400000000000002</ele><time>2026-04-16T11:10:40Z</time></trkpt><trkpt lat="45.51681309875544" lon="11.757533149131296"><ele>22.0</ele><time>2026-04-16T11:10:42Z</time></trkpt><trkpt lat="45.51690921013058" lon="11.757612145893034"><ele>22.0</ele><time>2026-04-16T11:10:44Z</time></trkpt><trkpt lat="45.51701660954722" lon="11.757698368490964"><ele>22.0</ele><time>2026-04-16T11:10:46Z</time></trkpt><trkpt lat="45.52025742087029" lon="11.760844486291948"><ele>22.0</ele><time>2026-04-16T11:11:47Z</time></trkpt><trkpt lat="45.520353057284666" lon="11.760935837232365"><ele>22.0</ele><time>2026-04-16T11:11:49Z</time></trkpt><trkpt lat="45.52044712685089" lon="11.761028073430914"><ele>22.0</ele><time>2026-04-16T11:11:51Z</time></trkpt><trkpt lat="45.52054152987907" lon="11.76112394487459"><ele>22.0</ele><time>2026-04-16T11:11:53Z</time></trkpt><trkpt lat="45.52063724359858" lon="11.761208123359179"><ele>22.400000000000002</ele><time>2026-04-16T11:11:55Z</time></trkpt><trkpt lat="45.520722955317744" lon="11.761289981994768"><ele>22.8</ele><time>2026-04-16T11:11:57Z</time></trkpt><trkpt lat="45.52079557393579" lon="11.76136940440797"><ele>23.2</ele><time>2026-04-16T11:11:59Z</time></trkpt><trkpt lat="45.52087501442545" lon="11.76144076051818"><ele>23.6</ele><time>2026-04-16T11:12:01Z</time></trkpt><trkpt lat="45.52094789636988" lon="11.761506328764838"><ele>24.0</ele><time>2026-04-16T11:12:03Z</time></trkpt><trkpt lat="45.52103103855695" lon="11.761578957082353"><ele>24.0</ele><time>2026-04-16T11:12:06Z</time></trkpt><trkpt lat="45.52109398452863" lon="11.761645325349539"><ele>24.0</ele><time>2026-04-16T11:12:08Z</time></trkpt><trkpt lat="45.52119262069839" lon="11.761720519752375"><ele>24.0</ele><time>2026-04-16T11:12:10Z</time></trkpt><trkpt lat="45.52129025942488" lon="11.761822394687915"><ele>24.0</ele><time>2026-04-16T11:12:12Z</time></trkpt><trkpt lat="45.5213422570406" lon="11.761878936707284"><ele>24.0</ele><time>2026-04-16T11:12:13Z</time></trkpt><trkpt lat="45.52139913857857" lon="11.76193480461168"><ele>24.0</ele><time>2026-04-16T11:12:14Z</time></trkpt><trkpt lat="45.52145109590184" lon="11.761987426644922"><ele>23.857142857142854</ele><time>2026-04-16T11:12:15Z</time></trkpt><trkpt lat="45.52150834977415" lon="11.762042987400703"><ele>23.714285714285715</ele><time>2026-04-16T11:12:16Z</time></trkpt><trkpt lat="45.52156265546249" lon="11.76209384615986"><ele>23.57142857142857</ele><time>2026-04-16T11:12:17Z</time></trkpt><trkpt lat="45.52161524171082" lon="11.762150920716723"><ele>23.428571428571427</ele><time>2026-04-16T11:12:18Z</time></trkpt><trkpt lat="45.52166828330943" lon="11.76220805295476"><ele>23.285714285714285</ele><time>2026-04-16T11:12:19Z</time></trkpt><trkpt lat="45.521727947364454" lon="11.762255321447451"><ele>23.142857142857142</ele><time>2026-04-16T11:12:20Z</time></trkpt><trkpt lat="45.52178109814475" lon="11.762311031186083"><ele>23.0</ele><time>2026-04-16T11:12:21Z</time></trkpt><trkpt lat="45.52183424406054" lon="11.762366838788955"><ele>23.0</ele><time>2026-04-16T11:12:22Z</time></trkpt><trkpt lat="45.521888642466415" lon="11.762420742948494"><ele>23.0</ele><time>2026-04-16T11:12:23Z</time></trkpt><trkpt lat="45.521942485176496" lon="11.762474947749135"><ele>23.0</ele><time>2026-04-16T11:12:24Z</time></trkpt><trkpt lat="45.52199702198054" lon="11.762523705840216"><ele>23.0</ele><time>2026-04-16T11:12:25Z</time></trkpt><trkpt lat="45.52205366715298" lon="11.762577514609529"><ele>23.0</ele><time>2026-04-16T11:12:26Z</time></trkpt><trkpt lat="45.52211086342204" lon="11.762631303556581"><ele>23.0</ele><time>2026-04-16T11:12:27Z</time></trkpt><trkpt lat="45.52216656136384" lon="11.762682364066379"><ele>23.0</ele><time>2026-04-16T11:12:28Z</time></trkpt><trkpt lat="45.52222785489936" lon="11.762740809387102"><ele>22.857142857142858</ele><time>2026-04-16T11:12:29Z</time></trkpt><trkpt lat="45.52228298177936" lon="11.762798152853762"><ele>22.71428571428571</ele><time>2026-04-16T11:12:30Z</time></trkpt><trkpt lat="45.52234128851039" lon="11.762851808720006"><ele>22.57142857142857</ele><time>2026-04-16T11:12:31Z</time></trkpt><trkpt lat="45.522395506188474" lon="11.762900478618489"><ele>22.42857142857143</ele><time>2026-04-16T11:12:32Z</time></trkpt><trkpt lat="45.52245333139763" lon="11.762951039694785"><ele>22.285714285714285</ele><time>2026-04-16T11:12:33Z</time></trkpt><trkpt lat="45.52250258600512" lon="11.763010527758103"><ele>22.142857142857142</ele><time>2026-04-16T11:12:34Z</time></trkpt><trkpt lat="45.52255598679866" lon="11.763067472199792"><ele>22.0</ele><time>2026-04-16T11:12:35Z</time></trkpt><trkpt lat="45.52261806374684" lon="11.763120066295018"><ele>22.0</ele><time>2026-04-16T11:12:36Z</time></trkpt><trkpt lat="45.5226767012003" lon="11.763168866640875"><ele>22.0</ele><time>2026-04-16T11:12:37Z</time></trkpt><trkpt lat="45.52273069169962" lon="11.763220208696437"><ele>22.0</ele><time>2026-04-16T11:12:38Z</time></trkpt><trkpt lat="45.52278418080845" lon="11.76327121767479"><ele>22.0</ele><time>2026-04-16T11:12:39Z</time></trkpt><trkpt lat="45.52288219618908" lon="11.76336714345915"><ele>22.0</ele><time>2026-04-16T11:12:41Z</time></trkpt><trkpt lat="45.52298059328252" lon="11.763467378458477"><ele>22.0</ele><time>2026-04-16T11:12:43Z</time></trkpt><trkpt lat="45.52303610351638" lon="11.763530052305695"><ele>22.333333333333332</ele><time>2026-04-16T11:12:44Z</time></trkpt><trkpt lat="45.523090279589915" lon="11.763588771861256"><ele>22.666666666666668</ele><time>2026-04-16T11:12:45Z</time></trkpt><trkpt lat="45.5231511832653" lon="11.763646051406278"><ele>23.0</ele><time>2026-04-16T11:12:46Z</time></trkpt><trkpt lat="45.525638415448235" lon="11.766030702327951"><ele>23.166666666666668</ele><time>2026-04-16T11:13:47Z</time></trkpt><trkpt lat="45.52569195581284" lon="11.766089137988297"><ele>23.333333333333336</ele><time>2026-04-16T11:13:48Z</time></trkpt><trkpt lat="45.52574637834265" lon="11.766139472394382"><ele>23.5</ele><time>2026-04-16T11:13:49Z</time></trkpt><trkpt lat="45.52580390015104" lon="11.766180860564711"><ele>23.666666666666668</ele><time>2026-04-16T11:13:50Z</time></trkpt><trkpt lat="45.525908009521345" lon="11.766285534805542"><ele>23.833333333333332</ele><time>2026-04-16T11:13:52Z</time></trkpt><trkpt lat="45.525962611249476" lon="11.76633628058403"><ele>24.0</ele><time>2026-04-16T11:13:53Z</time></trkpt><trkpt lat="45.526060524654675" lon="11.766418496304814"><ele>24.0</ele><time>2026-04-16T11:13:55Z</time></trkpt><trkpt lat="45.526152990567645" lon="11.766515552865881"><ele>24.0</ele><time>2026-04-16T11:13:57Z</time></trkpt><trkpt lat="45.526258188980435" lon="11.766603348269207"><ele>24.0</ele><time>2026-04-16T11:13:59Z</time></trkpt><trkpt lat="45.52635851997036" lon="11.76670275572386"><ele>24.0</ele><time>2026-04-16T11:14:01Z</time></trkpt><trkpt lat="45.52645200664345" lon="11.766800692943658"><ele>24.0</ele><time>2026-04-16T11:14:03Z</time></trkpt><trkpt lat="45.52650437342989" lon="11.766852407641583"><ele>24.0</ele><time>2026-04-16T11:14:04Z</time></trkpt><trkpt lat="45.52660507003478" lon="11.766936558435127"><ele>24.0</ele><time>2026-04-16T11:14:06Z</time></trkpt><trkpt lat="45.52670351167401" lon="11.767034583602767"><ele>24.0</ele><time>2026-04-16T11:14:08Z</time></trkpt><trkpt lat="45.526789865993905" lon="11.76712839303044"><ele>24.0</ele><time>2026-04-16T11:14:10Z</time></trkpt><trkpt lat="45.52686866859475" lon="11.767206322835973"><ele>24.0</ele><time>2026-04-16T11:14:12Z</time></trkpt><trkpt lat="45.52695599724027" lon="11.767288346649842"><ele>24.0</ele><time>2026-04-16T11:14:14Z</time></trkpt><trkpt lat="45.527048768292296" lon="11.76739332192494"><ele>24.0</ele><time>2026-04-16T11:14:16Z</time></trkpt><trkpt lat="45.527157072977616" lon="11.767484071356101"><ele>24.0</ele><time>2026-04-16T11:14:18Z</time></trkpt><trkpt lat="45.52726342304416" lon="11.767587826051589"><ele>24.0</ele><time>2026-04-16T11:14:20Z</time></trkpt><trkpt lat="45.52736536757413" lon="11.767691810491439"><ele>24.0</ele><time>2026-04-16T11:14:22Z</time></trkpt><trkpt lat="45.52746302993682" lon="11.76779959722544"><ele>24.0</ele><time>2026-04-16T11:14:24Z</time></trkpt><trkpt lat="45.5275627677014" lon="11.767918554931457"><ele>24.0</ele><time>2026-04-16T11:14:26Z</time></trkpt><trkpt lat="45.527618435209966" lon="11.767977061847475"><ele>24.0</ele><time>2026-04-16T11:14:27Z</time></trkpt><trkpt lat="45.527673735482246" lon="11.768039124203355"><ele>24.0</ele><time>2026-04-16T11:14:28Z</time></trkpt><trkpt lat="45.52772386455874" lon="11.768095579325148"><ele>24.0</ele><time>2026-04-16T11:14:29Z</time></trkpt><trkpt lat="45.52777810288857" lon="11.768157023812128"><ele>24.0</ele><time>2026-04-16T11:14:30Z</time></trkpt><trkpt lat="45.52782701113277" lon="11.76821681465429"><ele>24.0</ele><time>2026-04-16T11:14:31Z</time></trkpt><trkpt lat="45.52792118855081" lon="11.76832715199841"><ele>24.0</ele><time>2026-04-16T11:14:33Z</time></trkpt><trkpt lat="45.528010138501145" lon="11.768433368843029"><ele>24.0</ele><time>2026-04-16T11:14:35Z</time></trkpt><trkpt lat="45.52808981530529" lon="11.768536302054862"><ele>24.0</ele><time>2026-04-16T11:14:37Z</time></trkpt><trkpt lat="45.528160215064425" lon="11.768647009959764"><ele>24.0</ele><time>2026-04-16T11:14:39Z</time></trkpt><trkpt lat="45.52824620061354" lon="11.768752589129402"><ele>24.0</ele><time>2026-04-16T11:14:41Z</time></trkpt><trkpt lat="45.528335975138354" lon="11.768848828156212"><ele>24.0</ele><time>2026-04-16T11:14:43Z</time></trkpt><trkpt lat="45.52840356808481" lon="11.768964185561185"><ele>24.0</ele><time>2026-04-16T11:14:45Z</time></trkpt><trkpt lat="45.53025034591883" lon="11.772805277058463"><ele>24.0</ele><time>2026-04-16T11:15:47Z</time></trkpt><trkpt lat="45.53030630012917" lon="11.77296282653553"><ele>24.0</ele><time>2026-04-16T11:15:49Z</time></trkpt><trkpt lat="45.53035072062607" lon="11.773126486986426"><ele>24.0</ele><time>2026-04-16T11:15:51Z</time></trkpt><trkpt lat="45.53037796657779" lon="11.773209015482168"><ele>24.0</ele><time>2026-04-16T11:15:52Z</time></trkpt><trkpt lat="45.53039899560855" lon="11.773295501600668"><ele>24.0</ele><time>2026-04-16T11:15:53Z</time></trkpt><trkpt lat="45.530420950293625" lon="11.773381856862297"><ele>24.0</ele><time>2026-04-16T11:15:54Z</time></trkpt><trkpt lat="45.53044492372286" lon="11.7734670194034"><ele>24.0</ele><time>2026-04-16T11:15:55Z</time></trkpt><trkpt lat="45.530492273036074" lon="11.773631734440078"><ele>24.0</ele><time>2026-04-16T11:15:57Z</time></trkpt><trkpt lat="45.53052761100985" lon="11.773800374880055"><ele>24.0</ele><time>2026-04-16T11:15:59Z</time></trkpt><trkpt lat="45.53056872295691" lon="11.773963644405656"><ele>24.0</ele><time>2026-04-16T11:16:01Z</time></trkpt><trkpt lat="45.530606650510535" lon="11.774134715424129"><ele>24.0</ele><time>2026-04-16T11:16:03Z</time></trkpt><trkpt lat="45.53065137904273" lon="11.774290368392816"><ele>24.0</ele><time>2026-04-16T11:16:05Z</time></trkpt><trkpt lat="45.53067806533108" lon="11.774373696955207"><ele>24.0</ele><time>2026-04-16T11:16:06Z</time></trkpt><trkpt lat="45.53072518453006" lon="11.7745389160621"><ele>24.0</ele><time>2026-04-16T11:16:08Z</time></trkpt><trkpt lat="45.530768906915455" lon="11.774704190595171"><ele>24.0</ele><time>2026-04-16T11:16:10Z</time></trkpt><trkpt lat="45.53080935975664" lon="11.774867070883335"><ele>24.0</ele><time>2026-04-16T11:16:12Z</time></trkpt><trkpt lat="45.53085136931227" lon="11.775037676967822"><ele>24.0</ele><time>2026-04-16T11:16:14Z</time></trkpt><trkpt lat="45.53089072252907" lon="11.775197163484176"><ele>24.0</ele><time>2026-04-16T11:16:16Z</time></trkpt><trkpt lat="45.53092261845186" lon="11.775349895626682"><ele>24.0</ele><time>2026-04-16T11:16:18Z</time></trkpt><trkpt lat="45.53096021342393" lon="11.775489269669203"><ele>24.0</ele><time>2026-04-16T11:16:20Z</time></trkpt><trkpt lat="45.53099507854993" lon="11.77562575593698"><ele>24.0</ele><time>2026-04-16T11:16:22Z</time></trkpt><trkpt lat="45.53102455552769" lon="11.775759690163952"><ele>24.0</ele><time>2026-04-16T11:16:24Z</time></trkpt><trkpt lat="45.531074838929946" lon="11.775907254786"><ele>24.0</ele><time>2026-04-16T11:16:26Z</time></trkpt><trkpt lat="45.53109938999766" lon="11.776004462377688"><ele>24.0</ele><time>2026-04-16T11:16:27Z</time></trkpt><trkpt lat="45.53112955704313" lon="11.77608802596242"><ele>23.999999999999996</ele><time>2026-04-16T11:16:28Z</time></trkpt><trkpt lat="45.531148526131545" lon="11.776174689831945"><ele>24.0</ele><time>2026-04-16T11:16:29Z</time></trkpt><trkpt lat="45.53117220695727" lon="11.77626371339926"><ele>24.0</ele><time>2026-04-16T11:16:30Z</time></trkpt><trkpt lat="45.53119774131392" lon="11.776348894931193"><ele>24.0</ele><time>2026-04-16T11:16:31Z</time></trkpt><trkpt lat="45.53122102982937" lon="11.776442679651504"><ele>24.0</ele><time>2026-04-16T11:16:32Z</time></trkpt><trkpt lat="45.53125005021784" lon="11.776532681136674"><ele>23.999999999999996</ele><time>2026-04-16T11:16:33Z</time></trkpt><trkpt lat="45.531268168551655" lon="11.776630325521605"><ele>24.0</ele><time>2026-04-16T11:16:34Z</time></trkpt><trkpt lat="45.5312979117303" lon="11.776714455540796"><ele>24.166666666666668</ele><time>2026-04-16T11:16:35Z</time></trkpt><trkpt lat="45.531313659002244" lon="11.776807693848609"><ele>24.333333333333336</ele><time>2026-04-16T11:16:36Z</time></trkpt><trkpt lat="45.53135150443254" lon="11.776976366167032"><ele>24.5</ele><time>2026-04-16T11:16:38Z</time></trkpt><trkpt lat="45.53138545459165" lon="11.777144656584712"><ele>24.666666666666668</ele><time>2026-04-16T11:16:40Z</time></trkpt><trkpt lat="45.53141081907518" lon="11.777229932557661"><ele>24.833333333333336</ele><time>2026-04-16T11:16:41Z</time></trkpt><trkpt lat="45.531439673762364" lon="11.777313626293463"><ele>25.0</ele><time>2026-04-16T11:16:42Z</time></trkpt><trkpt lat="45.531465650941826" lon="11.777398260331747"><ele>25.0</ele><time>2026-04-16T11:16:43Z</time></trkpt><trkpt lat="45.531483078645266" lon="11.777489412640792"><ele>25.0</ele><time>2026-04-16T11:16:44Z</time></trkpt><trkpt lat="45.53150879213967" lon="11.777572242633534"><ele>25.0</ele><time>2026-04-16T11:16:45Z</time></trkpt><trkpt lat="45.53262131380032" lon="11.781829753994947"><ele>25.25</ele><time>2026-04-16T11:17:47Z</time></trkpt><trkpt lat="45.53266646141198" lon="11.78197439862102"><ele>25.5</ele><time>2026-04-16T11:17:49Z</time></trkpt><trkpt lat="45.5327119914449" lon="11.782123718454912"><ele>25.75</ele><time>2026-04-16T11:17:51Z</time></trkpt><trkpt lat="45.5327584278072" lon="11.782279438324844"><ele>26.0</ele><time>2026-04-16T11:17:53Z</time></trkpt><trkpt lat="45.53279799423933" lon="11.782438526044501"><ele>26.0</ele><time>2026-04-16T11:17:55Z</time></trkpt><trkpt lat="45.53284069893612" lon="11.782589550328566"><ele>26.0</ele><time>2026-04-16T11:17:57Z</time></trkpt><trkpt lat="45.53288617438041" lon="11.782740819539386"><ele>26.0</ele><time>2026-04-16T11:17:59Z</time></trkpt><trkpt lat="45.53292423738648" lon="11.782899792666448"><ele>26.0</ele><time>2026-04-16T11:18:01Z</time></trkpt><trkpt lat="45.53296919468119" lon="11.78306113529921"><ele>25.5</ele><time>2026-04-16T11:18:03Z</time></trkpt><trkpt lat="45.53301448520579" lon="11.783224767658176"><ele>25.0</ele><time>2026-04-16T11:18:05Z</time></trkpt><trkpt lat="45.53305545011174" lon="11.783377452160071"><ele>24.5</ele><time>2026-04-16T11:18:07Z</time></trkpt><trkpt lat="45.53309244454847" lon="11.783532618200583"><ele>24.0</ele><time>2026-04-16T11:18:09Z</time></trkpt><trkpt lat="45.53313057905037" lon="11.78369252417894"><ele>23.833333333333332</ele><time>2026-04-16T11:18:11Z</time></trkpt><trkpt lat="45.53316823491203" lon="11.78386073110066"><ele>23.666666666666668</ele><time>2026-04-16T11:18:13Z</time></trkpt><trkpt lat="45.53319354733518" lon="11.783943708518924"><ele>23.5</ele><time>2026-04-16T11:18:14Z</time></trkpt><trkpt lat="45.53321666723845" lon="11.784031889915125"><ele>23.333333333333336</ele><time>2026-04-16T11:18:15Z</time></trkpt><trkpt lat="45.53323934411942" lon="11.78411747588061"><ele>23.166666666666668</ele><time>2026-04-16T11:18:16Z</time></trkpt><trkpt lat="45.53326390704577" lon="11.784202205206123"><ele>23.0</ele><time>2026-04-16T11:18:17Z</time></trkpt><trkpt lat="45.53330111077094" lon="11.784367387986673"><ele>23.0</ele><time>2026-04-16T11:18:19Z</time></trkpt><trkpt lat="45.53334641434272" lon="11.784527076725986"><ele>23.0</ele><time>2026-04-16T11:18:21Z</time></trkpt><trkpt lat="45.533391162296915" lon="11.784688735132054"><ele>23.0</ele><time>2026-04-16T11:18:23Z</time></trkpt><trkpt lat="45.5334063962996" lon="11.784776213083113"><ele>23.0</ele><time>2026-04-16T11:18:24Z</time></trkpt><trkpt lat="45.53344227160567" lon="11.784945000981391"><ele>23.0</ele><time>2026-04-16T11:18:26Z</time></trkpt><trkpt lat="45.533462799778235" lon="11.785030953061995"><ele>23.0</ele><time>2026-04-16T11:18:27Z</time></trkpt><trkpt lat="45.53350226799042" lon="11.785201199199596"><ele>23.0</ele><time>2026-04-16T11:18:29Z</time></trkpt><trkpt lat="45.53352840167606" lon="11.785285905477277"><ele>23.0</ele><time>2026-04-16T11:18:30Z</time></trkpt><trkpt lat="45.533549755457486" lon="11.785371527583496"><ele>23.0</ele><time>2026-04-16T11:18:31Z</time></trkpt><trkpt lat="45.53358069231123" lon="11.785455754699818"><ele>23.0</ele><time>2026-04-16T11:18:32Z</time></trkpt><trkpt lat="45.53360290104187" lon="11.785544669158083"><ele>23.0</ele><time>2026-04-16T11:18:33Z</time></trkpt><trkpt lat="45.53364967891216" lon="11.785710623798156"><ele>23.0</ele><time>2026-04-16T11:18:35Z</time></trkpt><trkpt lat="45.5336864812045" lon="11.785867492166398"><ele>23.0</ele><time>2026-04-16T11:18:37Z</time></trkpt><trkpt lat="45.53372061679718" lon="11.786014166084996"><ele>23.0</ele><time>2026-04-16T11:18:39Z</time></trkpt><trkpt lat="45.53375222723231" lon="11.786173249445538"><ele>23.0</ele><time>2026-04-16T11:18:41Z</time></trkpt><trkpt lat="45.53376864098311" lon="11.786260230058572"><ele>23.0</ele><time>2026-04-16T11:18:42Z</time></trkpt><trkpt lat="45.5337868846298" lon="11.786350638462538"><ele>23.25</ele><time>2026-04-16T11:18:43Z</time></trkpt><trkpt lat="45.53380301270567" lon="11.786444732442636"><ele>23.5</ele><time>2026-04-16T11:18:44Z</time></trkpt><trkpt lat="45.53382367577237" lon="11.78653813950859"><ele>23.75</ele><time>2026-04-16T11:18:45Z</time></trkpt><trkpt lat="45.53384708217163" lon="11.786627082490261"><ele>24.0</ele><time>2026-04-16T11:18:46Z</time></trkpt><trkpt lat="45.534854507159416" lon="11.790951896646526"><ele>23.833333333333332</ele><time>2026-04-16T11:19:47Z</time></trkpt><trkpt lat="45.53487342223324" lon="11.791042944588469"><ele>23.666666666666668</ele><time>2026-04-16T11:19:48Z</time></trkpt><trkpt lat="45.534892849901176" lon="11.791133912510993"><ele>23.5</ele><time>2026-04-16T11:19:49Z</time></trkpt><trkpt lat="45.534911221640186" lon="11.791219935851037"><ele>23.333333333333336</ele><time>2026-04-16T11:19:50Z</time></trkpt><trkpt lat="45.53494921035012" lon="11.791391028923949"><ele>23.166666666666668</ele><time>2026-04-16T11:19:52Z</time></trkpt><trkpt lat="45.53497025932889" lon="11.791483307456508"><ele>23.0</ele><time>2026-04-16T11:19:53Z</time></trkpt><trkpt lat="45.53499215263783" lon="11.791572543472194"><ele>23.0</ele><time>2026-04-16T11:19:54Z</time></trkpt><trkpt lat="45.53501516107772" lon="11.791664241320518"><ele>23.0</ele><time>2026-04-16T11:19:55Z</time></trkpt><trkpt lat="45.53503824062491" lon="11.791752315853236"><ele>23.0</ele><time>2026-04-16T11:19:56Z</time></trkpt><trkpt lat="45.53506199937342" lon="11.79184298229804"><ele>23.0</ele><time>2026-04-16T11:19:57Z</time></trkpt><trkpt lat="45.53510487408909" lon="11.79200659775025"><ele>23.0</ele><time>2026-04-16T11:19:59Z</time></trkpt><trkpt lat="45.535127701577316" lon="11.79209371039347"><ele>23.0</ele><time>2026-04-16T11:20:00Z</time></trkpt><trkpt lat="45.535151458369604" lon="11.792184369369576"><ele>23.0</ele><time>2026-04-16T11:20:01Z</time></trkpt><trkpt lat="45.53517524160096" lon="11.7922761042349"><ele>23.0</ele><time>2026-04-16T11:20:02Z</time></trkpt><trkpt lat="45.53519825289638" lon="11.792366307592847"><ele>23.0</ele><time>2026-04-16T11:20:03Z</time></trkpt><trkpt lat="45.53521913945401" lon="11.79245766357896"><ele>23.0</ele><time>2026-04-16T11:20:04Z</time></trkpt><trkpt lat="45.535239813509214" lon="11.792548090090358"><ele>23.0</ele><time>2026-04-16T11:20:05Z</time></trkpt><trkpt lat="45.53525809343803" lon="11.792634536627068"><ele>23.0</ele><time>2026-04-16T11:20:06Z</time></trkpt><trkpt lat="45.535291664663454" lon="11.792809234057467"><ele>23.0</ele><time>2026-04-16T11:20:08Z</time></trkpt><trkpt lat="45.53530840691404" lon="11.792898202533879"><ele>23.0</ele><time>2026-04-16T11:20:09Z</time></trkpt><trkpt lat="45.53533671811741" lon="11.793064430106964"><ele>23.0</ele><time>2026-04-16T11:20:11Z</time></trkpt><trkpt lat="45.535330287884946" lon="11.793211398706907"><ele>23.0</ele><time>2026-04-16T11:20:13Z</time></trkpt><trkpt lat="45.53531302517427" lon="11.793353659517924"><ele>23.0</ele><time>2026-04-16T11:20:15Z</time></trkpt><trkpt lat="45.53530320122786" lon="11.793523122435467"><ele>21.5</ele><time>2026-04-16T11:20:17Z</time></trkpt><trkpt lat="45.53525761838894" lon="11.793602414461498"><ele>20.0</ele><time>2026-04-16T11:20:19Z</time></trkpt><trkpt lat="45.535651571273306" lon="11.793835803149529"><ele>20.0</ele><time>2026-04-16T11:20:20Z</time></trkpt><trkpt lat="45.53567625102001" lon="11.793926528148063"><ele>20.0</ele><time>2026-04-16T11:20:21Z</time></trkpt><trkpt lat="45.5357037785342" lon="11.794008712842"><ele>20.0</ele><time>2026-04-16T11:20:22Z</time></trkpt><trkpt lat="45.535744906071166" lon="11.794171147901855"><ele>20.0</ele><time>2026-04-16T11:20:24Z</time></trkpt><trkpt lat="45.53578413336404" lon="11.794323965164855"><ele>20.0</ele><time>2026-04-16T11:20:26Z</time></trkpt><trkpt lat="45.53582993862002" lon="11.79447450079628"><ele>20.0</ele><time>2026-04-16T11:20:28Z</time></trkpt><trkpt lat="45.53586371860885" lon="11.79462491363979"><ele>20.0</ele><time>2026-04-16T11:20:30Z</time></trkpt><trkpt lat="45.53590912728033" lon="11.794770670456224"><ele>20.0</ele><time>2026-04-16T11:20:32Z</time></trkpt><trkpt lat="45.53594545935963" lon="11.794926031637505"><ele>20.0</ele><time>2026-04-16T11:20:34Z</time></trkpt><trkpt lat="45.535989054839625" lon="11.795094793874734"><ele>20.0</ele><time>2026-04-16T11:20:36Z</time></trkpt><trkpt lat="45.536021637467385" lon="11.7951765250596"><ele>20.0</ele><time>2026-04-16T11:20:37Z</time></trkpt><trkpt lat="45.53606403946786" lon="11.79534578181439"><ele>20.0</ele><time>2026-04-16T11:20:39Z</time></trkpt><trkpt lat="45.53610079630924" lon="11.795520758502"><ele>20.0</ele><time>2026-04-16T11:20:41Z</time></trkpt><trkpt lat="45.53611984907768" lon="11.795607675000099"><ele>20.0</ele><time>2026-04-16T11:20:42Z</time></trkpt><trkpt lat="45.536146411882726" lon="11.795696388106919"><ele>20.0</ele><time>2026-04-16T11:20:43Z</time></trkpt><trkpt lat="45.536172567002716" lon="11.795783928217125"><ele>20.0</ele><time>2026-04-16T11:20:44Z</time></trkpt><trkpt lat="45.53621986366346" lon="11.795948473237694"><ele>20.0</ele><time>2026-04-16T11:20:46Z</time></trkpt><trkpt lat="45.537546300171485" lon="11.801101728991542"><ele>20.0</ele><time>2026-04-16T11:21:47Z</time></trkpt><trkpt lat="45.53756702313712" lon="11.80119837902606"><ele>20.0</ele><time>2026-04-16T11:21:48Z</time></trkpt><trkpt lat="45.53758984682116" lon="11.801297366898083"><ele>20.0</ele><time>2026-04-16T11:21:49Z</time></trkpt><trkpt lat="45.53760950204928" lon="11.801398370730606"><ele>20.0</ele><time>2026-04-16T11:21:50Z</time></trkpt><trkpt lat="45.537631281998046" lon="11.801497676532463"><ele>20.0</ele><time>2026-04-16T11:21:51Z</time></trkpt><trkpt lat="45.53765121361915" lon="11.801595277712764"><ele>20.0</ele><time>2026-04-16T11:21:52Z</time></trkpt><trkpt lat="45.53767787668082" lon="11.80169632920665"><ele>20.0</ele><time>2026-04-16T11:21:53Z</time></trkpt><trkpt lat="45.53769922512427" lon="11.801790317958057"><ele>20.0</ele><time>2026-04-16T11:21:54Z</time></trkpt><trkpt lat="45.537718294878644" lon="11.801886791537244"><ele>20.0</ele><time>2026-04-16T11:21:55Z</time></trkpt><trkpt lat="45.53773740923278" lon="11.80198022537021"><ele>20.0</ele><time>2026-04-16T11:21:56Z</time></trkpt><trkpt lat="45.537751469661" lon="11.802075776887229"><ele>20.0</ele><time>2026-04-16T11:21:57Z</time></trkpt><trkpt lat="45.53777038135368" lon="11.802167408726271"><ele>20.0</ele><time>2026-04-16T11:21:58Z</time></trkpt><trkpt lat="45.5378009278351" lon="11.802321199266228"><ele>20.0</ele><time>2026-04-16T11:22:00Z</time></trkpt><trkpt lat="45.53782920898249" lon="11.80247747338777"><ele>20.0</ele><time>2026-04-16T11:22:02Z</time></trkpt><trkpt lat="45.53785376188442" lon="11.80265115616608"><ele>20.0</ele><time>2026-04-16T11:22:04Z</time></trkpt><trkpt lat="45.53787194114915" lon="11.802752411132085"><ele>20.0</ele><time>2026-04-16T11:22:05Z</time></trkpt><trkpt lat="45.53788821900111" lon="11.802852439896238"><ele>20.0</ele><time>2026-04-16T11:22:06Z</time></trkpt><trkpt lat="45.537903272270405" lon="11.802950922998482"><ele>20.0</ele><time>2026-04-16T11:22:07Z</time></trkpt><trkpt lat="45.537916034546384" lon="11.803047704433444"><ele>20.0</ele><time>2026-04-16T11:22:08Z</time></trkpt><trkpt lat="45.53793005650107" lon="11.803145850709237"><ele>20.142857142857142</ele><time>2026-04-16T11:22:09Z</time></trkpt><trkpt lat="45.537938827328546" lon="11.803247240699347"><ele>20.285714285714285</ele><time>2026-04-16T11:22:10Z</time></trkpt><trkpt lat="45.53795851361651" lon="11.80333910227713"><ele>20.42857142857143</ele><time>2026-04-16T11:22:11Z</time></trkpt><trkpt lat="45.53797190748131" lon="11.803442083028317"><ele>20.57142857142857</ele><time>2026-04-16T11:22:12Z</time></trkpt><trkpt lat="45.53798752419427" lon="11.803540355827078"><ele>20.714285714285715</ele><time>2026-04-16T11:22:13Z</time></trkpt><trkpt lat="45.53800256204772" lon="11.803642525217185"><ele>20.857142857142858</ele><time>2026-04-16T11:22:14Z</time></trkpt><trkpt lat="45.53801524980849" lon="11.80373946784699"><ele>21.0</ele><time>2026-04-16T11:22:15Z</time></trkpt><trkpt lat="45.53802831590299" lon="11.803837110646327"><ele>21.0</ele><time>2026-04-16T11:22:16Z</time></trkpt><trkpt lat="45.538033775884074" lon="11.803942748569924"><ele>21.0</ele><time>2026-04-16T11:22:17Z</time></trkpt><trkpt lat="45.53804637896151" lon="11.804041377025534"><ele>21.0</ele><time>2026-04-16T11:22:18Z</time></trkpt><trkpt lat="45.538054942008124" lon="11.80414610934442"><ele>21.0</ele><time>2026-04-16T11:22:19Z</time></trkpt><trkpt lat="45.53806583549035" lon="11.804243992627155"><ele>21.0</ele><time>2026-04-16T11:22:20Z</time></trkpt><trkpt lat="45.53808248637698" lon="11.804345902651395"><ele>21.0</ele><time>2026-04-16T11:22:21Z</time></trkpt><trkpt lat="45.53809157092892" lon="11.804447500093607"><ele>21.0</ele><time>2026-04-16T11:22:22Z</time></trkpt><trkpt lat="45.538097680288594" lon="11.804554292649147"><ele>21.142857142857142</ele><time>2026-04-16T11:22:23Z</time></trkpt><trkpt lat="45.5381057346594" lon="11.80465968907215"><ele>21.285714285714285</ele><time>2026-04-16T11:22:24Z</time></trkpt><trkpt lat="45.53811554499782" lon="11.804768415768896"><ele>21.42857142857143</ele><time>2026-04-16T11:22:25Z</time></trkpt><trkpt lat="45.53813248184413" lon="11.80487009724196"><ele>21.57142857142857</ele><time>2026-04-16T11:22:26Z</time></trkpt><trkpt lat="45.53813744375414" lon="11.804972114529544"><ele>21.714285714285715</ele><time>2026-04-16T11:22:27Z</time></trkpt><trkpt lat="45.53814589160622" lon="11.805079431460411"><ele>21.857142857142858</ele><time>2026-04-16T11:22:28Z</time></trkpt><trkpt lat="45.53815527221306" lon="11.805182365009994"><ele>22.0</ele><time>2026-04-16T11:22:29Z</time></trkpt><trkpt lat="45.538165105176645" lon="11.80537305296083"><ele>22.0</ele><time>2026-04-16T11:22:31Z</time></trkpt><trkpt lat="45.53817407229562" lon="11.805462639003636"><ele>22.0</ele><time>2026-04-16T11:22:32Z</time></trkpt><trkpt lat="45.53817992716163" lon="11.805640989948044"><ele>22.0</ele><time>2026-04-16T11:22:34Z</time></trkpt><trkpt lat="45.538179928626704" lon="11.805736517109306"><ele>22.0</ele><time>2026-04-16T11:22:35Z</time></trkpt><trkpt lat="45.53818513795937" lon="11.8058381303114"><ele>22.0</ele><time>2026-04-16T11:22:36Z</time></trkpt><trkpt lat="45.5381952950745" lon="11.805934565917527"><ele>22.0</ele><time>2026-04-16T11:22:37Z</time></trkpt><trkpt lat="45.538195945407125" lon="11.80603549971979"><ele>21.833333333333332</ele><time>2026-04-16T11:22:38Z</time></trkpt><trkpt lat="45.53819597165545" lon="11.806134666284555"><ele>21.666666666666664</ele><time>2026-04-16T11:22:39Z</time></trkpt><trkpt lat="45.53819371211932" lon="11.806233677800714"><ele>21.5</ele><time>2026-04-16T11:22:40Z</time></trkpt><trkpt lat="45.53819415302674" lon="11.80633002639126"><ele>21.333333333333332</ele><time>2026-04-16T11:22:41Z</time></trkpt><trkpt lat="45.538193385161776" lon="11.806424893598747"><ele>21.166666666666668</ele><time>2026-04-16T11:22:42Z</time></trkpt><trkpt lat="45.53819658343756" lon="11.806600788479175"><ele>21.0</ele><time>2026-04-16T11:22:44Z</time></trkpt><trkpt lat="45.538192393528156" lon="11.806768752093928"><ele>20.0</ele><time>2026-04-16T11:22:46Z</time></trkpt><trkpt lat="45.53836516138898" lon="11.812738726701001"><ele>20.0</ele><time>2026-04-16T11:23:52Z</time></trkpt><trkpt lat="45.53836629701652" lon="11.812845744457652"><ele>20.0</ele><time>2026-04-16T11:23:53Z</time></trkpt><trkpt lat="45.538366278610205" lon="11.812947051808493"><ele>20.0</ele><time>2026-04-16T11:23:54Z</time></trkpt><trkpt lat="45.53836553815201" lon="11.813038011378097"><ele>20.0</ele><time>2026-04-16T11:23:55Z</time></trkpt><trkpt lat="45.53836617168159" lon="11.813195901182263"><ele>20.0</ele><time>2026-04-16T11:23:57Z</time></trkpt><trkpt lat="45.53836868505543" lon="11.813336174548965"><ele>20.0</ele><time>2026-04-16T11:23:59Z</time></trkpt><trkpt lat="45.53828136716128" lon="11.813481347736062"><ele>20.0</ele><time>2026-04-16T11:24:01Z</time></trkpt><trkpt lat="45.53828339089" lon="11.81362016249559"><ele>20.0</ele><time>2026-04-16T11:24:03Z</time></trkpt><trkpt lat="45.53838485866312" lon="11.813669864209706"><ele>20.0</ele><time>2026-04-16T11:24:04Z</time></trkpt><trkpt lat="45.53840345682622" lon="11.813756209837864"><ele>20.0</ele><time>2026-04-16T11:24:05Z</time></trkpt><trkpt lat="45.53842591577857" lon="11.813844941816594"><ele>20.0</ele><time>2026-04-16T11:24:06Z</time></trkpt><trkpt lat="45.538452479746574" lon="11.813940047042024"><ele>20.0</ele><time>2026-04-16T11:24:07Z</time></trkpt><trkpt lat="45.538479409144834" lon="11.81402772045769"><ele>20.0</ele><time>2026-04-16T11:24:08Z</time></trkpt><trkpt lat="45.53850834485712" lon="11.81412288149156"><ele>20.0</ele><time>2026-04-16T11:24:09Z</time></trkpt><trkpt lat="45.53853795044889" lon="11.814220245762463"><ele>20.0</ele><time>2026-04-16T11:24:10Z</time></trkpt><trkpt lat="45.53856671422266" lon="11.814314841444277"><ele>20.0</ele><time>2026-04-16T11:24:11Z</time></trkpt><trkpt lat="45.53859422626971" lon="11.814403460975978"><ele>20.0</ele><time>2026-04-16T11:24:12Z</time></trkpt><trkpt lat="45.53862415320282" lon="11.814499182050996"><ele>20.0</ele><time>2026-04-16T11:24:13Z</time></trkpt><trkpt lat="45.538651757176815" lon="11.814587472992919"><ele>20.0</ele><time>2026-04-16T11:24:14Z</time></trkpt><trkpt lat="45.538669412369984" lon="11.814680727957507"><ele>20.0</ele><time>2026-04-16T11:24:15Z</time></trkpt><trkpt lat="45.53868616632217" lon="11.814777247546516"><ele>20.0</ele><time>2026-04-16T11:24:16Z</time></trkpt><trkpt lat="45.53872348066956" lon="11.814858107242461"><ele>20.0</ele><time>2026-04-16T11:24:17Z</time></trkpt><trkpt lat="45.53876402816868" lon="11.81494420825075"><ele>20.0</ele><time>2026-04-16T11:24:18Z</time></trkpt><trkpt lat="45.5387926220504" lon="11.81503449700022"><ele>20.0</ele><time>2026-04-16T11:24:19Z</time></trkpt><trkpt lat="45.53879300855811" lon="11.815134803578822"><ele>20.0</ele><time>2026-04-16T11:24:20Z</time></trkpt><trkpt lat="45.53879314820957" lon="11.815242205991323"><ele>20.0</ele><time>2026-04-16T11:24:21Z</time></trkpt><trkpt lat="45.53878897336117" lon="11.815345722353689"><ele>20.0</ele><time>2026-04-16T11:24:22Z</time></trkpt><trkpt lat="45.538781586737905" lon="11.815449289273252"><ele>20.0</ele><time>2026-04-16T11:24:23Z</time></trkpt><trkpt lat="45.53877497557876" lon="11.815556792621292"><ele>20.0</ele><time>2026-04-16T11:24:24Z</time></trkpt><trkpt lat="45.53877645078611" lon="11.815652876745549"><ele>20.0</ele><time>2026-04-16T11:24:25Z</time></trkpt><trkpt lat="45.53831157394496" lon="11.816033861939264"><ele>19.8</ele><time>2026-04-16T11:24:26Z</time></trkpt><trkpt lat="45.53831812578611" lon="11.816140516128181"><ele>19.6</ele><time>2026-04-16T11:24:28Z</time></trkpt><trkpt lat="45.53830789100156" lon="11.816271546229865"><ele>19.4</ele><time>2026-04-16T11:24:31Z</time></trkpt><trkpt lat="45.53829750857738" lon="11.816408842407453"><ele>19.2</ele><time>2026-04-16T11:24:33Z</time></trkpt><trkpt lat="45.538303871464656" lon="11.816589174242392"><ele>19.0</ele><time>2026-04-16T11:24:35Z</time></trkpt><trkpt lat="45.5383107377672" lon="11.816679490165967"><ele>19.0</ele><time>2026-04-16T11:24:36Z</time></trkpt><trkpt lat="45.538310695125965" lon="11.816775253160646"><ele>19.0</ele><time>2026-04-16T11:24:37Z</time></trkpt><trkpt lat="45.53830789960547" lon="11.816871308544403"><ele>19.0</ele><time>2026-04-16T11:24:38Z</time></trkpt><trkpt lat="45.538309074992114" lon="11.816961208811033"><ele>19.0</ele><time>2026-04-16T11:24:39Z</time></trkpt><trkpt lat="45.53831545987438" lon="11.817059680498568"><ele>19.0</ele><time>2026-04-16T11:24:40Z</time></trkpt><trkpt lat="45.538316507628075" lon="11.817154046916556"><ele>19.0</ele><time>2026-04-16T11:24:41Z</time></trkpt><trkpt lat="45.53831859524795" lon="11.817249082993143"><ele>19.0</ele><time>2026-04-16T11:24:42Z</time></trkpt><trkpt lat="45.53831505002067" lon="11.817340926311836"><ele>19.5</ele><time>2026-04-16T11:24:43Z</time></trkpt><trkpt lat="45.53831553728472" lon="11.817511446447428"><ele>20.0</ele><time>2026-04-16T11:24:45Z</time></trkpt><trkpt lat="45.538659260349405" lon="11.823168639674096"><ele>20.5</ele><time>2026-04-16T11:25:50Z</time></trkpt><trkpt lat="45.53868294243073" lon="11.823296877044859"><ele>21.0</ele><time>2026-04-16T11:25:52Z</time></trkpt><trkpt lat="45.53870588692521" lon="11.823421120394324"><ele>21.5</ele><time>2026-04-16T11:25:54Z</time></trkpt><trkpt lat="45.53872537457691" lon="11.82352664509628"><ele>22.0</ele><time>2026-04-16T11:25:56Z</time></trkpt><trkpt lat="45.53874313750759" lon="11.82363188972472"><ele>22.5</ele><time>2026-04-16T11:25:58Z</time></trkpt><trkpt lat="45.53873258485471" lon="11.823721285794283"><ele>23.0</ele><time>2026-04-16T11:26:00Z</time></trkpt><trkpt lat="45.538741040173676" lon="11.82381488560481"><ele>23.0</ele><time>2026-04-16T11:26:08Z</time></trkpt><trkpt lat="45.53881805631312" lon="11.82380089403356"><ele>23.0</ele><time>2026-04-16T11:26:11Z</time></trkpt><trkpt lat="45.53883388888447" lon="11.823930063455995"><ele>23.0</ele><time>2026-04-16T11:26:14Z</time></trkpt><trkpt lat="45.538864023253595" lon="11.824052408042178"><ele>23.0</ele><time>2026-04-16T11:26:16Z</time></trkpt><trkpt lat="45.53888177156019" lon="11.824204255375685"><ele>23.0</ele><time>2026-04-16T11:26:18Z</time></trkpt><trkpt lat="45.53884042414289" lon="11.824377529724607"><ele>23.0</ele><time>2026-04-16T11:26:20Z</time></trkpt><trkpt lat="45.53885149376936" lon="11.824502614052141"><ele>23.0</ele><time>2026-04-16T11:26:22Z</time></trkpt><trkpt lat="45.53885294618022" lon="11.82464105787393"><ele>23.0</ele><time>2026-04-16T11:26:24Z</time></trkpt><trkpt lat="45.53883816687" lon="11.824772186865518"><ele>23.0</ele><time>2026-04-16T11:26:26Z</time></trkpt><trkpt lat="45.53880800146551" lon="11.824889848171251"><ele>23.0</ele><time>2026-04-16T11:26:28Z</time></trkpt><trkpt lat="45.538739366267684" lon="11.825118662529944"><ele>23.333333333333336</ele><time>2026-04-16T11:26:29Z</time></trkpt><trkpt lat="45.53877517819375" lon="11.825290592842615"><ele>23.666666666666668</ele><time>2026-04-16T11:26:31Z</time></trkpt><trkpt lat="45.53881197568509" lon="11.825460978077317"><ele>24.0</ele><time>2026-04-16T11:26:33Z</time></trkpt><trkpt lat="45.53883212693239" lon="11.825554285317986"><ele>24.333333333333336</ele><time>2026-04-16T11:26:34Z</time></trkpt><trkpt lat="45.538851080202896" lon="11.825642045517242"><ele>24.666666666666668</ele><time>2026-04-16T11:26:35Z</time></trkpt><trkpt lat="45.53887005973968" lon="11.825729927365044"><ele>25.0</ele><time>2026-04-16T11:26:36Z</time></trkpt><trkpt lat="45.538905025572795" lon="11.825891831276257"><ele>24.8</ele><time>2026-04-16T11:26:38Z</time></trkpt><trkpt lat="45.53893972588718" lon="11.826052505733863"><ele>24.6</ele><time>2026-04-16T11:26:40Z</time></trkpt><trkpt lat="45.53897763995353" lon="11.826222515673265"><ele>24.4</ele><time>2026-04-16T11:26:42Z</time></trkpt><trkpt lat="45.53901770985608" lon="11.826397958207869"><ele>24.2</ele><time>2026-04-16T11:26:44Z</time></trkpt><trkpt lat="45.539038415613575" lon="11.826488158517177"><ele>24.0</ele><time>2026-04-16T11:26:45Z</time></trkpt><trkpt lat="45.53905936990108" lon="11.826578898446021"><ele>22.0</ele><time>2026-04-16T11:26:46Z</time></trkpt><trkpt lat="45.53948552405364" lon="11.827316620082017"><ele>22.0</ele><time>2026-04-16T11:26:56Z</time></trkpt><trkpt lat="45.539523650481826" lon="11.827482480220175"><ele>22.0</ele><time>2026-04-16T11:26:58Z</time></trkpt><trkpt lat="45.539549730809654" lon="11.827571763408168"><ele>22.0</ele><time>2026-04-16T11:26:59Z</time></trkpt><trkpt lat="45.53959827620804" lon="11.827739178545162"><ele>22.0</ele><time>2026-04-16T11:27:01Z</time></trkpt><trkpt lat="45.5396284915993" lon="11.82782233566581"><ele>22.0</ele><time>2026-04-16T11:27:02Z</time></trkpt><trkpt lat="45.5396779866711" lon="11.82798358476952"><ele>22.0</ele><time>2026-04-16T11:27:04Z</time></trkpt><trkpt lat="45.53970033291757" lon="11.828071337884076"><ele>22.0</ele><time>2026-04-16T11:27:05Z</time></trkpt><trkpt lat="45.53972524519637" lon="11.82815956380494"><ele>22.0</ele><time>2026-04-16T11:27:06Z</time></trkpt><trkpt lat="45.539747528310556" lon="11.828246148972042"><ele>22.0</ele><time>2026-04-16T11:27:07Z</time></trkpt><trkpt lat="45.539772398054886" lon="11.828331683743949"><ele>22.0</ele><time>2026-04-16T11:27:08Z</time></trkpt><trkpt lat="45.53982511147316" lon="11.828478904257905"><ele>22.0</ele><time>2026-04-16T11:27:10Z</time></trkpt><trkpt lat="45.53986041589499" lon="11.828634125601535"><ele>22.0</ele><time>2026-04-16T11:27:12Z</time></trkpt><trkpt lat="45.53991163819269" lon="11.8287940711186"><ele>22.0</ele><time>2026-04-16T11:27:14Z</time></trkpt><trkpt lat="45.5399603054019" lon="11.828935276694999"><ele>22.0</ele><time>2026-04-16T11:27:16Z</time></trkpt><trkpt lat="45.54000990275153" lon="11.82906392263264"><ele>22.0</ele><time>2026-04-16T11:27:18Z</time></trkpt><trkpt lat="45.540050769539704" lon="11.829220288869628"><ele>21.8</ele><time>2026-04-16T11:27:20Z</time></trkpt><trkpt lat="45.54011110975446" lon="11.829359168833728"><ele>21.6</ele><time>2026-04-16T11:27:22Z</time></trkpt><trkpt lat="45.54015398019205" lon="11.829502466440776"><ele>21.400000000000002</ele><time>2026-04-16T11:27:24Z</time></trkpt><trkpt lat="45.540196228646835" lon="11.829642731498401"><ele>21.200000000000003</ele><time>2026-04-16T11:27:26Z</time></trkpt><trkpt lat="45.54025250654514" lon="11.8297584904607"><ele>21.0</ele><time>2026-04-16T11:27:28Z</time></trkpt><trkpt lat="45.540297336718154" lon="11.829908561395953"><ele>21.0</ele><time>2026-04-16T11:27:30Z</time></trkpt><trkpt lat="45.5403263719097" lon="11.829994038039676"><ele>21.0</ele><time>2026-04-16T11:27:31Z</time></trkpt><trkpt lat="45.540354102090966" lon="11.830080087978502"><ele>21.0</ele><time>2026-04-16T11:27:32Z</time></trkpt><trkpt lat="45.5403809116999" lon="11.830166687833234"><ele>21.0</ele><time>2026-04-16T11:27:33Z</time></trkpt><trkpt lat="45.540406025955285" lon="11.830255150979673"><ele>21.0</ele><time>2026-04-16T11:27:34Z</time></trkpt><trkpt lat="45.540433904841436" lon="11.83034413454418"><ele>21.0</ele><time>2026-04-16T11:27:35Z</time></trkpt><trkpt lat="45.540461584155764" lon="11.83042570761264"><ele>21.0</ele><time>2026-04-16T11:27:36Z</time></trkpt><trkpt lat="45.5405131807375" lon="11.830568716344999"><ele>20.666666666666668</ele><time>2026-04-16T11:27:38Z</time></trkpt><trkpt lat="45.540559849068266" lon="11.830721697494141"><ele>20.333333333333332</ele><time>2026-04-16T11:27:40Z</time></trkpt><trkpt lat="45.540590421068174" lon="11.830807191856639"><ele>20.0</ele><time>2026-04-16T11:27:41Z</time></trkpt><trkpt lat="45.540620177042555" lon="11.830894024701188"><ele>19.666666666666664</ele><time>2026-04-16T11:27:42Z</time></trkpt><trkpt lat="45.5406493630087" lon="11.830973828820841"><ele>19.333333333333332</ele><time>2026-04-16T11:27:43Z</time></trkpt><trkpt lat="45.54067809361992" lon="11.831056081012816"><ele>19.0</ele><time>2026-04-16T11:27:44Z</time></trkpt><trkpt lat="45.54073057668449" lon="11.831208724362128"><ele>20.0</ele><time>2026-04-16T11:27:46Z</time></trkpt><trkpt lat="45.542090250403426" lon="11.835373288295106"><ele>20.0</ele><time>2026-04-16T11:28:47Z</time></trkpt><trkpt lat="45.54214569443647" lon="11.83552646027316"><ele>20.0</ele><time>2026-04-16T11:28:49Z</time></trkpt><trkpt lat="45.54217838284238" lon="11.83560627787631"><ele>20.0</ele><time>2026-04-16T11:28:50Z</time></trkpt><trkpt lat="45.54222908919024" lon="11.835759789103383"><ele>20.0</ele><time>2026-04-16T11:28:52Z</time></trkpt><trkpt lat="45.54228774614032" lon="11.835920505557235"><ele>20.0</ele><time>2026-04-16T11:28:54Z</time></trkpt><trkpt lat="45.54234621072566" lon="11.836078826828896"><ele>20.25</ele><time>2026-04-16T11:28:56Z</time></trkpt><trkpt lat="45.542402911636216" lon="11.83623111102108"><ele>20.5</ele><time>2026-04-16T11:28:58Z</time></trkpt><trkpt lat="45.54245543954984" lon="11.836390078593507"><ele>20.75</ele><time>2026-04-16T11:29:00Z</time></trkpt><trkpt lat="45.54251400483994" lon="11.836549271467222"><ele>21.0</ele><time>2026-04-16T11:29:02Z</time></trkpt><trkpt lat="45.54256075466929" lon="11.836697404069023"><ele>21.0</ele><time>2026-04-16T11:29:04Z</time></trkpt><trkpt lat="45.542600749327036" lon="11.836842154459026"><ele>21.0</ele><time>2026-04-16T11:29:06Z</time></trkpt><trkpt lat="45.5426504434868" lon="11.836988066179144"><ele>21.0</ele><time>2026-04-16T11:29:08Z</time></trkpt><trkpt lat="45.542693382330675" lon="11.837149016450915"><ele>21.0</ele><time>2026-04-16T11:29:10Z</time></trkpt><trkpt lat="45.54273460520264" lon="11.837306879718081"><ele>21.0</ele><time>2026-04-16T11:29:12Z</time></trkpt><trkpt lat="45.542781573530746" lon="11.837438712676661"><ele>21.0</ele><time>2026-04-16T11:29:14Z</time></trkpt><trkpt lat="45.542826531531524" lon="11.837582158957261"><ele>21.0</ele><time>2026-04-16T11:29:16Z</time></trkpt><trkpt lat="45.54286554920752" lon="11.837723921090301"><ele>21.0</ele><time>2026-04-16T11:29:18Z</time></trkpt><trkpt lat="45.54290839208517" lon="11.837841115076378"><ele>21.0</ele><time>2026-04-16T11:29:20Z</time></trkpt><trkpt lat="45.542944977077646" lon="11.837946195205907"><ele>21.0</ele><time>2026-04-16T11:29:22Z</time></trkpt><trkpt lat="45.542973332608895" lon="11.838053379074326"><ele>21.0</ele><time>2026-04-16T11:29:24Z</time></trkpt><trkpt lat="45.542995960592904" lon="11.83816704172158"><ele>21.0</ele><time>2026-04-16T11:29:26Z</time></trkpt><trkpt lat="45.54302871628828" lon="11.8382446089778"><ele>21.0</ele><time>2026-04-16T11:29:29Z</time></trkpt><trkpt lat="45.543080421809435" lon="11.83835574143324"><ele>21.0</ele><time>2026-04-16T11:29:32Z</time></trkpt><trkpt lat="45.543090147049035" lon="11.838484381254853"><ele>21.0</ele><time>2026-04-16T11:29:34Z</time></trkpt><trkpt lat="45.54314221993501" lon="11.838615634461691"><ele>21.0</ele><time>2026-04-16T11:29:36Z</time></trkpt><trkpt lat="45.543194027211754" lon="11.838771299973518"><ele>21.0</ele><time>2026-04-16T11:29:38Z</time></trkpt><trkpt lat="45.54323946329773" lon="11.83891772942214"><ele>21.0</ele><time>2026-04-16T11:29:40Z</time></trkpt><trkpt lat="45.54329035700102" lon="11.839068726381925"><ele>21.0</ele><time>2026-04-16T11:29:42Z</time></trkpt><trkpt lat="45.54334336797516" lon="11.839230716954516"><ele>21.0</ele><time>2026-04-16T11:29:44Z</time></trkpt><trkpt lat="45.543372894486374" lon="11.83931178621341"><ele>21.0</ele><time>2026-04-16T11:29:45Z</time></trkpt><trkpt lat="45.544960139539974" lon="11.844028089773131"><ele>21.0</ele><time>2026-04-16T11:30:47Z</time></trkpt><trkpt lat="45.54501884776878" lon="11.844181013795536"><ele>21.0</ele><time>2026-04-16T11:30:49Z</time></trkpt><trkpt lat="45.54507147166342" lon="11.84433983607562"><ele>21.0</ele><time>2026-04-16T11:30:51Z</time></trkpt><trkpt lat="45.545131507021274" lon="11.844500868439795"><ele>21.0</ele><time>2026-04-16T11:30:53Z</time></trkpt><trkpt lat="45.54517606172719" lon="11.844646932880304"><ele>21.0</ele><time>2026-04-16T11:30:55Z</time></trkpt><trkpt lat="45.545223315732024" lon="11.844807197477346"><ele>21.0</ele><time>2026-04-16T11:30:57Z</time></trkpt><trkpt lat="45.5452689534688" lon="11.844965851164062"><ele>21.0</ele><time>2026-04-16T11:30:59Z</time></trkpt><trkpt lat="45.54529385092507" lon="11.84505113637553"><ele>21.0</ele><time>2026-04-16T11:31:00Z</time></trkpt><trkpt lat="45.545331769298464" lon="11.845126527118623"><ele>21.0</ele><time>2026-04-16T11:31:01Z</time></trkpt><trkpt lat="45.54535834583209" lon="11.845212527562264"><ele>21.0</ele><time>2026-04-16T11:31:02Z</time></trkpt><trkpt lat="45.54540490605286" lon="11.845373797911543"><ele>21.4</ele><time>2026-04-16T11:31:04Z</time></trkpt><trkpt lat="45.545448770651674" lon="11.845532602622008"><ele>21.8</ele><time>2026-04-16T11:31:06Z</time></trkpt><trkpt lat="45.545487356065244" lon="11.845705421782935"><ele>22.2</ele><time>2026-04-16T11:31:08Z</time></trkpt><trkpt lat="45.545529715760004" lon="11.845869816946973"><ele>22.599999999999998</ele><time>2026-04-16T11:31:10Z</time></trkpt><trkpt lat="45.54555109731658" lon="11.84595596019488"><ele>23.0</ele><time>2026-04-16T11:31:11Z</time></trkpt><trkpt lat="45.545591752951665" lon="11.846119113942576"><ele>23.0</ele><time>2026-04-16T11:31:13Z</time></trkpt><trkpt lat="45.54563137486775" lon="11.846283070956792"><ele>23.0</ele><time>2026-04-16T11:31:15Z</time></trkpt><trkpt lat="45.54565824757231" lon="11.846444207074473"><ele>23.0</ele><time>2026-04-16T11:31:17Z</time></trkpt><trkpt lat="45.545690468742706" lon="11.846610880287615"><ele>23.0</ele><time>2026-04-16T11:31:19Z</time></trkpt><trkpt lat="45.545723054337714" lon="11.846760572807753"><ele>23.4</ele><time>2026-04-16T11:31:21Z</time></trkpt><trkpt lat="45.545756642021104" lon="11.8469118748877"><ele>23.799999999999997</ele><time>2026-04-16T11:31:23Z</time></trkpt><trkpt lat="45.545784446040805" lon="11.847061113806438"><ele>24.2</ele><time>2026-04-16T11:31:25Z</time></trkpt><trkpt lat="45.54581439595915" lon="11.847210489122444"><ele>24.6</ele><time>2026-04-16T11:31:27Z</time></trkpt><trkpt lat="45.545841565359474" lon="11.847346470625284"><ele>25.0</ele><time>2026-04-16T11:31:29Z</time></trkpt><trkpt lat="45.54584917611491" lon="11.847481133655592"><ele>25.000000000000004</ele><time>2026-04-16T11:31:31Z</time></trkpt><trkpt lat="45.545810332238844" lon="11.847595464528638"><ele>25.0</ele><time>2026-04-16T11:31:33Z</time></trkpt><trkpt lat="45.5457276372804" lon="11.847619899794548"><ele>25.0</ele><time>2026-04-16T11:31:35Z</time></trkpt><trkpt lat="45.54567188825958" lon="11.847710940591371"><ele>25.0</ele><time>2026-04-16T11:31:37Z</time></trkpt><trkpt lat="45.54562467887396" lon="11.847820777687634"><ele>25.000000000000004</ele><time>2026-04-16T11:31:39Z</time></trkpt><trkpt lat="45.54557006679033" lon="11.847920181209233"><ele>25.0</ele><time>2026-04-16T11:31:41Z</time></trkpt><trkpt lat="45.54550388247204" lon="11.847991838710222"><ele>24.5</ele><time>2026-04-16T11:31:43Z</time></trkpt><trkpt lat="45.5454202115518" lon="11.84802868796758"><ele>24.0</ele><time>2026-04-16T11:31:46Z</time></trkpt><trkpt lat="45.54655131059647" lon="11.8515537291497"><ele>24.0</ele><time>2026-04-16T11:32:47Z</time></trkpt><trkpt lat="45.546581601799" lon="11.851723067705523"><ele>24.0</ele><time>2026-04-16T11:32:49Z</time></trkpt><trkpt lat="45.54660473216656" lon="11.85188847463152"><ele>24.0</ele><time>2026-04-16T11:32:51Z</time></trkpt><trkpt lat="45.54663739769812" lon="11.852033040528317"><ele>24.0</ele><time>2026-04-16T11:32:53Z</time></trkpt><trkpt lat="45.54666865218093" lon="11.852175793011694"><ele>24.0</ele><time>2026-04-16T11:32:55Z</time></trkpt><trkpt lat="45.54669001730782" lon="11.852317778039064"><ele>24.0</ele><time>2026-04-16T11:32:57Z</time></trkpt><trkpt lat="45.54671814526141" lon="11.852453042850147"><ele>24.0</ele><time>2026-04-16T11:32:59Z</time></trkpt><trkpt lat="45.54674064158203" lon="11.852581516245062"><ele>24.0</ele><time>2026-04-16T11:33:01Z</time></trkpt><trkpt lat="45.54676970764826" lon="11.85270352675885"><ele>24.0</ele><time>2026-04-16T11:33:03Z</time></trkpt><trkpt lat="45.54679755578019" lon="11.852821201466526"><ele>24.0</ele><time>2026-04-16T11:33:05Z</time></trkpt><trkpt lat="45.54682379879919" lon="11.85298867414069"><ele>24.0</ele><time>2026-04-16T11:33:07Z</time></trkpt><trkpt lat="45.54683581289168" lon="11.85308065514432"><ele>24.0</ele><time>2026-04-16T11:33:08Z</time></trkpt><trkpt lat="45.546848151190254" lon="11.853258218857889"><ele>24.0</ele><time>2026-04-16T11:33:10Z</time></trkpt><trkpt lat="45.54686572244938" lon="11.853349997067207"><ele>24.0</ele><time>2026-04-16T11:33:11Z</time></trkpt><trkpt lat="45.54687698084873" lon="11.853441473208461"><ele>24.0</ele><time>2026-04-16T11:33:12Z</time></trkpt><trkpt lat="45.54690779384601" lon="11.853610316120683"><ele>24.0</ele><time>2026-04-16T11:33:14Z</time></trkpt><trkpt lat="45.54693622350413" lon="11.853788233083685"><ele>24.0</ele><time>2026-04-16T11:33:16Z</time></trkpt><trkpt lat="45.546961075875394" lon="11.853968740246344"><ele>24.0</ele><time>2026-04-16T11:33:18Z</time></trkpt><trkpt lat="45.54699018873757" lon="11.854141696781323"><ele>24.0</ele><time>2026-04-16T11:33:20Z</time></trkpt><trkpt lat="45.54700714443178" lon="11.854239575686055"><ele>23.799999999999997</ele><time>2026-04-16T11:33:21Z</time></trkpt><trkpt lat="45.547033171147554" lon="11.854422211312277"><ele>23.599999999999998</ele><time>2026-04-16T11:33:23Z</time></trkpt><trkpt lat="45.547052970218154" lon="11.85457400351951"><ele>23.4</ele><time>2026-04-16T11:33:25Z</time></trkpt><trkpt lat="45.54707553819428" lon="11.854744090282654"><ele>23.2</ele><time>2026-04-16T11:33:27Z</time></trkpt><trkpt lat="45.54709665984421" lon="11.854837298224812"><ele>23.0</ele><time>2026-04-16T11:33:28Z</time></trkpt><trkpt lat="45.54711199281988" lon="11.854927514283975"><ele>22.5</ele><time>2026-04-16T11:33:29Z</time></trkpt><trkpt lat="45.5471401147223" lon="11.855096821088003"><ele>22.0</ele><time>2026-04-16T11:33:31Z</time></trkpt><trkpt lat="45.54717151984824" lon="11.855273321753787"><ele>21.5</ele><time>2026-04-16T11:33:33Z</time></trkpt><trkpt lat="45.54720494428856" lon="11.855444043960635"><ele>21.0</ele><time>2026-04-16T11:33:35Z</time></trkpt><trkpt lat="45.547228200748094" lon="11.855615777579148"><ele>21.0</ele><time>2026-04-16T11:33:37Z</time></trkpt><trkpt lat="45.54723963935547" lon="11.855706221063256"><ele>21.0</ele><time>2026-04-16T11:33:38Z</time></trkpt><trkpt lat="45.547258397670156" lon="11.855881360104691"><ele>21.0</ele><time>2026-04-16T11:33:40Z</time></trkpt><trkpt lat="45.5472684568796" lon="11.855970392988327"><ele>21.0</ele><time>2026-04-16T11:33:41Z</time></trkpt><trkpt lat="45.547294051695864" lon="11.856141998698066"><ele>21.0</ele><time>2026-04-16T11:33:43Z</time></trkpt><trkpt lat="45.547313809885395" lon="11.85623715815191"><ele>21.0</ele><time>2026-04-16T11:33:44Z</time></trkpt><trkpt lat="45.547338450546086" lon="11.85632004203841"><ele>21.0</ele><time>2026-04-16T11:33:45Z</time></trkpt><trkpt lat="45.547354525130054" lon="11.856409139704054"><ele>21.0</ele><time>2026-04-16T11:33:46Z</time></trkpt><trkpt lat="45.548323667001064" lon="11.861866235446954"><ele>21.4</ele><time>2026-04-16T11:34:47Z</time></trkpt><trkpt lat="45.548344807799644" lon="11.8619528198674"><ele>21.8</ele><time>2026-04-16T11:34:48Z</time></trkpt><trkpt lat="45.548358872753965" lon="11.862041954603948"><ele>22.2</ele><time>2026-04-16T11:34:49Z</time></trkpt><trkpt lat="45.548392149192615" lon="11.862215471049637"><ele>22.599999999999998</ele><time>2026-04-16T11:34:51Z</time></trkpt><trkpt lat="45.54841584549723" lon="11.862399600158316"><ele>23.0</ele><time>2026-04-16T11:34:53Z</time></trkpt><trkpt lat="45.54843142199034" lon="11.862495142878203"><ele>23.0</ele><time>2026-04-16T11:34:54Z</time></trkpt><trkpt lat="45.54844195312548" lon="11.862597052763142"><ele>23.0</ele><time>2026-04-16T11:34:55Z</time></trkpt><trkpt lat="45.548453395389274" lon="11.86269559026513"><ele>23.0</ele><time>2026-04-16T11:34:56Z</time></trkpt><trkpt lat="45.54846971401919" lon="11.86279526164147"><ele>23.0</ele><time>2026-04-16T11:34:57Z</time></trkpt><trkpt lat="45.548483631340886" lon="11.862897220041015"><ele>23.0</ele><time>2026-04-16T11:34:58Z</time></trkpt><trkpt lat="45.54849615593693" lon="11.862993397894897"><ele>23.0</ele><time>2026-04-16T11:34:59Z</time></trkpt><trkpt lat="45.54851235937264" lon="11.863096386599292"><ele>23.0</ele><time>2026-04-16T11:35:00Z</time></trkpt><trkpt lat="45.54852559954454" lon="11.863194519066575"><ele>23.0</ele><time>2026-04-16T11:35:01Z</time></trkpt><trkpt lat="45.54853867588331" lon="11.863293741005858"><ele>23.0</ele><time>2026-04-16T11:35:02Z</time></trkpt><trkpt lat="45.54855088544512" lon="11.863391304174934"><ele>23.0</ele><time>2026-04-16T11:35:03Z</time></trkpt><trkpt lat="45.54856845832244" lon="11.863486769419433"><ele>23.0</ele><time>2026-04-16T11:35:04Z</time></trkpt><trkpt lat="45.548582504649175" lon="11.863584305419591"><ele>23.0</ele><time>2026-04-16T11:35:05Z</time></trkpt><trkpt lat="45.54859553532626" lon="11.863684767910613"><ele>23.0</ele><time>2026-04-16T11:35:06Z</time></trkpt><trkpt lat="45.54861239370037" lon="11.86378418878628"><ele>23.0</ele><time>2026-04-16T11:35:07Z</time></trkpt><trkpt lat="45.54862315168728" lon="11.863889950236086"><ele>22.833333333333336</ele><time>2026-04-16T11:35:08Z</time></trkpt><trkpt lat="45.548632397713185" lon="11.863995152347794"><ele>22.666666666666668</ele><time>2026-04-16T11:35:09Z</time></trkpt><trkpt lat="45.54865357887019" lon="11.864101552450753"><ele>22.5</ele><time>2026-04-16T11:35:10Z</time></trkpt><trkpt lat="45.54866622945326" lon="11.86420342693764"><ele>22.333333333333332</ele><time>2026-04-16T11:35:11Z</time></trkpt><trkpt lat="45.54868630827408" lon="11.864295192277298"><ele>22.166666666666664</ele><time>2026-04-16T11:35:12Z</time></trkpt><trkpt lat="45.548702784306116" lon="11.86438807077916"><ele>22.0</ele><time>2026-04-16T11:35:13Z</time></trkpt><trkpt lat="45.54872689682107" lon="11.86456170282981"><ele>22.285714285714285</ele><time>2026-04-16T11:35:15Z</time></trkpt><trkpt lat="45.548738849354415" lon="11.864653388731881"><ele>22.57142857142857</ele><time>2026-04-16T11:35:16Z</time></trkpt><trkpt lat="45.548755804044454" lon="11.864746400434647"><ele>22.857142857142854</ele><time>2026-04-16T11:35:17Z</time></trkpt><trkpt lat="45.548774771354225" lon="11.864840265738847"><ele>23.142857142857142</ele><time>2026-04-16T11:35:18Z</time></trkpt><trkpt lat="45.548790195538984" lon="11.864938124082565"><ele>23.428571428571427</ele><time>2026-04-16T11:35:19Z</time></trkpt><trkpt lat="45.54880730049126" lon="11.865031993885179"><ele>23.71428571428571</ele><time>2026-04-16T11:35:20Z</time></trkpt><trkpt lat="45.54882544973394" lon="11.865126566943578"><ele>24.0</ele><time>2026-04-16T11:35:21Z</time></trkpt><trkpt lat="45.548840260284926" lon="11.865214597967231"><ele>24.0</ele><time>2026-04-16T11:35:22Z</time></trkpt><trkpt lat="45.548740694404415" lon="11.865391960370783"><ele>24.0</ele><time>2026-04-16T11:35:23Z</time></trkpt><trkpt lat="45.54878629976127" lon="11.86552652522837"><ele>24.0</ele><time>2026-04-16T11:35:25Z</time></trkpt><trkpt lat="45.54881370906991" lon="11.865673753123348"><ele>24.0</ele><time>2026-04-16T11:35:27Z</time></trkpt><trkpt lat="45.54883515719128" lon="11.865824996915716"><ele>23.799999999999997</ele><time>2026-04-16T11:35:29Z</time></trkpt><trkpt lat="45.54885609484299" lon="11.865968890136527"><ele>23.599999999999998</ele><time>2026-04-16T11:35:31Z</time></trkpt><trkpt lat="45.54887729078689" lon="11.866112285280758"><ele>23.4</ele><time>2026-04-16T11:35:33Z</time></trkpt><trkpt lat="45.54898524862548" lon="11.866193200823398"><ele>23.2</ele><time>2026-04-16T11:35:35Z</time></trkpt><trkpt lat="45.54899830333391" lon="11.866300149003095"><ele>23.0</ele><time>2026-04-16T11:35:38Z</time></trkpt><trkpt lat="45.549040802942926" lon="11.866394041750198"><ele>23.0</ele><time>2026-04-16T11:35:40Z</time></trkpt><trkpt lat="45.54906536656747" lon="11.866532032104582"><ele>23.0</ele><time>2026-04-16T11:35:42Z</time></trkpt><trkpt lat="45.549202820118495" lon="11.86663608824473"><ele>23.0</ele><time>2026-04-16T11:35:44Z</time></trkpt><trkpt lat="45.549230162333345" lon="11.866796526938133"><ele>23.0</ele><time>2026-04-16T11:35:46Z</time></trkpt><trkpt lat="45.54938163891312" lon="11.86773973728195"><ele>22.599999999999998</ele><time>2026-04-16T11:35:57Z</time></trkpt><trkpt lat="45.5493978822506" lon="11.867833380974474"><ele>22.2</ele><time>2026-04-16T11:35:58Z</time></trkpt><trkpt lat="45.54943568271468" lon="11.867995022421109"><ele>21.8</ele><time>2026-04-16T11:36:00Z</time></trkpt><trkpt lat="45.549489609270175" lon="11.868121632205167"><ele>21.4</ele><time>2026-04-16T11:36:02Z</time></trkpt><trkpt lat="45.549555812229315" lon="11.868269678800914"><ele>21.0</ele><time>2026-04-16T11:36:04Z</time></trkpt><trkpt lat="45.54958971413228" lon="11.868345492040758"><ele>21.333333333333332</ele><time>2026-04-16T11:36:05Z</time></trkpt><trkpt lat="45.549429301581625" lon="11.868813747663992"><ele>21.666666666666664</ele><time>2026-04-16T11:36:08Z</time></trkpt><trkpt lat="45.54945055095261" lon="11.868915383458605"><ele>22.0</ele><time>2026-04-16T11:36:09Z</time></trkpt><trkpt lat="45.5494706597178" lon="11.869012280231473"><ele>22.0</ele><time>2026-04-16T11:36:10Z</time></trkpt><trkpt lat="45.54948267074897" lon="11.869111984521115"><ele>22.0</ele><time>2026-04-16T11:36:11Z</time></trkpt><trkpt lat="45.5494996681625" lon="11.869207934996377"><ele>22.0</ele><time>2026-04-16T11:36:12Z</time></trkpt><trkpt lat="45.54950814207864" lon="11.86930266049297"><ele>22.0</ele><time>2026-04-16T11:36:13Z</time></trkpt><trkpt lat="45.54951665982747" lon="11.86939451953763"><ele>22.0</ele><time>2026-04-16T11:36:14Z</time></trkpt><trkpt lat="45.54953381807683" lon="11.869482083717141"><ele>22.0</ele><time>2026-04-16T11:36:15Z</time></trkpt><trkpt lat="45.549559245715116" lon="11.869566390086039"><ele>22.0</ele><time>2026-04-16T11:36:16Z</time></trkpt><trkpt lat="45.54957233667701" lon="11.869663779615454"><ele>22.0</ele><time>2026-04-16T11:36:17Z</time></trkpt><trkpt lat="45.549582591224635" lon="11.86976195456305"><ele>22.0</ele><time>2026-04-16T11:36:18Z</time></trkpt><trkpt lat="45.54960186504171" lon="11.86986115434338"><ele>22.0</ele><time>2026-04-16T11:36:19Z</time></trkpt><trkpt lat="45.549619000534875" lon="11.86995704434766"><ele>22.0</ele><time>2026-04-16T11:36:20Z</time></trkpt><trkpt lat="45.54963623567107" lon="11.87005332291778"><ele>22.0</ele><time>2026-04-16T11:36:21Z</time></trkpt><trkpt lat="45.54965318354048" lon="11.870152611498776"><ele>22.0</ele><time>2026-04-16T11:36:22Z</time></trkpt><trkpt lat="45.54967199372288" lon="11.870246752700234"><ele>22.0</ele><time>2026-04-16T11:36:23Z</time></trkpt><trkpt lat="45.54969146803122" lon="11.87034737566519"><ele>22.0</ele><time>2026-04-16T11:36:24Z</time></trkpt><trkpt lat="45.54970404292896" lon="11.870447420106695"><ele>22.0</ele><time>2026-04-16T11:36:25Z</time></trkpt><trkpt lat="45.54971626844254" lon="11.870551391742122"><ele>22.0</ele><time>2026-04-16T11:36:26Z</time></trkpt><trkpt lat="45.54972896580464" lon="11.870655059745111"><ele>22.0</ele><time>2026-04-16T11:36:27Z</time></trkpt><trkpt lat="45.54974758697154" lon="11.870753430947527"><ele>22.0</ele><time>2026-04-16T11:36:28Z</time></trkpt><trkpt lat="45.54976355489591" lon="11.870850781464988"><ele>22.0</ele><time>2026-04-16T11:36:29Z</time></trkpt><trkpt lat="45.54978184327896" lon="11.870944460030852"><ele>22.0</ele><time>2026-04-16T11:36:30Z</time></trkpt><trkpt lat="45.54979423611233" lon="11.871034676784829"><ele>21.6</ele><time>2026-04-16T11:36:31Z</time></trkpt><trkpt lat="45.54980747907665" lon="11.871123788253328"><ele>21.200000000000003</ele><time>2026-04-16T11:36:32Z</time></trkpt><trkpt lat="45.54984362546443" lon="11.87128989338884"><ele>20.8</ele><time>2026-04-16T11:36:34Z</time></trkpt><trkpt lat="45.549864159967115" lon="11.871452544854957"><ele>20.4</ele><time>2026-04-16T11:36:36Z</time></trkpt><trkpt lat="45.54987831198614" lon="11.871542112703523"><ele>20.0</ele><time>2026-04-16T11:36:37Z</time></trkpt><trkpt lat="45.549914287315325" lon="11.871720654457654"><ele>20.0</ele><time>2026-04-16T11:36:39Z</time></trkpt><trkpt lat="45.549946695446394" lon="11.871895864434212"><ele>20.0</ele><time>2026-04-16T11:36:41Z</time></trkpt><trkpt lat="45.54996338322957" lon="11.871985829237664"><ele>20.0</ele><time>2026-04-16T11:36:42Z</time></trkpt><trkpt lat="45.54997823817837" lon="11.872074701345152"><ele>20.0</ele><time>2026-04-16T11:36:43Z</time></trkpt><trkpt lat="45.550001958462715" lon="11.872237990464885"><ele>20.0</ele><time>2026-04-16T11:36:45Z</time></trkpt><trkpt lat="45.55046119112404" lon="11.875004702208575"><ele>20.166666666666668</ele><time>2026-04-16T11:37:47Z</time></trkpt><trkpt lat="45.55048058197856" lon="11.875095633629662"><ele>20.333333333333336</ele><time>2026-04-16T11:37:48Z</time></trkpt><trkpt lat="45.550515070682" lon="11.875272529143661"><ele>20.5</ele><time>2026-04-16T11:37:50Z</time></trkpt><trkpt lat="45.55053406237315" lon="11.87536244257129"><ele>20.666666666666668</ele><time>2026-04-16T11:37:51Z</time></trkpt><trkpt lat="45.55054813533104" lon="11.875454146711425"><ele>20.833333333333332</ele><time>2026-04-16T11:37:52Z</time></trkpt><trkpt lat="45.55055971347382" lon="11.875547895761215"><ele>21.0</ele><time>2026-04-16T11:37:53Z</time></trkpt><trkpt lat="45.55057480821436" lon="11.8756437010878"><ele>21.0</ele><time>2026-04-16T11:37:54Z</time></trkpt><trkpt lat="45.55058771748841" lon="11.875732086860198"><ele>21.0</ele><time>2026-04-16T11:37:55Z</time></trkpt><trkpt lat="45.55059709465925" lon="11.875826118886527"><ele>21.0</ele><time>2026-04-16T11:37:56Z</time></trkpt><trkpt lat="45.55061568586885" lon="11.875912330994982"><ele>21.0</ele><time>2026-04-16T11:37:57Z</time></trkpt><trkpt lat="45.55064993959988" lon="11.876068149671903"><ele>21.0</ele><time>2026-04-16T11:37:59Z</time></trkpt><trkpt lat="45.550670309180305" lon="11.876226234794006"><ele>21.0</ele><time>2026-04-16T11:38:01Z</time></trkpt><trkpt lat="45.55069802320717" lon="11.876386461190403"><ele>21.0</ele><time>2026-04-16T11:38:03Z</time></trkpt><trkpt lat="45.55072861014414" lon="11.876558548535966"><ele>21.0</ele><time>2026-04-16T11:38:05Z</time></trkpt><trkpt lat="45.55074077813625" lon="11.87664700102419"><ele>21.0</ele><time>2026-04-16T11:38:06Z</time></trkpt><trkpt lat="45.55075628943043" lon="11.876734349726327"><ele>21.0</ele><time>2026-04-16T11:38:07Z</time></trkpt><trkpt lat="45.55078359960392" lon="11.876903629417855"><ele>21.0</ele><time>2026-04-16T11:38:09Z</time></trkpt><trkpt lat="45.55080957360676" lon="11.877064895479812"><ele>21.200000000000003</ele><time>2026-04-16T11:38:11Z</time></trkpt><trkpt lat="45.550827850423175" lon="11.877216488276993"><ele>21.400000000000002</ele><time>2026-04-16T11:38:13Z</time></trkpt><trkpt lat="45.55086578006004" lon="11.877385109043678"><ele>21.6</ele><time>2026-04-16T11:38:15Z</time></trkpt><trkpt lat="45.55088205092137" lon="11.877480391532321"><ele>21.8</ele><time>2026-04-16T11:38:16Z</time></trkpt><trkpt lat="45.55089622443022" lon="11.877575664830374"><ele>22.0</ele><time>2026-04-16T11:38:17Z</time></trkpt><trkpt lat="45.55093032794275" lon="11.877741568526686"><ele>22.0</ele><time>2026-04-16T11:38:19Z</time></trkpt><trkpt lat="45.55093888138138" lon="11.877832576598006"><ele>22.0</ele><time>2026-04-16T11:38:20Z</time></trkpt><trkpt lat="45.55096884441671" lon="11.878004184933529"><ele>22.0</ele><time>2026-04-16T11:38:22Z</time></trkpt><trkpt lat="45.550984686290555" lon="11.87809478739789"><ele>22.0</ele><time>2026-04-16T11:38:23Z</time></trkpt><trkpt lat="45.55100251925495" lon="11.878182068890938"><ele>22.0</ele><time>2026-04-16T11:38:24Z</time></trkpt><trkpt lat="45.55101887791852" lon="11.87827520510199"><ele>22.0</ele><time>2026-04-16T11:38:25Z</time></trkpt><trkpt lat="45.5510335694398" lon="11.878368456225514"><ele>21.857142857142858</ele><time>2026-04-16T11:38:26Z</time></trkpt><trkpt lat="45.55104715940957" lon="11.878458581489788"><ele>21.714285714285715</ele><time>2026-04-16T11:38:27Z</time></trkpt><trkpt lat="45.551069042959895" lon="11.8785503415577"><ele>21.57142857142857</ele><time>2026-04-16T11:38:28Z</time></trkpt><trkpt lat="45.55108540468996" lon="11.87864199006613"><ele>21.42857142857143</ele><time>2026-04-16T11:38:29Z</time></trkpt><trkpt lat="45.551101114267915" lon="11.878735569530745"><ele>21.285714285714285</ele><time>2026-04-16T11:38:30Z</time></trkpt><trkpt lat="45.55112071001819" lon="11.87882992231905"><ele>21.142857142857142</ele><time>2026-04-16T11:38:31Z</time></trkpt><trkpt lat="45.551142435368526" lon="11.87891855220261"><ele>21.0</ele><time>2026-04-16T11:38:32Z</time></trkpt><trkpt lat="45.55115618372415" lon="11.879014109743897"><ele>21.0</ele><time>2026-04-16T11:38:33Z</time></trkpt><trkpt lat="45.5511731041525" lon="11.8791012454291"><ele>21.0</ele><time>2026-04-16T11:38:34Z</time></trkpt><trkpt lat="45.55119229228693" lon="11.879189437437777"><ele>21.0</ele><time>2026-04-16T11:38:35Z</time></trkpt><trkpt lat="45.551232944529076" lon="11.879350183733758"><ele>21.0</ele><time>2026-04-16T11:38:37Z</time></trkpt><trkpt lat="45.551255265775524" lon="11.87950744409836"><ele>21.0</ele><time>2026-04-16T11:38:39Z</time></trkpt><trkpt lat="45.55128958563911" lon="11.879663317117235"><ele>21.333333333333332</ele><time>2026-04-16T11:38:41Z</time></trkpt><trkpt lat="45.55132647702529" lon="11.87982731790139"><ele>21.666666666666664</ele><time>2026-04-16T11:38:43Z</time></trkpt><trkpt lat="45.551372081247436" lon="11.879984236473366"><ele>22.0</ele><time>2026-04-16T11:38:45Z</time></trkpt><trkpt lat="45.548789018569394" lon="11.880273492568582"><ele>22.0</ele><time>2026-04-16T11:39:47Z</time></trkpt><trkpt lat="45.548721116931645" lon="11.880245357191829"><ele>22.0</ele><time>2026-04-16T11:39:48Z</time></trkpt><trkpt lat="45.54865256583716" lon="11.880218963474922"><ele>22.0</ele><time>2026-04-16T11:39:49Z</time></trkpt><trkpt lat="45.54858571065815" lon="11.88018903656034"><ele>22.0</ele><time>2026-04-16T11:39:50Z</time></trkpt><trkpt lat="45.54851648037668" lon="11.880159906211311"><ele>22.0</ele><time>2026-04-16T11:39:51Z</time></trkpt><trkpt lat="45.548448937962526" lon="11.880130683537052"><ele>22.0</ele><time>2026-04-16T11:39:52Z</time></trkpt><trkpt lat="45.548383261384096" lon="11.880097421071817"><ele>22.0</ele><time>2026-04-16T11:39:53Z</time></trkpt><trkpt lat="45.548317889428326" lon="11.880066729171668"><ele>22.0</ele><time>2026-04-16T11:39:54Z</time></trkpt><trkpt lat="45.54825127510641" lon="11.880037033555793"><ele>22.0</ele><time>2026-04-16T11:39:55Z</time></trkpt><trkpt lat="45.54818508810569" lon="11.880005553199927"><ele>22.0</ele><time>2026-04-16T11:39:56Z</time></trkpt><trkpt lat="45.54811866653294" lon="11.879973524205685"><ele>22.0</ele><time>2026-04-16T11:39:57Z</time></trkpt><trkpt lat="45.54805001589041" lon="11.87994206283999"><ele>22.0</ele><time>2026-04-16T11:39:58Z</time></trkpt><trkpt lat="45.547984183553574" lon="11.879910348292636"><ele>22.0</ele><time>2026-04-16T11:39:59Z</time></trkpt><trkpt lat="45.54791555344525" lon="11.879878967255022"><ele>22.0</ele><time>2026-04-16T11:40:00Z</time></trkpt><trkpt lat="45.54784809058812" lon="11.879850158602123"><ele>21.857142857142858</ele><time>2026-04-16T11:40:01Z</time></trkpt><trkpt lat="45.54778047636783" lon="11.879822586637165"><ele>21.714285714285715</ele><time>2026-04-16T11:40:02Z</time></trkpt><trkpt lat="45.54771115310647" lon="11.87979291457599"><ele>21.57142857142857</ele><time>2026-04-16T11:40:03Z</time></trkpt><trkpt lat="45.547642888422885" lon="11.879766568556159"><ele>21.42857142857143</ele><time>2026-04-16T11:40:04Z</time></trkpt><trkpt lat="45.54757459562349" lon="11.879739684739437"><ele>21.285714285714285</ele><time>2026-04-16T11:40:05Z</time></trkpt><trkpt lat="45.54750815059542" lon="11.879716849916234"><ele>21.142857142857142</ele><time>2026-04-16T11:40:06Z</time></trkpt><trkpt lat="45.54743927959112" lon="11.879686270775482"><ele>21.0</ele><time>2026-04-16T11:40:07Z</time></trkpt><trkpt lat="45.547373377478124" lon="11.879660239114589"><ele>21.0</ele><time>2026-04-16T11:40:08Z</time></trkpt><trkpt lat="45.54730907981076" lon="11.879639486895206"><ele>21.0</ele><time>2026-04-16T11:40:09Z</time></trkpt><trkpt lat="45.54724667926329" lon="11.879618124673648"><ele>21.0</ele><time>2026-04-16T11:40:10Z</time></trkpt><trkpt lat="45.54712708855876" lon="11.879570696764329"><ele>21.0</ele><time>2026-04-16T11:40:12Z</time></trkpt><trkpt lat="45.54706094592487" lon="11.879547541396953"><ele>21.0</ele><time>2026-04-16T11:40:13Z</time></trkpt><trkpt lat="45.546992812054654" lon="11.879524341797962"><ele>21.0</ele><time>2026-04-16T11:40:14Z</time></trkpt><trkpt lat="45.546927229751226" lon="11.879496314307167"><ele>20.714285714285715</ele><time>2026-04-16T11:40:15Z</time></trkpt><trkpt lat="45.54685745301148" lon="11.879474968751518"><ele>20.42857142857143</ele><time>2026-04-16T11:40:16Z</time></trkpt><trkpt lat="45.5467884510326" lon="11.879449208877054"><ele>20.142857142857142</ele><time>2026-04-16T11:40:17Z</time></trkpt><trkpt lat="45.54671978264451" lon="11.879418693174664"><ele>19.857142857142858</ele><time>2026-04-16T11:40:18Z</time></trkpt><trkpt lat="45.54664815349852" lon="11.879394466463191"><ele>19.571428571428573</ele><time>2026-04-16T11:40:19Z</time></trkpt><trkpt lat="45.54657982139269" lon="11.879370354033638"><ele>19.285714285714285</ele><time>2026-04-16T11:40:20Z</time></trkpt><trkpt lat="45.546514370394874" lon="11.879342150949194"><ele>19.0</ele><time>2026-04-16T11:40:21Z</time></trkpt><trkpt lat="45.54644941659293" lon="11.879320840153698"><ele>19.0</ele><time>2026-04-16T11:40:22Z</time></trkpt><trkpt lat="45.546388064185145" lon="11.879292558161499"><ele>19.0</ele><time>2026-04-16T11:40:23Z</time></trkpt><trkpt lat="45.54632604196674" lon="11.87927119052881"><ele>19.0</ele><time>2026-04-16T11:40:24Z</time></trkpt><trkpt lat="45.546204504349845" lon="11.879218601995293"><ele>19.0</ele><time>2026-04-16T11:40:26Z</time></trkpt><trkpt lat="45.54614032691372" lon="11.879190145732501"><ele>19.0</ele><time>2026-04-16T11:40:27Z</time></trkpt><trkpt lat="45.546073394562015" lon="11.879170802440152"><ele>19.0</ele><time>2026-04-16T11:40:28Z</time></trkpt><trkpt lat="45.54600846870411" lon="11.87914539361984"><ele>19.428571428571427</ele><time>2026-04-16T11:40:29Z</time></trkpt><trkpt lat="45.54594359835216" lon="11.87911632065408"><ele>19.857142857142858</ele><time>2026-04-16T11:40:30Z</time></trkpt><trkpt lat="45.545877288393726" lon="11.879090271188279"><ele>20.285714285714285</ele><time>2026-04-16T11:40:31Z</time></trkpt><trkpt lat="45.54580975964092" lon="11.879064738460524"><ele>20.714285714285715</ele><time>2026-04-16T11:40:32Z</time></trkpt><trkpt lat="45.54574249162583" lon="11.879039361046306"><ele>21.142857142857142</ele><time>2026-04-16T11:40:33Z</time></trkpt><trkpt lat="45.5456799436432" lon="11.879009252146993"><ele>21.571428571428573</ele><time>2026-04-16T11:40:34Z</time></trkpt><trkpt lat="45.54561649165847" lon="11.878991503782052"><ele>22.0</ele><time>2026-04-16T11:40:35Z</time></trkpt><trkpt lat="45.5454940352752" lon="11.878939008163487"><ele>22.0</ele><time>2026-04-16T11:40:37Z</time></trkpt><trkpt lat="45.54542960806243" lon="11.878916825360854"><ele>22.0</ele><time>2026-04-16T11:40:38Z</time></trkpt><trkpt lat="45.545367306562454" lon="11.878893886740432"><ele>22.0</ele><time>2026-04-16T11:40:39Z</time></trkpt><trkpt lat="45.54530323376622" lon="11.8788690206724"><ele>22.0</ele><time>2026-04-16T11:40:40Z</time></trkpt><trkpt lat="45.54524194358218" lon="11.87884616468292"><ele>22.0</ele><time>2026-04-16T11:40:41Z</time></trkpt><trkpt lat="45.54512623354681" lon="11.878798962316832"><ele>22.0</ele><time>2026-04-16T11:40:43Z</time></trkpt><trkpt lat="45.545015584191155" lon="11.87875433851982"><ele>20.0</ele><time>2026-04-16T11:40:45Z</time></trkpt><trkpt lat="45.544295010082365" lon="11.88029871124248"><ele>20.0</ele><time>2026-04-16T11:41:47Z</time></trkpt></trkseg></trk></gpx>